<?xml version="1.0" encoding="UTF-8" standalone="no" ?>
<gpx xmlns="http://www.topografix.com/GPX/1/1" xmlns:xsi="http://www.w3.org/2001/XMLSchema-instance" xsi:schemaLocation="http://www.topografix.com/GPX/1/1 http://www.topografix.com/GPX/1/1/gpx.xsd" version="1.1" creator="VisuGPX - https://www.visugpx.com">
  <metadata>
    <name>Tour des Alpilles Gravel Mars 2024</name>
    <desc><![CDATA[Tracé trouvé sur le Net, fait 2 fois, et légèrement modifié.
Départ et arrivée d'Eygalières, dans le sens antihoraire, traversée du centre historique de Sy Rémy de Provence, Impossible de suive le tracé initial dans St Rémy.
Parcours Fabuleux, en majorité sur pistes et routes, passage au lac de Peïrou, et sur les crêtes des Alpilles, puis à proximité de St Etienne du Grès, retour par les Baux de Provence et piste très roulante sous le plateau de la Caume, jusqu'à Eygalières.
Notons qu'à 26 km du départ nous arrivons dans un lieu très confortable avec tables de pique nique ombragées, (la cabane du garde).]]></desc>
  </metadata>
  <trk>
    <name><![CDATA[2024-03-28 Tour des Alpilles Gravel 59km 1100m]]></name>
    <trkseg>
      <trkpt lat="43.76094" lon="4.94493">
        <ele>255.85</ele>
        <time>2024-03-28T08:25:04Z</time>
      </trkpt>
      <trkpt lat="43.76094" lon="4.94495">
        <ele>253.93</ele>
        <time>2024-03-28T08:25:29Z</time>
      </trkpt>
      <trkpt lat="43.76093" lon="4.94495">
        <ele>252.48</ele>
        <time>2024-03-28T08:25:44Z</time>
      </trkpt>
      <trkpt lat="43.76092" lon="4.94495">
        <ele>251.04</ele>
        <time>2024-03-28T08:26:00Z</time>
      </trkpt>
      <trkpt lat="43.7609" lon="4.94493">
        <ele>248.64</ele>
        <time>2024-03-28T08:26:25Z</time>
      </trkpt>
      <trkpt lat="43.76091" lon="4.94495">
        <ele>247.2</ele>
        <time>2024-03-28T08:26:43Z</time>
      </trkpt>
      <trkpt lat="43.76091" lon="4.94494">
        <ele>245.27</ele>
        <time>2024-03-28T08:27:13Z</time>
      </trkpt>
      <trkpt lat="43.76088" lon="4.94494">
        <ele>242.87</ele>
        <time>2024-03-28T08:27:37Z</time>
      </trkpt>
      <trkpt lat="43.7609" lon="4.94495">
        <ele>242.87</ele>
        <time>2024-03-28T08:27:51Z</time>
      </trkpt>
      <trkpt lat="43.7609" lon="4.94494">
        <ele>241.43</ele>
        <time>2024-03-28T08:27:54Z</time>
      </trkpt>
      <trkpt lat="43.7609" lon="4.94496">
        <ele>239.02</ele>
        <time>2024-03-28T08:28:23Z</time>
      </trkpt>
      <trkpt lat="43.76091" lon="4.94495">
        <ele>237.1</ele>
        <time>2024-03-28T08:28:50Z</time>
      </trkpt>
      <trkpt lat="43.76091" lon="4.94496">
        <ele>236.14</ele>
        <time>2024-03-28T08:29:07Z</time>
      </trkpt>
      <trkpt lat="43.76091" lon="4.94495">
        <ele>234.7</ele>
        <time>2024-03-28T08:29:23Z</time>
      </trkpt>
      <trkpt lat="43.76091" lon="4.94494">
        <ele>233.26</ele>
        <time>2024-03-28T08:29:46Z</time>
      </trkpt>
      <trkpt lat="43.76091" lon="4.94495">
        <ele>230.37</ele>
        <time>2024-03-28T08:30:10Z</time>
      </trkpt>
      <trkpt lat="43.7609" lon="4.94495">
        <ele>230.37</ele>
        <time>2024-03-28T08:30:30Z</time>
      </trkpt>
      <trkpt lat="43.7609" lon="4.94495">
        <ele>228.93</ele>
        <time>2024-03-28T08:30:53Z</time>
      </trkpt>
      <trkpt lat="43.76091" lon="4.94495">
        <ele>227.49</ele>
        <time>2024-03-28T08:31:13Z</time>
      </trkpt>
      <trkpt lat="43.76091" lon="4.94495">
        <ele>226.05</ele>
        <time>2024-03-28T08:31:16Z</time>
      </trkpt>
      <trkpt lat="43.7609" lon="4.94495">
        <ele>224.61</ele>
        <time>2024-03-28T08:31:35Z</time>
      </trkpt>
      <trkpt lat="43.76092" lon="4.94495">
        <ele>223.16</ele>
        <time>2024-03-28T08:31:58Z</time>
      </trkpt>
      <trkpt lat="43.76091" lon="4.94495">
        <ele>221.72</ele>
        <time>2024-03-28T08:32:18Z</time>
      </trkpt>
      <trkpt lat="43.7609" lon="4.94495">
        <ele>219.8</ele>
        <time>2024-03-28T08:32:45Z</time>
      </trkpt>
      <trkpt lat="43.7609" lon="4.94495">
        <ele>218.36</ele>
        <time>2024-03-28T08:33:04Z</time>
      </trkpt>
      <trkpt lat="43.76092" lon="4.94494">
        <ele>217.4</ele>
        <time>2024-03-28T08:33:23Z</time>
      </trkpt>
      <trkpt lat="43.76091" lon="4.94494">
        <ele>218.36</ele>
        <time>2024-03-28T08:33:27Z</time>
      </trkpt>
      <trkpt lat="43.76089" lon="4.94492">
        <ele>218.36</ele>
        <time>2024-03-28T08:33:31Z</time>
      </trkpt>
      <trkpt lat="43.7609" lon="4.94489">
        <ele>216.43</ele>
        <time>2024-03-28T08:33:38Z</time>
      </trkpt>
      <trkpt lat="43.7609" lon="4.94489">
        <ele>215.47</ele>
        <time>2024-03-28T08:33:53Z</time>
      </trkpt>
      <trkpt lat="43.76089" lon="4.94489">
        <ele>214.03</ele>
        <time>2024-03-28T08:34:03Z</time>
      </trkpt>
      <trkpt lat="43.76089" lon="4.94489">
        <ele>215.47</ele>
        <time>2024-03-28T08:34:05Z</time>
      </trkpt>
      <trkpt lat="43.76089" lon="4.94487">
        <ele>214.03</ele>
        <time>2024-03-28T08:34:15Z</time>
      </trkpt>
      <trkpt lat="43.76089" lon="4.94487">
        <ele>108.77</ele>
        <time>2024-03-28T08:34:18Z</time>
      </trkpt>
      <trkpt lat="43.76089" lon="4.94487">
        <ele>108.77</ele>
        <time>2024-03-28T08:34:19Z</time>
      </trkpt>
      <trkpt lat="43.76087" lon="4.94488">
        <ele>108.29</ele>
        <time>2024-03-28T08:34:40Z</time>
      </trkpt>
      <trkpt lat="43.76086" lon="4.94486">
        <ele>108.29</ele>
        <time>2024-03-28T08:34:42Z</time>
      </trkpt>
      <trkpt lat="43.76085" lon="4.94472">
        <ele>108.29</ele>
        <time>2024-03-28T08:34:53Z</time>
      </trkpt>
      <trkpt lat="43.76083" lon="4.94461">
        <ele>108.29</ele>
        <time>2024-03-28T08:35:01Z</time>
      </trkpt>
      <trkpt lat="43.76083" lon="4.94469">
        <ele>108.29</ele>
        <time>2024-03-28T08:35:07Z</time>
      </trkpt>
      <trkpt lat="43.76086" lon="4.94486">
        <ele>108.29</ele>
        <time>2024-03-28T08:35:18Z</time>
      </trkpt>
      <trkpt lat="43.7609" lon="4.94488">
        <ele>108.29</ele>
        <time>2024-03-28T08:35:28Z</time>
      </trkpt>
      <trkpt lat="43.76089" lon="4.94489">
        <ele>108.29</ele>
        <time>2024-03-28T08:35:39Z</time>
      </trkpt>
      <trkpt lat="43.76089" lon="4.94488">
        <ele>108.29</ele>
        <time>2024-03-28T08:35:54Z</time>
      </trkpt>
      <trkpt lat="43.76089" lon="4.94488">
        <ele>108.29</ele>
        <time>2024-03-28T08:36:11Z</time>
      </trkpt>
      <trkpt lat="43.7609" lon="4.94487">
        <ele>107.81</ele>
        <time>2024-03-28T08:36:29Z</time>
      </trkpt>
      <trkpt lat="43.76091" lon="4.94487">
        <ele>107.81</ele>
        <time>2024-03-28T08:36:56Z</time>
      </trkpt>
      <trkpt lat="43.7609" lon="4.94487">
        <ele>107.81</ele>
        <time>2024-03-28T08:37:14Z</time>
      </trkpt>
      <trkpt lat="43.76089" lon="4.94486">
        <ele>107.81</ele>
        <time>2024-03-28T08:37:31Z</time>
      </trkpt>
      <trkpt lat="43.76088" lon="4.94485">
        <ele>107.81</ele>
        <time>2024-03-28T08:37:52Z</time>
      </trkpt>
      <trkpt lat="43.76089" lon="4.94487">
        <ele>107.81</ele>
        <time>2024-03-28T08:38:13Z</time>
      </trkpt>
      <trkpt lat="43.76088" lon="4.94486">
        <ele>107.32</ele>
        <time>2024-03-28T08:38:28Z</time>
      </trkpt>
      <trkpt lat="43.76088" lon="4.94484">
        <ele>107.32</ele>
        <time>2024-03-28T08:38:47Z</time>
      </trkpt>
      <trkpt lat="43.76088" lon="4.94483">
        <ele>107.32</ele>
        <time>2024-03-28T08:38:48Z</time>
      </trkpt>
      <trkpt lat="43.76085" lon="4.94466">
        <ele>107.32</ele>
        <time>2024-03-28T08:38:58Z</time>
      </trkpt>
      <trkpt lat="43.76081" lon="4.94466">
        <ele>107.32</ele>
        <time>2024-03-28T08:39:02Z</time>
      </trkpt>
      <trkpt lat="43.76069" lon="4.94461">
        <ele>107.81</ele>
        <time>2024-03-28T08:39:10Z</time>
      </trkpt>
      <trkpt lat="43.76069" lon="4.94459">
        <ele>107.81</ele>
        <time>2024-03-28T08:39:11Z</time>
      </trkpt>
      <trkpt lat="43.76068" lon="4.94428">
        <ele>107.81</ele>
        <time>2024-03-28T08:39:23Z</time>
      </trkpt>
      <trkpt lat="43.76067" lon="4.94393">
        <ele>107.81</ele>
        <time>2024-03-28T08:39:34Z</time>
      </trkpt>
      <trkpt lat="43.76067" lon="4.94348">
        <ele>107.81</ele>
        <time>2024-03-28T08:39:47Z</time>
      </trkpt>
      <trkpt lat="43.76072" lon="4.94294">
        <ele>107.32</ele>
        <time>2024-03-28T08:40:01Z</time>
      </trkpt>
      <trkpt lat="43.7608" lon="4.94238">
        <ele>106.84</ele>
        <time>2024-03-28T08:40:14Z</time>
      </trkpt>
      <trkpt lat="43.76087" lon="4.9418">
        <ele>106.36</ele>
        <time>2024-03-28T08:40:27Z</time>
      </trkpt>
      <trkpt lat="43.76095" lon="4.94114">
        <ele>106.36</ele>
        <time>2024-03-28T08:40:41Z</time>
      </trkpt>
      <trkpt lat="43.76108" lon="4.94033">
        <ele>105.4</ele>
        <time>2024-03-28T08:40:56Z</time>
      </trkpt>
      <trkpt lat="43.76125" lon="4.93965">
        <ele>104.92</ele>
        <time>2024-03-28T08:41:08Z</time>
      </trkpt>
      <trkpt lat="43.76156" lon="4.93872">
        <ele>103.48</ele>
        <time>2024-03-28T08:41:25Z</time>
      </trkpt>
      <trkpt lat="43.76179" lon="4.93807">
        <ele>103.48</ele>
        <time>2024-03-28T08:41:39Z</time>
      </trkpt>
      <trkpt lat="43.762" lon="4.93758">
        <ele>103</ele>
        <time>2024-03-28T08:41:51Z</time>
      </trkpt>
      <trkpt lat="43.76203" lon="4.93743">
        <ele>102.52</ele>
        <time>2024-03-28T08:41:54Z</time>
      </trkpt>
      <trkpt lat="43.76203" lon="4.93735">
        <ele>102.52</ele>
        <time>2024-03-28T08:41:55Z</time>
      </trkpt>
      <trkpt lat="43.76203" lon="4.93732">
        <ele>102.52</ele>
        <time>2024-03-28T08:41:56Z</time>
      </trkpt>
      <trkpt lat="43.76198" lon="4.93669">
        <ele>102.52</ele>
        <time>2024-03-28T08:42:08Z</time>
      </trkpt>
      <trkpt lat="43.7619" lon="4.93627">
        <ele>103.48</ele>
        <time>2024-03-28T08:42:17Z</time>
      </trkpt>
      <trkpt lat="43.76175" lon="4.93565">
        <ele>105.4</ele>
        <time>2024-03-28T08:42:30Z</time>
      </trkpt>
      <trkpt lat="43.76164" lon="4.93514">
        <ele>107.32</ele>
        <time>2024-03-28T08:42:42Z</time>
      </trkpt>
      <trkpt lat="43.76153" lon="4.93469">
        <ele>109.73</ele>
        <time>2024-03-28T08:42:54Z</time>
      </trkpt>
      <trkpt lat="43.76134" lon="4.93441">
        <ele>110.21</ele>
        <time>2024-03-28T08:43:03Z</time>
      </trkpt>
      <trkpt lat="43.76102" lon="4.93446">
        <ele>109.25</ele>
        <time>2024-03-28T08:43:12Z</time>
      </trkpt>
      <trkpt lat="43.76096" lon="4.93443">
        <ele>109.25</ele>
        <time>2024-03-28T08:43:14Z</time>
      </trkpt>
      <trkpt lat="43.76094" lon="4.9344">
        <ele>109.25</ele>
        <time>2024-03-28T08:43:15Z</time>
      </trkpt>
      <trkpt lat="43.7606" lon="4.93409">
        <ele>108.77</ele>
        <time>2024-03-28T08:43:26Z</time>
      </trkpt>
      <trkpt lat="43.76023" lon="4.93381">
        <ele>109.73</ele>
        <time>2024-03-28T08:43:38Z</time>
      </trkpt>
      <trkpt lat="43.75981" lon="4.93339">
        <ele>110.69</ele>
        <time>2024-03-28T08:43:53Z</time>
      </trkpt>
      <trkpt lat="43.75952" lon="4.93308">
        <ele>112.13</ele>
        <time>2024-03-28T08:44:04Z</time>
      </trkpt>
      <trkpt lat="43.75916" lon="4.93284">
        <ele>115.01</ele>
        <time>2024-03-28T08:44:16Z</time>
      </trkpt>
      <trkpt lat="43.75889" lon="4.93265">
        <ele>117.9</ele>
        <time>2024-03-28T08:44:26Z</time>
      </trkpt>
      <trkpt lat="43.75856" lon="4.93236">
        <ele>120.3</ele>
        <time>2024-03-28T08:44:41Z</time>
      </trkpt>
      <trkpt lat="43.75845" lon="4.93203">
        <ele>122.22</ele>
        <time>2024-03-28T08:44:51Z</time>
      </trkpt>
      <trkpt lat="43.75836" lon="4.93156">
        <ele>124.15</ele>
        <time>2024-03-28T08:45:03Z</time>
      </trkpt>
      <trkpt lat="43.75824" lon="4.93113">
        <ele>127.03</ele>
        <time>2024-03-28T08:45:15Z</time>
      </trkpt>
      <trkpt lat="43.75811" lon="4.93066">
        <ele>129.43</ele>
        <time>2024-03-28T08:45:28Z</time>
      </trkpt>
      <trkpt lat="43.75807" lon="4.93019">
        <ele>131.84</ele>
        <time>2024-03-28T08:45:41Z</time>
      </trkpt>
      <trkpt lat="43.75802" lon="4.92957">
        <ele>131.84</ele>
        <time>2024-03-28T08:45:56Z</time>
      </trkpt>
      <trkpt lat="43.75795" lon="4.92894">
        <ele>132.8</ele>
        <time>2024-03-28T08:46:11Z</time>
      </trkpt>
      <trkpt lat="43.75792" lon="4.9285">
        <ele>132.8</ele>
        <time>2024-03-28T08:46:22Z</time>
      </trkpt>
      <trkpt lat="43.75795" lon="4.92807">
        <ele>132.8</ele>
        <time>2024-03-28T08:46:33Z</time>
      </trkpt>
      <trkpt lat="43.75797" lon="4.92749">
        <ele>133.76</ele>
        <time>2024-03-28T08:46:46Z</time>
      </trkpt>
      <trkpt lat="43.75801" lon="4.92708">
        <ele>134.24</ele>
        <time>2024-03-28T08:46:56Z</time>
      </trkpt>
      <trkpt lat="43.75804" lon="4.92689">
        <ele>132.8</ele>
        <time>2024-03-28T08:47:00Z</time>
      </trkpt>
      <trkpt lat="43.75819" lon="4.92648">
        <ele>130.4</ele>
        <time>2024-03-28T08:47:10Z</time>
      </trkpt>
      <trkpt lat="43.7582" lon="4.9264">
        <ele>129.92</ele>
        <time>2024-03-28T08:47:13Z</time>
      </trkpt>
      <trkpt lat="43.75819" lon="4.92637">
        <ele>129.92</ele>
        <time>2024-03-28T08:47:14Z</time>
      </trkpt>
      <trkpt lat="43.75817" lon="4.92635">
        <ele>129.92</ele>
        <time>2024-03-28T08:47:15Z</time>
      </trkpt>
      <trkpt lat="43.75793" lon="4.92629">
        <ele>128.47</ele>
        <time>2024-03-28T08:47:23Z</time>
      </trkpt>
      <trkpt lat="43.75788" lon="4.92625">
        <ele>127.99</ele>
        <time>2024-03-28T08:47:25Z</time>
      </trkpt>
      <trkpt lat="43.75762" lon="4.92596">
        <ele>127.03</ele>
        <time>2024-03-28T08:47:36Z</time>
      </trkpt>
      <trkpt lat="43.75737" lon="4.92561">
        <ele>126.07</ele>
        <time>2024-03-28T08:47:46Z</time>
      </trkpt>
      <trkpt lat="43.75712" lon="4.92534">
        <ele>125.59</ele>
        <time>2024-03-28T08:47:57Z</time>
      </trkpt>
      <trkpt lat="43.75707" lon="4.92532">
        <ele>125.59</ele>
        <time>2024-03-28T08:48:00Z</time>
      </trkpt>
      <trkpt lat="43.75706" lon="4.9253">
        <ele>125.59</ele>
        <time>2024-03-28T08:48:01Z</time>
      </trkpt>
      <trkpt lat="43.75695" lon="4.925">
        <ele>123.19</ele>
        <time>2024-03-28T08:48:12Z</time>
      </trkpt>
      <trkpt lat="43.75694" lon="4.92476">
        <ele>121.74</ele>
        <time>2024-03-28T08:48:21Z</time>
      </trkpt>
      <trkpt lat="43.75698" lon="4.92449">
        <ele>119.82</ele>
        <time>2024-03-28T08:48:29Z</time>
      </trkpt>
      <trkpt lat="43.75713" lon="4.92438">
        <ele>119.34</ele>
        <time>2024-03-28T08:48:36Z</time>
      </trkpt>
      <trkpt lat="43.75744" lon="4.92414">
        <ele>117.9</ele>
        <time>2024-03-28T08:48:48Z</time>
      </trkpt>
      <trkpt lat="43.75753" lon="4.92392">
        <ele>117.42</ele>
        <time>2024-03-28T08:48:56Z</time>
      </trkpt>
      <trkpt lat="43.75748" lon="4.92374">
        <ele>117.42</ele>
        <time>2024-03-28T08:49:05Z</time>
      </trkpt>
      <trkpt lat="43.75742" lon="4.92366">
        <ele>116.46</ele>
        <time>2024-03-28T08:49:10Z</time>
      </trkpt>
      <trkpt lat="43.75742" lon="4.92364">
        <ele>116.46</ele>
        <time>2024-03-28T08:49:11Z</time>
      </trkpt>
      <trkpt lat="43.75741" lon="4.92362">
        <ele>115.98</ele>
        <time>2024-03-28T08:49:12Z</time>
      </trkpt>
      <trkpt lat="43.75741" lon="4.9236">
        <ele>115.98</ele>
        <time>2024-03-28T08:49:13Z</time>
      </trkpt>
      <trkpt lat="43.75741" lon="4.92358">
        <ele>115.98</ele>
        <time>2024-03-28T08:49:14Z</time>
      </trkpt>
      <trkpt lat="43.75743" lon="4.92351">
        <ele>115.98</ele>
        <time>2024-03-28T08:49:24Z</time>
      </trkpt>
      <trkpt lat="43.75742" lon="4.9235">
        <ele>115.98</ele>
        <time>2024-03-28T08:49:42Z</time>
      </trkpt>
      <trkpt lat="43.75744" lon="4.92348">
        <ele>115.98</ele>
        <time>2024-03-28T08:49:45Z</time>
      </trkpt>
      <trkpt lat="43.75745" lon="4.92346">
        <ele>115.98</ele>
        <time>2024-03-28T08:49:46Z</time>
      </trkpt>
      <trkpt lat="43.75746" lon="4.92343">
        <ele>115.98</ele>
        <time>2024-03-28T08:49:47Z</time>
      </trkpt>
      <trkpt lat="43.75751" lon="4.92324">
        <ele>117.42</ele>
        <time>2024-03-28T08:49:52Z</time>
      </trkpt>
      <trkpt lat="43.75757" lon="4.92302">
        <ele>120.3</ele>
        <time>2024-03-28T08:50:01Z</time>
      </trkpt>
      <trkpt lat="43.75758" lon="4.92301">
        <ele>119.82</ele>
        <time>2024-03-28T08:50:05Z</time>
      </trkpt>
      <trkpt lat="43.75759" lon="4.923">
        <ele>119.82</ele>
        <time>2024-03-28T08:50:06Z</time>
      </trkpt>
      <trkpt lat="43.75761" lon="4.92299">
        <ele>119.82</ele>
        <time>2024-03-28T08:50:07Z</time>
      </trkpt>
      <trkpt lat="43.75785" lon="4.92284">
        <ele>117.9</ele>
        <time>2024-03-28T08:50:16Z</time>
      </trkpt>
      <trkpt lat="43.7581" lon="4.92244">
        <ele>117.42</ele>
        <time>2024-03-28T08:50:27Z</time>
      </trkpt>
      <trkpt lat="43.75835" lon="4.92209">
        <ele>117.9</ele>
        <time>2024-03-28T08:50:37Z</time>
      </trkpt>
      <trkpt lat="43.75855" lon="4.92174">
        <ele>117.9</ele>
        <time>2024-03-28T08:50:49Z</time>
      </trkpt>
      <trkpt lat="43.75856" lon="4.92173">
        <ele>117.9</ele>
        <time>2024-03-28T08:50:50Z</time>
      </trkpt>
      <trkpt lat="43.75857" lon="4.92171">
        <ele>117.9</ele>
        <time>2024-03-28T08:50:51Z</time>
      </trkpt>
      <trkpt lat="43.75858" lon="4.92168">
        <ele>118.86</ele>
        <time>2024-03-28T08:50:52Z</time>
      </trkpt>
      <trkpt lat="43.75859" lon="4.92165">
        <ele>118.86</ele>
        <time>2024-03-28T08:50:53Z</time>
      </trkpt>
      <trkpt lat="43.75861" lon="4.92162">
        <ele>118.86</ele>
        <time>2024-03-28T08:50:54Z</time>
      </trkpt>
      <trkpt lat="43.75863" lon="4.92158">
        <ele>118.86</ele>
        <time>2024-03-28T08:50:55Z</time>
      </trkpt>
      <trkpt lat="43.75865" lon="4.92154">
        <ele>118.86</ele>
        <time>2024-03-28T08:50:56Z</time>
      </trkpt>
      <trkpt lat="43.75867" lon="4.92151">
        <ele>118.86</ele>
        <time>2024-03-28T08:50:57Z</time>
      </trkpt>
      <trkpt lat="43.75869" lon="4.92147">
        <ele>118.86</ele>
        <time>2024-03-28T08:50:58Z</time>
      </trkpt>
      <trkpt lat="43.75871" lon="4.92144">
        <ele>118.86</ele>
        <time>2024-03-28T08:50:59Z</time>
      </trkpt>
      <trkpt lat="43.75897" lon="4.92106">
        <ele>117.9</ele>
        <time>2024-03-28T08:51:09Z</time>
      </trkpt>
      <trkpt lat="43.75919" lon="4.92066">
        <ele>117.9</ele>
        <time>2024-03-28T08:51:19Z</time>
      </trkpt>
      <trkpt lat="43.75944" lon="4.92041">
        <ele>117.9</ele>
        <time>2024-03-28T08:51:28Z</time>
      </trkpt>
      <trkpt lat="43.75966" lon="4.92013">
        <ele>116.94</ele>
        <time>2024-03-28T08:51:37Z</time>
      </trkpt>
      <trkpt lat="43.75987" lon="4.91983">
        <ele>116.94</ele>
        <time>2024-03-28T08:51:46Z</time>
      </trkpt>
      <trkpt lat="43.76012" lon="4.91947">
        <ele>116.94</ele>
        <time>2024-03-28T08:51:57Z</time>
      </trkpt>
      <trkpt lat="43.7603" lon="4.91919">
        <ele>116.94</ele>
        <time>2024-03-28T08:52:05Z</time>
      </trkpt>
      <trkpt lat="43.76043" lon="4.91892">
        <ele>116.94</ele>
        <time>2024-03-28T08:52:12Z</time>
      </trkpt>
      <trkpt lat="43.76057" lon="4.91871">
        <ele>116.94</ele>
        <time>2024-03-28T08:52:19Z</time>
      </trkpt>
      <trkpt lat="43.76057" lon="4.91868">
        <ele>116.94</ele>
        <time>2024-03-28T08:52:20Z</time>
      </trkpt>
      <trkpt lat="43.76058" lon="4.91863">
        <ele>116.94</ele>
        <time>2024-03-28T08:52:22Z</time>
      </trkpt>
      <trkpt lat="43.76059" lon="4.9186">
        <ele>116.94</ele>
        <time>2024-03-28T08:52:23Z</time>
      </trkpt>
      <trkpt lat="43.7606" lon="4.91856">
        <ele>116.94</ele>
        <time>2024-03-28T08:52:24Z</time>
      </trkpt>
      <trkpt lat="43.76061" lon="4.91852">
        <ele>116.94</ele>
        <time>2024-03-28T08:52:25Z</time>
      </trkpt>
      <trkpt lat="43.76062" lon="4.91849">
        <ele>116.94</ele>
        <time>2024-03-28T08:52:26Z</time>
      </trkpt>
      <trkpt lat="43.76063" lon="4.91845">
        <ele>116.94</ele>
        <time>2024-03-28T08:52:27Z</time>
      </trkpt>
      <trkpt lat="43.76065" lon="4.91842">
        <ele>118.38</ele>
        <time>2024-03-28T08:52:28Z</time>
      </trkpt>
      <trkpt lat="43.76067" lon="4.91839">
        <ele>118.38</ele>
        <time>2024-03-28T08:52:29Z</time>
      </trkpt>
      <trkpt lat="43.76069" lon="4.91836">
        <ele>118.86</ele>
        <time>2024-03-28T08:52:30Z</time>
      </trkpt>
      <trkpt lat="43.76088" lon="4.91806">
        <ele>119.34</ele>
        <time>2024-03-28T08:52:39Z</time>
      </trkpt>
      <trkpt lat="43.76113" lon="4.91774">
        <ele>119.34</ele>
        <time>2024-03-28T08:52:49Z</time>
      </trkpt>
      <trkpt lat="43.76133" lon="4.91745">
        <ele>119.34</ele>
        <time>2024-03-28T08:52:58Z</time>
      </trkpt>
      <trkpt lat="43.76161" lon="4.91712">
        <ele>119.34</ele>
        <time>2024-03-28T08:53:07Z</time>
      </trkpt>
      <trkpt lat="43.76169" lon="4.91701">
        <ele>118.38</ele>
        <time>2024-03-28T08:53:10Z</time>
      </trkpt>
      <trkpt lat="43.76194" lon="4.91677">
        <ele>118.38</ele>
        <time>2024-03-28T08:53:19Z</time>
      </trkpt>
      <trkpt lat="43.76219" lon="4.91655">
        <ele>118.38</ele>
        <time>2024-03-28T08:53:28Z</time>
      </trkpt>
      <trkpt lat="43.76244" lon="4.91648">
        <ele>119.82</ele>
        <time>2024-03-28T08:53:36Z</time>
      </trkpt>
      <trkpt lat="43.76276" lon="4.91629">
        <ele>122.22</ele>
        <time>2024-03-28T08:53:47Z</time>
      </trkpt>
      <trkpt lat="43.76307" lon="4.91597">
        <ele>120.78</ele>
        <time>2024-03-28T08:53:58Z</time>
      </trkpt>
      <trkpt lat="43.7633" lon="4.91583">
        <ele>117.9</ele>
        <time>2024-03-28T08:54:03Z</time>
      </trkpt>
      <trkpt lat="43.76342" lon="4.91576">
        <ele>116.46</ele>
        <time>2024-03-28T08:54:05Z</time>
      </trkpt>
      <trkpt lat="43.76373" lon="4.91552">
        <ele>113.09</ele>
        <time>2024-03-28T08:54:10Z</time>
      </trkpt>
      <trkpt lat="43.7638" lon="4.91548">
        <ele>113.09</ele>
        <time>2024-03-28T08:54:11Z</time>
      </trkpt>
      <trkpt lat="43.76435" lon="4.91508">
        <ele>109.25</ele>
        <time>2024-03-28T08:54:20Z</time>
      </trkpt>
      <trkpt lat="43.76502" lon="4.91461">
        <ele>107.81</ele>
        <time>2024-03-28T08:54:33Z</time>
      </trkpt>
      <trkpt lat="43.76564" lon="4.91417">
        <ele>105.88</ele>
        <time>2024-03-28T08:54:47Z</time>
      </trkpt>
      <trkpt lat="43.76633" lon="4.91369">
        <ele>103.96</ele>
        <time>2024-03-28T08:55:02Z</time>
      </trkpt>
      <trkpt lat="43.7671" lon="4.91314">
        <ele>101.08</ele>
        <time>2024-03-28T08:55:19Z</time>
      </trkpt>
      <trkpt lat="43.76797" lon="4.91251">
        <ele>98.67</ele>
        <time>2024-03-28T08:55:39Z</time>
      </trkpt>
      <trkpt lat="43.76828" lon="4.91232">
        <ele>97.71</ele>
        <time>2024-03-28T08:55:46Z</time>
      </trkpt>
      <trkpt lat="43.76832" lon="4.9123">
        <ele>97.23</ele>
        <time>2024-03-28T08:55:47Z</time>
      </trkpt>
      <trkpt lat="43.76837" lon="4.91227">
        <ele>97.23</ele>
        <time>2024-03-28T08:55:48Z</time>
      </trkpt>
      <trkpt lat="43.76863" lon="4.91209">
        <ele>96.75</ele>
        <time>2024-03-28T08:55:54Z</time>
      </trkpt>
      <trkpt lat="43.76871" lon="4.91203">
        <ele>96.27</ele>
        <time>2024-03-28T08:55:56Z</time>
      </trkpt>
      <trkpt lat="43.76875" lon="4.912">
        <ele>96.27</ele>
        <time>2024-03-28T08:55:57Z</time>
      </trkpt>
      <trkpt lat="43.76935" lon="4.91159">
        <ele>94.35</ele>
        <time>2024-03-28T08:56:11Z</time>
      </trkpt>
      <trkpt lat="43.76988" lon="4.91124">
        <ele>92.42</ele>
        <time>2024-03-28T08:56:24Z</time>
      </trkpt>
      <trkpt lat="43.77014" lon="4.91105">
        <ele>91.94</ele>
        <time>2024-03-28T08:56:30Z</time>
      </trkpt>
      <trkpt lat="43.7702" lon="4.91098">
        <ele>91.46</ele>
        <time>2024-03-28T08:56:32Z</time>
      </trkpt>
      <trkpt lat="43.77024" lon="4.91093">
        <ele>91.46</ele>
        <time>2024-03-28T08:56:33Z</time>
      </trkpt>
      <trkpt lat="43.77056" lon="4.91043">
        <ele>90.5</ele>
        <time>2024-03-28T08:56:45Z</time>
      </trkpt>
      <trkpt lat="43.77098" lon="4.90967">
        <ele>89.06</ele>
        <time>2024-03-28T08:57:01Z</time>
      </trkpt>
      <trkpt lat="43.77126" lon="4.90898">
        <ele>88.1</ele>
        <time>2024-03-28T08:57:14Z</time>
      </trkpt>
      <trkpt lat="43.7716" lon="4.90816">
        <ele>87.14</ele>
        <time>2024-03-28T08:57:29Z</time>
      </trkpt>
      <trkpt lat="43.77162" lon="4.9081">
        <ele>87.14</ele>
        <time>2024-03-28T08:57:30Z</time>
      </trkpt>
      <trkpt lat="43.77192" lon="4.90728">
        <ele>86.18</ele>
        <time>2024-03-28T08:57:44Z</time>
      </trkpt>
      <trkpt lat="43.7722" lon="4.90649">
        <ele>85.69</ele>
        <time>2024-03-28T08:57:58Z</time>
      </trkpt>
      <trkpt lat="43.77253" lon="4.90575">
        <ele>84.73</ele>
        <time>2024-03-28T08:58:12Z</time>
      </trkpt>
      <trkpt lat="43.77285" lon="4.90498">
        <ele>84.25</ele>
        <time>2024-03-28T08:58:26Z</time>
      </trkpt>
      <trkpt lat="43.7732" lon="4.90413">
        <ele>82.81</ele>
        <time>2024-03-28T08:58:42Z</time>
      </trkpt>
      <trkpt lat="43.77347" lon="4.90328">
        <ele>82.33</ele>
        <time>2024-03-28T08:58:57Z</time>
      </trkpt>
      <trkpt lat="43.77372" lon="4.90247">
        <ele>81.85</ele>
        <time>2024-03-28T08:59:12Z</time>
      </trkpt>
      <trkpt lat="43.77392" lon="4.90154">
        <ele>80.89</ele>
        <time>2024-03-28T08:59:28Z</time>
      </trkpt>
      <trkpt lat="43.77404" lon="4.90097">
        <ele>80.89</ele>
        <time>2024-03-28T08:59:38Z</time>
      </trkpt>
      <trkpt lat="43.77404" lon="4.90091">
        <ele>80.41</ele>
        <time>2024-03-28T08:59:39Z</time>
      </trkpt>
      <trkpt lat="43.77404" lon="4.90077">
        <ele>80.41</ele>
        <time>2024-03-28T08:59:41Z</time>
      </trkpt>
      <trkpt lat="43.77405" lon="4.90074">
        <ele>80.41</ele>
        <time>2024-03-28T08:59:42Z</time>
      </trkpt>
      <trkpt lat="43.77406" lon="4.90068">
        <ele>80.41</ele>
        <time>2024-03-28T08:59:43Z</time>
      </trkpt>
      <trkpt lat="43.77407" lon="4.90065">
        <ele>80.41</ele>
        <time>2024-03-28T08:59:44Z</time>
      </trkpt>
      <trkpt lat="43.7741" lon="4.9006">
        <ele>80.41</ele>
        <time>2024-03-28T08:59:45Z</time>
      </trkpt>
      <trkpt lat="43.77412" lon="4.90055">
        <ele>80.41</ele>
        <time>2024-03-28T08:59:46Z</time>
      </trkpt>
      <trkpt lat="43.77414" lon="4.9005">
        <ele>80.41</ele>
        <time>2024-03-28T08:59:47Z</time>
      </trkpt>
      <trkpt lat="43.77418" lon="4.90039">
        <ele>80.41</ele>
        <time>2024-03-28T08:59:49Z</time>
      </trkpt>
      <trkpt lat="43.7742" lon="4.90034">
        <ele>80.41</ele>
        <time>2024-03-28T08:59:50Z</time>
      </trkpt>
      <trkpt lat="43.77451" lon="4.89973">
        <ele>78.97</ele>
        <time>2024-03-28T09:00:02Z</time>
      </trkpt>
      <trkpt lat="43.7746" lon="4.89957">
        <ele>78.97</ele>
        <time>2024-03-28T09:00:05Z</time>
      </trkpt>
      <trkpt lat="43.77463" lon="4.89951">
        <ele>78.97</ele>
        <time>2024-03-28T09:00:06Z</time>
      </trkpt>
      <trkpt lat="43.77469" lon="4.89934">
        <ele>78.97</ele>
        <time>2024-03-28T09:00:09Z</time>
      </trkpt>
      <trkpt lat="43.7747" lon="4.89928">
        <ele>78.97</ele>
        <time>2024-03-28T09:00:10Z</time>
      </trkpt>
      <trkpt lat="43.77498" lon="4.89857">
        <ele>78.97</ele>
        <time>2024-03-28T09:00:23Z</time>
      </trkpt>
      <trkpt lat="43.77519" lon="4.89799">
        <ele>78.97</ele>
        <time>2024-03-28T09:00:34Z</time>
      </trkpt>
      <trkpt lat="43.77521" lon="4.89793">
        <ele>78.97</ele>
        <time>2024-03-28T09:00:35Z</time>
      </trkpt>
      <trkpt lat="43.77524" lon="4.89788">
        <ele>78.97</ele>
        <time>2024-03-28T09:00:36Z</time>
      </trkpt>
      <trkpt lat="43.77529" lon="4.89778">
        <ele>78.97</ele>
        <time>2024-03-28T09:00:38Z</time>
      </trkpt>
      <trkpt lat="43.77561" lon="4.89716">
        <ele>78.97</ele>
        <time>2024-03-28T09:00:50Z</time>
      </trkpt>
      <trkpt lat="43.7758" lon="4.8967">
        <ele>78.97</ele>
        <time>2024-03-28T09:01:00Z</time>
      </trkpt>
      <trkpt lat="43.77584" lon="4.89665">
        <ele>78.97</ele>
        <time>2024-03-28T09:01:03Z</time>
      </trkpt>
      <trkpt lat="43.77585" lon="4.89663">
        <ele>78.97</ele>
        <time>2024-03-28T09:01:04Z</time>
      </trkpt>
      <trkpt lat="43.77586" lon="4.89661">
        <ele>78.97</ele>
        <time>2024-03-28T09:01:05Z</time>
      </trkpt>
      <trkpt lat="43.77598" lon="4.89635">
        <ele>78.97</ele>
        <time>2024-03-28T09:01:15Z</time>
      </trkpt>
      <trkpt lat="43.77618" lon="4.89588">
        <ele>78.97</ele>
        <time>2024-03-28T09:01:28Z</time>
      </trkpt>
      <trkpt lat="43.77639" lon="4.89528">
        <ele>78.97</ele>
        <time>2024-03-28T09:01:41Z</time>
      </trkpt>
      <trkpt lat="43.77641" lon="4.89523">
        <ele>78.97</ele>
        <time>2024-03-28T09:01:42Z</time>
      </trkpt>
      <trkpt lat="43.77665" lon="4.89462">
        <ele>78.48</ele>
        <time>2024-03-28T09:01:54Z</time>
      </trkpt>
      <trkpt lat="43.77678" lon="4.89426">
        <ele>78.48</ele>
        <time>2024-03-28T09:02:04Z</time>
      </trkpt>
      <trkpt lat="43.77671" lon="4.89396">
        <ele>78.48</ele>
        <time>2024-03-28T09:02:11Z</time>
      </trkpt>
      <trkpt lat="43.77675" lon="4.89347">
        <ele>78.48</ele>
        <time>2024-03-28T09:02:21Z</time>
      </trkpt>
      <trkpt lat="43.7768" lon="4.89271">
        <ele>78.48</ele>
        <time>2024-03-28T09:02:35Z</time>
      </trkpt>
      <trkpt lat="43.77692" lon="4.89196">
        <ele>78.48</ele>
        <time>2024-03-28T09:02:49Z</time>
      </trkpt>
      <trkpt lat="43.77693" lon="4.89138">
        <ele>79.45</ele>
        <time>2024-03-28T09:03:00Z</time>
      </trkpt>
      <trkpt lat="43.77696" lon="4.89054">
        <ele>81.37</ele>
        <time>2024-03-28T09:03:16Z</time>
      </trkpt>
      <trkpt lat="43.77698" lon="4.88999">
        <ele>82.33</ele>
        <time>2024-03-28T09:03:28Z</time>
      </trkpt>
      <trkpt lat="43.777" lon="4.88976">
        <ele>82.81</ele>
        <time>2024-03-28T09:03:37Z</time>
      </trkpt>
      <trkpt lat="43.77694" lon="4.88926">
        <ele>82.81</ele>
        <time>2024-03-28T09:03:48Z</time>
      </trkpt>
      <trkpt lat="43.77683" lon="4.88852">
        <ele>83.29</ele>
        <time>2024-03-28T09:04:03Z</time>
      </trkpt>
      <trkpt lat="43.77675" lon="4.88789">
        <ele>83.29</ele>
        <time>2024-03-28T09:04:15Z</time>
      </trkpt>
      <trkpt lat="43.77669" lon="4.88751">
        <ele>84.25</ele>
        <time>2024-03-28T09:04:25Z</time>
      </trkpt>
      <trkpt lat="43.77668" lon="4.88749">
        <ele>84.73</ele>
        <time>2024-03-28T09:04:26Z</time>
      </trkpt>
      <trkpt lat="43.77661" lon="4.88717">
        <ele>84.73</ele>
        <time>2024-03-28T09:04:34Z</time>
      </trkpt>
      <trkpt lat="43.77662" lon="4.88668">
        <ele>85.69</ele>
        <time>2024-03-28T09:04:44Z</time>
      </trkpt>
      <trkpt lat="43.77664" lon="4.88603">
        <ele>85.69</ele>
        <time>2024-03-28T09:04:55Z</time>
      </trkpt>
      <trkpt lat="43.77673" lon="4.88526">
        <ele>85.69</ele>
        <time>2024-03-28T09:05:09Z</time>
      </trkpt>
      <trkpt lat="43.77675" lon="4.88488">
        <ele>86.18</ele>
        <time>2024-03-28T09:05:16Z</time>
      </trkpt>
      <trkpt lat="43.77676" lon="4.88483">
        <ele>86.18</ele>
        <time>2024-03-28T09:05:17Z</time>
      </trkpt>
      <trkpt lat="43.77678" lon="4.88457">
        <ele>84.73</ele>
        <time>2024-03-28T09:05:21Z</time>
      </trkpt>
      <trkpt lat="43.77681" lon="4.88437">
        <ele>84.25</ele>
        <time>2024-03-28T09:05:24Z</time>
      </trkpt>
      <trkpt lat="43.77683" lon="4.8843">
        <ele>84.25</ele>
        <time>2024-03-28T09:05:25Z</time>
      </trkpt>
      <trkpt lat="43.77684" lon="4.88423">
        <ele>84.25</ele>
        <time>2024-03-28T09:05:26Z</time>
      </trkpt>
      <trkpt lat="43.77702" lon="4.88347">
        <ele>82.81</ele>
        <time>2024-03-28T09:05:37Z</time>
      </trkpt>
      <trkpt lat="43.77706" lon="4.88334">
        <ele>82.81</ele>
        <time>2024-03-28T09:05:39Z</time>
      </trkpt>
      <trkpt lat="43.7771" lon="4.88325">
        <ele>82.33</ele>
        <time>2024-03-28T09:05:41Z</time>
      </trkpt>
      <trkpt lat="43.77714" lon="4.88316">
        <ele>82.81</ele>
        <time>2024-03-28T09:05:42Z</time>
      </trkpt>
      <trkpt lat="43.77726" lon="4.88296">
        <ele>82.81</ele>
        <time>2024-03-28T09:05:46Z</time>
      </trkpt>
      <trkpt lat="43.77756" lon="4.88229">
        <ele>82.81</ele>
        <time>2024-03-28T09:05:58Z</time>
      </trkpt>
      <trkpt lat="43.77783" lon="4.88132">
        <ele>81.85</ele>
        <time>2024-03-28T09:06:14Z</time>
      </trkpt>
      <trkpt lat="43.77807" lon="4.88054">
        <ele>80.89</ele>
        <time>2024-03-28T09:06:27Z</time>
      </trkpt>
      <trkpt lat="43.77813" lon="4.88032">
        <ele>80.89</ele>
        <time>2024-03-28T09:06:31Z</time>
      </trkpt>
      <trkpt lat="43.77815" lon="4.88027">
        <ele>80.89</ele>
        <time>2024-03-28T09:06:32Z</time>
      </trkpt>
      <trkpt lat="43.77837" lon="4.87938">
        <ele>80.41</ele>
        <time>2024-03-28T09:06:47Z</time>
      </trkpt>
      <trkpt lat="43.77838" lon="4.87932">
        <ele>80.41</ele>
        <time>2024-03-28T09:06:48Z</time>
      </trkpt>
      <trkpt lat="43.77847" lon="4.87894">
        <ele>79.93</ele>
        <time>2024-03-28T09:06:55Z</time>
      </trkpt>
      <trkpt lat="43.77848" lon="4.87889">
        <ele>79.93</ele>
        <time>2024-03-28T09:06:56Z</time>
      </trkpt>
      <trkpt lat="43.7785" lon="4.87884">
        <ele>79.93</ele>
        <time>2024-03-28T09:06:57Z</time>
      </trkpt>
      <trkpt lat="43.77861" lon="4.87835">
        <ele>79.45</ele>
        <time>2024-03-28T09:07:05Z</time>
      </trkpt>
      <trkpt lat="43.77866" lon="4.87809">
        <ele>79.45</ele>
        <time>2024-03-28T09:07:09Z</time>
      </trkpt>
      <trkpt lat="43.77878" lon="4.87735">
        <ele>78.97</ele>
        <time>2024-03-28T09:07:21Z</time>
      </trkpt>
      <trkpt lat="43.77879" lon="4.87729">
        <ele>78.97</ele>
        <time>2024-03-28T09:07:22Z</time>
      </trkpt>
      <trkpt lat="43.7788" lon="4.87722">
        <ele>78.97</ele>
        <time>2024-03-28T09:07:23Z</time>
      </trkpt>
      <trkpt lat="43.77882" lon="4.87716">
        <ele>78.97</ele>
        <time>2024-03-28T09:07:24Z</time>
      </trkpt>
      <trkpt lat="43.77885" lon="4.87697">
        <ele>78.97</ele>
        <time>2024-03-28T09:07:27Z</time>
      </trkpt>
      <trkpt lat="43.77887" lon="4.8769">
        <ele>78.97</ele>
        <time>2024-03-28T09:07:28Z</time>
      </trkpt>
      <trkpt lat="43.77888" lon="4.87684">
        <ele>78.97</ele>
        <time>2024-03-28T09:07:29Z</time>
      </trkpt>
      <trkpt lat="43.77905" lon="4.87595">
        <ele>78.97</ele>
        <time>2024-03-28T09:07:44Z</time>
      </trkpt>
      <trkpt lat="43.77934" lon="4.87503">
        <ele>79.45</ele>
        <time>2024-03-28T09:08:01Z</time>
      </trkpt>
      <trkpt lat="43.77938" lon="4.87492">
        <ele>80.41</ele>
        <time>2024-03-28T09:08:03Z</time>
      </trkpt>
      <trkpt lat="43.7794" lon="4.87487">
        <ele>80.41</ele>
        <time>2024-03-28T09:08:04Z</time>
      </trkpt>
      <trkpt lat="43.77942" lon="4.87482">
        <ele>80.41</ele>
        <time>2024-03-28T09:08:05Z</time>
      </trkpt>
      <trkpt lat="43.77963" lon="4.87411">
        <ele>80.89</ele>
        <time>2024-03-28T09:08:18Z</time>
      </trkpt>
      <trkpt lat="43.77978" lon="4.87338">
        <ele>81.37</ele>
        <time>2024-03-28T09:08:31Z</time>
      </trkpt>
      <trkpt lat="43.78" lon="4.87242">
        <ele>81.37</ele>
        <time>2024-03-28T09:08:47Z</time>
      </trkpt>
      <trkpt lat="43.78013" lon="4.87183">
        <ele>81.37</ele>
        <time>2024-03-28T09:08:58Z</time>
      </trkpt>
      <trkpt lat="43.78014" lon="4.87179">
        <ele>81.37</ele>
        <time>2024-03-28T09:09:07Z</time>
      </trkpt>
      <trkpt lat="43.78014" lon="4.87176">
        <ele>81.37</ele>
        <time>2024-03-28T09:09:30Z</time>
      </trkpt>
      <trkpt lat="43.78014" lon="4.87179">
        <ele>81.37</ele>
        <time>2024-03-28T09:09:48Z</time>
      </trkpt>
      <trkpt lat="43.78016" lon="4.87177">
        <ele>81.37</ele>
        <time>2024-03-28T09:09:55Z</time>
      </trkpt>
      <trkpt lat="43.78019" lon="4.87177">
        <ele>81.37</ele>
        <time>2024-03-28T09:09:57Z</time>
      </trkpt>
      <trkpt lat="43.78022" lon="4.87177">
        <ele>81.37</ele>
        <time>2024-03-28T09:09:58Z</time>
      </trkpt>
      <trkpt lat="43.78025" lon="4.87177">
        <ele>81.37</ele>
        <time>2024-03-28T09:09:59Z</time>
      </trkpt>
      <trkpt lat="43.78035" lon="4.87178">
        <ele>79.93</ele>
        <time>2024-03-28T09:10:02Z</time>
      </trkpt>
      <trkpt lat="43.78093" lon="4.8718">
        <ele>78.48</ele>
        <time>2024-03-28T09:10:17Z</time>
      </trkpt>
      <trkpt lat="43.7815" lon="4.87157">
        <ele>76.56</ele>
        <time>2024-03-28T09:10:31Z</time>
      </trkpt>
      <trkpt lat="43.78179" lon="4.87144">
        <ele>76.56</ele>
        <time>2024-03-28T09:10:38Z</time>
      </trkpt>
      <trkpt lat="43.78183" lon="4.87143">
        <ele>76.08</ele>
        <time>2024-03-28T09:10:39Z</time>
      </trkpt>
      <trkpt lat="43.78237" lon="4.8712">
        <ele>75.12</ele>
        <time>2024-03-28T09:10:53Z</time>
      </trkpt>
      <trkpt lat="43.78299" lon="4.87094">
        <ele>73.2</ele>
        <time>2024-03-28T09:11:07Z</time>
      </trkpt>
      <trkpt lat="43.78362" lon="4.87068">
        <ele>72.24</ele>
        <time>2024-03-28T09:11:21Z</time>
      </trkpt>
      <trkpt lat="43.78425" lon="4.87047">
        <ele>70.31</ele>
        <time>2024-03-28T09:11:34Z</time>
      </trkpt>
      <trkpt lat="43.78443" lon="4.87045">
        <ele>69.35</ele>
        <time>2024-03-28T09:11:38Z</time>
      </trkpt>
      <trkpt lat="43.78486" lon="4.87047">
        <ele>68.87</ele>
        <time>2024-03-28T09:11:49Z</time>
      </trkpt>
      <trkpt lat="43.785" lon="4.87047">
        <ele>68.39</ele>
        <time>2024-03-28T09:11:56Z</time>
      </trkpt>
      <trkpt lat="43.78532" lon="4.87048">
        <ele>67.43</ele>
        <time>2024-03-28T09:12:06Z</time>
      </trkpt>
      <trkpt lat="43.78533" lon="4.87044">
        <ele>67.43</ele>
        <time>2024-03-28T09:12:07Z</time>
      </trkpt>
      <trkpt lat="43.78534" lon="4.87041">
        <ele>67.43</ele>
        <time>2024-03-28T09:12:08Z</time>
      </trkpt>
      <trkpt lat="43.78535" lon="4.87036">
        <ele>66.95</ele>
        <time>2024-03-28T09:12:09Z</time>
      </trkpt>
      <trkpt lat="43.78536" lon="4.8703">
        <ele>66.95</ele>
        <time>2024-03-28T09:12:10Z</time>
      </trkpt>
      <trkpt lat="43.7856" lon="4.86976">
        <ele>66.47</ele>
        <time>2024-03-28T09:12:20Z</time>
      </trkpt>
      <trkpt lat="43.78565" lon="4.86964">
        <ele>65.51</ele>
        <time>2024-03-28T09:12:22Z</time>
      </trkpt>
      <trkpt lat="43.78602" lon="4.8688">
        <ele>64.55</ele>
        <time>2024-03-28T09:12:37Z</time>
      </trkpt>
      <trkpt lat="43.78632" lon="4.86814">
        <ele>64.07</ele>
        <time>2024-03-28T09:12:50Z</time>
      </trkpt>
      <trkpt lat="43.78664" lon="4.86749">
        <ele>64.07</ele>
        <time>2024-03-28T09:13:03Z</time>
      </trkpt>
      <trkpt lat="43.78705" lon="4.86676">
        <ele>63.58</ele>
        <time>2024-03-28T09:13:18Z</time>
      </trkpt>
      <trkpt lat="43.78739" lon="4.8661">
        <ele>63.58</ele>
        <time>2024-03-28T09:13:33Z</time>
      </trkpt>
      <trkpt lat="43.78775" lon="4.8653">
        <ele>63.1</ele>
        <time>2024-03-28T09:13:50Z</time>
      </trkpt>
      <trkpt lat="43.78808" lon="4.86455">
        <ele>62.62</ele>
        <time>2024-03-28T09:14:05Z</time>
      </trkpt>
      <trkpt lat="43.78819" lon="4.86432">
        <ele>62.62</ele>
        <time>2024-03-28T09:14:10Z</time>
      </trkpt>
      <trkpt lat="43.78853" lon="4.86354">
        <ele>61.18</ele>
        <time>2024-03-28T09:14:25Z</time>
      </trkpt>
      <trkpt lat="43.78883" lon="4.86291">
        <ele>60.7</ele>
        <time>2024-03-28T09:14:39Z</time>
      </trkpt>
      <trkpt lat="43.789" lon="4.86254">
        <ele>60.7</ele>
        <time>2024-03-28T09:14:47Z</time>
      </trkpt>
      <trkpt lat="43.78902" lon="4.86249">
        <ele>60.7</ele>
        <time>2024-03-28T09:14:48Z</time>
      </trkpt>
      <trkpt lat="43.78932" lon="4.86171">
        <ele>60.22</ele>
        <time>2024-03-28T09:15:03Z</time>
      </trkpt>
      <trkpt lat="43.78939" lon="4.86101">
        <ele>59.26</ele>
        <time>2024-03-28T09:15:14Z</time>
      </trkpt>
      <trkpt lat="43.78931" lon="4.86025">
        <ele>58.78</ele>
        <time>2024-03-28T09:15:26Z</time>
      </trkpt>
      <trkpt lat="43.78935" lon="4.85998">
        <ele>58.78</ele>
        <time>2024-03-28T09:15:31Z</time>
      </trkpt>
      <trkpt lat="43.78935" lon="4.8599">
        <ele>58.78</ele>
        <time>2024-03-28T09:15:32Z</time>
      </trkpt>
      <trkpt lat="43.78944" lon="4.85904">
        <ele>58.78</ele>
        <time>2024-03-28T09:15:45Z</time>
      </trkpt>
      <trkpt lat="43.78963" lon="4.85826">
        <ele>58.78</ele>
        <time>2024-03-28T09:15:58Z</time>
      </trkpt>
      <trkpt lat="43.78976" lon="4.85772">
        <ele>58.78</ele>
        <time>2024-03-28T09:16:07Z</time>
      </trkpt>
      <trkpt lat="43.78977" lon="4.85767">
        <ele>58.78</ele>
        <time>2024-03-28T09:16:08Z</time>
      </trkpt>
      <trkpt lat="43.78979" lon="4.8573">
        <ele>58.78</ele>
        <time>2024-03-28T09:16:14Z</time>
      </trkpt>
      <trkpt lat="43.78987" lon="4.85648">
        <ele>58.78</ele>
        <time>2024-03-28T09:16:27Z</time>
      </trkpt>
      <trkpt lat="43.78989" lon="4.85629">
        <ele>60.22</ele>
        <time>2024-03-28T09:16:31Z</time>
      </trkpt>
      <trkpt lat="43.78995" lon="4.85571">
        <ele>58.78</ele>
        <time>2024-03-28T09:16:41Z</time>
      </trkpt>
      <trkpt lat="43.79" lon="4.85492">
        <ele>58.78</ele>
        <time>2024-03-28T09:16:54Z</time>
      </trkpt>
      <trkpt lat="43.79" lon="4.85395">
        <ele>58.3</ele>
        <time>2024-03-28T09:17:09Z</time>
      </trkpt>
      <trkpt lat="43.78991" lon="4.85307">
        <ele>57.34</ele>
        <time>2024-03-28T09:17:23Z</time>
      </trkpt>
      <trkpt lat="43.78993" lon="4.85221">
        <ele>56.86</ele>
        <time>2024-03-28T09:17:36Z</time>
      </trkpt>
      <trkpt lat="43.79008" lon="4.85119">
        <ele>56.37</ele>
        <time>2024-03-28T09:17:52Z</time>
      </trkpt>
      <trkpt lat="43.79018" lon="4.85049">
        <ele>56.37</ele>
        <time>2024-03-28T09:18:04Z</time>
      </trkpt>
      <trkpt lat="43.79018" lon="4.85043">
        <ele>56.37</ele>
        <time>2024-03-28T09:18:05Z</time>
      </trkpt>
      <trkpt lat="43.79018" lon="4.85038">
        <ele>56.37</ele>
        <time>2024-03-28T09:18:06Z</time>
      </trkpt>
      <trkpt lat="43.79018" lon="4.85034">
        <ele>56.37</ele>
        <time>2024-03-28T09:18:07Z</time>
      </trkpt>
      <trkpt lat="43.79021" lon="4.8503">
        <ele>56.37</ele>
        <time>2024-03-28T09:18:08Z</time>
      </trkpt>
      <trkpt lat="43.79024" lon="4.85026">
        <ele>56.37</ele>
        <time>2024-03-28T09:18:09Z</time>
      </trkpt>
      <trkpt lat="43.79026" lon="4.85024">
        <ele>56.37</ele>
        <time>2024-03-28T09:18:10Z</time>
      </trkpt>
      <trkpt lat="43.79029" lon="4.85022">
        <ele>56.37</ele>
        <time>2024-03-28T09:18:11Z</time>
      </trkpt>
      <trkpt lat="43.79052" lon="4.84988">
        <ele>55.89</ele>
        <time>2024-03-28T09:18:21Z</time>
      </trkpt>
      <trkpt lat="43.79074" lon="4.84972">
        <ele>55.41</ele>
        <time>2024-03-28T09:18:29Z</time>
      </trkpt>
      <trkpt lat="43.79077" lon="4.84969">
        <ele>55.41</ele>
        <time>2024-03-28T09:18:30Z</time>
      </trkpt>
      <trkpt lat="43.79079" lon="4.84965">
        <ele>55.41</ele>
        <time>2024-03-28T09:18:31Z</time>
      </trkpt>
      <trkpt lat="43.79081" lon="4.84962">
        <ele>55.41</ele>
        <time>2024-03-28T09:18:32Z</time>
      </trkpt>
      <trkpt lat="43.79083" lon="4.8496">
        <ele>55.41</ele>
        <time>2024-03-28T09:18:33Z</time>
      </trkpt>
      <trkpt lat="43.79085" lon="4.84957">
        <ele>55.41</ele>
        <time>2024-03-28T09:18:34Z</time>
      </trkpt>
      <trkpt lat="43.79086" lon="4.84954">
        <ele>55.41</ele>
        <time>2024-03-28T09:18:35Z</time>
      </trkpt>
      <trkpt lat="43.79087" lon="4.8495">
        <ele>55.41</ele>
        <time>2024-03-28T09:18:36Z</time>
      </trkpt>
      <trkpt lat="43.79087" lon="4.84945">
        <ele>55.41</ele>
        <time>2024-03-28T09:18:37Z</time>
      </trkpt>
      <trkpt lat="43.79085" lon="4.84938">
        <ele>55.41</ele>
        <time>2024-03-28T09:18:38Z</time>
      </trkpt>
      <trkpt lat="43.79084" lon="4.84933">
        <ele>55.41</ele>
        <time>2024-03-28T09:18:39Z</time>
      </trkpt>
      <trkpt lat="43.79078" lon="4.84913">
        <ele>55.41</ele>
        <time>2024-03-28T09:18:43Z</time>
      </trkpt>
      <trkpt lat="43.79076" lon="4.84908">
        <ele>55.41</ele>
        <time>2024-03-28T09:18:44Z</time>
      </trkpt>
      <trkpt lat="43.79072" lon="4.84898">
        <ele>55.41</ele>
        <time>2024-03-28T09:18:46Z</time>
      </trkpt>
      <trkpt lat="43.7907" lon="4.84892">
        <ele>55.41</ele>
        <time>2024-03-28T09:18:47Z</time>
      </trkpt>
      <trkpt lat="43.79068" lon="4.84887">
        <ele>55.41</ele>
        <time>2024-03-28T09:18:48Z</time>
      </trkpt>
      <trkpt lat="43.79064" lon="4.84869">
        <ele>55.41</ele>
        <time>2024-03-28T09:18:56Z</time>
      </trkpt>
      <trkpt lat="43.79063" lon="4.84856">
        <ele>54.93</ele>
        <time>2024-03-28T09:19:11Z</time>
      </trkpt>
      <trkpt lat="43.79057" lon="4.84811">
        <ele>54.45</ele>
        <time>2024-03-28T09:19:20Z</time>
      </trkpt>
      <trkpt lat="43.79057" lon="4.84778">
        <ele>53.97</ele>
        <time>2024-03-28T09:19:26Z</time>
      </trkpt>
      <trkpt lat="43.79058" lon="4.84772">
        <ele>53.97</ele>
        <time>2024-03-28T09:19:27Z</time>
      </trkpt>
      <trkpt lat="43.79068" lon="4.84694">
        <ele>53.49</ele>
        <time>2024-03-28T09:19:40Z</time>
      </trkpt>
      <trkpt lat="43.79081" lon="4.84602">
        <ele>53.01</ele>
        <time>2024-03-28T09:19:56Z</time>
      </trkpt>
      <trkpt lat="43.79095" lon="4.84571">
        <ele>53.01</ele>
        <time>2024-03-28T09:20:04Z</time>
      </trkpt>
      <trkpt lat="43.79097" lon="4.84529">
        <ele>53.01</ele>
        <time>2024-03-28T09:20:13Z</time>
      </trkpt>
      <trkpt lat="43.7909" lon="4.84514">
        <ele>53.01</ele>
        <time>2024-03-28T09:20:17Z</time>
      </trkpt>
      <trkpt lat="43.79088" lon="4.84514">
        <ele>53.01</ele>
        <time>2024-03-28T09:20:18Z</time>
      </trkpt>
      <trkpt lat="43.79058" lon="4.84514">
        <ele>52.53</ele>
        <time>2024-03-28T09:20:27Z</time>
      </trkpt>
      <trkpt lat="43.79044" lon="4.84507">
        <ele>52.53</ele>
        <time>2024-03-28T09:20:31Z</time>
      </trkpt>
      <trkpt lat="43.79041" lon="4.84504">
        <ele>52.53</ele>
        <time>2024-03-28T09:20:32Z</time>
      </trkpt>
      <trkpt lat="43.79039" lon="4.84499">
        <ele>52.53</ele>
        <time>2024-03-28T09:20:33Z</time>
      </trkpt>
      <trkpt lat="43.79002" lon="4.84432">
        <ele>53.97</ele>
        <time>2024-03-28T09:20:47Z</time>
      </trkpt>
      <trkpt lat="43.78957" lon="4.84349">
        <ele>54.93</ele>
        <time>2024-03-28T09:21:04Z</time>
      </trkpt>
      <trkpt lat="43.7892" lon="4.8428">
        <ele>55.89</ele>
        <time>2024-03-28T09:21:18Z</time>
      </trkpt>
      <trkpt lat="43.78908" lon="4.84263">
        <ele>56.37</ele>
        <time>2024-03-28T09:21:22Z</time>
      </trkpt>
      <trkpt lat="43.78858" lon="4.84211">
        <ele>57.34</ele>
        <time>2024-03-28T09:21:38Z</time>
      </trkpt>
      <trkpt lat="43.78825" lon="4.8415">
        <ele>57.82</ele>
        <time>2024-03-28T09:21:52Z</time>
      </trkpt>
      <trkpt lat="43.78827" lon="4.84091">
        <ele>58.3</ele>
        <time>2024-03-28T09:22:03Z</time>
      </trkpt>
      <trkpt lat="43.78845" lon="4.83995">
        <ele>58.3</ele>
        <time>2024-03-28T09:22:21Z</time>
      </trkpt>
      <trkpt lat="43.78855" lon="4.83914">
        <ele>58.78</ele>
        <time>2024-03-28T09:22:36Z</time>
      </trkpt>
      <trkpt lat="43.78845" lon="4.83852">
        <ele>59.26</ele>
        <time>2024-03-28T09:22:48Z</time>
      </trkpt>
      <trkpt lat="43.7884" lon="4.8384">
        <ele>59.74</ele>
        <time>2024-03-28T09:22:53Z</time>
      </trkpt>
      <trkpt lat="43.78843" lon="4.83805">
        <ele>59.74</ele>
        <time>2024-03-28T09:23:03Z</time>
      </trkpt>
      <trkpt lat="43.78848" lon="4.8375">
        <ele>59.74</ele>
        <time>2024-03-28T09:23:13Z</time>
      </trkpt>
      <trkpt lat="43.78853" lon="4.83701">
        <ele>59.74</ele>
        <time>2024-03-28T09:23:22Z</time>
      </trkpt>
      <trkpt lat="43.78854" lon="4.83689">
        <ele>58.3</ele>
        <time>2024-03-28T09:23:24Z</time>
      </trkpt>
      <trkpt lat="43.78861" lon="4.8362">
        <ele>58.3</ele>
        <time>2024-03-28T09:23:35Z</time>
      </trkpt>
      <trkpt lat="43.78862" lon="4.83614">
        <ele>58.3</ele>
        <time>2024-03-28T09:23:36Z</time>
      </trkpt>
      <trkpt lat="43.78872" lon="4.83527">
        <ele>57.82</ele>
        <time>2024-03-28T09:23:50Z</time>
      </trkpt>
      <trkpt lat="43.78883" lon="4.83449">
        <ele>57.34</ele>
        <time>2024-03-28T09:24:04Z</time>
      </trkpt>
      <trkpt lat="43.78893" lon="4.83387">
        <ele>56.86</ele>
        <time>2024-03-28T09:24:16Z</time>
      </trkpt>
      <trkpt lat="43.78901" lon="4.83357">
        <ele>56.37</ele>
        <time>2024-03-28T09:24:25Z</time>
      </trkpt>
      <trkpt lat="43.789" lon="4.83354">
        <ele>56.37</ele>
        <time>2024-03-28T09:24:26Z</time>
      </trkpt>
      <trkpt lat="43.78899" lon="4.83346">
        <ele>56.37</ele>
        <time>2024-03-28T09:24:29Z</time>
      </trkpt>
      <trkpt lat="43.789" lon="4.83344">
        <ele>56.37</ele>
        <time>2024-03-28T09:24:30Z</time>
      </trkpt>
      <trkpt lat="43.78904" lon="4.83318">
        <ele>56.37</ele>
        <time>2024-03-28T09:24:40Z</time>
      </trkpt>
      <trkpt lat="43.78907" lon="4.83295">
        <ele>56.37</ele>
        <time>2024-03-28T09:24:49Z</time>
      </trkpt>
      <trkpt lat="43.78907" lon="4.83271">
        <ele>55.89</ele>
        <time>2024-03-28T09:24:59Z</time>
      </trkpt>
      <trkpt lat="43.7891" lon="4.83267">
        <ele>55.41</ele>
        <time>2024-03-28T09:25:01Z</time>
      </trkpt>
      <trkpt lat="43.78912" lon="4.83264">
        <ele>54.93</ele>
        <time>2024-03-28T09:25:02Z</time>
      </trkpt>
      <trkpt lat="43.78913" lon="4.83261">
        <ele>54.93</ele>
        <time>2024-03-28T09:25:03Z</time>
      </trkpt>
      <trkpt lat="43.78929" lon="4.83231">
        <ele>54.93</ele>
        <time>2024-03-28T09:25:14Z</time>
      </trkpt>
      <trkpt lat="43.78929" lon="4.83223">
        <ele>54.45</ele>
        <time>2024-03-28T09:25:18Z</time>
      </trkpt>
      <trkpt lat="43.78925" lon="4.83196">
        <ele>54.93</ele>
        <time>2024-03-28T09:25:29Z</time>
      </trkpt>
      <trkpt lat="43.78924" lon="4.83171">
        <ele>54.93</ele>
        <time>2024-03-28T09:25:37Z</time>
      </trkpt>
      <trkpt lat="43.78918" lon="4.83128">
        <ele>55.89</ele>
        <time>2024-03-28T09:25:49Z</time>
      </trkpt>
      <trkpt lat="43.78912" lon="4.83103">
        <ele>56.37</ele>
        <time>2024-03-28T09:25:58Z</time>
      </trkpt>
      <trkpt lat="43.7891" lon="4.83087">
        <ele>56.37</ele>
        <time>2024-03-28T09:26:03Z</time>
      </trkpt>
      <trkpt lat="43.78911" lon="4.83051">
        <ele>56.86</ele>
        <time>2024-03-28T09:26:16Z</time>
      </trkpt>
      <trkpt lat="43.78909" lon="4.83036">
        <ele>56.86</ele>
        <time>2024-03-28T09:26:25Z</time>
      </trkpt>
      <trkpt lat="43.78909" lon="4.83032">
        <ele>56.86</ele>
        <time>2024-03-28T09:26:28Z</time>
      </trkpt>
      <trkpt lat="43.78909" lon="4.83031">
        <ele>56.86</ele>
        <time>2024-03-28T09:26:29Z</time>
      </trkpt>
      <trkpt lat="43.78909" lon="4.83026">
        <ele>57.34</ele>
        <time>2024-03-28T09:26:40Z</time>
      </trkpt>
      <trkpt lat="43.78909" lon="4.8302">
        <ele>57.34</ele>
        <time>2024-03-28T09:26:44Z</time>
      </trkpt>
      <trkpt lat="43.78908" lon="4.83019">
        <ele>57.34</ele>
        <time>2024-03-28T09:26:45Z</time>
      </trkpt>
      <trkpt lat="43.78905" lon="4.83016">
        <ele>57.34</ele>
        <time>2024-03-28T09:26:46Z</time>
      </trkpt>
      <trkpt lat="43.78902" lon="4.83015">
        <ele>57.34</ele>
        <time>2024-03-28T09:26:47Z</time>
      </trkpt>
      <trkpt lat="43.789" lon="4.83015">
        <ele>57.34</ele>
        <time>2024-03-28T09:26:48Z</time>
      </trkpt>
      <trkpt lat="43.78898" lon="4.83014">
        <ele>57.34</ele>
        <time>2024-03-28T09:26:49Z</time>
      </trkpt>
      <trkpt lat="43.78895" lon="4.83013">
        <ele>57.34</ele>
        <time>2024-03-28T09:26:50Z</time>
      </trkpt>
      <trkpt lat="43.78892" lon="4.83012">
        <ele>57.82</ele>
        <time>2024-03-28T09:26:51Z</time>
      </trkpt>
      <trkpt lat="43.7889" lon="4.83012">
        <ele>57.82</ele>
        <time>2024-03-28T09:26:52Z</time>
      </trkpt>
      <trkpt lat="43.78859" lon="4.83005">
        <ele>58.78</ele>
        <time>2024-03-28T09:27:03Z</time>
      </trkpt>
      <trkpt lat="43.78821" lon="4.83017">
        <ele>59.74</ele>
        <time>2024-03-28T09:27:17Z</time>
      </trkpt>
      <trkpt lat="43.78801" lon="4.83022">
        <ele>60.22</ele>
        <time>2024-03-28T09:27:26Z</time>
      </trkpt>
      <trkpt lat="43.78763" lon="4.83035">
        <ele>61.66</ele>
        <time>2024-03-28T09:27:39Z</time>
      </trkpt>
      <trkpt lat="43.78728" lon="4.83052">
        <ele>62.62</ele>
        <time>2024-03-28T09:27:52Z</time>
      </trkpt>
      <trkpt lat="43.78698" lon="4.83068">
        <ele>63.1</ele>
        <time>2024-03-28T09:28:03Z</time>
      </trkpt>
      <trkpt lat="43.7867" lon="4.83079">
        <ele>64.07</ele>
        <time>2024-03-28T09:28:12Z</time>
      </trkpt>
      <trkpt lat="43.78642" lon="4.83092">
        <ele>65.03</ele>
        <time>2024-03-28T09:28:22Z</time>
      </trkpt>
      <trkpt lat="43.78608" lon="4.83104">
        <ele>65.99</ele>
        <time>2024-03-28T09:28:36Z</time>
      </trkpt>
      <trkpt lat="43.78591" lon="4.83117">
        <ele>66.47</ele>
        <time>2024-03-28T09:28:48Z</time>
      </trkpt>
      <trkpt lat="43.78575" lon="4.83126">
        <ele>66.95</ele>
        <time>2024-03-28T09:28:58Z</time>
      </trkpt>
      <trkpt lat="43.78541" lon="4.83143">
        <ele>68.39</ele>
        <time>2024-03-28T09:29:11Z</time>
      </trkpt>
      <trkpt lat="43.78514" lon="4.83154">
        <ele>68.87</ele>
        <time>2024-03-28T09:29:20Z</time>
      </trkpt>
      <trkpt lat="43.78488" lon="4.83163">
        <ele>70.31</ele>
        <time>2024-03-28T09:29:30Z</time>
      </trkpt>
      <trkpt lat="43.78458" lon="4.83172">
        <ele>71.76</ele>
        <time>2024-03-28T09:29:41Z</time>
      </trkpt>
      <trkpt lat="43.78429" lon="4.83182">
        <ele>72.72</ele>
        <time>2024-03-28T09:29:52Z</time>
      </trkpt>
      <trkpt lat="43.78385" lon="4.83188">
        <ele>75.12</ele>
        <time>2024-03-28T09:30:05Z</time>
      </trkpt>
      <trkpt lat="43.78345" lon="4.83185">
        <ele>76.56</ele>
        <time>2024-03-28T09:30:17Z</time>
      </trkpt>
      <trkpt lat="43.78298" lon="4.83183">
        <ele>78.48</ele>
        <time>2024-03-28T09:30:30Z</time>
      </trkpt>
      <trkpt lat="43.78246" lon="4.83181">
        <ele>80.89</ele>
        <time>2024-03-28T09:30:44Z</time>
      </trkpt>
      <trkpt lat="43.78195" lon="4.83179">
        <ele>83.29</ele>
        <time>2024-03-28T09:30:58Z</time>
      </trkpt>
      <trkpt lat="43.78147" lon="4.83177">
        <ele>85.69</ele>
        <time>2024-03-28T09:31:11Z</time>
      </trkpt>
      <trkpt lat="43.78092" lon="4.83174">
        <ele>88.1</ele>
        <time>2024-03-28T09:31:26Z</time>
      </trkpt>
      <trkpt lat="43.78082" lon="4.83165">
        <ele>88.1</ele>
        <time>2024-03-28T09:31:31Z</time>
      </trkpt>
      <trkpt lat="43.7808" lon="4.8316">
        <ele>88.58</ele>
        <time>2024-03-28T09:31:32Z</time>
      </trkpt>
      <trkpt lat="43.78055" lon="4.83112">
        <ele>88.58</ele>
        <time>2024-03-28T09:31:44Z</time>
      </trkpt>
      <trkpt lat="43.7804" lon="4.83085">
        <ele>88.58</ele>
        <time>2024-03-28T09:31:55Z</time>
      </trkpt>
      <trkpt lat="43.78026" lon="4.83056">
        <ele>89.06</ele>
        <time>2024-03-28T09:32:08Z</time>
      </trkpt>
      <trkpt lat="43.78013" lon="4.83029">
        <ele>89.06</ele>
        <time>2024-03-28T09:32:16Z</time>
      </trkpt>
      <trkpt lat="43.77995" lon="4.82992">
        <ele>89.54</ele>
        <time>2024-03-28T09:32:25Z</time>
      </trkpt>
      <trkpt lat="43.77971" lon="4.82951">
        <ele>90.5</ele>
        <time>2024-03-28T09:32:36Z</time>
      </trkpt>
      <trkpt lat="43.77941" lon="4.82922">
        <ele>90.5</ele>
        <time>2024-03-28T09:32:45Z</time>
      </trkpt>
      <trkpt lat="43.77905" lon="4.82896">
        <ele>90.98</ele>
        <time>2024-03-28T09:32:57Z</time>
      </trkpt>
      <trkpt lat="43.77888" lon="4.82884">
        <ele>89.06</ele>
        <time>2024-03-28T09:33:02Z</time>
      </trkpt>
      <trkpt lat="43.77877" lon="4.82877">
        <ele>88.58</ele>
        <time>2024-03-28T09:33:04Z</time>
      </trkpt>
      <trkpt lat="43.77871" lon="4.82872">
        <ele>88.58</ele>
        <time>2024-03-28T09:33:05Z</time>
      </trkpt>
      <trkpt lat="43.77867" lon="4.82868">
        <ele>88.1</ele>
        <time>2024-03-28T09:33:06Z</time>
      </trkpt>
      <trkpt lat="43.77864" lon="4.82863">
        <ele>88.1</ele>
        <time>2024-03-28T09:33:07Z</time>
      </trkpt>
      <trkpt lat="43.77861" lon="4.82859">
        <ele>88.1</ele>
        <time>2024-03-28T09:33:08Z</time>
      </trkpt>
      <trkpt lat="43.77851" lon="4.82846">
        <ele>88.1</ele>
        <time>2024-03-28T09:33:11Z</time>
      </trkpt>
      <trkpt lat="43.7783" lon="4.82807">
        <ele>88.1</ele>
        <time>2024-03-28T09:33:21Z</time>
      </trkpt>
      <trkpt lat="43.77817" lon="4.82744">
        <ele>89.54</ele>
        <time>2024-03-28T09:33:34Z</time>
      </trkpt>
      <trkpt lat="43.77798" lon="4.82704">
        <ele>90.98</ele>
        <time>2024-03-28T09:33:44Z</time>
      </trkpt>
      <trkpt lat="43.77757" lon="4.82659">
        <ele>93.87</ele>
        <time>2024-03-28T09:33:59Z</time>
      </trkpt>
      <trkpt lat="43.77729" lon="4.82629">
        <ele>96.27</ele>
        <time>2024-03-28T09:34:10Z</time>
      </trkpt>
      <trkpt lat="43.77699" lon="4.82613">
        <ele>99.63</ele>
        <time>2024-03-28T09:34:22Z</time>
      </trkpt>
      <trkpt lat="43.7767" lon="4.82602">
        <ele>103</ele>
        <time>2024-03-28T09:34:33Z</time>
      </trkpt>
      <trkpt lat="43.77636" lon="4.82593">
        <ele>105.88</ele>
        <time>2024-03-28T09:34:46Z</time>
      </trkpt>
      <trkpt lat="43.77602" lon="4.82584">
        <ele>108.77</ele>
        <time>2024-03-28T09:34:59Z</time>
      </trkpt>
      <trkpt lat="43.77565" lon="4.82576">
        <ele>111.65</ele>
        <time>2024-03-28T09:35:12Z</time>
      </trkpt>
      <trkpt lat="43.7754" lon="4.82573">
        <ele>115.01</ele>
        <time>2024-03-28T09:35:22Z</time>
      </trkpt>
      <trkpt lat="43.77507" lon="4.82582">
        <ele>118.38</ele>
        <time>2024-03-28T09:35:36Z</time>
      </trkpt>
      <trkpt lat="43.77483" lon="4.82592">
        <ele>121.74</ele>
        <time>2024-03-28T09:35:47Z</time>
      </trkpt>
      <trkpt lat="43.77457" lon="4.82605">
        <ele>122.71</ele>
        <time>2024-03-28T09:35:59Z</time>
      </trkpt>
      <trkpt lat="43.77425" lon="4.8261">
        <ele>122.71</ele>
        <time>2024-03-28T09:36:12Z</time>
      </trkpt>
      <trkpt lat="43.77399" lon="4.82617">
        <ele>125.11</ele>
        <time>2024-03-28T09:36:23Z</time>
      </trkpt>
      <trkpt lat="43.77373" lon="4.82622">
        <ele>127.51</ele>
        <time>2024-03-28T09:36:34Z</time>
      </trkpt>
      <trkpt lat="43.7735" lon="4.82628">
        <ele>129.92</ele>
        <time>2024-03-28T09:36:44Z</time>
      </trkpt>
      <trkpt lat="43.77322" lon="4.82634">
        <ele>132.8</ele>
        <time>2024-03-28T09:36:56Z</time>
      </trkpt>
      <trkpt lat="43.77294" lon="4.82624">
        <ele>136.16</ele>
        <time>2024-03-28T09:37:10Z</time>
      </trkpt>
      <trkpt lat="43.77267" lon="4.82618">
        <ele>139.05</ele>
        <time>2024-03-28T09:37:22Z</time>
      </trkpt>
      <trkpt lat="43.77245" lon="4.82617">
        <ele>141.93</ele>
        <time>2024-03-28T09:37:33Z</time>
      </trkpt>
      <trkpt lat="43.77222" lon="4.82618">
        <ele>145.3</ele>
        <time>2024-03-28T09:37:44Z</time>
      </trkpt>
      <trkpt lat="43.77203" lon="4.82614">
        <ele>149.14</ele>
        <time>2024-03-28T09:37:53Z</time>
      </trkpt>
      <trkpt lat="43.77179" lon="4.82603">
        <ele>151.54</ele>
        <time>2024-03-28T09:38:04Z</time>
      </trkpt>
      <trkpt lat="43.77162" lon="4.8258">
        <ele>153.95</ele>
        <time>2024-03-28T09:38:15Z</time>
      </trkpt>
      <trkpt lat="43.7715" lon="4.8256">
        <ele>156.83</ele>
        <time>2024-03-28T09:38:24Z</time>
      </trkpt>
      <trkpt lat="43.77128" lon="4.82547">
        <ele>160.2</ele>
        <time>2024-03-28T09:38:35Z</time>
      </trkpt>
      <trkpt lat="43.77106" lon="4.8254">
        <ele>163.56</ele>
        <time>2024-03-28T09:38:45Z</time>
      </trkpt>
      <trkpt lat="43.77077" lon="4.82543">
        <ele>165.96</ele>
        <time>2024-03-28T09:38:58Z</time>
      </trkpt>
      <trkpt lat="43.7705" lon="4.82538">
        <ele>164.52</ele>
        <time>2024-03-28T09:39:07Z</time>
      </trkpt>
      <trkpt lat="43.77011" lon="4.82524">
        <ele>161.16</ele>
        <time>2024-03-28T09:39:16Z</time>
      </trkpt>
      <trkpt lat="43.76974" lon="4.82511">
        <ele>157.79</ele>
        <time>2024-03-28T09:39:24Z</time>
      </trkpt>
      <trkpt lat="43.76919" lon="4.82508">
        <ele>155.39</ele>
        <time>2024-03-28T09:39:36Z</time>
      </trkpt>
      <trkpt lat="43.76894" lon="4.82514">
        <ele>153.95</ele>
        <time>2024-03-28T09:39:41Z</time>
      </trkpt>
      <trkpt lat="43.76876" lon="4.82528">
        <ele>152.51</ele>
        <time>2024-03-28T09:39:45Z</time>
      </trkpt>
      <trkpt lat="43.76848" lon="4.82561">
        <ele>150.1</ele>
        <time>2024-03-28T09:39:52Z</time>
      </trkpt>
      <trkpt lat="43.7682" lon="4.82599">
        <ele>149.62</ele>
        <time>2024-03-28T09:40:02Z</time>
      </trkpt>
      <trkpt lat="43.76806" lon="4.82616">
        <ele>148.18</ele>
        <time>2024-03-28T09:40:11Z</time>
      </trkpt>
      <trkpt lat="43.76805" lon="4.82618">
        <ele>148.18</ele>
        <time>2024-03-28T09:40:12Z</time>
      </trkpt>
      <trkpt lat="43.76803" lon="4.8262">
        <ele>147.7</ele>
        <time>2024-03-28T09:40:13Z</time>
      </trkpt>
      <trkpt lat="43.76783" lon="4.82649">
        <ele>144.34</ele>
        <time>2024-03-28T09:40:24Z</time>
      </trkpt>
      <trkpt lat="43.76773" lon="4.82662">
        <ele>143.37</ele>
        <time>2024-03-28T09:40:32Z</time>
      </trkpt>
      <trkpt lat="43.7677" lon="4.82662">
        <ele>143.37</ele>
        <time>2024-03-28T09:40:45Z</time>
      </trkpt>
      <trkpt lat="43.76769" lon="4.8266">
        <ele>142.89</ele>
        <time>2024-03-28T09:41:01Z</time>
      </trkpt>
      <trkpt lat="43.76769" lon="4.8266">
        <ele>142.89</ele>
        <time>2024-03-28T09:41:22Z</time>
      </trkpt>
      <trkpt lat="43.76768" lon="4.82659">
        <ele>142.89</ele>
        <time>2024-03-28T09:41:45Z</time>
      </trkpt>
      <trkpt lat="43.76766" lon="4.82658">
        <ele>142.89</ele>
        <time>2024-03-28T09:42:14Z</time>
      </trkpt>
      <trkpt lat="43.7677" lon="4.82655">
        <ele>143.37</ele>
        <time>2024-03-28T09:42:42Z</time>
      </trkpt>
      <trkpt lat="43.76769" lon="4.82657">
        <ele>143.37</ele>
        <time>2024-03-28T09:43:06Z</time>
      </trkpt>
      <trkpt lat="43.76771" lon="4.82658">
        <ele>143.37</ele>
        <time>2024-03-28T09:43:38Z</time>
      </trkpt>
      <trkpt lat="43.76771" lon="4.82657">
        <ele>143.37</ele>
        <time>2024-03-28T09:44:03Z</time>
      </trkpt>
      <trkpt lat="43.7677" lon="4.82663">
        <ele>143.37</ele>
        <time>2024-03-28T09:44:13Z</time>
      </trkpt>
      <trkpt lat="43.76771" lon="4.82665">
        <ele>143.37</ele>
        <time>2024-03-28T09:44:25Z</time>
      </trkpt>
      <trkpt lat="43.76771" lon="4.82667">
        <ele>143.37</ele>
        <time>2024-03-28T09:44:26Z</time>
      </trkpt>
      <trkpt lat="43.76771" lon="4.82669">
        <ele>143.37</ele>
        <time>2024-03-28T09:44:27Z</time>
      </trkpt>
      <trkpt lat="43.76772" lon="4.82674">
        <ele>142.89</ele>
        <time>2024-03-28T09:44:29Z</time>
      </trkpt>
      <trkpt lat="43.76773" lon="4.82679">
        <ele>142.89</ele>
        <time>2024-03-28T09:44:30Z</time>
      </trkpt>
      <trkpt lat="43.76775" lon="4.82683">
        <ele>142.41</ele>
        <time>2024-03-28T09:44:31Z</time>
      </trkpt>
      <trkpt lat="43.76777" lon="4.82688">
        <ele>142.41</ele>
        <time>2024-03-28T09:44:32Z</time>
      </trkpt>
      <trkpt lat="43.76778" lon="4.82693">
        <ele>141.93</ele>
        <time>2024-03-28T09:44:33Z</time>
      </trkpt>
      <trkpt lat="43.76781" lon="4.82699">
        <ele>141.93</ele>
        <time>2024-03-28T09:44:34Z</time>
      </trkpt>
      <trkpt lat="43.76783" lon="4.82705">
        <ele>141.93</ele>
        <time>2024-03-28T09:44:35Z</time>
      </trkpt>
      <trkpt lat="43.76788" lon="4.8271">
        <ele>140.97</ele>
        <time>2024-03-28T09:44:36Z</time>
      </trkpt>
      <trkpt lat="43.76793" lon="4.82715">
        <ele>140.01</ele>
        <time>2024-03-28T09:44:37Z</time>
      </trkpt>
      <trkpt lat="43.76798" lon="4.82719">
        <ele>139.53</ele>
        <time>2024-03-28T09:44:38Z</time>
      </trkpt>
      <trkpt lat="43.76804" lon="4.82722">
        <ele>139.05</ele>
        <time>2024-03-28T09:44:39Z</time>
      </trkpt>
      <trkpt lat="43.76844" lon="4.82744">
        <ele>135.2</ele>
        <time>2024-03-28T09:44:45Z</time>
      </trkpt>
      <trkpt lat="43.76859" lon="4.8275">
        <ele>134.24</ele>
        <time>2024-03-28T09:44:47Z</time>
      </trkpt>
      <trkpt lat="43.76874" lon="4.82753">
        <ele>133.76</ele>
        <time>2024-03-28T09:44:49Z</time>
      </trkpt>
      <trkpt lat="43.7688" lon="4.82756">
        <ele>132.8</ele>
        <time>2024-03-28T09:44:50Z</time>
      </trkpt>
      <trkpt lat="43.76885" lon="4.82759">
        <ele>132.8</ele>
        <time>2024-03-28T09:44:51Z</time>
      </trkpt>
      <trkpt lat="43.76888" lon="4.82764">
        <ele>132.8</ele>
        <time>2024-03-28T09:44:52Z</time>
      </trkpt>
      <trkpt lat="43.76891" lon="4.82767">
        <ele>132.32</ele>
        <time>2024-03-28T09:44:53Z</time>
      </trkpt>
      <trkpt lat="43.76893" lon="4.8277">
        <ele>132.32</ele>
        <time>2024-03-28T09:44:54Z</time>
      </trkpt>
      <trkpt lat="43.76911" lon="4.828">
        <ele>130.88</ele>
        <time>2024-03-28T09:45:04Z</time>
      </trkpt>
      <trkpt lat="43.76927" lon="4.82821">
        <ele>130.4</ele>
        <time>2024-03-28T09:45:12Z</time>
      </trkpt>
      <trkpt lat="43.76934" lon="4.82835">
        <ele>129.92</ele>
        <time>2024-03-28T09:45:18Z</time>
      </trkpt>
      <trkpt lat="43.76934" lon="4.82838">
        <ele>129.92</ele>
        <time>2024-03-28T09:45:20Z</time>
      </trkpt>
      <trkpt lat="43.76917" lon="4.82847">
        <ele>129.92</ele>
        <time>2024-03-28T09:45:28Z</time>
      </trkpt>
      <trkpt lat="43.76909" lon="4.82852">
        <ele>129.92</ele>
        <time>2024-03-28T09:45:33Z</time>
      </trkpt>
      <trkpt lat="43.76907" lon="4.82854">
        <ele>131.36</ele>
        <time>2024-03-28T09:45:35Z</time>
      </trkpt>
      <trkpt lat="43.76913" lon="4.82864">
        <ele>129.92</ele>
        <time>2024-03-28T09:45:41Z</time>
      </trkpt>
      <trkpt lat="43.76914" lon="4.82866">
        <ele>129.43</ele>
        <time>2024-03-28T09:45:50Z</time>
      </trkpt>
      <trkpt lat="43.76904" lon="4.82874">
        <ele>129.43</ele>
        <time>2024-03-28T09:46:22Z</time>
      </trkpt>
      <trkpt lat="43.769" lon="4.82873">
        <ele>129.43</ele>
        <time>2024-03-28T09:46:50Z</time>
      </trkpt>
      <trkpt lat="43.769" lon="4.82876">
        <ele>128.95</ele>
        <time>2024-03-28T09:47:16Z</time>
      </trkpt>
      <trkpt lat="43.76901" lon="4.82873">
        <ele>128.95</ele>
        <time>2024-03-28T09:47:41Z</time>
      </trkpt>
      <trkpt lat="43.769" lon="4.82872">
        <ele>128.95</ele>
        <time>2024-03-28T09:48:05Z</time>
      </trkpt>
      <trkpt lat="43.76907" lon="4.82872">
        <ele>128.95</ele>
        <time>2024-03-28T09:48:29Z</time>
      </trkpt>
      <trkpt lat="43.76904" lon="4.82868">
        <ele>128.95</ele>
        <time>2024-03-28T09:48:51Z</time>
      </trkpt>
      <trkpt lat="43.76903" lon="4.82868">
        <ele>128.95</ele>
        <time>2024-03-28T09:49:16Z</time>
      </trkpt>
      <trkpt lat="43.76904" lon="4.82868">
        <ele>128.95</ele>
        <time>2024-03-28T09:49:39Z</time>
      </trkpt>
      <trkpt lat="43.76902" lon="4.82872">
        <ele>129.43</ele>
        <time>2024-03-28T09:50:08Z</time>
      </trkpt>
      <trkpt lat="43.76898" lon="4.82866">
        <ele>129.92</ele>
        <time>2024-03-28T09:50:40Z</time>
      </trkpt>
      <trkpt lat="43.76903" lon="4.82867">
        <ele>129.92</ele>
        <time>2024-03-28T09:51:03Z</time>
      </trkpt>
      <trkpt lat="43.76907" lon="4.82866">
        <ele>130.4</ele>
        <time>2024-03-28T09:51:36Z</time>
      </trkpt>
      <trkpt lat="43.76905" lon="4.82869">
        <ele>130.88</ele>
        <time>2024-03-28T09:52:00Z</time>
      </trkpt>
      <trkpt lat="43.76906" lon="4.82874">
        <ele>130.88</ele>
        <time>2024-03-28T09:52:27Z</time>
      </trkpt>
      <trkpt lat="43.76906" lon="4.8287">
        <ele>131.36</ele>
        <time>2024-03-28T09:52:55Z</time>
      </trkpt>
      <trkpt lat="43.76904" lon="4.82867">
        <ele>130.88</ele>
        <time>2024-03-28T09:53:23Z</time>
      </trkpt>
      <trkpt lat="43.76905" lon="4.82871">
        <ele>131.36</ele>
        <time>2024-03-28T09:53:56Z</time>
      </trkpt>
      <trkpt lat="43.76905" lon="4.82869">
        <ele>131.36</ele>
        <time>2024-03-28T09:54:21Z</time>
      </trkpt>
      <trkpt lat="43.7691" lon="4.82868">
        <ele>131.36</ele>
        <time>2024-03-28T09:54:45Z</time>
      </trkpt>
      <trkpt lat="43.76911" lon="4.82871">
        <ele>131.84</ele>
        <time>2024-03-28T09:55:08Z</time>
      </trkpt>
      <trkpt lat="43.76913" lon="4.82872">
        <ele>133.28</ele>
        <time>2024-03-28T09:55:14Z</time>
      </trkpt>
      <trkpt lat="43.76911" lon="4.82869">
        <ele>133.28</ele>
        <time>2024-03-28T09:55:24Z</time>
      </trkpt>
      <trkpt lat="43.7691" lon="4.82869">
        <ele>133.76</ele>
        <time>2024-03-28T09:55:34Z</time>
      </trkpt>
      <trkpt lat="43.76909" lon="4.82868">
        <ele>133.76</ele>
        <time>2024-03-28T09:55:36Z</time>
      </trkpt>
      <trkpt lat="43.76908" lon="4.82865">
        <ele>133.76</ele>
        <time>2024-03-28T09:55:38Z</time>
      </trkpt>
      <trkpt lat="43.76906" lon="4.82862">
        <ele>133.76</ele>
        <time>2024-03-28T09:55:39Z</time>
      </trkpt>
      <trkpt lat="43.76904" lon="4.82861">
        <ele>133.76</ele>
        <time>2024-03-28T09:55:40Z</time>
      </trkpt>
      <trkpt lat="43.76902" lon="4.82859">
        <ele>133.76</ele>
        <time>2024-03-28T09:55:41Z</time>
      </trkpt>
      <trkpt lat="43.76901" lon="4.82857">
        <ele>133.76</ele>
        <time>2024-03-28T09:55:42Z</time>
      </trkpt>
      <trkpt lat="43.769" lon="4.82855">
        <ele>134.24</ele>
        <time>2024-03-28T09:55:43Z</time>
      </trkpt>
      <trkpt lat="43.76899" lon="4.82853">
        <ele>134.24</ele>
        <time>2024-03-28T09:55:44Z</time>
      </trkpt>
      <trkpt lat="43.76897" lon="4.82851">
        <ele>134.72</ele>
        <time>2024-03-28T09:55:45Z</time>
      </trkpt>
      <trkpt lat="43.76887" lon="4.8282">
        <ele>135.68</ele>
        <time>2024-03-28T09:55:56Z</time>
      </trkpt>
      <trkpt lat="43.76887" lon="4.82804">
        <ele>134.24</ele>
        <time>2024-03-28T09:56:01Z</time>
      </trkpt>
      <trkpt lat="43.76886" lon="4.828">
        <ele>134.24</ele>
        <time>2024-03-28T09:56:03Z</time>
      </trkpt>
      <trkpt lat="43.76885" lon="4.82799">
        <ele>134.24</ele>
        <time>2024-03-28T09:56:04Z</time>
      </trkpt>
      <trkpt lat="43.76884" lon="4.82797">
        <ele>134.24</ele>
        <time>2024-03-28T09:56:05Z</time>
      </trkpt>
      <trkpt lat="43.76884" lon="4.82794">
        <ele>134.24</ele>
        <time>2024-03-28T09:56:06Z</time>
      </trkpt>
      <trkpt lat="43.76883" lon="4.82792">
        <ele>134.24</ele>
        <time>2024-03-28T09:56:07Z</time>
      </trkpt>
      <trkpt lat="43.76882" lon="4.8279">
        <ele>134.24</ele>
        <time>2024-03-28T09:56:08Z</time>
      </trkpt>
      <trkpt lat="43.7688" lon="4.82789">
        <ele>134.24</ele>
        <time>2024-03-28T09:56:09Z</time>
      </trkpt>
      <trkpt lat="43.7688" lon="4.82788">
        <ele>134.24</ele>
        <time>2024-03-28T09:56:10Z</time>
      </trkpt>
      <trkpt lat="43.76871" lon="4.82777">
        <ele>134.24</ele>
        <time>2024-03-28T09:56:17Z</time>
      </trkpt>
      <trkpt lat="43.76872" lon="4.82762">
        <ele>135.68</ele>
        <time>2024-03-28T09:56:22Z</time>
      </trkpt>
      <trkpt lat="43.76872" lon="4.82759">
        <ele>136.16</ele>
        <time>2024-03-28T09:56:23Z</time>
      </trkpt>
      <trkpt lat="43.76872" lon="4.82757">
        <ele>136.16</ele>
        <time>2024-03-28T09:56:24Z</time>
      </trkpt>
      <trkpt lat="43.7687" lon="4.82754">
        <ele>136.64</ele>
        <time>2024-03-28T09:56:25Z</time>
      </trkpt>
      <trkpt lat="43.76867" lon="4.82753">
        <ele>136.64</ele>
        <time>2024-03-28T09:56:26Z</time>
      </trkpt>
      <trkpt lat="43.76865" lon="4.82752">
        <ele>137.13</ele>
        <time>2024-03-28T09:56:27Z</time>
      </trkpt>
      <trkpt lat="43.76862" lon="4.82751">
        <ele>137.13</ele>
        <time>2024-03-28T09:56:28Z</time>
      </trkpt>
      <trkpt lat="43.76827" lon="4.82735">
        <ele>139.53</ele>
        <time>2024-03-28T09:56:41Z</time>
      </trkpt>
      <trkpt lat="43.76801" lon="4.82719">
        <ele>142.41</ele>
        <time>2024-03-28T09:56:52Z</time>
      </trkpt>
      <trkpt lat="43.7678" lon="4.82699">
        <ele>143.85</ele>
        <time>2024-03-28T09:57:02Z</time>
      </trkpt>
      <trkpt lat="43.76774" lon="4.82666">
        <ele>146.26</ele>
        <time>2024-03-28T09:57:14Z</time>
      </trkpt>
      <trkpt lat="43.76786" lon="4.82644">
        <ele>147.7</ele>
        <time>2024-03-28T09:57:24Z</time>
      </trkpt>
      <trkpt lat="43.76805" lon="4.82616">
        <ele>150.58</ele>
        <time>2024-03-28T09:57:35Z</time>
      </trkpt>
      <trkpt lat="43.76816" lon="4.82603">
        <ele>152.03</ele>
        <time>2024-03-28T09:57:41Z</time>
      </trkpt>
      <trkpt lat="43.76816" lon="4.826">
        <ele>152.03</ele>
        <time>2024-03-28T09:57:42Z</time>
      </trkpt>
      <trkpt lat="43.76815" lon="4.82598">
        <ele>152.03</ele>
        <time>2024-03-28T09:57:43Z</time>
      </trkpt>
      <trkpt lat="43.76814" lon="4.82596">
        <ele>152.99</ele>
        <time>2024-03-28T09:57:44Z</time>
      </trkpt>
      <trkpt lat="43.76812" lon="4.82596">
        <ele>152.99</ele>
        <time>2024-03-28T09:57:45Z</time>
      </trkpt>
      <trkpt lat="43.7681" lon="4.82597">
        <ele>153.47</ele>
        <time>2024-03-28T09:57:46Z</time>
      </trkpt>
      <trkpt lat="43.76808" lon="4.82598">
        <ele>153.47</ele>
        <time>2024-03-28T09:57:47Z</time>
      </trkpt>
      <trkpt lat="43.76806" lon="4.82598">
        <ele>153.95</ele>
        <time>2024-03-28T09:57:48Z</time>
      </trkpt>
      <trkpt lat="43.76803" lon="4.82599">
        <ele>153.95</ele>
        <time>2024-03-28T09:57:49Z</time>
      </trkpt>
      <trkpt lat="43.76801" lon="4.82598">
        <ele>154.43</ele>
        <time>2024-03-28T09:57:50Z</time>
      </trkpt>
      <trkpt lat="43.76799" lon="4.82598">
        <ele>154.43</ele>
        <time>2024-03-28T09:57:51Z</time>
      </trkpt>
      <trkpt lat="43.76796" lon="4.82597">
        <ele>154.43</ele>
        <time>2024-03-28T09:57:52Z</time>
      </trkpt>
      <trkpt lat="43.76794" lon="4.82596">
        <ele>154.43</ele>
        <time>2024-03-28T09:57:53Z</time>
      </trkpt>
      <trkpt lat="43.76764" lon="4.82582">
        <ele>157.31</ele>
        <time>2024-03-28T09:58:05Z</time>
      </trkpt>
      <trkpt lat="43.76731" lon="4.82573">
        <ele>160.68</ele>
        <time>2024-03-28T09:58:18Z</time>
      </trkpt>
      <trkpt lat="43.76695" lon="4.82559">
        <ele>162.6</ele>
        <time>2024-03-28T09:58:32Z</time>
      </trkpt>
      <trkpt lat="43.76666" lon="4.82561">
        <ele>165.48</ele>
        <time>2024-03-28T09:58:43Z</time>
      </trkpt>
      <trkpt lat="43.7664" lon="4.82568">
        <ele>167.41</ele>
        <time>2024-03-28T09:58:53Z</time>
      </trkpt>
      <trkpt lat="43.76621" lon="4.82578">
        <ele>169.81</ele>
        <time>2024-03-28T09:59:01Z</time>
      </trkpt>
      <trkpt lat="43.76619" lon="4.82578">
        <ele>169.81</ele>
        <time>2024-03-28T09:59:02Z</time>
      </trkpt>
      <trkpt lat="43.76616" lon="4.82577">
        <ele>169.81</ele>
        <time>2024-03-28T09:59:03Z</time>
      </trkpt>
      <trkpt lat="43.76614" lon="4.82575">
        <ele>170.29</ele>
        <time>2024-03-28T09:59:04Z</time>
      </trkpt>
      <trkpt lat="43.76612" lon="4.82572">
        <ele>170.29</ele>
        <time>2024-03-28T09:59:05Z</time>
      </trkpt>
      <trkpt lat="43.76589" lon="4.82545">
        <ele>172.21</ele>
        <time>2024-03-28T09:59:16Z</time>
      </trkpt>
      <trkpt lat="43.76563" lon="4.82536">
        <ele>174.14</ele>
        <time>2024-03-28T09:59:27Z</time>
      </trkpt>
      <trkpt lat="43.76528" lon="4.82527">
        <ele>177.02</ele>
        <time>2024-03-28T09:59:41Z</time>
      </trkpt>
      <trkpt lat="43.76502" lon="4.82513">
        <ele>178.46</ele>
        <time>2024-03-28T09:59:52Z</time>
      </trkpt>
      <trkpt lat="43.76471" lon="4.82505">
        <ele>180.38</ele>
        <time>2024-03-28T10:00:04Z</time>
      </trkpt>
      <trkpt lat="43.7644" lon="4.82492">
        <ele>182.31</ele>
        <time>2024-03-28T10:00:17Z</time>
      </trkpt>
      <trkpt lat="43.76416" lon="4.82465">
        <ele>185.19</ele>
        <time>2024-03-28T10:00:29Z</time>
      </trkpt>
      <trkpt lat="43.76392" lon="4.82437">
        <ele>187.59</ele>
        <time>2024-03-28T10:00:41Z</time>
      </trkpt>
      <trkpt lat="43.76371" lon="4.82415">
        <ele>189.04</ele>
        <time>2024-03-28T10:00:52Z</time>
      </trkpt>
      <trkpt lat="43.76343" lon="4.82393">
        <ele>191.44</ele>
        <time>2024-03-28T10:01:05Z</time>
      </trkpt>
      <trkpt lat="43.76334" lon="4.82365">
        <ele>193.36</ele>
        <time>2024-03-28T10:01:14Z</time>
      </trkpt>
      <trkpt lat="43.7635" lon="4.82346">
        <ele>195.28</ele>
        <time>2024-03-28T10:01:23Z</time>
      </trkpt>
      <trkpt lat="43.76364" lon="4.82318">
        <ele>197.21</ele>
        <time>2024-03-28T10:01:33Z</time>
      </trkpt>
      <trkpt lat="43.76375" lon="4.82283">
        <ele>199.61</ele>
        <time>2024-03-28T10:01:44Z</time>
      </trkpt>
      <trkpt lat="43.76389" lon="4.82255">
        <ele>201.53</ele>
        <time>2024-03-28T10:01:54Z</time>
      </trkpt>
      <trkpt lat="43.76388" lon="4.8223">
        <ele>202.98</ele>
        <time>2024-03-28T10:02:02Z</time>
      </trkpt>
      <trkpt lat="43.7638" lon="4.82221">
        <ele>203.94</ele>
        <time>2024-03-28T10:02:07Z</time>
      </trkpt>
      <trkpt lat="43.76377" lon="4.82222">
        <ele>204.42</ele>
        <time>2024-03-28T10:02:08Z</time>
      </trkpt>
      <trkpt lat="43.76375" lon="4.82223">
        <ele>204.42</ele>
        <time>2024-03-28T10:02:09Z</time>
      </trkpt>
      <trkpt lat="43.76372" lon="4.82224">
        <ele>204.9</ele>
        <time>2024-03-28T10:02:10Z</time>
      </trkpt>
      <trkpt lat="43.7637" lon="4.82226">
        <ele>204.9</ele>
        <time>2024-03-28T10:02:11Z</time>
      </trkpt>
      <trkpt lat="43.76369" lon="4.82229">
        <ele>205.38</ele>
        <time>2024-03-28T10:02:12Z</time>
      </trkpt>
      <trkpt lat="43.76367" lon="4.82232">
        <ele>205.38</ele>
        <time>2024-03-28T10:02:13Z</time>
      </trkpt>
      <trkpt lat="43.76342" lon="4.82262">
        <ele>207.78</ele>
        <time>2024-03-28T10:02:26Z</time>
      </trkpt>
      <trkpt lat="43.76313" lon="4.82288">
        <ele>210.19</ele>
        <time>2024-03-28T10:02:40Z</time>
      </trkpt>
      <trkpt lat="43.76298" lon="4.82296">
        <ele>210.67</ele>
        <time>2024-03-28T10:02:49Z</time>
      </trkpt>
      <trkpt lat="43.76296" lon="4.82296">
        <ele>210.67</ele>
        <time>2024-03-28T10:02:50Z</time>
      </trkpt>
      <trkpt lat="43.76295" lon="4.82296">
        <ele>210.67</ele>
        <time>2024-03-28T10:02:51Z</time>
      </trkpt>
      <trkpt lat="43.76291" lon="4.82299">
        <ele>210.67</ele>
        <time>2024-03-28T10:03:02Z</time>
      </trkpt>
      <trkpt lat="43.76292" lon="4.82297">
        <ele>210.67</ele>
        <time>2024-03-28T10:03:19Z</time>
      </trkpt>
      <trkpt lat="43.7629" lon="4.823">
        <ele>210.67</ele>
        <time>2024-03-28T10:03:33Z</time>
      </trkpt>
      <trkpt lat="43.76274" lon="4.82303">
        <ele>210.67</ele>
        <time>2024-03-28T10:03:43Z</time>
      </trkpt>
      <trkpt lat="43.76241" lon="4.82306">
        <ele>211.15</ele>
        <time>2024-03-28T10:03:56Z</time>
      </trkpt>
      <trkpt lat="43.76214" lon="4.82317">
        <ele>212.11</ele>
        <time>2024-03-28T10:04:07Z</time>
      </trkpt>
      <trkpt lat="43.76186" lon="4.8234">
        <ele>212.59</ele>
        <time>2024-03-28T10:04:20Z</time>
      </trkpt>
      <trkpt lat="43.76153" lon="4.82351">
        <ele>214.03</ele>
        <time>2024-03-28T10:04:33Z</time>
      </trkpt>
      <trkpt lat="43.76124" lon="4.82358">
        <ele>214.99</ele>
        <time>2024-03-28T10:04:44Z</time>
      </trkpt>
      <trkpt lat="43.76094" lon="4.82367">
        <ele>217.4</ele>
        <time>2024-03-28T10:04:56Z</time>
      </trkpt>
      <trkpt lat="43.76084" lon="4.8237">
        <ele>217.88</ele>
        <time>2024-03-28T10:05:01Z</time>
      </trkpt>
      <trkpt lat="43.76082" lon="4.8237">
        <ele>218.36</ele>
        <time>2024-03-28T10:05:02Z</time>
      </trkpt>
      <trkpt lat="43.76079" lon="4.82371">
        <ele>218.36</ele>
        <time>2024-03-28T10:05:03Z</time>
      </trkpt>
      <trkpt lat="43.76077" lon="4.82371">
        <ele>218.36</ele>
        <time>2024-03-28T10:05:04Z</time>
      </trkpt>
      <trkpt lat="43.76075" lon="4.82371">
        <ele>218.36</ele>
        <time>2024-03-28T10:05:05Z</time>
      </trkpt>
      <trkpt lat="43.76072" lon="4.82371">
        <ele>218.84</ele>
        <time>2024-03-28T10:05:06Z</time>
      </trkpt>
      <trkpt lat="43.76043" lon="4.82369">
        <ele>221.24</ele>
        <time>2024-03-28T10:05:17Z</time>
      </trkpt>
      <trkpt lat="43.76013" lon="4.82368">
        <ele>224.12</ele>
        <time>2024-03-28T10:05:31Z</time>
      </trkpt>
      <trkpt lat="43.75979" lon="4.82367">
        <ele>226.53</ele>
        <time>2024-03-28T10:05:47Z</time>
      </trkpt>
      <trkpt lat="43.75949" lon="4.82366">
        <ele>228.45</ele>
        <time>2024-03-28T10:06:00Z</time>
      </trkpt>
      <trkpt lat="43.75921" lon="4.82362">
        <ele>229.89</ele>
        <time>2024-03-28T10:06:12Z</time>
      </trkpt>
      <trkpt lat="43.75885" lon="4.82348">
        <ele>231.81</ele>
        <time>2024-03-28T10:06:27Z</time>
      </trkpt>
      <trkpt lat="43.75859" lon="4.82326">
        <ele>232.78</ele>
        <time>2024-03-28T10:06:40Z</time>
      </trkpt>
      <trkpt lat="43.7586" lon="4.823">
        <ele>234.7</ele>
        <time>2024-03-28T10:06:49Z</time>
      </trkpt>
      <trkpt lat="43.75882" lon="4.82292">
        <ele>237.58</ele>
        <time>2024-03-28T10:06:59Z</time>
      </trkpt>
      <trkpt lat="43.75908" lon="4.82277">
        <ele>240.95</ele>
        <time>2024-03-28T10:07:11Z</time>
      </trkpt>
      <trkpt lat="43.75915" lon="4.82248">
        <ele>243.35</ele>
        <time>2024-03-28T10:07:22Z</time>
      </trkpt>
      <trkpt lat="43.75893" lon="4.82233">
        <ele>245.27</ele>
        <time>2024-03-28T10:07:33Z</time>
      </trkpt>
      <trkpt lat="43.75869" lon="4.82237">
        <ele>248.16</ele>
        <time>2024-03-28T10:07:44Z</time>
      </trkpt>
      <trkpt lat="43.75851" lon="4.82234">
        <ele>250.08</ele>
        <time>2024-03-28T10:07:52Z</time>
      </trkpt>
      <trkpt lat="43.75849" lon="4.82232">
        <ele>250.08</ele>
        <time>2024-03-28T10:07:53Z</time>
      </trkpt>
      <trkpt lat="43.75838" lon="4.822">
        <ele>252.48</ele>
        <time>2024-03-28T10:08:04Z</time>
      </trkpt>
      <trkpt lat="43.75818" lon="4.82182">
        <ele>253.93</ele>
        <time>2024-03-28T10:08:15Z</time>
      </trkpt>
      <trkpt lat="43.75788" lon="4.82169">
        <ele>257.77</ele>
        <time>2024-03-28T10:08:29Z</time>
      </trkpt>
      <trkpt lat="43.75764" lon="4.82172">
        <ele>260.65</ele>
        <time>2024-03-28T10:08:41Z</time>
      </trkpt>
      <trkpt lat="43.75749" lon="4.82194">
        <ele>263.06</ele>
        <time>2024-03-28T10:08:52Z</time>
      </trkpt>
      <trkpt lat="43.75729" lon="4.8219">
        <ele>265.46</ele>
        <time>2024-03-28T10:09:02Z</time>
      </trkpt>
      <trkpt lat="43.75706" lon="4.82178">
        <ele>267.86</ele>
        <time>2024-03-28T10:09:13Z</time>
      </trkpt>
      <trkpt lat="43.75687" lon="4.82167">
        <ele>269.79</ele>
        <time>2024-03-28T10:09:24Z</time>
      </trkpt>
      <trkpt lat="43.75686" lon="4.82166">
        <ele>269.79</ele>
        <time>2024-03-28T10:09:25Z</time>
      </trkpt>
      <trkpt lat="43.75688" lon="4.82165">
        <ele>269.79</ele>
        <time>2024-03-28T10:09:34Z</time>
      </trkpt>
      <trkpt lat="43.75688" lon="4.82166">
        <ele>269.79</ele>
        <time>2024-03-28T10:09:51Z</time>
      </trkpt>
      <trkpt lat="43.75687" lon="4.82165">
        <ele>269.79</ele>
        <time>2024-03-28T10:10:11Z</time>
      </trkpt>
      <trkpt lat="43.75686" lon="4.82165">
        <ele>269.79</ele>
        <time>2024-03-28T10:10:29Z</time>
      </trkpt>
      <trkpt lat="43.75685" lon="4.82164">
        <ele>269.79</ele>
        <time>2024-03-28T10:10:45Z</time>
      </trkpt>
      <trkpt lat="43.75685" lon="4.82166">
        <ele>269.79</ele>
        <time>2024-03-28T10:11:02Z</time>
      </trkpt>
      <trkpt lat="43.75685" lon="4.82168">
        <ele>269.79</ele>
        <time>2024-03-28T10:11:20Z</time>
      </trkpt>
      <trkpt lat="43.75684" lon="4.82166">
        <ele>269.79</ele>
        <time>2024-03-28T10:11:39Z</time>
      </trkpt>
      <trkpt lat="43.75685" lon="4.82166">
        <ele>269.79</ele>
        <time>2024-03-28T10:12:01Z</time>
      </trkpt>
      <trkpt lat="43.75685" lon="4.82165">
        <ele>269.79</ele>
        <time>2024-03-28T10:12:18Z</time>
      </trkpt>
      <trkpt lat="43.75686" lon="4.82162">
        <ele>269.79</ele>
        <time>2024-03-28T10:12:31Z</time>
      </trkpt>
      <trkpt lat="43.75687" lon="4.82161">
        <ele>269.79</ele>
        <time>2024-03-28T10:12:32Z</time>
      </trkpt>
      <trkpt lat="43.75688" lon="4.8216">
        <ele>269.79</ele>
        <time>2024-03-28T10:12:33Z</time>
      </trkpt>
      <trkpt lat="43.75689" lon="4.82158">
        <ele>269.79</ele>
        <time>2024-03-28T10:12:34Z</time>
      </trkpt>
      <trkpt lat="43.7569" lon="4.82157">
        <ele>269.79</ele>
        <time>2024-03-28T10:12:35Z</time>
      </trkpt>
      <trkpt lat="43.75692" lon="4.82155">
        <ele>269.79</ele>
        <time>2024-03-28T10:12:36Z</time>
      </trkpt>
      <trkpt lat="43.75713" lon="4.82124">
        <ele>269.79</ele>
        <time>2024-03-28T10:12:47Z</time>
      </trkpt>
      <trkpt lat="43.75718" lon="4.82094">
        <ele>270.75</ele>
        <time>2024-03-28T10:12:56Z</time>
      </trkpt>
      <trkpt lat="43.75729" lon="4.82064">
        <ele>274.11</ele>
        <time>2024-03-28T10:13:07Z</time>
      </trkpt>
      <trkpt lat="43.75745" lon="4.82022">
        <ele>276.52</ele>
        <time>2024-03-28T10:13:21Z</time>
      </trkpt>
      <trkpt lat="43.7575" lon="4.81989">
        <ele>279.4</ele>
        <time>2024-03-28T10:13:32Z</time>
      </trkpt>
      <trkpt lat="43.7574" lon="4.81955">
        <ele>281.8</ele>
        <time>2024-03-28T10:13:44Z</time>
      </trkpt>
      <trkpt lat="43.75714" lon="4.81951">
        <ele>284.69</ele>
        <time>2024-03-28T10:13:56Z</time>
      </trkpt>
      <trkpt lat="43.75705" lon="4.81949">
        <ele>286.13</ele>
        <time>2024-03-28T10:14:00Z</time>
      </trkpt>
      <trkpt lat="43.75704" lon="4.81947">
        <ele>286.13</ele>
        <time>2024-03-28T10:14:01Z</time>
      </trkpt>
      <trkpt lat="43.75702" lon="4.81944">
        <ele>286.13</ele>
        <time>2024-03-28T10:14:02Z</time>
      </trkpt>
      <trkpt lat="43.75701" lon="4.81941">
        <ele>286.13</ele>
        <time>2024-03-28T10:14:03Z</time>
      </trkpt>
      <trkpt lat="43.757" lon="4.81939">
        <ele>286.61</ele>
        <time>2024-03-28T10:14:04Z</time>
      </trkpt>
      <trkpt lat="43.75699" lon="4.81936">
        <ele>286.61</ele>
        <time>2024-03-28T10:14:05Z</time>
      </trkpt>
      <trkpt lat="43.7568" lon="4.81905">
        <ele>289.97</ele>
        <time>2024-03-28T10:14:18Z</time>
      </trkpt>
      <trkpt lat="43.75652" lon="4.81892">
        <ele>291.9</ele>
        <time>2024-03-28T10:14:31Z</time>
      </trkpt>
      <trkpt lat="43.75651" lon="4.81887">
        <ele>291.9</ele>
        <time>2024-03-28T10:14:33Z</time>
      </trkpt>
      <trkpt lat="43.75651" lon="4.81884">
        <ele>292.86</ele>
        <time>2024-03-28T10:14:34Z</time>
      </trkpt>
      <trkpt lat="43.75652" lon="4.81881">
        <ele>292.86</ele>
        <time>2024-03-28T10:14:35Z</time>
      </trkpt>
      <trkpt lat="43.75654" lon="4.81878">
        <ele>292.86</ele>
        <time>2024-03-28T10:14:36Z</time>
      </trkpt>
      <trkpt lat="43.75655" lon="4.81876">
        <ele>292.86</ele>
        <time>2024-03-28T10:14:37Z</time>
      </trkpt>
      <trkpt lat="43.75657" lon="4.81873">
        <ele>292.86</ele>
        <time>2024-03-28T10:14:38Z</time>
      </trkpt>
      <trkpt lat="43.75659" lon="4.8187">
        <ele>292.38</ele>
        <time>2024-03-28T10:14:39Z</time>
      </trkpt>
      <trkpt lat="43.75687" lon="4.81825">
        <ele>292.86</ele>
        <time>2024-03-28T10:14:55Z</time>
      </trkpt>
      <trkpt lat="43.75713" lon="4.81785">
        <ele>292.86</ele>
        <time>2024-03-28T10:15:09Z</time>
      </trkpt>
      <trkpt lat="43.75737" lon="4.81724">
        <ele>292.86</ele>
        <time>2024-03-28T10:15:26Z</time>
      </trkpt>
      <trkpt lat="43.75768" lon="4.81688">
        <ele>292.86</ele>
        <time>2024-03-28T10:15:39Z</time>
      </trkpt>
      <trkpt lat="43.75795" lon="4.81647">
        <ele>291.42</ele>
        <time>2024-03-28T10:15:51Z</time>
      </trkpt>
      <trkpt lat="43.75795" lon="4.81642">
        <ele>291.42</ele>
        <time>2024-03-28T10:15:52Z</time>
      </trkpt>
      <trkpt lat="43.75791" lon="4.81616">
        <ele>290.46</ele>
        <time>2024-03-28T10:15:57Z</time>
      </trkpt>
      <trkpt lat="43.75788" lon="4.81612">
        <ele>289.97</ele>
        <time>2024-03-28T10:15:58Z</time>
      </trkpt>
      <trkpt lat="43.75784" lon="4.81608">
        <ele>289.49</ele>
        <time>2024-03-28T10:15:59Z</time>
      </trkpt>
      <trkpt lat="43.75779" lon="4.81606">
        <ele>289.49</ele>
        <time>2024-03-28T10:16:00Z</time>
      </trkpt>
      <trkpt lat="43.75775" lon="4.81603">
        <ele>289.01</ele>
        <time>2024-03-28T10:16:01Z</time>
      </trkpt>
      <trkpt lat="43.75769" lon="4.81599">
        <ele>288.05</ele>
        <time>2024-03-28T10:16:02Z</time>
      </trkpt>
      <trkpt lat="43.75764" lon="4.81596">
        <ele>288.05</ele>
        <time>2024-03-28T10:16:03Z</time>
      </trkpt>
      <trkpt lat="43.7576" lon="4.81591">
        <ele>287.57</ele>
        <time>2024-03-28T10:16:04Z</time>
      </trkpt>
      <trkpt lat="43.75757" lon="4.81585">
        <ele>287.57</ele>
        <time>2024-03-28T10:16:05Z</time>
      </trkpt>
      <trkpt lat="43.75756" lon="4.81578">
        <ele>286.61</ele>
        <time>2024-03-28T10:16:06Z</time>
      </trkpt>
      <trkpt lat="43.75756" lon="4.8157">
        <ele>286.61</ele>
        <time>2024-03-28T10:16:07Z</time>
      </trkpt>
      <trkpt lat="43.75755" lon="4.81564">
        <ele>286.61</ele>
        <time>2024-03-28T10:16:08Z</time>
      </trkpt>
      <trkpt lat="43.75754" lon="4.81557">
        <ele>286.61</ele>
        <time>2024-03-28T10:16:09Z</time>
      </trkpt>
      <trkpt lat="43.75752" lon="4.81552">
        <ele>285.65</ele>
        <time>2024-03-28T10:16:10Z</time>
      </trkpt>
      <trkpt lat="43.75748" lon="4.81547">
        <ele>285.65</ele>
        <time>2024-03-28T10:16:11Z</time>
      </trkpt>
      <trkpt lat="43.75744" lon="4.81544">
        <ele>285.17</ele>
        <time>2024-03-28T10:16:12Z</time>
      </trkpt>
      <trkpt lat="43.7574" lon="4.81542">
        <ele>285.17</ele>
        <time>2024-03-28T10:16:13Z</time>
      </trkpt>
      <trkpt lat="43.75735" lon="4.81541">
        <ele>284.69</ele>
        <time>2024-03-28T10:16:14Z</time>
      </trkpt>
      <trkpt lat="43.75721" lon="4.81534">
        <ele>284.21</ele>
        <time>2024-03-28T10:16:17Z</time>
      </trkpt>
      <trkpt lat="43.75717" lon="4.81531">
        <ele>283.73</ele>
        <time>2024-03-28T10:16:18Z</time>
      </trkpt>
      <trkpt lat="43.75713" lon="4.81527">
        <ele>283.25</ele>
        <time>2024-03-28T10:16:19Z</time>
      </trkpt>
      <trkpt lat="43.75709" lon="4.81522">
        <ele>283.25</ele>
        <time>2024-03-28T10:16:20Z</time>
      </trkpt>
      <trkpt lat="43.75706" lon="4.81516">
        <ele>282.77</ele>
        <time>2024-03-28T10:16:21Z</time>
      </trkpt>
      <trkpt lat="43.75705" lon="4.81512">
        <ele>282.77</ele>
        <time>2024-03-28T10:16:22Z</time>
      </trkpt>
      <trkpt lat="43.75704" lon="4.8151">
        <ele>283.25</ele>
        <time>2024-03-28T10:16:23Z</time>
      </trkpt>
      <trkpt lat="43.75704" lon="4.81507">
        <ele>282.28</ele>
        <time>2024-03-28T10:16:24Z</time>
      </trkpt>
      <trkpt lat="43.75704" lon="4.81505">
        <ele>282.28</ele>
        <time>2024-03-28T10:16:25Z</time>
      </trkpt>
      <trkpt lat="43.75709" lon="4.81483">
        <ele>282.28</ele>
        <time>2024-03-28T10:16:34Z</time>
      </trkpt>
      <trkpt lat="43.75712" lon="4.81438">
        <ele>283.73</ele>
        <time>2024-03-28T10:16:45Z</time>
      </trkpt>
      <trkpt lat="43.75704" lon="4.81383">
        <ele>285.17</ele>
        <time>2024-03-28T10:16:58Z</time>
      </trkpt>
      <trkpt lat="43.75673" lon="4.81352">
        <ele>285.65</ele>
        <time>2024-03-28T10:17:10Z</time>
      </trkpt>
      <trkpt lat="43.75637" lon="4.81325">
        <ele>286.13</ele>
        <time>2024-03-28T10:17:23Z</time>
      </trkpt>
      <trkpt lat="43.7562" lon="4.81292">
        <ele>286.13</ele>
        <time>2024-03-28T10:17:32Z</time>
      </trkpt>
      <trkpt lat="43.75594" lon="4.81261">
        <ele>286.61</ele>
        <time>2024-03-28T10:17:43Z</time>
      </trkpt>
      <trkpt lat="43.75572" lon="4.81237">
        <ele>286.61</ele>
        <time>2024-03-28T10:17:52Z</time>
      </trkpt>
      <trkpt lat="43.75572" lon="4.81233">
        <ele>286.61</ele>
        <time>2024-03-28T10:17:53Z</time>
      </trkpt>
      <trkpt lat="43.75572" lon="4.81229">
        <ele>286.61</ele>
        <time>2024-03-28T10:17:54Z</time>
      </trkpt>
      <trkpt lat="43.75574" lon="4.81225">
        <ele>286.61</ele>
        <time>2024-03-28T10:17:55Z</time>
      </trkpt>
      <trkpt lat="43.75577" lon="4.81221">
        <ele>286.61</ele>
        <time>2024-03-28T10:17:56Z</time>
      </trkpt>
      <trkpt lat="43.7558" lon="4.81219">
        <ele>286.61</ele>
        <time>2024-03-28T10:17:57Z</time>
      </trkpt>
      <trkpt lat="43.75585" lon="4.81217">
        <ele>286.61</ele>
        <time>2024-03-28T10:17:58Z</time>
      </trkpt>
      <trkpt lat="43.75589" lon="4.81217">
        <ele>286.61</ele>
        <time>2024-03-28T10:17:59Z</time>
      </trkpt>
      <trkpt lat="43.75594" lon="4.81217">
        <ele>284.69</ele>
        <time>2024-03-28T10:18:00Z</time>
      </trkpt>
      <trkpt lat="43.75598" lon="4.81219">
        <ele>284.69</ele>
        <time>2024-03-28T10:18:01Z</time>
      </trkpt>
      <trkpt lat="43.75603" lon="4.81221">
        <ele>284.21</ele>
        <time>2024-03-28T10:18:02Z</time>
      </trkpt>
      <trkpt lat="43.75613" lon="4.81225">
        <ele>283.25</ele>
        <time>2024-03-28T10:18:04Z</time>
      </trkpt>
      <trkpt lat="43.75618" lon="4.81225">
        <ele>282.77</ele>
        <time>2024-03-28T10:18:05Z</time>
      </trkpt>
      <trkpt lat="43.75623" lon="4.81224">
        <ele>282.77</ele>
        <time>2024-03-28T10:18:06Z</time>
      </trkpt>
      <trkpt lat="43.75628" lon="4.81219">
        <ele>281.8</ele>
        <time>2024-03-28T10:18:07Z</time>
      </trkpt>
      <trkpt lat="43.75632" lon="4.81213">
        <ele>281.8</ele>
        <time>2024-03-28T10:18:08Z</time>
      </trkpt>
      <trkpt lat="43.75633" lon="4.81208">
        <ele>280.84</ele>
        <time>2024-03-28T10:18:09Z</time>
      </trkpt>
      <trkpt lat="43.75635" lon="4.81201">
        <ele>280.36</ele>
        <time>2024-03-28T10:18:10Z</time>
      </trkpt>
      <trkpt lat="43.75636" lon="4.81193">
        <ele>279.4</ele>
        <time>2024-03-28T10:18:11Z</time>
      </trkpt>
      <trkpt lat="43.75637" lon="4.81185">
        <ele>279.4</ele>
        <time>2024-03-28T10:18:12Z</time>
      </trkpt>
      <trkpt lat="43.75639" lon="4.81178">
        <ele>278.92</ele>
        <time>2024-03-28T10:18:13Z</time>
      </trkpt>
      <trkpt lat="43.75642" lon="4.8117">
        <ele>277.96</ele>
        <time>2024-03-28T10:18:14Z</time>
      </trkpt>
      <trkpt lat="43.75644" lon="4.81163">
        <ele>277.96</ele>
        <time>2024-03-28T10:18:15Z</time>
      </trkpt>
      <trkpt lat="43.75647" lon="4.81155">
        <ele>277.48</ele>
        <time>2024-03-28T10:18:16Z</time>
      </trkpt>
      <trkpt lat="43.75648" lon="4.81147">
        <ele>276.52</ele>
        <time>2024-03-28T10:18:17Z</time>
      </trkpt>
      <trkpt lat="43.75648" lon="4.81139">
        <ele>276.52</ele>
        <time>2024-03-28T10:18:18Z</time>
      </trkpt>
      <trkpt lat="43.75647" lon="4.8113">
        <ele>275.56</ele>
        <time>2024-03-28T10:18:19Z</time>
      </trkpt>
      <trkpt lat="43.75647" lon="4.81121">
        <ele>275.56</ele>
        <time>2024-03-28T10:18:20Z</time>
      </trkpt>
      <trkpt lat="43.75641" lon="4.81074">
        <ele>272.19</ele>
        <time>2024-03-28T10:18:25Z</time>
      </trkpt>
      <trkpt lat="43.75637" lon="4.81028">
        <ele>268.83</ele>
        <time>2024-03-28T10:18:30Z</time>
      </trkpt>
      <trkpt lat="43.75638" lon="4.81019">
        <ele>268.35</ele>
        <time>2024-03-28T10:18:31Z</time>
      </trkpt>
      <trkpt lat="43.7564" lon="4.81012">
        <ele>268.35</ele>
        <time>2024-03-28T10:18:32Z</time>
      </trkpt>
      <trkpt lat="43.75644" lon="4.81008">
        <ele>267.38</ele>
        <time>2024-03-28T10:18:33Z</time>
      </trkpt>
      <trkpt lat="43.75649" lon="4.81005">
        <ele>267.86</ele>
        <time>2024-03-28T10:18:34Z</time>
      </trkpt>
      <trkpt lat="43.75654" lon="4.81002">
        <ele>266.9</ele>
        <time>2024-03-28T10:18:35Z</time>
      </trkpt>
      <trkpt lat="43.7566" lon="4.80999">
        <ele>265.94</ele>
        <time>2024-03-28T10:18:36Z</time>
      </trkpt>
      <trkpt lat="43.75666" lon="4.80997">
        <ele>265.46</ele>
        <time>2024-03-28T10:18:37Z</time>
      </trkpt>
      <trkpt lat="43.75672" lon="4.80992">
        <ele>264.98</ele>
        <time>2024-03-28T10:18:38Z</time>
      </trkpt>
      <trkpt lat="43.75677" lon="4.80986">
        <ele>264.02</ele>
        <time>2024-03-28T10:18:39Z</time>
      </trkpt>
      <trkpt lat="43.75681" lon="4.80979">
        <ele>264.5</ele>
        <time>2024-03-28T10:18:40Z</time>
      </trkpt>
      <trkpt lat="43.75684" lon="4.80972">
        <ele>264.5</ele>
        <time>2024-03-28T10:18:41Z</time>
      </trkpt>
      <trkpt lat="43.75686" lon="4.80965">
        <ele>264.5</ele>
        <time>2024-03-28T10:18:42Z</time>
      </trkpt>
      <trkpt lat="43.75688" lon="4.80958">
        <ele>264.5</ele>
        <time>2024-03-28T10:18:43Z</time>
      </trkpt>
      <trkpt lat="43.75693" lon="4.80938">
        <ele>264.02</ele>
        <time>2024-03-28T10:18:46Z</time>
      </trkpt>
      <trkpt lat="43.75696" lon="4.80921">
        <ele>264.02</ele>
        <time>2024-03-28T10:18:49Z</time>
      </trkpt>
      <trkpt lat="43.75697" lon="4.8091">
        <ele>264.02</ele>
        <time>2024-03-28T10:18:51Z</time>
      </trkpt>
      <trkpt lat="43.75692" lon="4.80851">
        <ele>263.54</ele>
        <time>2024-03-28T10:19:02Z</time>
      </trkpt>
      <trkpt lat="43.75682" lon="4.80824">
        <ele>263.54</ele>
        <time>2024-03-28T10:19:08Z</time>
      </trkpt>
      <trkpt lat="43.75681" lon="4.80818">
        <ele>263.06</ele>
        <time>2024-03-28T10:19:09Z</time>
      </trkpt>
      <trkpt lat="43.75679" lon="4.80813">
        <ele>263.06</ele>
        <time>2024-03-28T10:19:10Z</time>
      </trkpt>
      <trkpt lat="43.75679" lon="4.80807">
        <ele>262.58</ele>
        <time>2024-03-28T10:19:11Z</time>
      </trkpt>
      <trkpt lat="43.75679" lon="4.80801">
        <ele>262.58</ele>
        <time>2024-03-28T10:19:12Z</time>
      </trkpt>
      <trkpt lat="43.75679" lon="4.80796">
        <ele>262.58</ele>
        <time>2024-03-28T10:19:13Z</time>
      </trkpt>
      <trkpt lat="43.7568" lon="4.80791">
        <ele>262.58</ele>
        <time>2024-03-28T10:19:14Z</time>
      </trkpt>
      <trkpt lat="43.7568" lon="4.80786">
        <ele>262.58</ele>
        <time>2024-03-28T10:19:15Z</time>
      </trkpt>
      <trkpt lat="43.75681" lon="4.80738">
        <ele>262.1</ele>
        <time>2024-03-28T10:19:24Z</time>
      </trkpt>
      <trkpt lat="43.75661" lon="4.80696">
        <ele>262.1</ele>
        <time>2024-03-28T10:19:34Z</time>
      </trkpt>
      <trkpt lat="43.75653" lon="4.80671">
        <ele>262.1</ele>
        <time>2024-03-28T10:19:43Z</time>
      </trkpt>
      <trkpt lat="43.75645" lon="4.80637">
        <ele>261.62</ele>
        <time>2024-03-28T10:19:53Z</time>
      </trkpt>
      <trkpt lat="43.75637" lon="4.80599">
        <ele>258.73</ele>
        <time>2024-03-28T10:20:00Z</time>
      </trkpt>
      <trkpt lat="43.75631" lon="4.80573">
        <ele>256.81</ele>
        <time>2024-03-28T10:20:04Z</time>
      </trkpt>
      <trkpt lat="43.7563" lon="4.80567">
        <ele>256.81</ele>
        <time>2024-03-28T10:20:05Z</time>
      </trkpt>
      <trkpt lat="43.7563" lon="4.80561">
        <ele>256.33</ele>
        <time>2024-03-28T10:20:06Z</time>
      </trkpt>
      <trkpt lat="43.75631" lon="4.80554">
        <ele>255.37</ele>
        <time>2024-03-28T10:20:07Z</time>
      </trkpt>
      <trkpt lat="43.75632" lon="4.80548">
        <ele>255.37</ele>
        <time>2024-03-28T10:20:08Z</time>
      </trkpt>
      <trkpt lat="43.75633" lon="4.80542">
        <ele>254.89</ele>
        <time>2024-03-28T10:20:09Z</time>
      </trkpt>
      <trkpt lat="43.75634" lon="4.80535">
        <ele>254.41</ele>
        <time>2024-03-28T10:20:10Z</time>
      </trkpt>
      <trkpt lat="43.75641" lon="4.80511">
        <ele>252.48</ele>
        <time>2024-03-28T10:20:14Z</time>
      </trkpt>
      <trkpt lat="43.75642" lon="4.80504">
        <ele>252.48</ele>
        <time>2024-03-28T10:20:15Z</time>
      </trkpt>
      <trkpt lat="43.75642" lon="4.80497">
        <ele>251.52</ele>
        <time>2024-03-28T10:20:16Z</time>
      </trkpt>
      <trkpt lat="43.75641" lon="4.8049">
        <ele>251.52</ele>
        <time>2024-03-28T10:20:17Z</time>
      </trkpt>
      <trkpt lat="43.7564" lon="4.80483">
        <ele>250.56</ele>
        <time>2024-03-28T10:20:18Z</time>
      </trkpt>
      <trkpt lat="43.75638" lon="4.80477">
        <ele>250.56</ele>
        <time>2024-03-28T10:20:19Z</time>
      </trkpt>
      <trkpt lat="43.75636" lon="4.80471">
        <ele>250.56</ele>
        <time>2024-03-28T10:20:20Z</time>
      </trkpt>
      <trkpt lat="43.75633" lon="4.80465">
        <ele>250.56</ele>
        <time>2024-03-28T10:20:21Z</time>
      </trkpt>
      <trkpt lat="43.7563" lon="4.8046">
        <ele>250.56</ele>
        <time>2024-03-28T10:20:22Z</time>
      </trkpt>
      <trkpt lat="43.75627" lon="4.80456">
        <ele>250.56</ele>
        <time>2024-03-28T10:20:23Z</time>
      </trkpt>
      <trkpt lat="43.75624" lon="4.80453">
        <ele>250.56</ele>
        <time>2024-03-28T10:20:24Z</time>
      </trkpt>
      <trkpt lat="43.75594" lon="4.80414">
        <ele>250.56</ele>
        <time>2024-03-28T10:20:35Z</time>
      </trkpt>
      <trkpt lat="43.75588" lon="4.80409">
        <ele>252</ele>
        <time>2024-03-28T10:20:37Z</time>
      </trkpt>
      <trkpt lat="43.75553" lon="4.80406">
        <ele>252.96</ele>
        <time>2024-03-28T10:20:47Z</time>
      </trkpt>
      <trkpt lat="43.75496" lon="4.80415">
        <ele>253.93</ele>
        <time>2024-03-28T10:21:03Z</time>
      </trkpt>
      <trkpt lat="43.75486" lon="4.80412">
        <ele>253.93</ele>
        <time>2024-03-28T10:21:06Z</time>
      </trkpt>
      <trkpt lat="43.75484" lon="4.80408">
        <ele>253.93</ele>
        <time>2024-03-28T10:21:07Z</time>
      </trkpt>
      <trkpt lat="43.75483" lon="4.80403">
        <ele>253.93</ele>
        <time>2024-03-28T10:21:08Z</time>
      </trkpt>
      <trkpt lat="43.75483" lon="4.80399">
        <ele>253.93</ele>
        <time>2024-03-28T10:21:09Z</time>
      </trkpt>
      <trkpt lat="43.75483" lon="4.80394">
        <ele>253.93</ele>
        <time>2024-03-28T10:21:10Z</time>
      </trkpt>
      <trkpt lat="43.75493" lon="4.80357">
        <ele>255.37</ele>
        <time>2024-03-28T10:21:20Z</time>
      </trkpt>
      <trkpt lat="43.75513" lon="4.80328">
        <ele>257.29</ele>
        <time>2024-03-28T10:21:31Z</time>
      </trkpt>
      <trkpt lat="43.75531" lon="4.80295">
        <ele>259.21</ele>
        <time>2024-03-28T10:21:42Z</time>
      </trkpt>
      <trkpt lat="43.75558" lon="4.8027">
        <ele>261.14</ele>
        <time>2024-03-28T10:21:54Z</time>
      </trkpt>
      <trkpt lat="43.75589" lon="4.80247">
        <ele>262.58</ele>
        <time>2024-03-28T10:22:07Z</time>
      </trkpt>
      <trkpt lat="43.75618" lon="4.80225">
        <ele>264.02</ele>
        <time>2024-03-28T10:22:19Z</time>
      </trkpt>
      <trkpt lat="43.75619" lon="4.80222">
        <ele>264.5</ele>
        <time>2024-03-28T10:22:20Z</time>
      </trkpt>
      <trkpt lat="43.75619" lon="4.80218">
        <ele>264.5</ele>
        <time>2024-03-28T10:22:21Z</time>
      </trkpt>
      <trkpt lat="43.75619" lon="4.80215">
        <ele>264.5</ele>
        <time>2024-03-28T10:22:22Z</time>
      </trkpt>
      <trkpt lat="43.75618" lon="4.80211">
        <ele>264.5</ele>
        <time>2024-03-28T10:22:23Z</time>
      </trkpt>
      <trkpt lat="43.75616" lon="4.80208">
        <ele>264.5</ele>
        <time>2024-03-28T10:22:24Z</time>
      </trkpt>
      <trkpt lat="43.75614" lon="4.80205">
        <ele>264.5</ele>
        <time>2024-03-28T10:22:25Z</time>
      </trkpt>
      <trkpt lat="43.75612" lon="4.80202">
        <ele>264.5</ele>
        <time>2024-03-28T10:22:26Z</time>
      </trkpt>
      <trkpt lat="43.75609" lon="4.802">
        <ele>264.5</ele>
        <time>2024-03-28T10:22:27Z</time>
      </trkpt>
      <trkpt lat="43.75583" lon="4.80173">
        <ele>265.94</ele>
        <time>2024-03-28T10:22:39Z</time>
      </trkpt>
      <trkpt lat="43.7557" lon="4.80134">
        <ele>267.86</ele>
        <time>2024-03-28T10:22:51Z</time>
      </trkpt>
      <trkpt lat="43.75584" lon="4.8009">
        <ele>268.83</ele>
        <time>2024-03-28T10:23:04Z</time>
      </trkpt>
      <trkpt lat="43.75603" lon="4.80054">
        <ele>270.27</ele>
        <time>2024-03-28T10:23:16Z</time>
      </trkpt>
      <trkpt lat="43.75608" lon="4.80003">
        <ele>271.23</ele>
        <time>2024-03-28T10:23:28Z</time>
      </trkpt>
      <trkpt lat="43.75618" lon="4.79944">
        <ele>272.19</ele>
        <time>2024-03-28T10:23:42Z</time>
      </trkpt>
      <trkpt lat="43.75618" lon="4.79878">
        <ele>273.15</ele>
        <time>2024-03-28T10:23:57Z</time>
      </trkpt>
      <trkpt lat="43.75614" lon="4.79843">
        <ele>274.11</ele>
        <time>2024-03-28T10:24:06Z</time>
      </trkpt>
      <trkpt lat="43.75627" lon="4.79809">
        <ele>274.59</ele>
        <time>2024-03-28T10:24:15Z</time>
      </trkpt>
      <trkpt lat="43.75609" lon="4.79787">
        <ele>275.56</ele>
        <time>2024-03-28T10:24:23Z</time>
      </trkpt>
      <trkpt lat="43.75567" lon="4.7978">
        <ele>276.52</ele>
        <time>2024-03-28T10:24:36Z</time>
      </trkpt>
      <trkpt lat="43.75528" lon="4.79773">
        <ele>277.96</ele>
        <time>2024-03-28T10:24:48Z</time>
      </trkpt>
      <trkpt lat="43.75493" lon="4.79784">
        <ele>278.44</ele>
        <time>2024-03-28T10:24:59Z</time>
      </trkpt>
      <trkpt lat="43.75462" lon="4.79779">
        <ele>278.44</ele>
        <time>2024-03-28T10:25:09Z</time>
      </trkpt>
      <trkpt lat="43.75457" lon="4.79757">
        <ele>277.48</ele>
        <time>2024-03-28T10:25:14Z</time>
      </trkpt>
      <trkpt lat="43.75451" lon="4.79715">
        <ele>276.04</ele>
        <time>2024-03-28T10:25:22Z</time>
      </trkpt>
      <trkpt lat="43.75448" lon="4.79711">
        <ele>275.56</ele>
        <time>2024-03-28T10:25:23Z</time>
      </trkpt>
      <trkpt lat="43.75444" lon="4.79707">
        <ele>275.56</ele>
        <time>2024-03-28T10:25:24Z</time>
      </trkpt>
      <trkpt lat="43.75441" lon="4.79705">
        <ele>275.56</ele>
        <time>2024-03-28T10:25:25Z</time>
      </trkpt>
      <trkpt lat="43.75437" lon="4.79703">
        <ele>275.07</ele>
        <time>2024-03-28T10:25:26Z</time>
      </trkpt>
      <trkpt lat="43.75433" lon="4.79701">
        <ele>275.07</ele>
        <time>2024-03-28T10:25:27Z</time>
      </trkpt>
      <trkpt lat="43.75429" lon="4.79699">
        <ele>275.07</ele>
        <time>2024-03-28T10:25:28Z</time>
      </trkpt>
      <trkpt lat="43.75394" lon="4.79679">
        <ele>274.11</ele>
        <time>2024-03-28T10:25:39Z</time>
      </trkpt>
      <trkpt lat="43.75379" lon="4.79643">
        <ele>273.63</ele>
        <time>2024-03-28T10:25:49Z</time>
      </trkpt>
      <trkpt lat="43.75377" lon="4.79643">
        <ele>273.15</ele>
        <time>2024-03-28T10:25:58Z</time>
      </trkpt>
      <trkpt lat="43.75378" lon="4.79643">
        <ele>273.15</ele>
        <time>2024-03-28T10:26:17Z</time>
      </trkpt>
      <trkpt lat="43.75376" lon="4.79641">
        <ele>273.15</ele>
        <time>2024-03-28T10:26:30Z</time>
      </trkpt>
      <trkpt lat="43.75372" lon="4.79633">
        <ele>272.67</ele>
        <time>2024-03-28T10:26:39Z</time>
      </trkpt>
      <trkpt lat="43.75369" lon="4.79629">
        <ele>272.67</ele>
        <time>2024-03-28T10:26:42Z</time>
      </trkpt>
      <trkpt lat="43.75339" lon="4.79626">
        <ele>271.71</ele>
        <time>2024-03-28T10:26:53Z</time>
      </trkpt>
      <trkpt lat="43.75303" lon="4.79631">
        <ele>269.79</ele>
        <time>2024-03-28T10:27:03Z</time>
      </trkpt>
      <trkpt lat="43.75264" lon="4.79644">
        <ele>266.42</ele>
        <time>2024-03-28T10:27:11Z</time>
      </trkpt>
      <trkpt lat="43.75239" lon="4.79647">
        <ele>264.98</ele>
        <time>2024-03-28T10:27:18Z</time>
      </trkpt>
      <trkpt lat="43.75222" lon="4.7966">
        <ele>263.54</ele>
        <time>2024-03-28T10:27:28Z</time>
      </trkpt>
      <trkpt lat="43.75221" lon="4.79661">
        <ele>263.06</ele>
        <time>2024-03-28T10:27:38Z</time>
      </trkpt>
      <trkpt lat="43.75221" lon="4.79661">
        <ele>263.06</ele>
        <time>2024-03-28T10:28:04Z</time>
      </trkpt>
      <trkpt lat="43.75222" lon="4.79659">
        <ele>263.06</ele>
        <time>2024-03-28T10:28:20Z</time>
      </trkpt>
      <trkpt lat="43.75222" lon="4.79656">
        <ele>263.06</ele>
        <time>2024-03-28T10:28:31Z</time>
      </trkpt>
      <trkpt lat="43.75222" lon="4.79655">
        <ele>263.06</ele>
        <time>2024-03-28T10:28:36Z</time>
      </trkpt>
      <trkpt lat="43.75223" lon="4.79653">
        <ele>263.06</ele>
        <time>2024-03-28T10:28:38Z</time>
      </trkpt>
      <trkpt lat="43.75227" lon="4.79652">
        <ele>263.06</ele>
        <time>2024-03-28T10:28:45Z</time>
      </trkpt>
      <trkpt lat="43.75227" lon="4.79652">
        <ele>263.06</ele>
        <time>2024-03-28T10:29:08Z</time>
      </trkpt>
      <trkpt lat="43.75227" lon="4.79652">
        <ele>259.21</ele>
        <time>2024-03-28T10:29:10Z</time>
      </trkpt>
      <trkpt lat="43.75227" lon="4.79652">
        <ele>264.5</ele>
        <time>2024-03-28T10:29:11Z</time>
      </trkpt>
      <trkpt lat="43.75227" lon="4.79652">
        <ele>258.73</ele>
        <time>2024-03-28T10:29:12Z</time>
      </trkpt>
      <trkpt lat="43.75227" lon="4.79652">
        <ele>266.42</ele>
        <time>2024-03-28T10:29:13Z</time>
      </trkpt>
      <trkpt lat="43.75227" lon="4.79652">
        <ele>263.06</ele>
        <time>2024-03-28T10:29:14Z</time>
      </trkpt>
      <trkpt lat="43.75227" lon="4.79652">
        <ele>265.94</ele>
        <time>2024-03-28T10:29:15Z</time>
      </trkpt>
      <trkpt lat="43.75227" lon="4.79652">
        <ele>263.54</ele>
        <time>2024-03-28T10:29:18Z</time>
      </trkpt>
      <trkpt lat="43.75228" lon="4.79651">
        <ele>263.54</ele>
        <time>2024-03-28T10:29:28Z</time>
      </trkpt>
      <trkpt lat="43.75227" lon="4.7965">
        <ele>263.54</ele>
        <time>2024-03-28T10:29:40Z</time>
      </trkpt>
      <trkpt lat="43.75226" lon="4.7965">
        <ele>263.54</ele>
        <time>2024-03-28T10:30:00Z</time>
      </trkpt>
      <trkpt lat="43.75227" lon="4.79648">
        <ele>263.54</ele>
        <time>2024-03-28T10:30:16Z</time>
      </trkpt>
      <trkpt lat="43.75228" lon="4.79647">
        <ele>263.54</ele>
        <time>2024-03-28T10:30:32Z</time>
      </trkpt>
      <trkpt lat="43.75228" lon="4.79645">
        <ele>263.54</ele>
        <time>2024-03-28T10:30:33Z</time>
      </trkpt>
      <trkpt lat="43.7523" lon="4.79642">
        <ele>263.06</ele>
        <time>2024-03-28T10:30:35Z</time>
      </trkpt>
      <trkpt lat="43.75231" lon="4.7964">
        <ele>263.06</ele>
        <time>2024-03-28T10:30:36Z</time>
      </trkpt>
      <trkpt lat="43.75232" lon="4.79637">
        <ele>263.06</ele>
        <time>2024-03-28T10:30:37Z</time>
      </trkpt>
      <trkpt lat="43.75232" lon="4.79635">
        <ele>263.06</ele>
        <time>2024-03-28T10:30:38Z</time>
      </trkpt>
      <trkpt lat="43.75232" lon="4.79632">
        <ele>263.06</ele>
        <time>2024-03-28T10:30:39Z</time>
      </trkpt>
      <trkpt lat="43.75236" lon="4.79586">
        <ele>261.14</ele>
        <time>2024-03-28T10:30:48Z</time>
      </trkpt>
      <trkpt lat="43.75244" lon="4.79547">
        <ele>258.73</ele>
        <time>2024-03-28T10:30:53Z</time>
      </trkpt>
      <trkpt lat="43.75247" lon="4.7954">
        <ele>258.25</ele>
        <time>2024-03-28T10:30:54Z</time>
      </trkpt>
      <trkpt lat="43.75251" lon="4.79534">
        <ele>258.25</ele>
        <time>2024-03-28T10:30:55Z</time>
      </trkpt>
      <trkpt lat="43.75256" lon="4.79528">
        <ele>257.77</ele>
        <time>2024-03-28T10:30:56Z</time>
      </trkpt>
      <trkpt lat="43.75261" lon="4.79522">
        <ele>257.77</ele>
        <time>2024-03-28T10:30:57Z</time>
      </trkpt>
      <trkpt lat="43.75264" lon="4.79514">
        <ele>256.81</ele>
        <time>2024-03-28T10:30:58Z</time>
      </trkpt>
      <trkpt lat="43.75266" lon="4.79505">
        <ele>256.33</ele>
        <time>2024-03-28T10:30:59Z</time>
      </trkpt>
      <trkpt lat="43.75266" lon="4.79496">
        <ele>255.37</ele>
        <time>2024-03-28T10:31:00Z</time>
      </trkpt>
      <trkpt lat="43.75264" lon="4.79485">
        <ele>254.41</ele>
        <time>2024-03-28T10:31:01Z</time>
      </trkpt>
      <trkpt lat="43.75262" lon="4.79479">
        <ele>254.41</ele>
        <time>2024-03-28T10:31:02Z</time>
      </trkpt>
      <trkpt lat="43.75253" lon="4.79449">
        <ele>251.52</ele>
        <time>2024-03-28T10:31:07Z</time>
      </trkpt>
      <trkpt lat="43.75251" lon="4.7944">
        <ele>251.04</ele>
        <time>2024-03-28T10:31:13Z</time>
      </trkpt>
      <trkpt lat="43.7525" lon="4.79437">
        <ele>250.56</ele>
        <time>2024-03-28T10:31:30Z</time>
      </trkpt>
      <trkpt lat="43.75241" lon="4.79419">
        <ele>249.12</ele>
        <time>2024-03-28T10:31:38Z</time>
      </trkpt>
      <trkpt lat="43.75238" lon="4.79415">
        <ele>248.64</ele>
        <time>2024-03-28T10:31:51Z</time>
      </trkpt>
      <trkpt lat="43.75241" lon="4.79398">
        <ele>246.72</ele>
        <time>2024-03-28T10:31:55Z</time>
      </trkpt>
      <trkpt lat="43.75249" lon="4.79383">
        <ele>245.75</ele>
        <time>2024-03-28T10:31:58Z</time>
      </trkpt>
      <trkpt lat="43.75251" lon="4.79377">
        <ele>245.75</ele>
        <time>2024-03-28T10:31:59Z</time>
      </trkpt>
      <trkpt lat="43.75251" lon="4.7937">
        <ele>244.79</ele>
        <time>2024-03-28T10:32:00Z</time>
      </trkpt>
      <trkpt lat="43.75249" lon="4.79364">
        <ele>244.79</ele>
        <time>2024-03-28T10:32:01Z</time>
      </trkpt>
      <trkpt lat="43.75246" lon="4.79358">
        <ele>243.83</ele>
        <time>2024-03-28T10:32:02Z</time>
      </trkpt>
      <trkpt lat="43.75242" lon="4.79353">
        <ele>243.35</ele>
        <time>2024-03-28T10:32:03Z</time>
      </trkpt>
      <trkpt lat="43.75238" lon="4.79349">
        <ele>243.35</ele>
        <time>2024-03-28T10:32:04Z</time>
      </trkpt>
      <trkpt lat="43.7523" lon="4.7934">
        <ele>242.39</ele>
        <time>2024-03-28T10:32:06Z</time>
      </trkpt>
      <trkpt lat="43.75226" lon="4.79334">
        <ele>241.43</ele>
        <time>2024-03-28T10:32:07Z</time>
      </trkpt>
      <trkpt lat="43.75223" lon="4.79329">
        <ele>240.95</ele>
        <time>2024-03-28T10:32:08Z</time>
      </trkpt>
      <trkpt lat="43.75221" lon="4.79324">
        <ele>240.95</ele>
        <time>2024-03-28T10:32:09Z</time>
      </trkpt>
      <trkpt lat="43.75219" lon="4.7932">
        <ele>239.99</ele>
        <time>2024-03-28T10:32:10Z</time>
      </trkpt>
      <trkpt lat="43.75218" lon="4.79316">
        <ele>239.99</ele>
        <time>2024-03-28T10:32:11Z</time>
      </trkpt>
      <trkpt lat="43.75217" lon="4.79312">
        <ele>239.99</ele>
        <time>2024-03-28T10:32:12Z</time>
      </trkpt>
      <trkpt lat="43.75218" lon="4.79308">
        <ele>239.51</ele>
        <time>2024-03-28T10:32:13Z</time>
      </trkpt>
      <trkpt lat="43.75219" lon="4.79303">
        <ele>239.51</ele>
        <time>2024-03-28T10:32:14Z</time>
      </trkpt>
      <trkpt lat="43.75221" lon="4.79298">
        <ele>238.54</ele>
        <time>2024-03-28T10:32:15Z</time>
      </trkpt>
      <trkpt lat="43.75233" lon="4.79268">
        <ele>235.18</ele>
        <time>2024-03-28T10:32:19Z</time>
      </trkpt>
      <trkpt lat="43.75247" lon="4.79234">
        <ele>231.81</ele>
        <time>2024-03-28T10:32:23Z</time>
      </trkpt>
      <trkpt lat="43.75251" lon="4.79227">
        <ele>230.85</ele>
        <time>2024-03-28T10:32:24Z</time>
      </trkpt>
      <trkpt lat="43.75264" lon="4.79205">
        <ele>228.93</ele>
        <time>2024-03-28T10:32:27Z</time>
      </trkpt>
      <trkpt lat="43.75267" lon="4.79198">
        <ele>228.93</ele>
        <time>2024-03-28T10:32:28Z</time>
      </trkpt>
      <trkpt lat="43.75269" lon="4.79192">
        <ele>228.45</ele>
        <time>2024-03-28T10:32:30Z</time>
      </trkpt>
      <trkpt lat="43.75272" lon="4.79191">
        <ele>227.97</ele>
        <time>2024-03-28T10:32:32Z</time>
      </trkpt>
      <trkpt lat="43.75274" lon="4.79191">
        <ele>227.97</ele>
        <time>2024-03-28T10:32:33Z</time>
      </trkpt>
      <trkpt lat="43.75277" lon="4.7919">
        <ele>226.53</ele>
        <time>2024-03-28T10:32:34Z</time>
      </trkpt>
      <trkpt lat="43.75279" lon="4.79188">
        <ele>225.57</ele>
        <time>2024-03-28T10:32:35Z</time>
      </trkpt>
      <trkpt lat="43.7528" lon="4.79185">
        <ele>225.57</ele>
        <time>2024-03-28T10:32:36Z</time>
      </trkpt>
      <trkpt lat="43.75281" lon="4.79182">
        <ele>225.09</ele>
        <time>2024-03-28T10:32:37Z</time>
      </trkpt>
      <trkpt lat="43.75282" lon="4.79179">
        <ele>225.09</ele>
        <time>2024-03-28T10:32:38Z</time>
      </trkpt>
      <trkpt lat="43.75284" lon="4.79176">
        <ele>225.09</ele>
        <time>2024-03-28T10:32:39Z</time>
      </trkpt>
      <trkpt lat="43.75286" lon="4.79173">
        <ele>225.09</ele>
        <time>2024-03-28T10:32:40Z</time>
      </trkpt>
      <trkpt lat="43.75295" lon="4.79154">
        <ele>224.61</ele>
        <time>2024-03-28T10:32:47Z</time>
      </trkpt>
      <trkpt lat="43.75298" lon="4.79154">
        <ele>223.64</ele>
        <time>2024-03-28T10:32:48Z</time>
      </trkpt>
      <trkpt lat="43.75299" lon="4.79154">
        <ele>223.64</ele>
        <time>2024-03-28T10:32:49Z</time>
      </trkpt>
      <trkpt lat="43.753" lon="4.79154">
        <ele>223.64</ele>
        <time>2024-03-28T10:32:50Z</time>
      </trkpt>
      <trkpt lat="43.75302" lon="4.79154">
        <ele>223.64</ele>
        <time>2024-03-28T10:32:51Z</time>
      </trkpt>
      <trkpt lat="43.75303" lon="4.79154">
        <ele>223.64</ele>
        <time>2024-03-28T10:32:52Z</time>
      </trkpt>
      <trkpt lat="43.75304" lon="4.79153">
        <ele>223.64</ele>
        <time>2024-03-28T10:32:53Z</time>
      </trkpt>
      <trkpt lat="43.75306" lon="4.79153">
        <ele>223.64</ele>
        <time>2024-03-28T10:32:54Z</time>
      </trkpt>
      <trkpt lat="43.75307" lon="4.79152">
        <ele>223.64</ele>
        <time>2024-03-28T10:32:55Z</time>
      </trkpt>
      <trkpt lat="43.75308" lon="4.79151">
        <ele>224.12</ele>
        <time>2024-03-28T10:33:05Z</time>
      </trkpt>
      <trkpt lat="43.75308" lon="4.7915">
        <ele>224.12</ele>
        <time>2024-03-28T10:33:26Z</time>
      </trkpt>
      <trkpt lat="43.75307" lon="4.7915">
        <ele>224.12</ele>
        <time>2024-03-28T10:33:46Z</time>
      </trkpt>
      <trkpt lat="43.75308" lon="4.7915">
        <ele>224.12</ele>
        <time>2024-03-28T10:34:04Z</time>
      </trkpt>
      <trkpt lat="43.75313" lon="4.79147">
        <ele>224.12</ele>
        <time>2024-03-28T10:34:18Z</time>
      </trkpt>
      <trkpt lat="43.7532" lon="4.79142">
        <ele>225.57</ele>
        <time>2024-03-28T10:34:22Z</time>
      </trkpt>
      <trkpt lat="43.75321" lon="4.79143">
        <ele>225.57</ele>
        <time>2024-03-28T10:34:23Z</time>
      </trkpt>
      <trkpt lat="43.75322" lon="4.79144">
        <ele>225.57</ele>
        <time>2024-03-28T10:34:24Z</time>
      </trkpt>
      <trkpt lat="43.75324" lon="4.79145">
        <ele>225.57</ele>
        <time>2024-03-28T10:34:25Z</time>
      </trkpt>
      <trkpt lat="43.75326" lon="4.79147">
        <ele>225.57</ele>
        <time>2024-03-28T10:34:26Z</time>
      </trkpt>
      <trkpt lat="43.75329" lon="4.79148">
        <ele>225.57</ele>
        <time>2024-03-28T10:34:27Z</time>
      </trkpt>
      <trkpt lat="43.75332" lon="4.79148">
        <ele>225.57</ele>
        <time>2024-03-28T10:34:28Z</time>
      </trkpt>
      <trkpt lat="43.75334" lon="4.79148">
        <ele>226.05</ele>
        <time>2024-03-28T10:34:29Z</time>
      </trkpt>
      <trkpt lat="43.75361" lon="4.79148">
        <ele>227.97</ele>
        <time>2024-03-28T10:34:39Z</time>
      </trkpt>
      <trkpt lat="43.75395" lon="4.79149">
        <ele>230.37</ele>
        <time>2024-03-28T10:34:51Z</time>
      </trkpt>
      <trkpt lat="43.75426" lon="4.79155">
        <ele>232.78</ele>
        <time>2024-03-28T10:35:03Z</time>
      </trkpt>
      <trkpt lat="43.75452" lon="4.79152">
        <ele>234.22</ele>
        <time>2024-03-28T10:35:13Z</time>
      </trkpt>
      <trkpt lat="43.75479" lon="4.79124">
        <ele>234.22</ele>
        <time>2024-03-28T10:35:25Z</time>
      </trkpt>
      <trkpt lat="43.75498" lon="4.79095">
        <ele>234.22</ele>
        <time>2024-03-28T10:35:34Z</time>
      </trkpt>
      <trkpt lat="43.75515" lon="4.79093">
        <ele>234.22</ele>
        <time>2024-03-28T10:35:41Z</time>
      </trkpt>
      <trkpt lat="43.75539" lon="4.7912">
        <ele>236.14</ele>
        <time>2024-03-28T10:35:53Z</time>
      </trkpt>
      <trkpt lat="43.75563" lon="4.79134">
        <ele>239.02</ele>
        <time>2024-03-28T10:36:04Z</time>
      </trkpt>
      <trkpt lat="43.75579" lon="4.79115">
        <ele>239.51</ele>
        <time>2024-03-28T10:36:13Z</time>
      </trkpt>
      <trkpt lat="43.75599" lon="4.79077">
        <ele>239.51</ele>
        <time>2024-03-28T10:36:25Z</time>
      </trkpt>
      <trkpt lat="43.75612" lon="4.79054">
        <ele>238.54</ele>
        <time>2024-03-28T10:36:32Z</time>
      </trkpt>
      <trkpt lat="43.75627" lon="4.79035">
        <ele>237.1</ele>
        <time>2024-03-28T10:36:40Z</time>
      </trkpt>
      <trkpt lat="43.75629" lon="4.79033">
        <ele>237.1</ele>
        <time>2024-03-28T10:36:44Z</time>
      </trkpt>
      <trkpt lat="43.7563" lon="4.79031">
        <ele>237.1</ele>
        <time>2024-03-28T10:36:45Z</time>
      </trkpt>
      <trkpt lat="43.75647" lon="4.79001">
        <ele>236.62</ele>
        <time>2024-03-28T10:36:52Z</time>
      </trkpt>
      <trkpt lat="43.75679" lon="4.78942">
        <ele>234.7</ele>
        <time>2024-03-28T10:37:05Z</time>
      </trkpt>
      <trkpt lat="43.75703" lon="4.78921">
        <ele>234.22</ele>
        <time>2024-03-28T10:37:12Z</time>
      </trkpt>
      <trkpt lat="43.75735" lon="4.78903">
        <ele>234.22</ele>
        <time>2024-03-28T10:37:22Z</time>
      </trkpt>
      <trkpt lat="43.75768" lon="4.7888">
        <ele>235.18</ele>
        <time>2024-03-28T10:37:32Z</time>
      </trkpt>
      <trkpt lat="43.75795" lon="4.78869">
        <ele>235.18</ele>
        <time>2024-03-28T10:37:41Z</time>
      </trkpt>
      <trkpt lat="43.75797" lon="4.7887">
        <ele>235.66</ele>
        <time>2024-03-28T10:37:49Z</time>
      </trkpt>
      <trkpt lat="43.75798" lon="4.7887">
        <ele>235.18</ele>
        <time>2024-03-28T10:38:09Z</time>
      </trkpt>
      <trkpt lat="43.75815" lon="4.78869">
        <ele>235.18</ele>
        <time>2024-03-28T10:38:17Z</time>
      </trkpt>
      <trkpt lat="43.75851" lon="4.78858">
        <ele>235.18</ele>
        <time>2024-03-28T10:38:27Z</time>
      </trkpt>
      <trkpt lat="43.75897" lon="4.78834">
        <ele>236.62</ele>
        <time>2024-03-28T10:38:40Z</time>
      </trkpt>
      <trkpt lat="43.75934" lon="4.78822">
        <ele>237.1</ele>
        <time>2024-03-28T10:38:50Z</time>
      </trkpt>
      <trkpt lat="43.7595" lon="4.78815">
        <ele>237.1</ele>
        <time>2024-03-28T10:38:58Z</time>
      </trkpt>
      <trkpt lat="43.75971" lon="4.78795">
        <ele>237.58</ele>
        <time>2024-03-28T10:39:06Z</time>
      </trkpt>
      <trkpt lat="43.75976" lon="4.78758">
        <ele>238.06</ele>
        <time>2024-03-28T10:39:14Z</time>
      </trkpt>
      <trkpt lat="43.75976" lon="4.78716">
        <ele>239.02</ele>
        <time>2024-03-28T10:39:24Z</time>
      </trkpt>
      <trkpt lat="43.75974" lon="4.78689">
        <ele>239.51</ele>
        <time>2024-03-28T10:39:33Z</time>
      </trkpt>
      <trkpt lat="43.75977" lon="4.78689">
        <ele>239.51</ele>
        <time>2024-03-28T10:39:43Z</time>
      </trkpt>
      <trkpt lat="43.75978" lon="4.7869">
        <ele>239.51</ele>
        <time>2024-03-28T10:40:01Z</time>
      </trkpt>
      <trkpt lat="43.75983" lon="4.78692">
        <ele>239.51</ele>
        <time>2024-03-28T10:40:21Z</time>
      </trkpt>
      <trkpt lat="43.75983" lon="4.7869">
        <ele>239.51</ele>
        <time>2024-03-28T10:40:40Z</time>
      </trkpt>
      <trkpt lat="43.75979" lon="4.78688">
        <ele>238.54</ele>
        <time>2024-03-28T10:41:11Z</time>
      </trkpt>
      <trkpt lat="43.75977" lon="4.78688">
        <ele>238.54</ele>
        <time>2024-03-28T10:41:27Z</time>
      </trkpt>
      <trkpt lat="43.75975" lon="4.78667">
        <ele>239.99</ele>
        <time>2024-03-28T10:41:36Z</time>
      </trkpt>
      <trkpt lat="43.75956" lon="4.78613">
        <ele>240.95</ele>
        <time>2024-03-28T10:41:47Z</time>
      </trkpt>
      <trkpt lat="43.75941" lon="4.78581">
        <ele>242.39</ele>
        <time>2024-03-28T10:41:55Z</time>
      </trkpt>
      <trkpt lat="43.75928" lon="4.78544">
        <ele>243.83</ele>
        <time>2024-03-28T10:42:04Z</time>
      </trkpt>
      <trkpt lat="43.75935" lon="4.78495">
        <ele>244.79</ele>
        <time>2024-03-28T10:42:15Z</time>
      </trkpt>
      <trkpt lat="43.75936" lon="4.78493">
        <ele>244.79</ele>
        <time>2024-03-28T10:42:24Z</time>
      </trkpt>
      <trkpt lat="43.75939" lon="4.78486">
        <ele>244.79</ele>
        <time>2024-03-28T10:42:36Z</time>
      </trkpt>
      <trkpt lat="43.75948" lon="4.78459">
        <ele>244.79</ele>
        <time>2024-03-28T10:42:44Z</time>
      </trkpt>
      <trkpt lat="43.75972" lon="4.78406">
        <ele>246.23</ele>
        <time>2024-03-28T10:42:57Z</time>
      </trkpt>
      <trkpt lat="43.76006" lon="4.78359">
        <ele>247.2</ele>
        <time>2024-03-28T10:43:11Z</time>
      </trkpt>
      <trkpt lat="43.76023" lon="4.78317">
        <ele>245.75</ele>
        <time>2024-03-28T10:43:20Z</time>
      </trkpt>
      <trkpt lat="43.76034" lon="4.7829">
        <ele>244.31</ele>
        <time>2024-03-28T10:43:25Z</time>
      </trkpt>
      <trkpt lat="43.76035" lon="4.78285">
        <ele>244.31</ele>
        <time>2024-03-28T10:43:26Z</time>
      </trkpt>
      <trkpt lat="43.7604" lon="4.78274">
        <ele>244.31</ele>
        <time>2024-03-28T10:43:28Z</time>
      </trkpt>
      <trkpt lat="43.76047" lon="4.78264">
        <ele>243.83</ele>
        <time>2024-03-28T10:43:30Z</time>
      </trkpt>
      <trkpt lat="43.76058" lon="4.78253">
        <ele>243.35</ele>
        <time>2024-03-28T10:43:33Z</time>
      </trkpt>
      <trkpt lat="43.76102" lon="4.78211">
        <ele>240.47</ele>
        <time>2024-03-28T10:43:44Z</time>
      </trkpt>
      <trkpt lat="43.76104" lon="4.78206">
        <ele>240.47</ele>
        <time>2024-03-28T10:43:45Z</time>
      </trkpt>
      <trkpt lat="43.76106" lon="4.78201">
        <ele>240.47</ele>
        <time>2024-03-28T10:43:46Z</time>
      </trkpt>
      <trkpt lat="43.76108" lon="4.78194">
        <ele>239.99</ele>
        <time>2024-03-28T10:43:47Z</time>
      </trkpt>
      <trkpt lat="43.76109" lon="4.78188">
        <ele>239.99</ele>
        <time>2024-03-28T10:43:48Z</time>
      </trkpt>
      <trkpt lat="43.76115" lon="4.78148">
        <ele>239.02</ele>
        <time>2024-03-28T10:43:55Z</time>
      </trkpt>
      <trkpt lat="43.76116" lon="4.78142">
        <ele>239.02</ele>
        <time>2024-03-28T10:43:56Z</time>
      </trkpt>
      <trkpt lat="43.76126" lon="4.78068">
        <ele>237.1</ele>
        <time>2024-03-28T10:44:08Z</time>
      </trkpt>
      <trkpt lat="43.76128" lon="4.78062">
        <ele>236.14</ele>
        <time>2024-03-28T10:44:09Z</time>
      </trkpt>
      <trkpt lat="43.76131" lon="4.78058">
        <ele>236.14</ele>
        <time>2024-03-28T10:44:10Z</time>
      </trkpt>
      <trkpt lat="43.76135" lon="4.78055">
        <ele>236.14</ele>
        <time>2024-03-28T10:44:11Z</time>
      </trkpt>
      <trkpt lat="43.76139" lon="4.78053">
        <ele>235.66</ele>
        <time>2024-03-28T10:44:12Z</time>
      </trkpt>
      <trkpt lat="43.76144" lon="4.78053">
        <ele>235.66</ele>
        <time>2024-03-28T10:44:13Z</time>
      </trkpt>
      <trkpt lat="43.76149" lon="4.78053">
        <ele>235.18</ele>
        <time>2024-03-28T10:44:14Z</time>
      </trkpt>
      <trkpt lat="43.76154" lon="4.78053">
        <ele>235.18</ele>
        <time>2024-03-28T10:44:15Z</time>
      </trkpt>
      <trkpt lat="43.76164" lon="4.78055">
        <ele>234.7</ele>
        <time>2024-03-28T10:44:17Z</time>
      </trkpt>
      <trkpt lat="43.76169" lon="4.78057">
        <ele>234.7</ele>
        <time>2024-03-28T10:44:18Z</time>
      </trkpt>
      <trkpt lat="43.76174" lon="4.78059">
        <ele>234.7</ele>
        <time>2024-03-28T10:44:19Z</time>
      </trkpt>
      <trkpt lat="43.762" lon="4.78067">
        <ele>233.26</ele>
        <time>2024-03-28T10:44:24Z</time>
      </trkpt>
      <trkpt lat="43.76205" lon="4.78068">
        <ele>232.78</ele>
        <time>2024-03-28T10:44:25Z</time>
      </trkpt>
      <trkpt lat="43.7621" lon="4.78067">
        <ele>232.78</ele>
        <time>2024-03-28T10:44:26Z</time>
      </trkpt>
      <trkpt lat="43.76215" lon="4.78066">
        <ele>232.3</ele>
        <time>2024-03-28T10:44:27Z</time>
      </trkpt>
      <trkpt lat="43.76219" lon="4.78064">
        <ele>232.3</ele>
        <time>2024-03-28T10:44:28Z</time>
      </trkpt>
      <trkpt lat="43.76238" lon="4.78053">
        <ele>230.37</ele>
        <time>2024-03-28T10:44:32Z</time>
      </trkpt>
      <trkpt lat="43.76242" lon="4.78049">
        <ele>230.85</ele>
        <time>2024-03-28T10:44:33Z</time>
      </trkpt>
      <trkpt lat="43.7625" lon="4.7804">
        <ele>230.37</ele>
        <time>2024-03-28T10:44:35Z</time>
      </trkpt>
      <trkpt lat="43.76269" lon="4.78018">
        <ele>229.41</ele>
        <time>2024-03-28T10:44:40Z</time>
      </trkpt>
      <trkpt lat="43.76273" lon="4.78015">
        <ele>228.93</ele>
        <time>2024-03-28T10:44:41Z</time>
      </trkpt>
      <trkpt lat="43.76299" lon="4.77992">
        <ele>228.45</ele>
        <time>2024-03-28T10:44:49Z</time>
      </trkpt>
      <trkpt lat="43.76299" lon="4.77986">
        <ele>228.45</ele>
        <time>2024-03-28T10:44:51Z</time>
      </trkpt>
      <trkpt lat="43.76299" lon="4.77983">
        <ele>228.45</ele>
        <time>2024-03-28T10:44:52Z</time>
      </trkpt>
      <trkpt lat="43.76297" lon="4.7798">
        <ele>228.45</ele>
        <time>2024-03-28T10:44:53Z</time>
      </trkpt>
      <trkpt lat="43.76295" lon="4.77979">
        <ele>229.41</ele>
        <time>2024-03-28T10:44:54Z</time>
      </trkpt>
      <trkpt lat="43.76293" lon="4.77979">
        <ele>229.41</ele>
        <time>2024-03-28T10:44:55Z</time>
      </trkpt>
      <trkpt lat="43.76291" lon="4.77978">
        <ele>229.41</ele>
        <time>2024-03-28T10:44:56Z</time>
      </trkpt>
      <trkpt lat="43.76288" lon="4.77978">
        <ele>230.37</ele>
        <time>2024-03-28T10:44:57Z</time>
      </trkpt>
      <trkpt lat="43.76257" lon="4.77976">
        <ele>228.93</ele>
        <time>2024-03-28T10:45:06Z</time>
      </trkpt>
      <trkpt lat="43.76227" lon="4.77968">
        <ele>227.49</ele>
        <time>2024-03-28T10:45:15Z</time>
      </trkpt>
      <trkpt lat="43.76191" lon="4.77948">
        <ele>226.05</ele>
        <time>2024-03-28T10:45:27Z</time>
      </trkpt>
      <trkpt lat="43.7616" lon="4.77927">
        <ele>225.09</ele>
        <time>2024-03-28T10:45:37Z</time>
      </trkpt>
      <trkpt lat="43.76131" lon="4.77911">
        <ele>226.53</ele>
        <time>2024-03-28T10:45:46Z</time>
      </trkpt>
      <trkpt lat="43.76088" lon="4.77899">
        <ele>228.45</ele>
        <time>2024-03-28T10:45:59Z</time>
      </trkpt>
      <trkpt lat="43.76048" lon="4.77894">
        <ele>229.89</ele>
        <time>2024-03-28T10:46:12Z</time>
      </trkpt>
      <trkpt lat="43.76046" lon="4.77892">
        <ele>229.89</ele>
        <time>2024-03-28T10:46:13Z</time>
      </trkpt>
      <trkpt lat="43.76044" lon="4.77889">
        <ele>229.89</ele>
        <time>2024-03-28T10:46:14Z</time>
      </trkpt>
      <trkpt lat="43.76043" lon="4.77885">
        <ele>229.89</ele>
        <time>2024-03-28T10:46:15Z</time>
      </trkpt>
      <trkpt lat="43.76042" lon="4.7788">
        <ele>229.89</ele>
        <time>2024-03-28T10:46:16Z</time>
      </trkpt>
      <trkpt lat="43.76042" lon="4.77876">
        <ele>229.89</ele>
        <time>2024-03-28T10:46:17Z</time>
      </trkpt>
      <trkpt lat="43.76041" lon="4.77872">
        <ele>229.89</ele>
        <time>2024-03-28T10:46:18Z</time>
      </trkpt>
      <trkpt lat="43.76039" lon="4.77819">
        <ele>229.89</ele>
        <time>2024-03-28T10:46:29Z</time>
      </trkpt>
      <trkpt lat="43.76038" lon="4.77788">
        <ele>229.89</ele>
        <time>2024-03-28T10:46:39Z</time>
      </trkpt>
      <trkpt lat="43.76037" lon="4.77789">
        <ele>229.89</ele>
        <time>2024-03-28T10:46:51Z</time>
      </trkpt>
      <trkpt lat="43.76037" lon="4.77788">
        <ele>229.89</ele>
        <time>2024-03-28T10:47:05Z</time>
      </trkpt>
      <trkpt lat="43.76039" lon="4.77787">
        <ele>230.37</ele>
        <time>2024-03-28T10:47:23Z</time>
      </trkpt>
      <trkpt lat="43.76037" lon="4.77789">
        <ele>230.37</ele>
        <time>2024-03-28T10:47:48Z</time>
      </trkpt>
      <trkpt lat="43.76037" lon="4.7779">
        <ele>230.37</ele>
        <time>2024-03-28T10:48:05Z</time>
      </trkpt>
      <trkpt lat="43.76038" lon="4.77789">
        <ele>230.37</ele>
        <time>2024-03-28T10:48:25Z</time>
      </trkpt>
      <trkpt lat="43.76038" lon="4.77786">
        <ele>230.37</ele>
        <time>2024-03-28T10:48:38Z</time>
      </trkpt>
      <trkpt lat="43.76037" lon="4.77785">
        <ele>230.37</ele>
        <time>2024-03-28T10:48:52Z</time>
      </trkpt>
      <trkpt lat="43.76037" lon="4.77779">
        <ele>230.37</ele>
        <time>2024-03-28T10:49:02Z</time>
      </trkpt>
      <trkpt lat="43.76037" lon="4.77777">
        <ele>230.37</ele>
        <time>2024-03-28T10:49:03Z</time>
      </trkpt>
      <trkpt lat="43.76037" lon="4.77775">
        <ele>230.37</ele>
        <time>2024-03-28T10:49:04Z</time>
      </trkpt>
      <trkpt lat="43.76037" lon="4.77772">
        <ele>230.37</ele>
        <time>2024-03-28T10:49:05Z</time>
      </trkpt>
      <trkpt lat="43.76037" lon="4.77769">
        <ele>230.37</ele>
        <time>2024-03-28T10:49:06Z</time>
      </trkpt>
      <trkpt lat="43.76036" lon="4.77766">
        <ele>230.37</ele>
        <time>2024-03-28T10:49:07Z</time>
      </trkpt>
      <trkpt lat="43.76036" lon="4.77762">
        <ele>230.37</ele>
        <time>2024-03-28T10:49:08Z</time>
      </trkpt>
      <trkpt lat="43.76036" lon="4.77758">
        <ele>230.37</ele>
        <time>2024-03-28T10:49:09Z</time>
      </trkpt>
      <trkpt lat="43.76034" lon="4.77755">
        <ele>230.37</ele>
        <time>2024-03-28T10:49:10Z</time>
      </trkpt>
      <trkpt lat="43.76033" lon="4.77752">
        <ele>230.37</ele>
        <time>2024-03-28T10:49:11Z</time>
      </trkpt>
      <trkpt lat="43.7603" lon="4.7775">
        <ele>230.37</ele>
        <time>2024-03-28T10:49:12Z</time>
      </trkpt>
      <trkpt lat="43.76027" lon="4.77748">
        <ele>228.93</ele>
        <time>2024-03-28T10:49:13Z</time>
      </trkpt>
      <trkpt lat="43.76024" lon="4.77748">
        <ele>228.93</ele>
        <time>2024-03-28T10:49:14Z</time>
      </trkpt>
      <trkpt lat="43.7602" lon="4.77748">
        <ele>228.45</ele>
        <time>2024-03-28T10:49:15Z</time>
      </trkpt>
      <trkpt lat="43.76017" lon="4.77748">
        <ele>227.97</ele>
        <time>2024-03-28T10:49:16Z</time>
      </trkpt>
      <trkpt lat="43.76001" lon="4.77746">
        <ele>226.53</ele>
        <time>2024-03-28T10:49:20Z</time>
      </trkpt>
      <trkpt lat="43.75996" lon="4.77744">
        <ele>226.05</ele>
        <time>2024-03-28T10:49:21Z</time>
      </trkpt>
      <trkpt lat="43.75967" lon="4.77723">
        <ele>224.12</ele>
        <time>2024-03-28T10:49:27Z</time>
      </trkpt>
      <trkpt lat="43.75958" lon="4.77713">
        <ele>223.64</ele>
        <time>2024-03-28T10:49:29Z</time>
      </trkpt>
      <trkpt lat="43.75954" lon="4.77708">
        <ele>223.64</ele>
        <time>2024-03-28T10:49:30Z</time>
      </trkpt>
      <trkpt lat="43.75931" lon="4.77672">
        <ele>222.68</ele>
        <time>2024-03-28T10:49:37Z</time>
      </trkpt>
      <trkpt lat="43.75929" lon="4.77668">
        <ele>222.68</ele>
        <time>2024-03-28T10:49:38Z</time>
      </trkpt>
      <trkpt lat="43.75928" lon="4.77663">
        <ele>222.68</ele>
        <time>2024-03-28T10:49:39Z</time>
      </trkpt>
      <trkpt lat="43.75912" lon="4.77599">
        <ele>222.2</ele>
        <time>2024-03-28T10:49:50Z</time>
      </trkpt>
      <trkpt lat="43.7591" lon="4.77593">
        <ele>222.2</ele>
        <time>2024-03-28T10:49:51Z</time>
      </trkpt>
      <trkpt lat="43.75905" lon="4.77574">
        <ele>220.76</ele>
        <time>2024-03-28T10:49:54Z</time>
      </trkpt>
      <trkpt lat="43.75904" lon="4.77568">
        <ele>220.76</ele>
        <time>2024-03-28T10:49:55Z</time>
      </trkpt>
      <trkpt lat="43.75903" lon="4.77561">
        <ele>220.28</ele>
        <time>2024-03-28T10:49:56Z</time>
      </trkpt>
      <trkpt lat="43.75901" lon="4.77555">
        <ele>220.28</ele>
        <time>2024-03-28T10:49:57Z</time>
      </trkpt>
      <trkpt lat="43.759" lon="4.77549">
        <ele>220.28</ele>
        <time>2024-03-28T10:49:58Z</time>
      </trkpt>
      <trkpt lat="43.75881" lon="4.77496">
        <ele>221.72</ele>
        <time>2024-03-28T10:50:08Z</time>
      </trkpt>
      <trkpt lat="43.75875" lon="4.77443">
        <ele>223.16</ele>
        <time>2024-03-28T10:50:20Z</time>
      </trkpt>
      <trkpt lat="43.75876" lon="4.77397">
        <ele>223.64</ele>
        <time>2024-03-28T10:50:30Z</time>
      </trkpt>
      <trkpt lat="43.75856" lon="4.77354">
        <ele>224.12</ele>
        <time>2024-03-28T10:50:41Z</time>
      </trkpt>
      <trkpt lat="43.75848" lon="4.77312">
        <ele>225.09</ele>
        <time>2024-03-28T10:50:51Z</time>
      </trkpt>
      <trkpt lat="43.75863" lon="4.77292">
        <ele>225.09</ele>
        <time>2024-03-28T10:50:58Z</time>
      </trkpt>
      <trkpt lat="43.75891" lon="4.77278">
        <ele>226.05</ele>
        <time>2024-03-28T10:51:07Z</time>
      </trkpt>
      <trkpt lat="43.7593" lon="4.77258">
        <ele>226.05</ele>
        <time>2024-03-28T10:51:19Z</time>
      </trkpt>
      <trkpt lat="43.75941" lon="4.77227">
        <ele>226.05</ele>
        <time>2024-03-28T10:51:27Z</time>
      </trkpt>
      <trkpt lat="43.75938" lon="4.77175">
        <ele>226.05</ele>
        <time>2024-03-28T10:51:38Z</time>
      </trkpt>
      <trkpt lat="43.75926" lon="4.77121">
        <ele>226.05</ele>
        <time>2024-03-28T10:51:50Z</time>
      </trkpt>
      <trkpt lat="43.75939" lon="4.77088">
        <ele>226.05</ele>
        <time>2024-03-28T10:51:58Z</time>
      </trkpt>
      <trkpt lat="43.75975" lon="4.77051">
        <ele>227.01</ele>
        <time>2024-03-28T10:52:11Z</time>
      </trkpt>
      <trkpt lat="43.76009" lon="4.76995">
        <ele>227.01</ele>
        <time>2024-03-28T10:52:26Z</time>
      </trkpt>
      <trkpt lat="43.7604" lon="4.76953">
        <ele>227.01</ele>
        <time>2024-03-28T10:52:38Z</time>
      </trkpt>
      <trkpt lat="43.76043" lon="4.76917">
        <ele>227.01</ele>
        <time>2024-03-28T10:52:46Z</time>
      </trkpt>
      <trkpt lat="43.76038" lon="4.76898">
        <ele>226.05</ele>
        <time>2024-03-28T10:52:50Z</time>
      </trkpt>
      <trkpt lat="43.7602" lon="4.76841">
        <ele>225.57</ele>
        <time>2024-03-28T10:53:03Z</time>
      </trkpt>
      <trkpt lat="43.76016" lon="4.76817">
        <ele>227.01</ele>
        <time>2024-03-28T10:53:09Z</time>
      </trkpt>
      <trkpt lat="43.76013" lon="4.76773">
        <ele>228.45</ele>
        <time>2024-03-28T10:53:21Z</time>
      </trkpt>
      <trkpt lat="43.76023" lon="4.76726">
        <ele>228.93</ele>
        <time>2024-03-28T10:53:34Z</time>
      </trkpt>
      <trkpt lat="43.76029" lon="4.76683">
        <ele>229.41</ele>
        <time>2024-03-28T10:53:45Z</time>
      </trkpt>
      <trkpt lat="43.76036" lon="4.76647">
        <ele>229.41</ele>
        <time>2024-03-28T10:53:52Z</time>
      </trkpt>
      <trkpt lat="43.76038" lon="4.76642">
        <ele>227.97</ele>
        <time>2024-03-28T10:53:53Z</time>
      </trkpt>
      <trkpt lat="43.7604" lon="4.76637">
        <ele>227.97</ele>
        <time>2024-03-28T10:53:54Z</time>
      </trkpt>
      <trkpt lat="43.76066" lon="4.76571">
        <ele>227.01</ele>
        <time>2024-03-28T10:54:07Z</time>
      </trkpt>
      <trkpt lat="43.76066" lon="4.76566">
        <ele>227.01</ele>
        <time>2024-03-28T10:54:08Z</time>
      </trkpt>
      <trkpt lat="43.76067" lon="4.7656">
        <ele>227.01</ele>
        <time>2024-03-28T10:54:09Z</time>
      </trkpt>
      <trkpt lat="43.76067" lon="4.76554">
        <ele>227.01</ele>
        <time>2024-03-28T10:54:10Z</time>
      </trkpt>
      <trkpt lat="43.76063" lon="4.76508">
        <ele>226.05</ele>
        <time>2024-03-28T10:54:18Z</time>
      </trkpt>
      <trkpt lat="43.76063" lon="4.76503">
        <ele>226.05</ele>
        <time>2024-03-28T10:54:19Z</time>
      </trkpt>
      <trkpt lat="43.76064" lon="4.76496">
        <ele>225.57</ele>
        <time>2024-03-28T10:54:20Z</time>
      </trkpt>
      <trkpt lat="43.76069" lon="4.76454">
        <ele>224.12</ele>
        <time>2024-03-28T10:54:26Z</time>
      </trkpt>
      <trkpt lat="43.76072" lon="4.76433">
        <ele>223.64</ele>
        <time>2024-03-28T10:54:29Z</time>
      </trkpt>
      <trkpt lat="43.76073" lon="4.76427">
        <ele>223.64</ele>
        <time>2024-03-28T10:54:30Z</time>
      </trkpt>
      <trkpt lat="43.76079" lon="4.76386">
        <ele>223.64</ele>
        <time>2024-03-28T10:54:37Z</time>
      </trkpt>
      <trkpt lat="43.76081" lon="4.76381">
        <ele>223.64</ele>
        <time>2024-03-28T10:54:38Z</time>
      </trkpt>
      <trkpt lat="43.76084" lon="4.76376">
        <ele>223.64</ele>
        <time>2024-03-28T10:54:39Z</time>
      </trkpt>
      <trkpt lat="43.76105" lon="4.76337">
        <ele>220.76</ele>
        <time>2024-03-28T10:54:47Z</time>
      </trkpt>
      <trkpt lat="43.76112" lon="4.76323">
        <ele>219.32</ele>
        <time>2024-03-28T10:54:54Z</time>
      </trkpt>
      <trkpt lat="43.76113" lon="4.76323">
        <ele>219.32</ele>
        <time>2024-03-28T10:55:09Z</time>
      </trkpt>
      <trkpt lat="43.76113" lon="4.76324">
        <ele>219.32</ele>
        <time>2024-03-28T10:55:24Z</time>
      </trkpt>
      <trkpt lat="43.76114" lon="4.76323">
        <ele>219.32</ele>
        <time>2024-03-28T10:55:45Z</time>
      </trkpt>
      <trkpt lat="43.76115" lon="4.76322">
        <ele>219.32</ele>
        <time>2024-03-28T10:56:00Z</time>
      </trkpt>
      <trkpt lat="43.76116" lon="4.7632">
        <ele>219.32</ele>
        <time>2024-03-28T10:56:01Z</time>
      </trkpt>
      <trkpt lat="43.76117" lon="4.76319">
        <ele>219.32</ele>
        <time>2024-03-28T10:56:02Z</time>
      </trkpt>
      <trkpt lat="43.76119" lon="4.76317">
        <ele>219.32</ele>
        <time>2024-03-28T10:56:03Z</time>
      </trkpt>
      <trkpt lat="43.7612" lon="4.76315">
        <ele>218.84</ele>
        <time>2024-03-28T10:56:04Z</time>
      </trkpt>
      <trkpt lat="43.76131" lon="4.76302">
        <ele>218.36</ele>
        <time>2024-03-28T10:56:08Z</time>
      </trkpt>
      <trkpt lat="43.76134" lon="4.76298">
        <ele>217.4</ele>
        <time>2024-03-28T10:56:09Z</time>
      </trkpt>
      <trkpt lat="43.76147" lon="4.76285">
        <ele>215.95</ele>
        <time>2024-03-28T10:56:12Z</time>
      </trkpt>
      <trkpt lat="43.76151" lon="4.7628">
        <ele>215.95</ele>
        <time>2024-03-28T10:56:13Z</time>
      </trkpt>
      <trkpt lat="43.76155" lon="4.76275">
        <ele>215.47</ele>
        <time>2024-03-28T10:56:14Z</time>
      </trkpt>
      <trkpt lat="43.7616" lon="4.76271">
        <ele>214.99</ele>
        <time>2024-03-28T10:56:15Z</time>
      </trkpt>
      <trkpt lat="43.7618" lon="4.76259">
        <ele>214.03</ele>
        <time>2024-03-28T10:56:19Z</time>
      </trkpt>
      <trkpt lat="43.76185" lon="4.76257">
        <ele>214.03</ele>
        <time>2024-03-28T10:56:20Z</time>
      </trkpt>
      <trkpt lat="43.7619" lon="4.76257">
        <ele>214.03</ele>
        <time>2024-03-28T10:56:21Z</time>
      </trkpt>
      <trkpt lat="43.76195" lon="4.76259">
        <ele>213.07</ele>
        <time>2024-03-28T10:56:22Z</time>
      </trkpt>
      <trkpt lat="43.76199" lon="4.76261">
        <ele>213.07</ele>
        <time>2024-03-28T10:56:23Z</time>
      </trkpt>
      <trkpt lat="43.76204" lon="4.76265">
        <ele>212.59</ele>
        <time>2024-03-28T10:56:24Z</time>
      </trkpt>
      <trkpt lat="43.76209" lon="4.76267">
        <ele>212.11</ele>
        <time>2024-03-28T10:56:25Z</time>
      </trkpt>
      <trkpt lat="43.76215" lon="4.76268">
        <ele>211.15</ele>
        <time>2024-03-28T10:56:26Z</time>
      </trkpt>
      <trkpt lat="43.76222" lon="4.76269">
        <ele>210.67</ele>
        <time>2024-03-28T10:56:27Z</time>
      </trkpt>
      <trkpt lat="43.76228" lon="4.76271">
        <ele>210.19</ele>
        <time>2024-03-28T10:56:28Z</time>
      </trkpt>
      <trkpt lat="43.76233" lon="4.76273">
        <ele>209.7</ele>
        <time>2024-03-28T10:56:29Z</time>
      </trkpt>
      <trkpt lat="43.76238" lon="4.76278">
        <ele>209.7</ele>
        <time>2024-03-28T10:56:30Z</time>
      </trkpt>
      <trkpt lat="43.76242" lon="4.76284">
        <ele>209.7</ele>
        <time>2024-03-28T10:56:31Z</time>
      </trkpt>
      <trkpt lat="43.76244" lon="4.7629">
        <ele>209.7</ele>
        <time>2024-03-28T10:56:32Z</time>
      </trkpt>
      <trkpt lat="43.76247" lon="4.76297">
        <ele>208.74</ele>
        <time>2024-03-28T10:56:33Z</time>
      </trkpt>
      <trkpt lat="43.76249" lon="4.76304">
        <ele>208.74</ele>
        <time>2024-03-28T10:56:34Z</time>
      </trkpt>
      <trkpt lat="43.76251" lon="4.76311">
        <ele>208.74</ele>
        <time>2024-03-28T10:56:35Z</time>
      </trkpt>
      <trkpt lat="43.7626" lon="4.76341">
        <ele>205.86</ele>
        <time>2024-03-28T10:56:39Z</time>
      </trkpt>
      <trkpt lat="43.76265" lon="4.76346">
        <ele>205.38</ele>
        <time>2024-03-28T10:56:40Z</time>
      </trkpt>
      <trkpt lat="43.7627" lon="4.7635">
        <ele>204.9</ele>
        <time>2024-03-28T10:56:41Z</time>
      </trkpt>
      <trkpt lat="43.76277" lon="4.76354">
        <ele>204.42</ele>
        <time>2024-03-28T10:56:42Z</time>
      </trkpt>
      <trkpt lat="43.76283" lon="4.76356">
        <ele>203.46</ele>
        <time>2024-03-28T10:56:43Z</time>
      </trkpt>
      <trkpt lat="43.76289" lon="4.76358">
        <ele>203.46</ele>
        <time>2024-03-28T10:56:44Z</time>
      </trkpt>
      <trkpt lat="43.76295" lon="4.7636">
        <ele>202.49</ele>
        <time>2024-03-28T10:56:45Z</time>
      </trkpt>
      <trkpt lat="43.76301" lon="4.7636">
        <ele>202.01</ele>
        <time>2024-03-28T10:56:46Z</time>
      </trkpt>
      <trkpt lat="43.76307" lon="4.7636">
        <ele>202.01</ele>
        <time>2024-03-28T10:56:47Z</time>
      </trkpt>
      <trkpt lat="43.76314" lon="4.76357">
        <ele>201.53</ele>
        <time>2024-03-28T10:56:48Z</time>
      </trkpt>
      <trkpt lat="43.76318" lon="4.76353">
        <ele>201.53</ele>
        <time>2024-03-28T10:56:49Z</time>
      </trkpt>
      <trkpt lat="43.76323" lon="4.76348">
        <ele>201.53</ele>
        <time>2024-03-28T10:56:50Z</time>
      </trkpt>
      <trkpt lat="43.76328" lon="4.76342">
        <ele>201.53</ele>
        <time>2024-03-28T10:56:51Z</time>
      </trkpt>
      <trkpt lat="43.76361" lon="4.763">
        <ele>199.61</ele>
        <time>2024-03-28T10:56:59Z</time>
      </trkpt>
      <trkpt lat="43.76374" lon="4.76286">
        <ele>198.65</ele>
        <time>2024-03-28T10:57:02Z</time>
      </trkpt>
      <trkpt lat="43.7638" lon="4.76282">
        <ele>198.65</ele>
        <time>2024-03-28T10:57:03Z</time>
      </trkpt>
      <trkpt lat="43.76386" lon="4.76279">
        <ele>197.69</ele>
        <time>2024-03-28T10:57:04Z</time>
      </trkpt>
      <trkpt lat="43.76391" lon="4.76277">
        <ele>197.21</ele>
        <time>2024-03-28T10:57:05Z</time>
      </trkpt>
      <trkpt lat="43.76397" lon="4.76275">
        <ele>196.73</ele>
        <time>2024-03-28T10:57:06Z</time>
      </trkpt>
      <trkpt lat="43.76403" lon="4.76274">
        <ele>196.25</ele>
        <time>2024-03-28T10:57:07Z</time>
      </trkpt>
      <trkpt lat="43.7641" lon="4.76276">
        <ele>195.77</ele>
        <time>2024-03-28T10:57:08Z</time>
      </trkpt>
      <trkpt lat="43.76415" lon="4.76277">
        <ele>195.77</ele>
        <time>2024-03-28T10:57:09Z</time>
      </trkpt>
      <trkpt lat="43.76427" lon="4.7628">
        <ele>194.32</ele>
        <time>2024-03-28T10:57:11Z</time>
      </trkpt>
      <trkpt lat="43.76433" lon="4.76279">
        <ele>193.84</ele>
        <time>2024-03-28T10:57:12Z</time>
      </trkpt>
      <trkpt lat="43.76438" lon="4.76276">
        <ele>193.84</ele>
        <time>2024-03-28T10:57:13Z</time>
      </trkpt>
      <trkpt lat="43.76442" lon="4.76271">
        <ele>193.36</ele>
        <time>2024-03-28T10:57:14Z</time>
      </trkpt>
      <trkpt lat="43.76444" lon="4.76265">
        <ele>192.4</ele>
        <time>2024-03-28T10:57:15Z</time>
      </trkpt>
      <trkpt lat="43.76446" lon="4.76259">
        <ele>192.4</ele>
        <time>2024-03-28T10:57:16Z</time>
      </trkpt>
      <trkpt lat="43.76448" lon="4.76252">
        <ele>191.92</ele>
        <time>2024-03-28T10:57:17Z</time>
      </trkpt>
      <trkpt lat="43.76451" lon="4.76239">
        <ele>191.44</ele>
        <time>2024-03-28T10:57:19Z</time>
      </trkpt>
      <trkpt lat="43.76456" lon="4.76215">
        <ele>190</ele>
        <time>2024-03-28T10:57:22Z</time>
      </trkpt>
      <trkpt lat="43.76458" lon="4.76144">
        <ele>187.59</ele>
        <time>2024-03-28T10:57:31Z</time>
      </trkpt>
      <trkpt lat="43.76459" lon="4.76084">
        <ele>184.23</ele>
        <time>2024-03-28T10:57:38Z</time>
      </trkpt>
      <trkpt lat="43.76462" lon="4.76026">
        <ele>180.87</ele>
        <time>2024-03-28T10:57:44Z</time>
      </trkpt>
      <trkpt lat="43.76463" lon="4.76006">
        <ele>179.9</ele>
        <time>2024-03-28T10:57:46Z</time>
      </trkpt>
      <trkpt lat="43.76471" lon="4.75951">
        <ele>177.5</ele>
        <time>2024-03-28T10:57:52Z</time>
      </trkpt>
      <trkpt lat="43.76474" lon="4.75943">
        <ele>177.02</ele>
        <time>2024-03-28T10:57:53Z</time>
      </trkpt>
      <trkpt lat="43.76477" lon="4.75936">
        <ele>177.02</ele>
        <time>2024-03-28T10:57:54Z</time>
      </trkpt>
      <trkpt lat="43.76484" lon="4.75921">
        <ele>175.58</ele>
        <time>2024-03-28T10:57:56Z</time>
      </trkpt>
      <trkpt lat="43.76486" lon="4.75913">
        <ele>175.58</ele>
        <time>2024-03-28T10:57:57Z</time>
      </trkpt>
      <trkpt lat="43.76487" lon="4.75904">
        <ele>174.62</ele>
        <time>2024-03-28T10:57:58Z</time>
      </trkpt>
      <trkpt lat="43.76486" lon="4.75898">
        <ele>175.1</ele>
        <time>2024-03-28T10:57:59Z</time>
      </trkpt>
      <trkpt lat="43.76484" lon="4.7589">
        <ele>174.14</ele>
        <time>2024-03-28T10:58:00Z</time>
      </trkpt>
      <trkpt lat="43.76483" lon="4.75883">
        <ele>174.14</ele>
        <time>2024-03-28T10:58:01Z</time>
      </trkpt>
      <trkpt lat="43.76482" lon="4.75874">
        <ele>174.14</ele>
        <time>2024-03-28T10:58:02Z</time>
      </trkpt>
      <trkpt lat="43.76481" lon="4.75866">
        <ele>173.17</ele>
        <time>2024-03-28T10:58:03Z</time>
      </trkpt>
      <trkpt lat="43.76483" lon="4.75785">
        <ele>171.25</ele>
        <time>2024-03-28T10:58:14Z</time>
      </trkpt>
      <trkpt lat="43.76486" lon="4.75762">
        <ele>170.77</ele>
        <time>2024-03-28T10:58:17Z</time>
      </trkpt>
      <trkpt lat="43.76486" lon="4.75754">
        <ele>170.29</ele>
        <time>2024-03-28T10:58:18Z</time>
      </trkpt>
      <trkpt lat="43.76486" lon="4.75746">
        <ele>169.81</ele>
        <time>2024-03-28T10:58:19Z</time>
      </trkpt>
      <trkpt lat="43.76479" lon="4.75676">
        <ele>167.89</ele>
        <time>2024-03-28T10:58:28Z</time>
      </trkpt>
      <trkpt lat="43.76479" lon="4.75668">
        <ele>167.89</ele>
        <time>2024-03-28T10:58:29Z</time>
      </trkpt>
      <trkpt lat="43.76479" lon="4.75661">
        <ele>167.41</ele>
        <time>2024-03-28T10:58:30Z</time>
      </trkpt>
      <trkpt lat="43.7648" lon="4.75654">
        <ele>166.93</ele>
        <time>2024-03-28T10:58:31Z</time>
      </trkpt>
      <trkpt lat="43.76482" lon="4.75647">
        <ele>166.45</ele>
        <time>2024-03-28T10:58:32Z</time>
      </trkpt>
      <trkpt lat="43.76485" lon="4.7564">
        <ele>165.96</ele>
        <time>2024-03-28T10:58:33Z</time>
      </trkpt>
      <trkpt lat="43.76488" lon="4.75633">
        <ele>165</ele>
        <time>2024-03-28T10:58:34Z</time>
      </trkpt>
      <trkpt lat="43.76498" lon="4.7561">
        <ele>163.56</ele>
        <time>2024-03-28T10:58:37Z</time>
      </trkpt>
      <trkpt lat="43.765" lon="4.75601">
        <ele>163.08</ele>
        <time>2024-03-28T10:58:38Z</time>
      </trkpt>
      <trkpt lat="43.76502" lon="4.75593">
        <ele>162.6</ele>
        <time>2024-03-28T10:58:39Z</time>
      </trkpt>
      <trkpt lat="43.76513" lon="4.75529">
        <ele>159.24</ele>
        <time>2024-03-28T10:58:46Z</time>
      </trkpt>
      <trkpt lat="43.76523" lon="4.75489">
        <ele>156.35</ele>
        <time>2024-03-28T10:58:50Z</time>
      </trkpt>
      <trkpt lat="43.76526" lon="4.75467">
        <ele>155.87</ele>
        <time>2024-03-28T10:58:52Z</time>
      </trkpt>
      <trkpt lat="43.76527" lon="4.75455">
        <ele>155.39</ele>
        <time>2024-03-28T10:58:53Z</time>
      </trkpt>
      <trkpt lat="43.76528" lon="4.75389">
        <ele>155.39</ele>
        <time>2024-03-28T10:59:02Z</time>
      </trkpt>
      <trkpt lat="43.76538" lon="4.75308">
        <ele>152.99</ele>
        <time>2024-03-28T10:59:13Z</time>
      </trkpt>
      <trkpt lat="43.76543" lon="4.75292">
        <ele>151.54</ele>
        <time>2024-03-28T10:59:15Z</time>
      </trkpt>
      <trkpt lat="43.76547" lon="4.75283">
        <ele>151.06</ele>
        <time>2024-03-28T10:59:16Z</time>
      </trkpt>
      <trkpt lat="43.76563" lon="4.75257">
        <ele>148.18</ele>
        <time>2024-03-28T10:59:19Z</time>
      </trkpt>
      <trkpt lat="43.76566" lon="4.7525">
        <ele>147.7</ele>
        <time>2024-03-28T10:59:20Z</time>
      </trkpt>
      <trkpt lat="43.76571" lon="4.7524">
        <ele>147.22</ele>
        <time>2024-03-28T10:59:21Z</time>
      </trkpt>
      <trkpt lat="43.76573" lon="4.75231">
        <ele>146.74</ele>
        <time>2024-03-28T10:59:22Z</time>
      </trkpt>
      <trkpt lat="43.76575" lon="4.7522">
        <ele>146.26</ele>
        <time>2024-03-28T10:59:23Z</time>
      </trkpt>
      <trkpt lat="43.76576" lon="4.7521">
        <ele>146.26</ele>
        <time>2024-03-28T10:59:24Z</time>
      </trkpt>
      <trkpt lat="43.76582" lon="4.75179">
        <ele>143.37</ele>
        <time>2024-03-28T10:59:27Z</time>
      </trkpt>
      <trkpt lat="43.76584" lon="4.7517">
        <ele>143.37</ele>
        <time>2024-03-28T10:59:28Z</time>
      </trkpt>
      <trkpt lat="43.76588" lon="4.75159">
        <ele>142.41</ele>
        <time>2024-03-28T10:59:29Z</time>
      </trkpt>
      <trkpt lat="43.76591" lon="4.75153">
        <ele>141.45</ele>
        <time>2024-03-28T10:59:30Z</time>
      </trkpt>
      <trkpt lat="43.766" lon="4.75132">
        <ele>140.49</ele>
        <time>2024-03-28T10:59:33Z</time>
      </trkpt>
      <trkpt lat="43.76601" lon="4.75125">
        <ele>140.49</ele>
        <time>2024-03-28T10:59:34Z</time>
      </trkpt>
      <trkpt lat="43.766" lon="4.75119">
        <ele>139.53</ele>
        <time>2024-03-28T10:59:35Z</time>
      </trkpt>
      <trkpt lat="43.76598" lon="4.75113">
        <ele>139.53</ele>
        <time>2024-03-28T10:59:36Z</time>
      </trkpt>
      <trkpt lat="43.76596" lon="4.75107">
        <ele>138.57</ele>
        <time>2024-03-28T10:59:37Z</time>
      </trkpt>
      <trkpt lat="43.76593" lon="4.75101">
        <ele>138.09</ele>
        <time>2024-03-28T10:59:38Z</time>
      </trkpt>
      <trkpt lat="43.76592" lon="4.75094">
        <ele>137.61</ele>
        <time>2024-03-28T10:59:39Z</time>
      </trkpt>
      <trkpt lat="43.76587" lon="4.75056">
        <ele>134.24</ele>
        <time>2024-03-28T10:59:43Z</time>
      </trkpt>
      <trkpt lat="43.76585" lon="4.75047">
        <ele>134.24</ele>
        <time>2024-03-28T10:59:44Z</time>
      </trkpt>
      <trkpt lat="43.76582" lon="4.75037">
        <ele>133.28</ele>
        <time>2024-03-28T10:59:45Z</time>
      </trkpt>
      <trkpt lat="43.76578" lon="4.7503">
        <ele>132.8</ele>
        <time>2024-03-28T10:59:46Z</time>
      </trkpt>
      <trkpt lat="43.76572" lon="4.75022">
        <ele>132.32</ele>
        <time>2024-03-28T10:59:47Z</time>
      </trkpt>
      <trkpt lat="43.76566" lon="4.75015">
        <ele>131.36</ele>
        <time>2024-03-28T10:59:48Z</time>
      </trkpt>
      <trkpt lat="43.76562" lon="4.75008">
        <ele>130.88</ele>
        <time>2024-03-28T10:59:49Z</time>
      </trkpt>
      <trkpt lat="43.76558" lon="4.75001">
        <ele>130.88</ele>
        <time>2024-03-28T10:59:50Z</time>
      </trkpt>
      <trkpt lat="43.76553" lon="4.74992">
        <ele>129.92</ele>
        <time>2024-03-28T10:59:51Z</time>
      </trkpt>
      <trkpt lat="43.76549" lon="4.74986">
        <ele>129.43</ele>
        <time>2024-03-28T10:59:52Z</time>
      </trkpt>
      <trkpt lat="43.76542" lon="4.7498">
        <ele>128.47</ele>
        <time>2024-03-28T10:59:53Z</time>
      </trkpt>
      <trkpt lat="43.76535" lon="4.74975">
        <ele>127.99</ele>
        <time>2024-03-28T10:59:54Z</time>
      </trkpt>
      <trkpt lat="43.76516" lon="4.74959">
        <ele>126.55</ele>
        <time>2024-03-28T10:59:57Z</time>
      </trkpt>
      <trkpt lat="43.76487" lon="4.74937">
        <ele>123.19</ele>
        <time>2024-03-28T11:00:02Z</time>
      </trkpt>
      <trkpt lat="43.76457" lon="4.74914">
        <ele>119.82</ele>
        <time>2024-03-28T11:00:07Z</time>
      </trkpt>
      <trkpt lat="43.76454" lon="4.7491">
        <ele>119.34</ele>
        <time>2024-03-28T11:00:08Z</time>
      </trkpt>
      <trkpt lat="43.76451" lon="4.74905">
        <ele>119.34</ele>
        <time>2024-03-28T11:00:09Z</time>
      </trkpt>
      <trkpt lat="43.76449" lon="4.749">
        <ele>119.34</ele>
        <time>2024-03-28T11:00:10Z</time>
      </trkpt>
      <trkpt lat="43.76447" lon="4.74895">
        <ele>118.38</ele>
        <time>2024-03-28T11:00:11Z</time>
      </trkpt>
      <trkpt lat="43.76445" lon="4.74888">
        <ele>117.9</ele>
        <time>2024-03-28T11:00:13Z</time>
      </trkpt>
      <trkpt lat="43.76445" lon="4.74881">
        <ele>117.42</ele>
        <time>2024-03-28T11:00:15Z</time>
      </trkpt>
      <trkpt lat="43.76447" lon="4.74877">
        <ele>117.42</ele>
        <time>2024-03-28T11:00:16Z</time>
      </trkpt>
      <trkpt lat="43.76472" lon="4.74845">
        <ele>113.57</ele>
        <time>2024-03-28T11:00:24Z</time>
      </trkpt>
      <trkpt lat="43.76477" lon="4.74842">
        <ele>112.61</ele>
        <time>2024-03-28T11:00:25Z</time>
      </trkpt>
      <trkpt lat="43.76503" lon="4.74824">
        <ele>110.21</ele>
        <time>2024-03-28T11:00:31Z</time>
      </trkpt>
      <trkpt lat="43.76506" lon="4.7482">
        <ele>110.21</ele>
        <time>2024-03-28T11:00:32Z</time>
      </trkpt>
      <trkpt lat="43.76508" lon="4.74817">
        <ele>110.21</ele>
        <time>2024-03-28T11:00:33Z</time>
      </trkpt>
      <trkpt lat="43.7651" lon="4.74813">
        <ele>110.21</ele>
        <time>2024-03-28T11:00:34Z</time>
      </trkpt>
      <trkpt lat="43.76511" lon="4.7481">
        <ele>109.73</ele>
        <time>2024-03-28T11:00:35Z</time>
      </trkpt>
      <trkpt lat="43.76512" lon="4.74807">
        <ele>109.73</ele>
        <time>2024-03-28T11:00:36Z</time>
      </trkpt>
      <trkpt lat="43.76524" lon="4.74787">
        <ele>109.25</ele>
        <time>2024-03-28T11:00:44Z</time>
      </trkpt>
      <trkpt lat="43.7654" lon="4.74761">
        <ele>109.25</ele>
        <time>2024-03-28T11:00:52Z</time>
      </trkpt>
      <trkpt lat="43.76555" lon="4.74719">
        <ele>108.77</ele>
        <time>2024-03-28T11:01:01Z</time>
      </trkpt>
      <trkpt lat="43.76568" lon="4.74682">
        <ele>105.88</ele>
        <time>2024-03-28T11:01:08Z</time>
      </trkpt>
      <trkpt lat="43.76569" lon="4.74677">
        <ele>105.4</ele>
        <time>2024-03-28T11:01:09Z</time>
      </trkpt>
      <trkpt lat="43.7657" lon="4.74671">
        <ele>104.92</ele>
        <time>2024-03-28T11:01:10Z</time>
      </trkpt>
      <trkpt lat="43.7657" lon="4.74665">
        <ele>104.44</ele>
        <time>2024-03-28T11:01:11Z</time>
      </trkpt>
      <trkpt lat="43.76569" lon="4.74659">
        <ele>104.44</ele>
        <time>2024-03-28T11:01:12Z</time>
      </trkpt>
      <trkpt lat="43.76568" lon="4.74653">
        <ele>103.48</ele>
        <time>2024-03-28T11:01:13Z</time>
      </trkpt>
      <trkpt lat="43.76568" lon="4.74648">
        <ele>103.48</ele>
        <time>2024-03-28T11:01:14Z</time>
      </trkpt>
      <trkpt lat="43.76567" lon="4.74643">
        <ele>103.48</ele>
        <time>2024-03-28T11:01:15Z</time>
      </trkpt>
      <trkpt lat="43.76567" lon="4.74638">
        <ele>102.52</ele>
        <time>2024-03-28T11:01:16Z</time>
      </trkpt>
      <trkpt lat="43.76565" lon="4.74626">
        <ele>102.04</ele>
        <time>2024-03-28T11:01:19Z</time>
      </trkpt>
      <trkpt lat="43.76566" lon="4.74623">
        <ele>101.56</ele>
        <time>2024-03-28T11:01:20Z</time>
      </trkpt>
      <trkpt lat="43.76568" lon="4.74622">
        <ele>101.08</ele>
        <time>2024-03-28T11:01:21Z</time>
      </trkpt>
      <trkpt lat="43.7657" lon="4.74622">
        <ele>101.08</ele>
        <time>2024-03-28T11:01:22Z</time>
      </trkpt>
      <trkpt lat="43.76571" lon="4.74623">
        <ele>100.6</ele>
        <time>2024-03-28T11:01:23Z</time>
      </trkpt>
      <trkpt lat="43.76572" lon="4.74625">
        <ele>100.6</ele>
        <time>2024-03-28T11:01:24Z</time>
      </trkpt>
      <trkpt lat="43.76573" lon="4.74628">
        <ele>100.6</ele>
        <time>2024-03-28T11:01:25Z</time>
      </trkpt>
      <trkpt lat="43.76574" lon="4.74631">
        <ele>100.6</ele>
        <time>2024-03-28T11:01:26Z</time>
      </trkpt>
      <trkpt lat="43.76575" lon="4.74635">
        <ele>100.6</ele>
        <time>2024-03-28T11:01:27Z</time>
      </trkpt>
      <trkpt lat="43.76582" lon="4.74671">
        <ele>100.6</ele>
        <time>2024-03-28T11:01:36Z</time>
      </trkpt>
      <trkpt lat="43.76575" lon="4.74715">
        <ele>100.6</ele>
        <time>2024-03-28T11:01:46Z</time>
      </trkpt>
      <trkpt lat="43.76561" lon="4.7475">
        <ele>100.6</ele>
        <time>2024-03-28T11:01:56Z</time>
      </trkpt>
      <trkpt lat="43.76555" lon="4.74763">
        <ele>101.56</ele>
        <time>2024-03-28T11:02:00Z</time>
      </trkpt>
      <trkpt lat="43.76556" lon="4.74778">
        <ele>102.52</ele>
        <time>2024-03-28T11:02:07Z</time>
      </trkpt>
      <trkpt lat="43.76552" lon="4.74784">
        <ele>103</ele>
        <time>2024-03-28T11:02:20Z</time>
      </trkpt>
      <trkpt lat="43.7655" lon="4.74786">
        <ele>103</ele>
        <time>2024-03-28T11:02:22Z</time>
      </trkpt>
      <trkpt lat="43.76547" lon="4.74789">
        <ele>103.48</ele>
        <time>2024-03-28T11:02:23Z</time>
      </trkpt>
      <trkpt lat="43.76545" lon="4.7479">
        <ele>103.48</ele>
        <time>2024-03-28T11:02:24Z</time>
      </trkpt>
      <trkpt lat="43.76543" lon="4.74792">
        <ele>103.96</ele>
        <time>2024-03-28T11:02:25Z</time>
      </trkpt>
      <trkpt lat="43.76538" lon="4.74795">
        <ele>104.44</ele>
        <time>2024-03-28T11:02:33Z</time>
      </trkpt>
      <trkpt lat="43.76531" lon="4.74792">
        <ele>104.44</ele>
        <time>2024-03-28T11:02:57Z</time>
      </trkpt>
      <trkpt lat="43.76527" lon="4.74797">
        <ele>104.92</ele>
        <time>2024-03-28T11:03:21Z</time>
      </trkpt>
      <trkpt lat="43.76528" lon="4.748">
        <ele>104.92</ele>
        <time>2024-03-28T11:03:46Z</time>
      </trkpt>
      <trkpt lat="43.76531" lon="4.74801">
        <ele>103</ele>
        <time>2024-03-28T11:04:04Z</time>
      </trkpt>
      <trkpt lat="43.76531" lon="4.74802">
        <ele>105.4</ele>
        <time>2024-03-28T11:04:06Z</time>
      </trkpt>
      <trkpt lat="43.76552" lon="4.74786">
        <ele>102.52</ele>
        <time>2024-03-28T12:05:08Z</time>
      </trkpt>
      <trkpt lat="43.76562" lon="4.74775">
        <ele>101.08</ele>
        <time>2024-03-28T12:05:16Z</time>
      </trkpt>
      <trkpt lat="43.76564" lon="4.74774">
        <ele>101.08</ele>
        <time>2024-03-28T12:05:17Z</time>
      </trkpt>
      <trkpt lat="43.76565" lon="4.74773">
        <ele>101.08</ele>
        <time>2024-03-28T12:05:18Z</time>
      </trkpt>
      <trkpt lat="43.76569" lon="4.74769">
        <ele>101.08</ele>
        <time>2024-03-28T12:05:22Z</time>
      </trkpt>
      <trkpt lat="43.76569" lon="4.74768">
        <ele>101.56</ele>
        <time>2024-03-28T12:05:23Z</time>
      </trkpt>
      <trkpt lat="43.7657" lon="4.74767">
        <ele>102.04</ele>
        <time>2024-03-28T12:05:24Z</time>
      </trkpt>
      <trkpt lat="43.76573" lon="4.74761">
        <ele>103</ele>
        <time>2024-03-28T12:05:28Z</time>
      </trkpt>
      <trkpt lat="43.76572" lon="4.74758">
        <ele>104.44</ele>
        <time>2024-03-28T12:05:37Z</time>
      </trkpt>
      <trkpt lat="43.76571" lon="4.74756">
        <ele>105.4</ele>
        <time>2024-03-28T12:05:56Z</time>
      </trkpt>
      <trkpt lat="43.76569" lon="4.74748">
        <ele>104.44</ele>
        <time>2024-03-28T12:05:58Z</time>
      </trkpt>
      <trkpt lat="43.76568" lon="4.74741">
        <ele>103.96</ele>
        <time>2024-03-28T12:06:00Z</time>
      </trkpt>
      <trkpt lat="43.76569" lon="4.74734">
        <ele>103.96</ele>
        <time>2024-03-28T12:06:01Z</time>
      </trkpt>
      <trkpt lat="43.7657" lon="4.7473">
        <ele>103.96</ele>
        <time>2024-03-28T12:06:02Z</time>
      </trkpt>
      <trkpt lat="43.76571" lon="4.74725">
        <ele>103.96</ele>
        <time>2024-03-28T12:06:03Z</time>
      </trkpt>
      <trkpt lat="43.76578" lon="4.74698">
        <ele>103.96</ele>
        <time>2024-03-28T12:06:13Z</time>
      </trkpt>
      <trkpt lat="43.76579" lon="4.74694">
        <ele>103.96</ele>
        <time>2024-03-28T12:06:22Z</time>
      </trkpt>
      <trkpt lat="43.76581" lon="4.74682">
        <ele>103.96</ele>
        <time>2024-03-28T12:06:33Z</time>
      </trkpt>
      <trkpt lat="43.76579" lon="4.74653">
        <ele>103.96</ele>
        <time>2024-03-28T12:06:43Z</time>
      </trkpt>
      <trkpt lat="43.76574" lon="4.74626">
        <ele>103.96</ele>
        <time>2024-03-28T12:06:52Z</time>
      </trkpt>
      <trkpt lat="43.76571" lon="4.74609">
        <ele>104.92</ele>
        <time>2024-03-28T12:07:01Z</time>
      </trkpt>
      <trkpt lat="43.76565" lon="4.74594">
        <ele>103.48</ele>
        <time>2024-03-28T12:07:06Z</time>
      </trkpt>
      <trkpt lat="43.76554" lon="4.74574">
        <ele>101.56</ele>
        <time>2024-03-28T12:07:13Z</time>
      </trkpt>
      <trkpt lat="43.76544" lon="4.74554">
        <ele>98.67</ele>
        <time>2024-03-28T12:07:17Z</time>
      </trkpt>
      <trkpt lat="43.76539" lon="4.74549">
        <ele>98.19</ele>
        <time>2024-03-28T12:07:18Z</time>
      </trkpt>
      <trkpt lat="43.76535" lon="4.74542">
        <ele>97.23</ele>
        <time>2024-03-28T12:07:19Z</time>
      </trkpt>
      <trkpt lat="43.76531" lon="4.74535">
        <ele>96.75</ele>
        <time>2024-03-28T12:07:20Z</time>
      </trkpt>
      <trkpt lat="43.76527" lon="4.74526">
        <ele>96.27</ele>
        <time>2024-03-28T12:07:21Z</time>
      </trkpt>
      <trkpt lat="43.76524" lon="4.74517">
        <ele>95.79</ele>
        <time>2024-03-28T12:07:22Z</time>
      </trkpt>
      <trkpt lat="43.765" lon="4.7444">
        <ele>93.87</ele>
        <time>2024-03-28T12:07:31Z</time>
      </trkpt>
      <trkpt lat="43.76489" lon="4.74378">
        <ele>92.42</ele>
        <time>2024-03-28T12:07:39Z</time>
      </trkpt>
      <trkpt lat="43.76489" lon="4.74371">
        <ele>91.94</ele>
        <time>2024-03-28T12:07:40Z</time>
      </trkpt>
      <trkpt lat="43.76493" lon="4.74342">
        <ele>91.46</ele>
        <time>2024-03-28T12:07:47Z</time>
      </trkpt>
      <trkpt lat="43.76509" lon="4.74305">
        <ele>90.02</ele>
        <time>2024-03-28T12:07:56Z</time>
      </trkpt>
      <trkpt lat="43.76516" lon="4.74267">
        <ele>90.02</ele>
        <time>2024-03-28T12:08:09Z</time>
      </trkpt>
      <trkpt lat="43.76519" lon="4.74248">
        <ele>89.54</ele>
        <time>2024-03-28T12:08:20Z</time>
      </trkpt>
      <trkpt lat="43.76517" lon="4.7425">
        <ele>89.54</ele>
        <time>2024-03-28T12:08:40Z</time>
      </trkpt>
      <trkpt lat="43.76518" lon="4.74237">
        <ele>89.54</ele>
        <time>2024-03-28T12:08:48Z</time>
      </trkpt>
      <trkpt lat="43.76519" lon="4.74222">
        <ele>89.54</ele>
        <time>2024-03-28T12:08:58Z</time>
      </trkpt>
      <trkpt lat="43.76514" lon="4.74198">
        <ele>89.06</ele>
        <time>2024-03-28T12:09:08Z</time>
      </trkpt>
      <trkpt lat="43.7651" lon="4.74174">
        <ele>88.1</ele>
        <time>2024-03-28T12:09:19Z</time>
      </trkpt>
      <trkpt lat="43.7651" lon="4.74164">
        <ele>87.62</ele>
        <time>2024-03-28T12:09:29Z</time>
      </trkpt>
      <trkpt lat="43.76507" lon="4.74157">
        <ele>87.14</ele>
        <time>2024-03-28T12:09:43Z</time>
      </trkpt>
      <trkpt lat="43.76501" lon="4.74133">
        <ele>86.18</ele>
        <time>2024-03-28T12:09:54Z</time>
      </trkpt>
      <trkpt lat="43.76501" lon="4.7413">
        <ele>86.18</ele>
        <time>2024-03-28T12:10:03Z</time>
      </trkpt>
      <trkpt lat="43.76499" lon="4.74126">
        <ele>86.18</ele>
        <time>2024-03-28T12:10:24Z</time>
      </trkpt>
      <trkpt lat="43.76492" lon="4.74117">
        <ele>85.21</ele>
        <time>2024-03-28T12:10:32Z</time>
      </trkpt>
      <trkpt lat="43.76492" lon="4.74116">
        <ele>85.21</ele>
        <time>2024-03-28T12:10:33Z</time>
      </trkpt>
      <trkpt lat="43.76491" lon="4.74115">
        <ele>85.21</ele>
        <time>2024-03-28T12:10:34Z</time>
      </trkpt>
      <trkpt lat="43.76489" lon="4.74107">
        <ele>85.21</ele>
        <time>2024-03-28T12:10:40Z</time>
      </trkpt>
      <trkpt lat="43.76489" lon="4.74105">
        <ele>85.21</ele>
        <time>2024-03-28T12:10:41Z</time>
      </trkpt>
      <trkpt lat="43.76488" lon="4.74102">
        <ele>85.21</ele>
        <time>2024-03-28T12:10:44Z</time>
      </trkpt>
      <trkpt lat="43.76483" lon="4.74088">
        <ele>85.21</ele>
        <time>2024-03-28T12:10:53Z</time>
      </trkpt>
      <trkpt lat="43.76479" lon="4.7407">
        <ele>85.21</ele>
        <time>2024-03-28T12:11:05Z</time>
      </trkpt>
      <trkpt lat="43.76475" lon="4.74053">
        <ele>84.73</ele>
        <time>2024-03-28T12:11:16Z</time>
      </trkpt>
      <trkpt lat="43.76475" lon="4.74052">
        <ele>84.25</ele>
        <time>2024-03-28T12:11:30Z</time>
      </trkpt>
      <trkpt lat="43.76472" lon="4.74042">
        <ele>84.73</ele>
        <time>2024-03-28T12:11:39Z</time>
      </trkpt>
      <trkpt lat="43.76472" lon="4.74039">
        <ele>84.73</ele>
        <time>2024-03-28T12:11:40Z</time>
      </trkpt>
      <trkpt lat="43.76472" lon="4.74036">
        <ele>84.73</ele>
        <time>2024-03-28T12:11:41Z</time>
      </trkpt>
      <trkpt lat="43.7647" lon="4.74025">
        <ele>84.73</ele>
        <time>2024-03-28T12:11:47Z</time>
      </trkpt>
      <trkpt lat="43.76464" lon="4.7401">
        <ele>84.73</ele>
        <time>2024-03-28T12:11:58Z</time>
      </trkpt>
      <trkpt lat="43.76459" lon="4.73992">
        <ele>84.73</ele>
        <time>2024-03-28T12:12:07Z</time>
      </trkpt>
      <trkpt lat="43.76452" lon="4.73945">
        <ele>84.73</ele>
        <time>2024-03-28T12:12:18Z</time>
      </trkpt>
      <trkpt lat="43.76428" lon="4.73877">
        <ele>82.81</ele>
        <time>2024-03-28T12:12:30Z</time>
      </trkpt>
      <trkpt lat="43.76426" lon="4.7386">
        <ele>82.33</ele>
        <time>2024-03-28T12:12:33Z</time>
      </trkpt>
      <trkpt lat="43.76426" lon="4.73854">
        <ele>82.33</ele>
        <time>2024-03-28T12:12:34Z</time>
      </trkpt>
      <trkpt lat="43.76427" lon="4.73847">
        <ele>81.85</ele>
        <time>2024-03-28T12:12:35Z</time>
      </trkpt>
      <trkpt lat="43.76438" lon="4.73788">
        <ele>78.48</ele>
        <time>2024-03-28T12:12:43Z</time>
      </trkpt>
      <trkpt lat="43.76441" lon="4.73771">
        <ele>77.52</ele>
        <time>2024-03-28T12:12:45Z</time>
      </trkpt>
      <trkpt lat="43.76449" lon="4.73746">
        <ele>75.6</ele>
        <time>2024-03-28T12:12:48Z</time>
      </trkpt>
      <trkpt lat="43.76454" lon="4.73739">
        <ele>75.6</ele>
        <time>2024-03-28T12:12:49Z</time>
      </trkpt>
      <trkpt lat="43.76458" lon="4.73734">
        <ele>75.6</ele>
        <time>2024-03-28T12:12:50Z</time>
      </trkpt>
      <trkpt lat="43.76463" lon="4.73729">
        <ele>75.12</ele>
        <time>2024-03-28T12:12:51Z</time>
      </trkpt>
      <trkpt lat="43.76467" lon="4.73725">
        <ele>75.12</ele>
        <time>2024-03-28T12:12:52Z</time>
      </trkpt>
      <trkpt lat="43.76481" lon="4.73712">
        <ele>74.64</ele>
        <time>2024-03-28T12:12:59Z</time>
      </trkpt>
      <trkpt lat="43.7648" lon="4.73713">
        <ele>74.16</ele>
        <time>2024-03-28T12:13:16Z</time>
      </trkpt>
      <trkpt lat="43.7648" lon="4.73713">
        <ele>73.68</ele>
        <time>2024-03-28T12:13:34Z</time>
      </trkpt>
      <trkpt lat="43.76481" lon="4.73713">
        <ele>73.68</ele>
        <time>2024-03-28T12:13:57Z</time>
      </trkpt>
      <trkpt lat="43.76482" lon="4.73713">
        <ele>73.68</ele>
        <time>2024-03-28T12:14:10Z</time>
      </trkpt>
      <trkpt lat="43.7649" lon="4.73709">
        <ele>73.2</ele>
        <time>2024-03-28T12:14:19Z</time>
      </trkpt>
      <trkpt lat="43.76508" lon="4.73692">
        <ele>71.76</ele>
        <time>2024-03-28T12:14:25Z</time>
      </trkpt>
      <trkpt lat="43.76524" lon="4.73668">
        <ele>71.76</ele>
        <time>2024-03-28T12:14:34Z</time>
      </trkpt>
      <trkpt lat="43.76535" lon="4.73649">
        <ele>70.79</ele>
        <time>2024-03-28T12:14:44Z</time>
      </trkpt>
      <trkpt lat="43.76553" lon="4.73626">
        <ele>69.83</ele>
        <time>2024-03-28T12:14:53Z</time>
      </trkpt>
      <trkpt lat="43.76566" lon="4.73609">
        <ele>69.35</ele>
        <time>2024-03-28T12:15:04Z</time>
      </trkpt>
      <trkpt lat="43.76564" lon="4.7361">
        <ele>69.35</ele>
        <time>2024-03-28T12:15:22Z</time>
      </trkpt>
      <trkpt lat="43.76565" lon="4.73611">
        <ele>69.35</ele>
        <time>2024-03-28T12:15:41Z</time>
      </trkpt>
      <trkpt lat="43.76568" lon="4.73606">
        <ele>69.35</ele>
        <time>2024-03-28T12:15:53Z</time>
      </trkpt>
      <trkpt lat="43.76583" lon="4.7358">
        <ele>68.39</ele>
        <time>2024-03-28T12:16:03Z</time>
      </trkpt>
      <trkpt lat="43.76612" lon="4.73545">
        <ele>67.43</ele>
        <time>2024-03-28T12:16:13Z</time>
      </trkpt>
      <trkpt lat="43.76648" lon="4.73498">
        <ele>66.95</ele>
        <time>2024-03-28T12:16:25Z</time>
      </trkpt>
      <trkpt lat="43.7669" lon="4.73451">
        <ele>66.95</ele>
        <time>2024-03-28T12:16:40Z</time>
      </trkpt>
      <trkpt lat="43.76745" lon="4.73408">
        <ele>65.51</ele>
        <time>2024-03-28T12:16:53Z</time>
      </trkpt>
      <trkpt lat="43.76783" lon="4.73374">
        <ele>63.58</ele>
        <time>2024-03-28T12:17:02Z</time>
      </trkpt>
      <trkpt lat="43.76837" lon="4.73336">
        <ele>62.14</ele>
        <time>2024-03-28T12:17:14Z</time>
      </trkpt>
      <trkpt lat="43.7686" lon="4.73321">
        <ele>62.14</ele>
        <time>2024-03-28T12:17:19Z</time>
      </trkpt>
      <trkpt lat="43.76865" lon="4.73319">
        <ele>62.14</ele>
        <time>2024-03-28T12:17:20Z</time>
      </trkpt>
      <trkpt lat="43.76873" lon="4.73317">
        <ele>62.14</ele>
        <time>2024-03-28T12:17:22Z</time>
      </trkpt>
      <trkpt lat="43.76882" lon="4.73313">
        <ele>59.26</ele>
        <time>2024-03-28T12:17:24Z</time>
      </trkpt>
      <trkpt lat="43.76887" lon="4.7331">
        <ele>64.07</ele>
        <time>2024-03-28T12:17:25Z</time>
      </trkpt>
      <trkpt lat="43.76889" lon="4.73308">
        <ele>61.66</ele>
        <time>2024-03-28T12:17:26Z</time>
      </trkpt>
      <trkpt lat="43.76893" lon="4.73304">
        <ele>61.66</ele>
        <time>2024-03-28T12:17:27Z</time>
      </trkpt>
      <trkpt lat="43.76896" lon="4.73299">
        <ele>61.66</ele>
        <time>2024-03-28T12:17:28Z</time>
      </trkpt>
      <trkpt lat="43.76898" lon="4.73293">
        <ele>61.18</ele>
        <time>2024-03-28T12:17:29Z</time>
      </trkpt>
      <trkpt lat="43.769" lon="4.73288">
        <ele>60.7</ele>
        <time>2024-03-28T12:17:30Z</time>
      </trkpt>
      <trkpt lat="43.76901" lon="4.73267">
        <ele>60.7</ele>
        <time>2024-03-28T12:17:36Z</time>
      </trkpt>
      <trkpt lat="43.769" lon="4.73264">
        <ele>60.7</ele>
        <time>2024-03-28T12:17:38Z</time>
      </trkpt>
      <trkpt lat="43.769" lon="4.73262">
        <ele>60.7</ele>
        <time>2024-03-28T12:17:39Z</time>
      </trkpt>
      <trkpt lat="43.76899" lon="4.7326">
        <ele>60.7</ele>
        <time>2024-03-28T12:17:40Z</time>
      </trkpt>
      <trkpt lat="43.76899" lon="4.73259">
        <ele>60.7</ele>
        <time>2024-03-28T12:17:41Z</time>
      </trkpt>
      <trkpt lat="43.76898" lon="4.73258">
        <ele>60.7</ele>
        <time>2024-03-28T12:17:42Z</time>
      </trkpt>
      <trkpt lat="43.76894" lon="4.73254">
        <ele>61.66</ele>
        <time>2024-03-28T12:17:46Z</time>
      </trkpt>
      <trkpt lat="43.76886" lon="4.7323">
        <ele>62.14</ele>
        <time>2024-03-28T12:17:56Z</time>
      </trkpt>
      <trkpt lat="43.76866" lon="4.73208">
        <ele>62.14</ele>
        <time>2024-03-28T12:18:04Z</time>
      </trkpt>
      <trkpt lat="43.76842" lon="4.73221">
        <ele>64.07</ele>
        <time>2024-03-28T12:18:12Z</time>
      </trkpt>
      <trkpt lat="43.76794" lon="4.73235">
        <ele>66.47</ele>
        <time>2024-03-28T12:18:26Z</time>
      </trkpt>
      <trkpt lat="43.76752" lon="4.73238">
        <ele>67.91</ele>
        <time>2024-03-28T12:18:38Z</time>
      </trkpt>
      <trkpt lat="43.76712" lon="4.73243">
        <ele>69.35</ele>
        <time>2024-03-28T12:18:50Z</time>
      </trkpt>
      <trkpt lat="43.76677" lon="4.73256">
        <ele>70.79</ele>
        <time>2024-03-28T12:19:02Z</time>
      </trkpt>
      <trkpt lat="43.76653" lon="4.73284">
        <ele>72.24</ele>
        <time>2024-03-28T12:19:13Z</time>
      </trkpt>
      <trkpt lat="43.7663" lon="4.73321">
        <ele>74.16</ele>
        <time>2024-03-28T12:19:25Z</time>
      </trkpt>
      <trkpt lat="43.76619" lon="4.73358">
        <ele>75.6</ele>
        <time>2024-03-28T12:19:35Z</time>
      </trkpt>
      <trkpt lat="43.76602" lon="4.73386">
        <ele>77.52</ele>
        <time>2024-03-28T12:19:44Z</time>
      </trkpt>
      <trkpt lat="43.7658" lon="4.73415">
        <ele>79.45</ele>
        <time>2024-03-28T12:19:54Z</time>
      </trkpt>
      <trkpt lat="43.76556" lon="4.73425">
        <ele>80.41</ele>
        <time>2024-03-28T12:20:03Z</time>
      </trkpt>
      <trkpt lat="43.76526" lon="4.7343">
        <ele>81.85</ele>
        <time>2024-03-28T12:20:13Z</time>
      </trkpt>
      <trkpt lat="43.76246" lon="4.73296">
        <ele>97.23</ele>
        <time>2024-03-28T12:22:00Z</time>
      </trkpt>
      <trkpt lat="43.76244" lon="4.73295">
        <ele>97.23</ele>
        <time>2024-03-28T12:22:01Z</time>
      </trkpt>
      <trkpt lat="43.76212" lon="4.7328">
        <ele>99.15</ele>
        <time>2024-03-28T12:22:12Z</time>
      </trkpt>
      <trkpt lat="43.76177" lon="4.73276">
        <ele>101.56</ele>
        <time>2024-03-28T12:22:25Z</time>
      </trkpt>
      <trkpt lat="43.76153" lon="4.73278">
        <ele>104.44</ele>
        <time>2024-03-28T12:22:34Z</time>
      </trkpt>
      <trkpt lat="43.7614" lon="4.73268">
        <ele>105.88</ele>
        <time>2024-03-28T12:22:40Z</time>
      </trkpt>
      <trkpt lat="43.76112" lon="4.7326">
        <ele>108.77</ele>
        <time>2024-03-28T12:22:51Z</time>
      </trkpt>
      <trkpt lat="43.76107" lon="4.7326">
        <ele>109.25</ele>
        <time>2024-03-28T12:22:53Z</time>
      </trkpt>
      <trkpt lat="43.76087" lon="4.73263">
        <ele>112.61</ele>
        <time>2024-03-28T12:23:02Z</time>
      </trkpt>
      <trkpt lat="43.76065" lon="4.73264">
        <ele>115.98</ele>
        <time>2024-03-28T12:23:11Z</time>
      </trkpt>
      <trkpt lat="43.76048" lon="4.7325">
        <ele>118.86</ele>
        <time>2024-03-28T12:23:20Z</time>
      </trkpt>
      <trkpt lat="43.76044" lon="4.73246">
        <ele>118.86</ele>
        <time>2024-03-28T12:23:22Z</time>
      </trkpt>
      <trkpt lat="43.76042" lon="4.73244">
        <ele>119.82</ele>
        <time>2024-03-28T12:23:23Z</time>
      </trkpt>
      <trkpt lat="43.76039" lon="4.73244">
        <ele>119.82</ele>
        <time>2024-03-28T12:23:24Z</time>
      </trkpt>
      <trkpt lat="43.76037" lon="4.73245">
        <ele>120.3</ele>
        <time>2024-03-28T12:23:25Z</time>
      </trkpt>
      <trkpt lat="43.76035" lon="4.73246">
        <ele>120.3</ele>
        <time>2024-03-28T12:23:26Z</time>
      </trkpt>
      <trkpt lat="43.76033" lon="4.73248">
        <ele>120.3</ele>
        <time>2024-03-28T12:23:27Z</time>
      </trkpt>
      <trkpt lat="43.76031" lon="4.7325">
        <ele>120.78</ele>
        <time>2024-03-28T12:23:28Z</time>
      </trkpt>
      <trkpt lat="43.7603" lon="4.73253">
        <ele>120.78</ele>
        <time>2024-03-28T12:23:29Z</time>
      </trkpt>
      <trkpt lat="43.76029" lon="4.73257">
        <ele>120.78</ele>
        <time>2024-03-28T12:23:30Z</time>
      </trkpt>
      <trkpt lat="43.76028" lon="4.7326">
        <ele>120.78</ele>
        <time>2024-03-28T12:23:31Z</time>
      </trkpt>
      <trkpt lat="43.76019" lon="4.73271">
        <ele>121.26</ele>
        <time>2024-03-28T12:23:36Z</time>
      </trkpt>
      <trkpt lat="43.76017" lon="4.73271">
        <ele>121.26</ele>
        <time>2024-03-28T12:23:37Z</time>
      </trkpt>
      <trkpt lat="43.76015" lon="4.73271">
        <ele>121.26</ele>
        <time>2024-03-28T12:23:38Z</time>
      </trkpt>
      <trkpt lat="43.76013" lon="4.73269">
        <ele>121.26</ele>
        <time>2024-03-28T12:23:39Z</time>
      </trkpt>
      <trkpt lat="43.76011" lon="4.73267">
        <ele>121.74</ele>
        <time>2024-03-28T12:23:40Z</time>
      </trkpt>
      <trkpt lat="43.7601" lon="4.73265">
        <ele>121.74</ele>
        <time>2024-03-28T12:23:41Z</time>
      </trkpt>
      <trkpt lat="43.76009" lon="4.73262">
        <ele>122.22</ele>
        <time>2024-03-28T12:23:42Z</time>
      </trkpt>
      <trkpt lat="43.76007" lon="4.7326">
        <ele>122.22</ele>
        <time>2024-03-28T12:23:43Z</time>
      </trkpt>
      <trkpt lat="43.76006" lon="4.73258">
        <ele>122.71</ele>
        <time>2024-03-28T12:23:44Z</time>
      </trkpt>
      <trkpt lat="43.75999" lon="4.73249">
        <ele>122.71</ele>
        <time>2024-03-28T12:23:48Z</time>
      </trkpt>
      <trkpt lat="43.75997" lon="4.73248">
        <ele>122.71</ele>
        <time>2024-03-28T12:23:49Z</time>
      </trkpt>
      <trkpt lat="43.75969" lon="4.73246">
        <ele>125.11</ele>
        <time>2024-03-28T12:24:01Z</time>
      </trkpt>
      <trkpt lat="43.75944" lon="4.73255">
        <ele>127.03</ele>
        <time>2024-03-28T12:24:12Z</time>
      </trkpt>
      <trkpt lat="43.75922" lon="4.73276">
        <ele>129.43</ele>
        <time>2024-03-28T12:24:23Z</time>
      </trkpt>
      <trkpt lat="43.75893" lon="4.73293">
        <ele>130.4</ele>
        <time>2024-03-28T12:24:35Z</time>
      </trkpt>
      <trkpt lat="43.75873" lon="4.73307">
        <ele>132.32</ele>
        <time>2024-03-28T12:24:44Z</time>
      </trkpt>
      <trkpt lat="43.75845" lon="4.7331">
        <ele>132.8</ele>
        <time>2024-03-28T12:24:55Z</time>
      </trkpt>
      <trkpt lat="43.75822" lon="4.7333">
        <ele>134.24</ele>
        <time>2024-03-28T12:25:06Z</time>
      </trkpt>
      <trkpt lat="43.75816" lon="4.73338">
        <ele>134.24</ele>
        <time>2024-03-28T12:25:14Z</time>
      </trkpt>
      <trkpt lat="43.75816" lon="4.73338">
        <ele>134.24</ele>
        <time>2024-03-28T12:25:35Z</time>
      </trkpt>
      <trkpt lat="43.75814" lon="4.73339">
        <ele>134.24</ele>
        <time>2024-03-28T12:25:57Z</time>
      </trkpt>
      <trkpt lat="43.75813" lon="4.73351">
        <ele>134.24</ele>
        <time>2024-03-28T12:26:07Z</time>
      </trkpt>
      <trkpt lat="43.75803" lon="4.73379">
        <ele>134.24</ele>
        <time>2024-03-28T12:26:16Z</time>
      </trkpt>
      <trkpt lat="43.75788" lon="4.73408">
        <ele>130.88</ele>
        <time>2024-03-28T12:26:23Z</time>
      </trkpt>
      <trkpt lat="43.75787" lon="4.73414">
        <ele>130.4</ele>
        <time>2024-03-28T12:26:24Z</time>
      </trkpt>
      <trkpt lat="43.75784" lon="4.73419">
        <ele>129.92</ele>
        <time>2024-03-28T12:26:25Z</time>
      </trkpt>
      <trkpt lat="43.75756" lon="4.73468">
        <ele>126.55</ele>
        <time>2024-03-28T12:26:35Z</time>
      </trkpt>
      <trkpt lat="43.75754" lon="4.73473">
        <ele>126.07</ele>
        <time>2024-03-28T12:26:36Z</time>
      </trkpt>
      <trkpt lat="43.75743" lon="4.73503">
        <ele>124.63</ele>
        <time>2024-03-28T12:26:43Z</time>
      </trkpt>
      <trkpt lat="43.75723" lon="4.73554">
        <ele>123.67</ele>
        <time>2024-03-28T12:26:54Z</time>
      </trkpt>
      <trkpt lat="43.75715" lon="4.73606">
        <ele>121.74</ele>
        <time>2024-03-28T12:27:05Z</time>
      </trkpt>
      <trkpt lat="43.75721" lon="4.73648">
        <ele>121.74</ele>
        <time>2024-03-28T12:27:15Z</time>
      </trkpt>
      <trkpt lat="43.75729" lon="4.73661">
        <ele>122.22</ele>
        <time>2024-03-28T12:27:19Z</time>
      </trkpt>
      <trkpt lat="43.75729" lon="4.73666">
        <ele>122.22</ele>
        <time>2024-03-28T12:27:20Z</time>
      </trkpt>
      <trkpt lat="43.75729" lon="4.7367">
        <ele>121.74</ele>
        <time>2024-03-28T12:27:21Z</time>
      </trkpt>
      <trkpt lat="43.75727" lon="4.73674">
        <ele>122.22</ele>
        <time>2024-03-28T12:27:22Z</time>
      </trkpt>
      <trkpt lat="43.75725" lon="4.73678">
        <ele>122.22</ele>
        <time>2024-03-28T12:27:23Z</time>
      </trkpt>
      <trkpt lat="43.75723" lon="4.73682">
        <ele>122.22</ele>
        <time>2024-03-28T12:27:24Z</time>
      </trkpt>
      <trkpt lat="43.7572" lon="4.73685">
        <ele>122.22</ele>
        <time>2024-03-28T12:27:25Z</time>
      </trkpt>
      <trkpt lat="43.75716" lon="4.73689">
        <ele>121.74</ele>
        <time>2024-03-28T12:27:26Z</time>
      </trkpt>
      <trkpt lat="43.75713" lon="4.73692">
        <ele>122.22</ele>
        <time>2024-03-28T12:27:27Z</time>
      </trkpt>
      <trkpt lat="43.75709" lon="4.73696">
        <ele>122.22</ele>
        <time>2024-03-28T12:27:28Z</time>
      </trkpt>
      <trkpt lat="43.75706" lon="4.73699">
        <ele>122.22</ele>
        <time>2024-03-28T12:27:29Z</time>
      </trkpt>
      <trkpt lat="43.75688" lon="4.73726">
        <ele>122.22</ele>
        <time>2024-03-28T12:27:38Z</time>
      </trkpt>
      <trkpt lat="43.75672" lon="4.7375">
        <ele>122.22</ele>
        <time>2024-03-28T12:27:47Z</time>
      </trkpt>
      <trkpt lat="43.75663" lon="4.73772">
        <ele>122.22</ele>
        <time>2024-03-28T12:27:55Z</time>
      </trkpt>
      <trkpt lat="43.75663" lon="4.73771">
        <ele>122.22</ele>
        <time>2024-03-28T12:28:07Z</time>
      </trkpt>
      <trkpt lat="43.7566" lon="4.73773">
        <ele>122.22</ele>
        <time>2024-03-28T12:28:18Z</time>
      </trkpt>
      <trkpt lat="43.75663" lon="4.73776">
        <ele>122.22</ele>
        <time>2024-03-28T12:28:36Z</time>
      </trkpt>
      <trkpt lat="43.75665" lon="4.73774">
        <ele>122.22</ele>
        <time>2024-03-28T12:28:55Z</time>
      </trkpt>
      <trkpt lat="43.75667" lon="4.73772">
        <ele>122.22</ele>
        <time>2024-03-28T12:29:18Z</time>
      </trkpt>
      <trkpt lat="43.75662" lon="4.7377">
        <ele>122.22</ele>
        <time>2024-03-28T12:29:48Z</time>
      </trkpt>
      <trkpt lat="43.75661" lon="4.73772">
        <ele>122.71</ele>
        <time>2024-03-28T12:30:06Z</time>
      </trkpt>
      <trkpt lat="43.75661" lon="4.7377">
        <ele>122.71</ele>
        <time>2024-03-28T12:30:27Z</time>
      </trkpt>
      <trkpt lat="43.75661" lon="4.73773">
        <ele>122.71</ele>
        <time>2024-03-28T12:30:57Z</time>
      </trkpt>
      <trkpt lat="43.7566" lon="4.73775">
        <ele>122.71</ele>
        <time>2024-03-28T12:31:08Z</time>
      </trkpt>
      <trkpt lat="43.7566" lon="4.73776">
        <ele>122.71</ele>
        <time>2024-03-28T12:31:27Z</time>
      </trkpt>
      <trkpt lat="43.75658" lon="4.73776">
        <ele>122.71</ele>
        <time>2024-03-28T12:31:36Z</time>
      </trkpt>
      <trkpt lat="43.75657" lon="4.73777">
        <ele>122.71</ele>
        <time>2024-03-28T12:31:37Z</time>
      </trkpt>
      <trkpt lat="43.75655" lon="4.73777">
        <ele>122.71</ele>
        <time>2024-03-28T12:31:38Z</time>
      </trkpt>
      <trkpt lat="43.75652" lon="4.73778">
        <ele>122.22</ele>
        <time>2024-03-28T12:31:39Z</time>
      </trkpt>
      <trkpt lat="43.75651" lon="4.73778">
        <ele>122.22</ele>
        <time>2024-03-28T12:31:40Z</time>
      </trkpt>
      <trkpt lat="43.75648" lon="4.73777">
        <ele>122.22</ele>
        <time>2024-03-28T12:31:41Z</time>
      </trkpt>
      <trkpt lat="43.75622" lon="4.73768">
        <ele>121.74</ele>
        <time>2024-03-28T12:31:51Z</time>
      </trkpt>
      <trkpt lat="43.75592" lon="4.73745">
        <ele>120.3</ele>
        <time>2024-03-28T12:32:01Z</time>
      </trkpt>
      <trkpt lat="43.75589" lon="4.73742">
        <ele>120.3</ele>
        <time>2024-03-28T12:32:02Z</time>
      </trkpt>
      <trkpt lat="43.75585" lon="4.7374">
        <ele>120.3</ele>
        <time>2024-03-28T12:32:03Z</time>
      </trkpt>
      <trkpt lat="43.75561" lon="4.73727">
        <ele>117.9</ele>
        <time>2024-03-28T12:32:09Z</time>
      </trkpt>
      <trkpt lat="43.75556" lon="4.73728">
        <ele>117.42</ele>
        <time>2024-03-28T12:32:10Z</time>
      </trkpt>
      <trkpt lat="43.75552" lon="4.73729">
        <ele>116.46</ele>
        <time>2024-03-28T12:32:11Z</time>
      </trkpt>
      <trkpt lat="43.75548" lon="4.7373">
        <ele>115.98</ele>
        <time>2024-03-28T12:32:12Z</time>
      </trkpt>
      <trkpt lat="43.75543" lon="4.73731">
        <ele>115.98</ele>
        <time>2024-03-28T12:32:13Z</time>
      </trkpt>
      <trkpt lat="43.75538" lon="4.73732">
        <ele>115.01</ele>
        <time>2024-03-28T12:32:14Z</time>
      </trkpt>
      <trkpt lat="43.75526" lon="4.73734">
        <ele>114.53</ele>
        <time>2024-03-28T12:32:17Z</time>
      </trkpt>
      <trkpt lat="43.75521" lon="4.73732">
        <ele>114.53</ele>
        <time>2024-03-28T12:32:18Z</time>
      </trkpt>
      <trkpt lat="43.75517" lon="4.7373">
        <ele>114.05</ele>
        <time>2024-03-28T12:32:19Z</time>
      </trkpt>
      <trkpt lat="43.75514" lon="4.73727">
        <ele>114.05</ele>
        <time>2024-03-28T12:32:20Z</time>
      </trkpt>
      <trkpt lat="43.7551" lon="4.73724">
        <ele>114.05</ele>
        <time>2024-03-28T12:32:21Z</time>
      </trkpt>
      <trkpt lat="43.75507" lon="4.73721">
        <ele>114.05</ele>
        <time>2024-03-28T12:32:22Z</time>
      </trkpt>
      <trkpt lat="43.75495" lon="4.73709">
        <ele>113.09</ele>
        <time>2024-03-28T12:32:26Z</time>
      </trkpt>
      <trkpt lat="43.75493" lon="4.73709">
        <ele>113.57</ele>
        <time>2024-03-28T12:32:27Z</time>
      </trkpt>
      <trkpt lat="43.7549" lon="4.7371">
        <ele>113.57</ele>
        <time>2024-03-28T12:32:28Z</time>
      </trkpt>
      <trkpt lat="43.75486" lon="4.73713">
        <ele>113.57</ele>
        <time>2024-03-28T12:32:30Z</time>
      </trkpt>
      <trkpt lat="43.75484" lon="4.73717">
        <ele>113.57</ele>
        <time>2024-03-28T12:32:31Z</time>
      </trkpt>
      <trkpt lat="43.75483" lon="4.7372">
        <ele>113.57</ele>
        <time>2024-03-28T12:32:32Z</time>
      </trkpt>
      <trkpt lat="43.75481" lon="4.73724">
        <ele>113.57</ele>
        <time>2024-03-28T12:32:33Z</time>
      </trkpt>
      <trkpt lat="43.75479" lon="4.73727">
        <ele>113.57</ele>
        <time>2024-03-28T12:32:34Z</time>
      </trkpt>
      <trkpt lat="43.75458" lon="4.73765">
        <ele>116.46</ele>
        <time>2024-03-28T12:32:45Z</time>
      </trkpt>
      <trkpt lat="43.75437" lon="4.73806">
        <ele>117.9</ele>
        <time>2024-03-28T12:32:56Z</time>
      </trkpt>
      <trkpt lat="43.75413" lon="4.73853">
        <ele>119.34</ele>
        <time>2024-03-28T12:33:08Z</time>
      </trkpt>
      <trkpt lat="43.75391" lon="4.73907">
        <ele>119.82</ele>
        <time>2024-03-28T12:33:20Z</time>
      </trkpt>
      <trkpt lat="43.75365" lon="4.73966">
        <ele>120.3</ele>
        <time>2024-03-28T12:33:33Z</time>
      </trkpt>
      <trkpt lat="43.75354" lon="4.7399">
        <ele>118.86</ele>
        <time>2024-03-28T12:33:38Z</time>
      </trkpt>
      <trkpt lat="43.75349" lon="4.73999">
        <ele>118.86</ele>
        <time>2024-03-28T12:33:40Z</time>
      </trkpt>
      <trkpt lat="43.75311" lon="4.7403">
        <ele>117.9</ele>
        <time>2024-03-28T12:33:51Z</time>
      </trkpt>
      <trkpt lat="43.75295" lon="4.74039">
        <ele>116.94</ele>
        <time>2024-03-28T12:33:55Z</time>
      </trkpt>
      <trkpt lat="43.7529" lon="4.74041">
        <ele>116.46</ele>
        <time>2024-03-28T12:33:56Z</time>
      </trkpt>
      <trkpt lat="43.75285" lon="4.74042">
        <ele>116.46</ele>
        <time>2024-03-28T12:33:57Z</time>
      </trkpt>
      <trkpt lat="43.7528" lon="4.74042">
        <ele>115.98</ele>
        <time>2024-03-28T12:33:58Z</time>
      </trkpt>
      <trkpt lat="43.75276" lon="4.74041">
        <ele>115.98</ele>
        <time>2024-03-28T12:33:59Z</time>
      </trkpt>
      <trkpt lat="43.75254" lon="4.74039">
        <ele>115.01</ele>
        <time>2024-03-28T12:34:04Z</time>
      </trkpt>
      <trkpt lat="43.75193" lon="4.74035">
        <ele>113.57</ele>
        <time>2024-03-28T12:34:18Z</time>
      </trkpt>
      <trkpt lat="43.75168" lon="4.74042">
        <ele>113.09</ele>
        <time>2024-03-28T12:34:24Z</time>
      </trkpt>
      <trkpt lat="43.75159" lon="4.7404">
        <ele>112.13</ele>
        <time>2024-03-28T12:34:26Z</time>
      </trkpt>
      <trkpt lat="43.75094" lon="4.74013">
        <ele>110.69</ele>
        <time>2024-03-28T12:34:42Z</time>
      </trkpt>
      <trkpt lat="43.7504" lon="4.73999">
        <ele>109.25</ele>
        <time>2024-03-28T12:34:55Z</time>
      </trkpt>
      <trkpt lat="43.74985" lon="4.7398">
        <ele>107.32</ele>
        <time>2024-03-28T12:35:07Z</time>
      </trkpt>
      <trkpt lat="43.74952" lon="4.73963">
        <ele>103.96</ele>
        <time>2024-03-28T12:35:13Z</time>
      </trkpt>
      <trkpt lat="43.74946" lon="4.7396">
        <ele>103.96</ele>
        <time>2024-03-28T12:35:14Z</time>
      </trkpt>
      <trkpt lat="43.74916" lon="4.73944">
        <ele>102.04</ele>
        <time>2024-03-28T12:35:19Z</time>
      </trkpt>
      <trkpt lat="43.74879" lon="4.7391">
        <ele>99.15</ele>
        <time>2024-03-28T12:35:27Z</time>
      </trkpt>
      <trkpt lat="43.74875" lon="4.73906">
        <ele>99.15</ele>
        <time>2024-03-28T12:35:28Z</time>
      </trkpt>
      <trkpt lat="43.74866" lon="4.73898">
        <ele>98.67</ele>
        <time>2024-03-28T12:35:30Z</time>
      </trkpt>
      <trkpt lat="43.74862" lon="4.73894">
        <ele>98.67</ele>
        <time>2024-03-28T12:35:31Z</time>
      </trkpt>
      <trkpt lat="43.74852" lon="4.73886">
        <ele>98.19</ele>
        <time>2024-03-28T12:35:33Z</time>
      </trkpt>
      <trkpt lat="43.74793" lon="4.73845">
        <ele>95.79</ele>
        <time>2024-03-28T12:35:45Z</time>
      </trkpt>
      <trkpt lat="43.74768" lon="4.73815">
        <ele>94.83</ele>
        <time>2024-03-28T12:35:52Z</time>
      </trkpt>
      <trkpt lat="43.74765" lon="4.73809">
        <ele>94.83</ele>
        <time>2024-03-28T12:35:53Z</time>
      </trkpt>
      <trkpt lat="43.74759" lon="4.73799">
        <ele>95.79</ele>
        <time>2024-03-28T12:35:55Z</time>
      </trkpt>
      <trkpt lat="43.74749" lon="4.73786">
        <ele>96.27</ele>
        <time>2024-03-28T12:35:58Z</time>
      </trkpt>
      <trkpt lat="43.74731" lon="4.73767">
        <ele>94.83</ele>
        <time>2024-03-28T12:36:03Z</time>
      </trkpt>
      <trkpt lat="43.74723" lon="4.73759">
        <ele>93.87</ele>
        <time>2024-03-28T12:36:10Z</time>
      </trkpt>
      <trkpt lat="43.7472" lon="4.73761">
        <ele>93.87</ele>
        <time>2024-03-28T12:36:31Z</time>
      </trkpt>
      <trkpt lat="43.74719" lon="4.7376">
        <ele>93.87</ele>
        <time>2024-03-28T12:36:57Z</time>
      </trkpt>
      <trkpt lat="43.7472" lon="4.73758">
        <ele>93.87</ele>
        <time>2024-03-28T12:37:22Z</time>
      </trkpt>
      <trkpt lat="43.7472" lon="4.73754">
        <ele>92.9</ele>
        <time>2024-03-28T12:37:45Z</time>
      </trkpt>
      <trkpt lat="43.7472" lon="4.73758">
        <ele>92.9</ele>
        <time>2024-03-28T12:38:07Z</time>
      </trkpt>
      <trkpt lat="43.74721" lon="4.7376">
        <ele>92.9</ele>
        <time>2024-03-28T12:38:25Z</time>
      </trkpt>
      <trkpt lat="43.74717" lon="4.73763">
        <ele>92.9</ele>
        <time>2024-03-28T12:38:38Z</time>
      </trkpt>
      <trkpt lat="43.74716" lon="4.73765">
        <ele>92.9</ele>
        <time>2024-03-28T12:39:00Z</time>
      </trkpt>
      <trkpt lat="43.74717" lon="4.73764">
        <ele>92.9</ele>
        <time>2024-03-28T12:39:16Z</time>
      </trkpt>
      <trkpt lat="43.74717" lon="4.73762">
        <ele>92.9</ele>
        <time>2024-03-28T12:39:29Z</time>
      </trkpt>
      <trkpt lat="43.74716" lon="4.73761">
        <ele>92.9</ele>
        <time>2024-03-28T12:39:30Z</time>
      </trkpt>
      <trkpt lat="43.74715" lon="4.73759">
        <ele>92.9</ele>
        <time>2024-03-28T12:39:31Z</time>
      </trkpt>
      <trkpt lat="43.74714" lon="4.73757">
        <ele>92.9</ele>
        <time>2024-03-28T12:39:32Z</time>
      </trkpt>
      <trkpt lat="43.74712" lon="4.73754">
        <ele>92.9</ele>
        <time>2024-03-28T12:39:33Z</time>
      </trkpt>
      <trkpt lat="43.747" lon="4.73742">
        <ele>91.46</ele>
        <time>2024-03-28T12:39:37Z</time>
      </trkpt>
      <trkpt lat="43.7469" lon="4.73736">
        <ele>90.02</ele>
        <time>2024-03-28T12:39:39Z</time>
      </trkpt>
      <trkpt lat="43.74685" lon="4.73731">
        <ele>89.54</ele>
        <time>2024-03-28T12:39:40Z</time>
      </trkpt>
      <trkpt lat="43.7468" lon="4.73725">
        <ele>88.58</ele>
        <time>2024-03-28T12:39:41Z</time>
      </trkpt>
      <trkpt lat="43.74671" lon="4.73713">
        <ele>88.1</ele>
        <time>2024-03-28T12:39:43Z</time>
      </trkpt>
      <trkpt lat="43.74639" lon="4.73669">
        <ele>84.73</ele>
        <time>2024-03-28T12:39:50Z</time>
      </trkpt>
      <trkpt lat="43.74587" lon="4.73591">
        <ele>80.89</ele>
        <time>2024-03-28T12:40:02Z</time>
      </trkpt>
      <trkpt lat="43.74572" lon="4.7357">
        <ele>79.45</ele>
        <time>2024-03-28T12:40:05Z</time>
      </trkpt>
      <trkpt lat="43.74557" lon="4.73549">
        <ele>78.48</ele>
        <time>2024-03-28T12:40:08Z</time>
      </trkpt>
      <trkpt lat="43.74513" lon="4.73498">
        <ele>76.08</ele>
        <time>2024-03-28T12:40:17Z</time>
      </trkpt>
      <trkpt lat="43.74507" lon="4.73495">
        <ele>76.08</ele>
        <time>2024-03-28T12:40:18Z</time>
      </trkpt>
      <trkpt lat="43.74491" lon="4.7349">
        <ele>75.6</ele>
        <time>2024-03-28T12:40:21Z</time>
      </trkpt>
      <trkpt lat="43.74476" lon="4.73488">
        <ele>75.12</ele>
        <time>2024-03-28T12:40:24Z</time>
      </trkpt>
      <trkpt lat="43.74471" lon="4.73487">
        <ele>75.12</ele>
        <time>2024-03-28T12:40:25Z</time>
      </trkpt>
      <trkpt lat="43.74418" lon="4.73461">
        <ele>72.72</ele>
        <time>2024-03-28T12:40:36Z</time>
      </trkpt>
      <trkpt lat="43.74361" lon="4.73433">
        <ele>69.35</ele>
        <time>2024-03-28T12:40:47Z</time>
      </trkpt>
      <trkpt lat="43.74314" lon="4.7339">
        <ele>67.43</ele>
        <time>2024-03-28T12:40:57Z</time>
      </trkpt>
      <trkpt lat="43.74272" lon="4.73345">
        <ele>65.99</ele>
        <time>2024-03-28T12:41:08Z</time>
      </trkpt>
      <trkpt lat="43.74269" lon="4.73341">
        <ele>65.99</ele>
        <time>2024-03-28T12:41:09Z</time>
      </trkpt>
      <trkpt lat="43.74267" lon="4.73336">
        <ele>65.99</ele>
        <time>2024-03-28T12:41:10Z</time>
      </trkpt>
      <trkpt lat="43.74266" lon="4.73331">
        <ele>65.99</ele>
        <time>2024-03-28T12:41:11Z</time>
      </trkpt>
      <trkpt lat="43.74266" lon="4.73326">
        <ele>65.99</ele>
        <time>2024-03-28T12:41:12Z</time>
      </trkpt>
      <trkpt lat="43.74267" lon="4.73322">
        <ele>65.99</ele>
        <time>2024-03-28T12:41:13Z</time>
      </trkpt>
      <trkpt lat="43.74263" lon="4.73288">
        <ele>65.99</ele>
        <time>2024-03-28T12:41:20Z</time>
      </trkpt>
      <trkpt lat="43.7426" lon="4.73284">
        <ele>65.99</ele>
        <time>2024-03-28T12:41:21Z</time>
      </trkpt>
      <trkpt lat="43.74217" lon="4.73235">
        <ele>63.1</ele>
        <time>2024-03-28T12:41:32Z</time>
      </trkpt>
      <trkpt lat="43.74209" lon="4.73225">
        <ele>62.62</ele>
        <time>2024-03-28T12:41:38Z</time>
      </trkpt>
      <trkpt lat="43.74209" lon="4.73225">
        <ele>62.62</ele>
        <time>2024-03-28T12:41:57Z</time>
      </trkpt>
      <trkpt lat="43.74211" lon="4.73225">
        <ele>62.62</ele>
        <time>2024-03-28T12:42:17Z</time>
      </trkpt>
      <trkpt lat="43.74208" lon="4.73224">
        <ele>62.14</ele>
        <time>2024-03-28T12:42:20Z</time>
      </trkpt>
      <trkpt lat="43.74206" lon="4.73222">
        <ele>62.14</ele>
        <time>2024-03-28T12:42:21Z</time>
      </trkpt>
      <trkpt lat="43.74203" lon="4.7322">
        <ele>61.66</ele>
        <time>2024-03-28T12:42:22Z</time>
      </trkpt>
      <trkpt lat="43.7417" lon="4.73182">
        <ele>60.7</ele>
        <time>2024-03-28T12:42:31Z</time>
      </trkpt>
      <trkpt lat="43.74118" lon="4.73124">
        <ele>57.82</ele>
        <time>2024-03-28T12:42:44Z</time>
      </trkpt>
      <trkpt lat="43.7409" lon="4.73096">
        <ele>56.86</ele>
        <time>2024-03-28T12:42:52Z</time>
      </trkpt>
      <trkpt lat="43.74088" lon="4.73094">
        <ele>56.37</ele>
        <time>2024-03-28T12:42:59Z</time>
      </trkpt>
      <trkpt lat="43.74086" lon="4.73093">
        <ele>56.37</ele>
        <time>2024-03-28T12:43:08Z</time>
      </trkpt>
      <trkpt lat="43.74074" lon="4.7308">
        <ele>56.37</ele>
        <time>2024-03-28T12:43:15Z</time>
      </trkpt>
      <trkpt lat="43.74072" lon="4.7308">
        <ele>56.37</ele>
        <time>2024-03-28T12:43:16Z</time>
      </trkpt>
      <trkpt lat="43.7407" lon="4.73082">
        <ele>56.37</ele>
        <time>2024-03-28T12:43:17Z</time>
      </trkpt>
      <trkpt lat="43.74069" lon="4.73084">
        <ele>56.37</ele>
        <time>2024-03-28T12:43:18Z</time>
      </trkpt>
      <trkpt lat="43.74069" lon="4.73087">
        <ele>56.37</ele>
        <time>2024-03-28T12:43:19Z</time>
      </trkpt>
      <trkpt lat="43.74068" lon="4.7309">
        <ele>56.37</ele>
        <time>2024-03-28T12:43:20Z</time>
      </trkpt>
      <trkpt lat="43.74066" lon="4.73093">
        <ele>56.37</ele>
        <time>2024-03-28T12:43:21Z</time>
      </trkpt>
      <trkpt lat="43.74064" lon="4.73096">
        <ele>56.37</ele>
        <time>2024-03-28T12:43:22Z</time>
      </trkpt>
      <trkpt lat="43.74042" lon="4.73133">
        <ele>56.37</ele>
        <time>2024-03-28T12:43:31Z</time>
      </trkpt>
      <trkpt lat="43.7404" lon="4.73173">
        <ele>56.37</ele>
        <time>2024-03-28T12:43:40Z</time>
      </trkpt>
      <trkpt lat="43.7404" lon="4.73185">
        <ele>56.37</ele>
        <time>2024-03-28T12:43:44Z</time>
      </trkpt>
      <trkpt lat="43.74039" lon="4.73187">
        <ele>56.37</ele>
        <time>2024-03-28T12:43:45Z</time>
      </trkpt>
      <trkpt lat="43.74039" lon="4.73191">
        <ele>56.37</ele>
        <time>2024-03-28T12:43:53Z</time>
      </trkpt>
      <trkpt lat="43.74039" lon="4.73194">
        <ele>55.89</ele>
        <time>2024-03-28T12:44:02Z</time>
      </trkpt>
      <trkpt lat="43.74039" lon="4.73195">
        <ele>55.89</ele>
        <time>2024-03-28T12:44:28Z</time>
      </trkpt>
      <trkpt lat="43.74039" lon="4.73196">
        <ele>55.89</ele>
        <time>2024-03-28T12:44:57Z</time>
      </trkpt>
      <trkpt lat="43.74038" lon="4.73197">
        <ele>55.89</ele>
        <time>2024-03-28T12:45:21Z</time>
      </trkpt>
      <trkpt lat="43.74037" lon="4.73195">
        <ele>55.89</ele>
        <time>2024-03-28T12:45:29Z</time>
      </trkpt>
      <trkpt lat="43.74038" lon="4.73195">
        <ele>55.89</ele>
        <time>2024-03-28T12:45:45Z</time>
      </trkpt>
      <trkpt lat="43.74037" lon="4.73194">
        <ele>55.89</ele>
        <time>2024-03-28T12:45:58Z</time>
      </trkpt>
      <trkpt lat="43.74039" lon="4.73195">
        <ele>55.89</ele>
        <time>2024-03-28T12:46:19Z</time>
      </trkpt>
      <trkpt lat="43.74038" lon="4.73196">
        <ele>55.89</ele>
        <time>2024-03-28T12:46:28Z</time>
      </trkpt>
      <trkpt lat="43.74039" lon="4.73198">
        <ele>55.89</ele>
        <time>2024-03-28T12:46:29Z</time>
      </trkpt>
      <trkpt lat="43.74039" lon="4.732">
        <ele>55.89</ele>
        <time>2024-03-28T12:46:30Z</time>
      </trkpt>
      <trkpt lat="43.74039" lon="4.73234">
        <ele>55.89</ele>
        <time>2024-03-28T12:46:38Z</time>
      </trkpt>
      <trkpt lat="43.74027" lon="4.73282">
        <ele>56.86</ele>
        <time>2024-03-28T12:46:48Z</time>
      </trkpt>
      <trkpt lat="43.7401" lon="4.7333">
        <ele>56.86</ele>
        <time>2024-03-28T12:46:58Z</time>
      </trkpt>
      <trkpt lat="43.73987" lon="4.73383">
        <ele>56.86</ele>
        <time>2024-03-28T12:47:09Z</time>
      </trkpt>
      <trkpt lat="43.73963" lon="4.73437">
        <ele>56.86</ele>
        <time>2024-03-28T12:47:21Z</time>
      </trkpt>
      <trkpt lat="43.73935" lon="4.73497">
        <ele>56.86</ele>
        <time>2024-03-28T12:47:34Z</time>
      </trkpt>
      <trkpt lat="43.73909" lon="4.73556">
        <ele>56.86</ele>
        <time>2024-03-28T12:47:46Z</time>
      </trkpt>
      <trkpt lat="43.73877" lon="4.73598">
        <ele>57.34</ele>
        <time>2024-03-28T12:47:58Z</time>
      </trkpt>
      <trkpt lat="43.73852" lon="4.73612">
        <ele>56.86</ele>
        <time>2024-03-28T12:48:07Z</time>
      </trkpt>
      <trkpt lat="43.73851" lon="4.73614">
        <ele>56.86</ele>
        <time>2024-03-28T12:48:08Z</time>
      </trkpt>
      <trkpt lat="43.73858" lon="4.73622">
        <ele>57.82</ele>
        <time>2024-03-28T12:48:13Z</time>
      </trkpt>
      <trkpt lat="43.73862" lon="4.73623">
        <ele>57.34</ele>
        <time>2024-03-28T12:48:14Z</time>
      </trkpt>
      <trkpt lat="43.73866" lon="4.73623">
        <ele>57.34</ele>
        <time>2024-03-28T12:48:15Z</time>
      </trkpt>
      <trkpt lat="43.73872" lon="4.73626">
        <ele>57.82</ele>
        <time>2024-03-28T12:48:17Z</time>
      </trkpt>
      <trkpt lat="43.7389" lon="4.73655">
        <ele>60.22</ele>
        <time>2024-03-28T12:48:26Z</time>
      </trkpt>
      <trkpt lat="43.73886" lon="4.73706">
        <ele>63.1</ele>
        <time>2024-03-28T12:48:36Z</time>
      </trkpt>
      <trkpt lat="43.73889" lon="4.7378">
        <ele>65.03</ele>
        <time>2024-03-28T12:48:52Z</time>
      </trkpt>
      <trkpt lat="43.73886" lon="4.73829">
        <ele>65.51</ele>
        <time>2024-03-28T12:49:04Z</time>
      </trkpt>
      <trkpt lat="43.7388" lon="4.73878">
        <ele>65.99</ele>
        <time>2024-03-28T12:49:14Z</time>
      </trkpt>
      <trkpt lat="43.7387" lon="4.73936">
        <ele>67.43</ele>
        <time>2024-03-28T12:49:26Z</time>
      </trkpt>
      <trkpt lat="43.73862" lon="4.73989">
        <ele>67.91</ele>
        <time>2024-03-28T12:49:37Z</time>
      </trkpt>
      <trkpt lat="43.73853" lon="4.74049">
        <ele>70.31</ele>
        <time>2024-03-28T12:49:50Z</time>
      </trkpt>
      <trkpt lat="43.73846" lon="4.74098">
        <ele>73.2</ele>
        <time>2024-03-28T12:50:02Z</time>
      </trkpt>
      <trkpt lat="43.73839" lon="4.74154">
        <ele>76.08</ele>
        <time>2024-03-28T12:50:15Z</time>
      </trkpt>
      <trkpt lat="43.7383" lon="4.74212">
        <ele>78.97</ele>
        <time>2024-03-28T12:50:29Z</time>
      </trkpt>
      <trkpt lat="43.73825" lon="4.74276">
        <ele>81.37</ele>
        <time>2024-03-28T12:50:44Z</time>
      </trkpt>
      <trkpt lat="43.73832" lon="4.74328">
        <ele>81.37</ele>
        <time>2024-03-28T12:50:54Z</time>
      </trkpt>
      <trkpt lat="43.73841" lon="4.74396">
        <ele>81.37</ele>
        <time>2024-03-28T12:51:06Z</time>
      </trkpt>
      <trkpt lat="43.73844" lon="4.74409">
        <ele>79.93</ele>
        <time>2024-03-28T12:51:08Z</time>
      </trkpt>
      <trkpt lat="43.73862" lon="4.74484">
        <ele>77.52</ele>
        <time>2024-03-28T12:51:18Z</time>
      </trkpt>
      <trkpt lat="43.73877" lon="4.74568">
        <ele>77.52</ele>
        <time>2024-03-28T12:51:32Z</time>
      </trkpt>
      <trkpt lat="43.73894" lon="4.74634">
        <ele>76.56</ele>
        <time>2024-03-28T12:51:43Z</time>
      </trkpt>
      <trkpt lat="43.73914" lon="4.74711">
        <ele>74.64</ele>
        <time>2024-03-28T12:51:54Z</time>
      </trkpt>
      <trkpt lat="43.7393" lon="4.74755">
        <ele>74.16</ele>
        <time>2024-03-28T12:52:00Z</time>
      </trkpt>
      <trkpt lat="43.7397" lon="4.74804">
        <ele>73.2</ele>
        <time>2024-03-28T12:52:11Z</time>
      </trkpt>
      <trkpt lat="43.74007" lon="4.74843">
        <ele>73.2</ele>
        <time>2024-03-28T12:52:21Z</time>
      </trkpt>
      <trkpt lat="43.74048" lon="4.74874">
        <ele>74.16</ele>
        <time>2024-03-28T12:52:32Z</time>
      </trkpt>
      <trkpt lat="43.74098" lon="4.74908">
        <ele>76.08</ele>
        <time>2024-03-28T12:52:46Z</time>
      </trkpt>
      <trkpt lat="43.74139" lon="4.74935">
        <ele>77.52</ele>
        <time>2024-03-28T12:52:58Z</time>
      </trkpt>
      <trkpt lat="43.74178" lon="4.74959">
        <ele>79.93</ele>
        <time>2024-03-28T12:53:10Z</time>
      </trkpt>
      <trkpt lat="43.74209" lon="4.74985">
        <ele>83.29</ele>
        <time>2024-03-28T12:53:22Z</time>
      </trkpt>
      <trkpt lat="43.74239" lon="4.7502">
        <ele>84.25</ele>
        <time>2024-03-28T12:53:34Z</time>
      </trkpt>
      <trkpt lat="43.74249" lon="4.75042">
        <ele>82.81</ele>
        <time>2024-03-28T12:53:38Z</time>
      </trkpt>
      <trkpt lat="43.74274" lon="4.75111">
        <ele>80.41</ele>
        <time>2024-03-28T12:53:47Z</time>
      </trkpt>
      <trkpt lat="43.74278" lon="4.75117">
        <ele>80.41</ele>
        <time>2024-03-28T12:53:48Z</time>
      </trkpt>
      <trkpt lat="43.74282" lon="4.75122">
        <ele>80.41</ele>
        <time>2024-03-28T12:53:49Z</time>
      </trkpt>
      <trkpt lat="43.74325" lon="4.75163">
        <ele>79.93</ele>
        <time>2024-03-28T12:53:59Z</time>
      </trkpt>
      <trkpt lat="43.74368" lon="4.75215">
        <ele>79.45</ele>
        <time>2024-03-28T12:54:11Z</time>
      </trkpt>
      <trkpt lat="43.74403" lon="4.75261">
        <ele>80.41</ele>
        <time>2024-03-28T12:54:22Z</time>
      </trkpt>
      <trkpt lat="43.74427" lon="4.75303">
        <ele>81.85</ele>
        <time>2024-03-28T12:54:32Z</time>
      </trkpt>
      <trkpt lat="43.74439" lon="4.75327">
        <ele>81.85</ele>
        <time>2024-03-28T12:54:37Z</time>
      </trkpt>
      <trkpt lat="43.74441" lon="4.75331">
        <ele>81.85</ele>
        <time>2024-03-28T12:54:38Z</time>
      </trkpt>
      <trkpt lat="43.74452" lon="4.75359">
        <ele>81.85</ele>
        <time>2024-03-28T12:54:43Z</time>
      </trkpt>
      <trkpt lat="43.74485" lon="4.75418">
        <ele>82.81</ele>
        <time>2024-03-28T12:54:55Z</time>
      </trkpt>
      <trkpt lat="43.74507" lon="4.75447">
        <ele>83.29</ele>
        <time>2024-03-28T12:55:02Z</time>
      </trkpt>
      <trkpt lat="43.7451" lon="4.75451">
        <ele>83.29</ele>
        <time>2024-03-28T12:55:03Z</time>
      </trkpt>
      <trkpt lat="43.74517" lon="4.75458">
        <ele>83.77</ele>
        <time>2024-03-28T12:55:05Z</time>
      </trkpt>
      <trkpt lat="43.74521" lon="4.7546">
        <ele>83.77</ele>
        <time>2024-03-28T12:55:06Z</time>
      </trkpt>
      <trkpt lat="43.74526" lon="4.75462">
        <ele>83.77</ele>
        <time>2024-03-28T12:55:07Z</time>
      </trkpt>
      <trkpt lat="43.7453" lon="4.75464">
        <ele>84.25</ele>
        <time>2024-03-28T12:55:08Z</time>
      </trkpt>
      <trkpt lat="43.74534" lon="4.75464">
        <ele>84.73</ele>
        <time>2024-03-28T12:55:09Z</time>
      </trkpt>
      <trkpt lat="43.74538" lon="4.75464">
        <ele>84.73</ele>
        <time>2024-03-28T12:55:10Z</time>
      </trkpt>
      <trkpt lat="43.74543" lon="4.75464">
        <ele>85.21</ele>
        <time>2024-03-28T12:55:11Z</time>
      </trkpt>
      <trkpt lat="43.74547" lon="4.75463">
        <ele>85.21</ele>
        <time>2024-03-28T12:55:12Z</time>
      </trkpt>
      <trkpt lat="43.74551" lon="4.75463">
        <ele>85.69</ele>
        <time>2024-03-28T12:55:13Z</time>
      </trkpt>
      <trkpt lat="43.74555" lon="4.75462">
        <ele>85.69</ele>
        <time>2024-03-28T12:55:14Z</time>
      </trkpt>
      <trkpt lat="43.74591" lon="4.75468">
        <ele>87.14</ele>
        <time>2024-03-28T12:55:23Z</time>
      </trkpt>
      <trkpt lat="43.74599" lon="4.75474">
        <ele>87.14</ele>
        <time>2024-03-28T12:55:25Z</time>
      </trkpt>
      <trkpt lat="43.74606" lon="4.75482">
        <ele>87.14</ele>
        <time>2024-03-28T12:55:27Z</time>
      </trkpt>
      <trkpt lat="43.74616" lon="4.75493">
        <ele>87.62</ele>
        <time>2024-03-28T12:55:30Z</time>
      </trkpt>
      <trkpt lat="43.7462" lon="4.75496">
        <ele>87.62</ele>
        <time>2024-03-28T12:55:31Z</time>
      </trkpt>
      <trkpt lat="43.74627" lon="4.755">
        <ele>87.62</ele>
        <time>2024-03-28T12:55:33Z</time>
      </trkpt>
      <trkpt lat="43.74631" lon="4.75501">
        <ele>87.62</ele>
        <time>2024-03-28T12:55:34Z</time>
      </trkpt>
      <trkpt lat="43.74669" lon="4.75528">
        <ele>87.62</ele>
        <time>2024-03-28T12:55:45Z</time>
      </trkpt>
      <trkpt lat="43.74698" lon="4.75586">
        <ele>88.58</ele>
        <time>2024-03-28T12:55:57Z</time>
      </trkpt>
      <trkpt lat="43.74731" lon="4.75647">
        <ele>90.02</ele>
        <time>2024-03-28T12:56:12Z</time>
      </trkpt>
      <trkpt lat="43.74756" lon="4.75685">
        <ele>90.98</ele>
        <time>2024-03-28T12:56:23Z</time>
      </trkpt>
      <trkpt lat="43.7478" lon="4.75712">
        <ele>91.94</ele>
        <time>2024-03-28T12:56:32Z</time>
      </trkpt>
      <trkpt lat="43.748" lon="4.75737">
        <ele>92.9</ele>
        <time>2024-03-28T12:56:40Z</time>
      </trkpt>
      <trkpt lat="43.74822" lon="4.75764">
        <ele>93.87</ele>
        <time>2024-03-28T12:56:49Z</time>
      </trkpt>
      <trkpt lat="43.74849" lon="4.75786">
        <ele>94.83</ele>
        <time>2024-03-28T12:56:58Z</time>
      </trkpt>
      <trkpt lat="43.74879" lon="4.75817">
        <ele>95.31</ele>
        <time>2024-03-28T12:57:08Z</time>
      </trkpt>
      <trkpt lat="43.74896" lon="4.75851">
        <ele>97.23</ele>
        <time>2024-03-28T12:57:17Z</time>
      </trkpt>
      <trkpt lat="43.74899" lon="4.75891">
        <ele>98.19</ele>
        <time>2024-03-28T12:57:26Z</time>
      </trkpt>
      <trkpt lat="43.74908" lon="4.75945">
        <ele>101.08</ele>
        <time>2024-03-28T12:57:39Z</time>
      </trkpt>
      <trkpt lat="43.74916" lon="4.75994">
        <ele>102.52</ele>
        <time>2024-03-28T12:57:50Z</time>
      </trkpt>
      <trkpt lat="43.74933" lon="4.76023">
        <ele>103.48</ele>
        <time>2024-03-28T12:57:59Z</time>
      </trkpt>
      <trkpt lat="43.74967" lon="4.76028">
        <ele>103.48</ele>
        <time>2024-03-28T12:58:09Z</time>
      </trkpt>
      <trkpt lat="43.74985" lon="4.76034">
        <ele>102.04</ele>
        <time>2024-03-28T12:58:14Z</time>
      </trkpt>
      <trkpt lat="43.75002" lon="4.76061">
        <ele>103.48</ele>
        <time>2024-03-28T12:58:22Z</time>
      </trkpt>
      <trkpt lat="43.75022" lon="4.76082">
        <ele>104.92</ele>
        <time>2024-03-28T12:58:32Z</time>
      </trkpt>
      <trkpt lat="43.75047" lon="4.76116">
        <ele>106.84</ele>
        <time>2024-03-28T12:58:44Z</time>
      </trkpt>
      <trkpt lat="43.75082" lon="4.76156">
        <ele>108.29</ele>
        <time>2024-03-28T12:58:59Z</time>
      </trkpt>
      <trkpt lat="43.75096" lon="4.76192">
        <ele>109.25</ele>
        <time>2024-03-28T12:59:09Z</time>
      </trkpt>
      <trkpt lat="43.75106" lon="4.76249">
        <ele>109.73</ele>
        <time>2024-03-28T12:59:22Z</time>
      </trkpt>
      <trkpt lat="43.75108" lon="4.76279">
        <ele>110.21</ele>
        <time>2024-03-28T12:59:31Z</time>
      </trkpt>
      <trkpt lat="43.75087" lon="4.76333">
        <ele>111.17</ele>
        <time>2024-03-28T12:59:43Z</time>
      </trkpt>
      <trkpt lat="43.75093" lon="4.76379">
        <ele>112.13</ele>
        <time>2024-03-28T12:59:53Z</time>
      </trkpt>
      <trkpt lat="43.75095" lon="4.76424">
        <ele>112.61</ele>
        <time>2024-03-28T13:00:03Z</time>
      </trkpt>
      <trkpt lat="43.75092" lon="4.76483">
        <ele>114.53</ele>
        <time>2024-03-28T13:00:16Z</time>
      </trkpt>
      <trkpt lat="43.75088" lon="4.76538">
        <ele>115.5</ele>
        <time>2024-03-28T13:00:28Z</time>
      </trkpt>
      <trkpt lat="43.751" lon="4.76582">
        <ele>116.46</ele>
        <time>2024-03-28T13:00:38Z</time>
      </trkpt>
      <trkpt lat="43.75099" lon="4.76626">
        <ele>117.9</ele>
        <time>2024-03-28T13:00:48Z</time>
      </trkpt>
      <trkpt lat="43.75094" lon="4.76665">
        <ele>119.34</ele>
        <time>2024-03-28T13:00:57Z</time>
      </trkpt>
      <trkpt lat="43.75081" lon="4.76736">
        <ele>119.82</ele>
        <time>2024-03-28T13:01:13Z</time>
      </trkpt>
      <trkpt lat="43.75088" lon="4.76756">
        <ele>120.3</ele>
        <time>2024-03-28T13:01:19Z</time>
      </trkpt>
      <trkpt lat="43.75088" lon="4.7676">
        <ele>120.3</ele>
        <time>2024-03-28T13:01:20Z</time>
      </trkpt>
      <trkpt lat="43.75088" lon="4.76763">
        <ele>120.3</ele>
        <time>2024-03-28T13:01:21Z</time>
      </trkpt>
      <trkpt lat="43.75078" lon="4.768">
        <ele>120.3</ele>
        <time>2024-03-28T13:01:30Z</time>
      </trkpt>
      <trkpt lat="43.75073" lon="4.7684">
        <ele>119.82</ele>
        <time>2024-03-28T13:01:39Z</time>
      </trkpt>
      <trkpt lat="43.75073" lon="4.76882">
        <ele>121.74</ele>
        <time>2024-03-28T13:01:48Z</time>
      </trkpt>
      <trkpt lat="43.75068" lon="4.76922">
        <ele>122.71</ele>
        <time>2024-03-28T13:01:57Z</time>
      </trkpt>
      <trkpt lat="43.75069" lon="4.76974">
        <ele>124.63</ele>
        <time>2024-03-28T13:02:09Z</time>
      </trkpt>
      <trkpt lat="43.75064" lon="4.77016">
        <ele>126.07</ele>
        <time>2024-03-28T13:02:19Z</time>
      </trkpt>
      <trkpt lat="43.75065" lon="4.77066">
        <ele>125.59</ele>
        <time>2024-03-28T13:02:30Z</time>
      </trkpt>
      <trkpt lat="43.75067" lon="4.77099">
        <ele>125.59</ele>
        <time>2024-03-28T13:02:38Z</time>
      </trkpt>
      <trkpt lat="43.75067" lon="4.77151">
        <ele>125.59</ele>
        <time>2024-03-28T13:02:49Z</time>
      </trkpt>
      <trkpt lat="43.75066" lon="4.7719">
        <ele>126.07</ele>
        <time>2024-03-28T13:02:59Z</time>
      </trkpt>
      <trkpt lat="43.75064" lon="4.77192">
        <ele>126.55</ele>
        <time>2024-03-28T13:03:09Z</time>
      </trkpt>
      <trkpt lat="43.75066" lon="4.77194">
        <ele>126.55</ele>
        <time>2024-03-28T13:03:24Z</time>
      </trkpt>
      <trkpt lat="43.75067" lon="4.77198">
        <ele>126.55</ele>
        <time>2024-03-28T13:03:43Z</time>
      </trkpt>
      <trkpt lat="43.75069" lon="4.77199">
        <ele>126.55</ele>
        <time>2024-03-28T13:03:59Z</time>
      </trkpt>
      <trkpt lat="43.75067" lon="4.77198">
        <ele>126.55</ele>
        <time>2024-03-28T13:04:23Z</time>
      </trkpt>
      <trkpt lat="43.75067" lon="4.77198">
        <ele>127.03</ele>
        <time>2024-03-28T13:04:49Z</time>
      </trkpt>
      <trkpt lat="43.75067" lon="4.772">
        <ele>127.03</ele>
        <time>2024-03-28T13:05:10Z</time>
      </trkpt>
      <trkpt lat="43.75067" lon="4.77197">
        <ele>127.03</ele>
        <time>2024-03-28T13:05:30Z</time>
      </trkpt>
      <trkpt lat="43.75065" lon="4.77196">
        <ele>127.03</ele>
        <time>2024-03-28T13:05:45Z</time>
      </trkpt>
      <trkpt lat="43.75064" lon="4.77195">
        <ele>127.03</ele>
        <time>2024-03-28T13:06:00Z</time>
      </trkpt>
      <trkpt lat="43.75064" lon="4.77202">
        <ele>127.03</ele>
        <time>2024-03-28T13:06:06Z</time>
      </trkpt>
      <trkpt lat="43.75064" lon="4.77205">
        <ele>127.03</ele>
        <time>2024-03-28T13:06:07Z</time>
      </trkpt>
      <trkpt lat="43.75064" lon="4.77208">
        <ele>127.03</ele>
        <time>2024-03-28T13:06:08Z</time>
      </trkpt>
      <trkpt lat="43.75064" lon="4.77212">
        <ele>127.03</ele>
        <time>2024-03-28T13:06:09Z</time>
      </trkpt>
      <trkpt lat="43.75063" lon="4.77216">
        <ele>127.03</ele>
        <time>2024-03-28T13:06:10Z</time>
      </trkpt>
      <trkpt lat="43.75063" lon="4.77219">
        <ele>127.03</ele>
        <time>2024-03-28T13:06:11Z</time>
      </trkpt>
      <trkpt lat="43.75063" lon="4.77223">
        <ele>127.03</ele>
        <time>2024-03-28T13:06:12Z</time>
      </trkpt>
      <trkpt lat="43.75062" lon="4.77227">
        <ele>127.03</ele>
        <time>2024-03-28T13:06:13Z</time>
      </trkpt>
      <trkpt lat="43.75062" lon="4.7723">
        <ele>127.03</ele>
        <time>2024-03-28T13:06:14Z</time>
      </trkpt>
      <trkpt lat="43.75062" lon="4.77234">
        <ele>127.03</ele>
        <time>2024-03-28T13:06:15Z</time>
      </trkpt>
      <trkpt lat="43.75062" lon="4.77238">
        <ele>127.03</ele>
        <time>2024-03-28T13:06:16Z</time>
      </trkpt>
      <trkpt lat="43.75056" lon="4.7728">
        <ele>127.03</ele>
        <time>2024-03-28T13:06:26Z</time>
      </trkpt>
      <trkpt lat="43.75046" lon="4.77329">
        <ele>127.03</ele>
        <time>2024-03-28T13:06:37Z</time>
      </trkpt>
      <trkpt lat="43.75034" lon="4.77391">
        <ele>127.03</ele>
        <time>2024-03-28T13:06:50Z</time>
      </trkpt>
      <trkpt lat="43.7503" lon="4.77444">
        <ele>127.03</ele>
        <time>2024-03-28T13:07:00Z</time>
      </trkpt>
      <trkpt lat="43.75024" lon="4.77497">
        <ele>127.51</ele>
        <time>2024-03-28T13:07:10Z</time>
      </trkpt>
      <trkpt lat="43.75017" lon="4.77564">
        <ele>128.47</ele>
        <time>2024-03-28T13:07:22Z</time>
      </trkpt>
      <trkpt lat="43.75008" lon="4.77638">
        <ele>129.43</ele>
        <time>2024-03-28T13:07:36Z</time>
      </trkpt>
      <trkpt lat="43.75001" lon="4.77702">
        <ele>130.4</ele>
        <time>2024-03-28T13:07:48Z</time>
      </trkpt>
      <trkpt lat="43.74993" lon="4.77776">
        <ele>132.32</ele>
        <time>2024-03-28T13:08:02Z</time>
      </trkpt>
      <trkpt lat="43.74985" lon="4.77844">
        <ele>133.76</ele>
        <time>2024-03-28T13:08:15Z</time>
      </trkpt>
      <trkpt lat="43.74977" lon="4.77905">
        <ele>135.2</ele>
        <time>2024-03-28T13:08:27Z</time>
      </trkpt>
      <trkpt lat="43.7497" lon="4.77958">
        <ele>137.13</ele>
        <time>2024-03-28T13:08:38Z</time>
      </trkpt>
      <trkpt lat="43.74965" lon="4.7801">
        <ele>139.53</ele>
        <time>2024-03-28T13:08:49Z</time>
      </trkpt>
      <trkpt lat="43.74957" lon="4.78057">
        <ele>140.49</ele>
        <time>2024-03-28T13:08:59Z</time>
      </trkpt>
      <trkpt lat="43.74943" lon="4.78124">
        <ele>142.89</ele>
        <time>2024-03-28T13:09:13Z</time>
      </trkpt>
      <trkpt lat="43.74925" lon="4.78179">
        <ele>145.78</ele>
        <time>2024-03-28T13:09:26Z</time>
      </trkpt>
      <trkpt lat="43.74905" lon="4.78238">
        <ele>148.66</ele>
        <time>2024-03-28T13:09:41Z</time>
      </trkpt>
      <trkpt lat="43.74886" lon="4.78288">
        <ele>151.54</ele>
        <time>2024-03-28T13:09:54Z</time>
      </trkpt>
      <trkpt lat="43.74868" lon="4.78336">
        <ele>153.95</ele>
        <time>2024-03-28T13:10:07Z</time>
      </trkpt>
      <trkpt lat="43.7485" lon="4.78395">
        <ele>155.87</ele>
        <time>2024-03-28T13:10:22Z</time>
      </trkpt>
      <trkpt lat="43.74828" lon="4.78442">
        <ele>157.31</ele>
        <time>2024-03-28T13:10:36Z</time>
      </trkpt>
      <trkpt lat="43.74822" lon="4.78455">
        <ele>157.31</ele>
        <time>2024-03-28T13:10:41Z</time>
      </trkpt>
      <trkpt lat="43.7482" lon="4.78457">
        <ele>157.31</ele>
        <time>2024-03-28T13:10:43Z</time>
      </trkpt>
      <trkpt lat="43.74818" lon="4.78459">
        <ele>157.31</ele>
        <time>2024-03-28T13:10:44Z</time>
      </trkpt>
      <trkpt lat="43.74816" lon="4.78459">
        <ele>157.31</ele>
        <time>2024-03-28T13:10:55Z</time>
      </trkpt>
      <trkpt lat="43.74815" lon="4.78458">
        <ele>157.31</ele>
        <time>2024-03-28T13:11:08Z</time>
      </trkpt>
      <trkpt lat="43.74814" lon="4.78458">
        <ele>157.31</ele>
        <time>2024-03-28T13:11:28Z</time>
      </trkpt>
      <trkpt lat="43.74813" lon="4.78458">
        <ele>157.31</ele>
        <time>2024-03-28T13:11:43Z</time>
      </trkpt>
      <trkpt lat="43.74816" lon="4.78459">
        <ele>157.31</ele>
        <time>2024-03-28T13:12:05Z</time>
      </trkpt>
      <trkpt lat="43.74818" lon="4.78458">
        <ele>157.31</ele>
        <time>2024-03-28T13:12:26Z</time>
      </trkpt>
      <trkpt lat="43.74817" lon="4.78457">
        <ele>157.31</ele>
        <time>2024-03-28T13:12:47Z</time>
      </trkpt>
      <trkpt lat="43.74813" lon="4.78457">
        <ele>157.31</ele>
        <time>2024-03-28T13:13:05Z</time>
      </trkpt>
      <trkpt lat="43.74807" lon="4.78459">
        <ele>155.87</ele>
        <time>2024-03-28T13:13:12Z</time>
      </trkpt>
      <trkpt lat="43.74802" lon="4.78461">
        <ele>155.87</ele>
        <time>2024-03-28T13:13:14Z</time>
      </trkpt>
      <trkpt lat="43.748" lon="4.78463">
        <ele>155.39</ele>
        <time>2024-03-28T13:13:15Z</time>
      </trkpt>
      <trkpt lat="43.74781" lon="4.78508">
        <ele>154.43</ele>
        <time>2024-03-28T13:13:25Z</time>
      </trkpt>
      <trkpt lat="43.74763" lon="4.78551">
        <ele>152.99</ele>
        <time>2024-03-28T13:13:33Z</time>
      </trkpt>
      <trkpt lat="43.74761" lon="4.78556">
        <ele>152.99</ele>
        <time>2024-03-28T13:13:34Z</time>
      </trkpt>
      <trkpt lat="43.74744" lon="4.78576">
        <ele>151.54</ele>
        <time>2024-03-28T13:13:42Z</time>
      </trkpt>
      <trkpt lat="43.74742" lon="4.78578">
        <ele>151.54</ele>
        <time>2024-03-28T13:14:00Z</time>
      </trkpt>
      <trkpt lat="43.74742" lon="4.7858">
        <ele>151.54</ele>
        <time>2024-03-28T13:14:01Z</time>
      </trkpt>
      <trkpt lat="43.7474" lon="4.78583">
        <ele>151.54</ele>
        <time>2024-03-28T13:14:02Z</time>
      </trkpt>
      <trkpt lat="43.74725" lon="4.78602">
        <ele>150.1</ele>
        <time>2024-03-28T13:14:06Z</time>
      </trkpt>
      <trkpt lat="43.74721" lon="4.78608">
        <ele>150.1</ele>
        <time>2024-03-28T13:14:07Z</time>
      </trkpt>
      <trkpt lat="43.74718" lon="4.78615">
        <ele>149.62</ele>
        <time>2024-03-28T13:14:08Z</time>
      </trkpt>
      <trkpt lat="43.74683" lon="4.78668">
        <ele>147.22</ele>
        <time>2024-03-28T13:14:16Z</time>
      </trkpt>
      <trkpt lat="43.74633" lon="4.78704">
        <ele>145.3</ele>
        <time>2024-03-28T13:14:24Z</time>
      </trkpt>
      <trkpt lat="43.74626" lon="4.78706">
        <ele>145.3</ele>
        <time>2024-03-28T13:14:25Z</time>
      </trkpt>
      <trkpt lat="43.74541" lon="4.78711">
        <ele>142.89</ele>
        <time>2024-03-28T13:14:37Z</time>
      </trkpt>
      <trkpt lat="43.74468" lon="4.78699">
        <ele>140.49</ele>
        <time>2024-03-28T13:14:47Z</time>
      </trkpt>
      <trkpt lat="43.74416" lon="4.78685">
        <ele>137.61</ele>
        <time>2024-03-28T13:14:54Z</time>
      </trkpt>
      <trkpt lat="43.74366" lon="4.78674">
        <ele>133.76</ele>
        <time>2024-03-28T13:15:00Z</time>
      </trkpt>
      <trkpt lat="43.74349" lon="4.7867">
        <ele>132.8</ele>
        <time>2024-03-28T13:15:02Z</time>
      </trkpt>
      <trkpt lat="43.74311" lon="4.7866">
        <ele>128.95</ele>
        <time>2024-03-28T13:15:06Z</time>
      </trkpt>
      <trkpt lat="43.74272" lon="4.78655">
        <ele>125.59</ele>
        <time>2024-03-28T13:15:10Z</time>
      </trkpt>
      <trkpt lat="43.74213" lon="4.78659">
        <ele>122.22</ele>
        <time>2024-03-28T13:15:16Z</time>
      </trkpt>
      <trkpt lat="43.74166" lon="4.78668">
        <ele>119.82</ele>
        <time>2024-03-28T13:15:21Z</time>
      </trkpt>
      <trkpt lat="43.74157" lon="4.78673">
        <ele>119.34</ele>
        <time>2024-03-28T13:15:22Z</time>
      </trkpt>
      <trkpt lat="43.74149" lon="4.78679">
        <ele>118.38</ele>
        <time>2024-03-28T13:15:23Z</time>
      </trkpt>
      <trkpt lat="43.74118" lon="4.78708">
        <ele>115.01</ele>
        <time>2024-03-28T13:15:27Z</time>
      </trkpt>
      <trkpt lat="43.74112" lon="4.78715">
        <ele>115.01</ele>
        <time>2024-03-28T13:15:28Z</time>
      </trkpt>
      <trkpt lat="43.74107" lon="4.78724">
        <ele>114.05</ele>
        <time>2024-03-28T13:15:29Z</time>
      </trkpt>
      <trkpt lat="43.74103" lon="4.78734">
        <ele>114.05</ele>
        <time>2024-03-28T13:15:30Z</time>
      </trkpt>
      <trkpt lat="43.74101" lon="4.78744">
        <ele>114.05</ele>
        <time>2024-03-28T13:15:31Z</time>
      </trkpt>
      <trkpt lat="43.741" lon="4.78756">
        <ele>114.05</ele>
        <time>2024-03-28T13:15:32Z</time>
      </trkpt>
      <trkpt lat="43.74102" lon="4.78766">
        <ele>114.05</ele>
        <time>2024-03-28T13:15:33Z</time>
      </trkpt>
      <trkpt lat="43.74104" lon="4.78774">
        <ele>114.05</ele>
        <time>2024-03-28T13:15:34Z</time>
      </trkpt>
      <trkpt lat="43.74107" lon="4.78782">
        <ele>114.05</ele>
        <time>2024-03-28T13:15:35Z</time>
      </trkpt>
      <trkpt lat="43.74114" lon="4.78811">
        <ele>114.05</ele>
        <time>2024-03-28T13:15:39Z</time>
      </trkpt>
      <trkpt lat="43.74129" lon="4.78847">
        <ele>115.01</ele>
        <time>2024-03-28T13:15:47Z</time>
      </trkpt>
      <trkpt lat="43.74145" lon="4.78855">
        <ele>115.98</ele>
        <time>2024-03-28T13:15:55Z</time>
      </trkpt>
      <trkpt lat="43.74165" lon="4.78872">
        <ele>117.9</ele>
        <time>2024-03-28T13:16:03Z</time>
      </trkpt>
      <trkpt lat="43.74167" lon="4.78875">
        <ele>117.9</ele>
        <time>2024-03-28T13:16:04Z</time>
      </trkpt>
      <trkpt lat="43.74192" lon="4.78911">
        <ele>119.34</ele>
        <time>2024-03-28T13:16:15Z</time>
      </trkpt>
      <trkpt lat="43.74208" lon="4.78931">
        <ele>119.34</ele>
        <time>2024-03-28T13:16:22Z</time>
      </trkpt>
      <trkpt lat="43.74242" lon="4.78959">
        <ele>121.74</ele>
        <time>2024-03-28T13:16:34Z</time>
      </trkpt>
      <trkpt lat="43.74271" lon="4.78984">
        <ele>122.71</ele>
        <time>2024-03-28T13:16:45Z</time>
      </trkpt>
      <trkpt lat="43.74296" lon="4.79012">
        <ele>124.63</ele>
        <time>2024-03-28T13:16:55Z</time>
      </trkpt>
      <trkpt lat="43.74314" lon="4.79046">
        <ele>126.07</ele>
        <time>2024-03-28T13:17:04Z</time>
      </trkpt>
      <trkpt lat="43.74343" lon="4.79079">
        <ele>127.51</ele>
        <time>2024-03-28T13:17:15Z</time>
      </trkpt>
      <trkpt lat="43.74366" lon="4.79105">
        <ele>129.43</ele>
        <time>2024-03-28T13:17:26Z</time>
      </trkpt>
      <trkpt lat="43.7439" lon="4.79129">
        <ele>130.88</ele>
        <time>2024-03-28T13:17:39Z</time>
      </trkpt>
      <trkpt lat="43.74409" lon="4.79147">
        <ele>133.28</ele>
        <time>2024-03-28T13:17:50Z</time>
      </trkpt>
      <trkpt lat="43.7441" lon="4.79151">
        <ele>133.76</ele>
        <time>2024-03-28T13:17:52Z</time>
      </trkpt>
      <trkpt lat="43.74411" lon="4.79153">
        <ele>133.76</ele>
        <time>2024-03-28T13:17:53Z</time>
      </trkpt>
      <trkpt lat="43.74421" lon="4.79178">
        <ele>133.76</ele>
        <time>2024-03-28T13:18:02Z</time>
      </trkpt>
      <trkpt lat="43.74422" lon="4.79184">
        <ele>133.76</ele>
        <time>2024-03-28T13:18:04Z</time>
      </trkpt>
      <trkpt lat="43.74422" lon="4.79187">
        <ele>133.76</ele>
        <time>2024-03-28T13:18:05Z</time>
      </trkpt>
      <trkpt lat="43.74421" lon="4.7919">
        <ele>133.76</ele>
        <time>2024-03-28T13:18:06Z</time>
      </trkpt>
      <trkpt lat="43.7442" lon="4.79193">
        <ele>133.76</ele>
        <time>2024-03-28T13:18:07Z</time>
      </trkpt>
      <trkpt lat="43.74418" lon="4.79196">
        <ele>133.76</ele>
        <time>2024-03-28T13:18:08Z</time>
      </trkpt>
      <trkpt lat="43.74408" lon="4.79229">
        <ele>131.84</ele>
        <time>2024-03-28T13:18:17Z</time>
      </trkpt>
      <trkpt lat="43.74407" lon="4.79252">
        <ele>131.84</ele>
        <time>2024-03-28T13:18:27Z</time>
      </trkpt>
      <trkpt lat="43.74408" lon="4.7926">
        <ele>131.84</ele>
        <time>2024-03-28T13:18:39Z</time>
      </trkpt>
      <trkpt lat="43.74408" lon="4.7926">
        <ele>132.32</ele>
        <time>2024-03-28T13:18:53Z</time>
      </trkpt>
      <trkpt lat="43.7441" lon="4.79263">
        <ele>132.32</ele>
        <time>2024-03-28T13:19:01Z</time>
      </trkpt>
      <trkpt lat="43.74431" lon="4.79274">
        <ele>133.28</ele>
        <time>2024-03-28T13:19:11Z</time>
      </trkpt>
      <trkpt lat="43.74445" lon="4.79281">
        <ele>134.24</ele>
        <time>2024-03-28T13:19:21Z</time>
      </trkpt>
      <trkpt lat="43.74445" lon="4.79282">
        <ele>134.24</ele>
        <time>2024-03-28T13:19:27Z</time>
      </trkpt>
      <trkpt lat="43.74463" lon="4.79297">
        <ele>134.72</ele>
        <time>2024-03-28T13:19:36Z</time>
      </trkpt>
      <trkpt lat="43.74497" lon="4.79318">
        <ele>136.16</ele>
        <time>2024-03-28T13:19:48Z</time>
      </trkpt>
      <trkpt lat="43.74526" lon="4.79338">
        <ele>138.57</ele>
        <time>2024-03-28T13:20:00Z</time>
      </trkpt>
      <trkpt lat="43.74558" lon="4.79361">
        <ele>140.01</ele>
        <time>2024-03-28T13:20:13Z</time>
      </trkpt>
      <trkpt lat="43.74594" lon="4.79387">
        <ele>142.41</ele>
        <time>2024-03-28T13:20:27Z</time>
      </trkpt>
      <trkpt lat="43.74629" lon="4.7941">
        <ele>144.82</ele>
        <time>2024-03-28T13:20:40Z</time>
      </trkpt>
      <trkpt lat="43.74655" lon="4.79429">
        <ele>146.26</ele>
        <time>2024-03-28T13:20:51Z</time>
      </trkpt>
      <trkpt lat="43.74679" lon="4.79445">
        <ele>147.7</ele>
        <time>2024-03-28T13:21:01Z</time>
      </trkpt>
      <trkpt lat="43.74701" lon="4.79461">
        <ele>149.14</ele>
        <time>2024-03-28T13:21:10Z</time>
      </trkpt>
      <trkpt lat="43.74723" lon="4.79471">
        <ele>151.06</ele>
        <time>2024-03-28T13:21:19Z</time>
      </trkpt>
      <trkpt lat="43.74724" lon="4.79473">
        <ele>151.06</ele>
        <time>2024-03-28T13:21:20Z</time>
      </trkpt>
      <trkpt lat="43.74725" lon="4.79476">
        <ele>152.03</ele>
        <time>2024-03-28T13:21:21Z</time>
      </trkpt>
      <trkpt lat="43.74725" lon="4.79478">
        <ele>152.03</ele>
        <time>2024-03-28T13:21:22Z</time>
      </trkpt>
      <trkpt lat="43.74724" lon="4.7948">
        <ele>152.51</ele>
        <time>2024-03-28T13:21:23Z</time>
      </trkpt>
      <trkpt lat="43.74723" lon="4.79483">
        <ele>152.51</ele>
        <time>2024-03-28T13:21:24Z</time>
      </trkpt>
      <trkpt lat="43.74722" lon="4.79486">
        <ele>152.99</ele>
        <time>2024-03-28T13:21:25Z</time>
      </trkpt>
      <trkpt lat="43.7472" lon="4.79489">
        <ele>153.95</ele>
        <time>2024-03-28T13:21:26Z</time>
      </trkpt>
      <trkpt lat="43.74719" lon="4.79492">
        <ele>154.43</ele>
        <time>2024-03-28T13:21:27Z</time>
      </trkpt>
      <trkpt lat="43.74715" lon="4.79505">
        <ele>156.35</ele>
        <time>2024-03-28T13:21:32Z</time>
      </trkpt>
      <trkpt lat="43.74715" lon="4.79509">
        <ele>156.83</ele>
        <time>2024-03-28T13:21:33Z</time>
      </trkpt>
      <trkpt lat="43.74716" lon="4.79512">
        <ele>157.31</ele>
        <time>2024-03-28T13:21:34Z</time>
      </trkpt>
      <trkpt lat="43.74717" lon="4.79544">
        <ele>160.68</ele>
        <time>2024-03-28T13:21:44Z</time>
      </trkpt>
      <trkpt lat="43.74707" lon="4.79578">
        <ele>162.6</ele>
        <time>2024-03-28T13:21:55Z</time>
      </trkpt>
      <trkpt lat="43.74702" lon="4.79589">
        <ele>163.56</ele>
        <time>2024-03-28T13:21:59Z</time>
      </trkpt>
      <trkpt lat="43.747" lon="4.7959">
        <ele>163.56</ele>
        <time>2024-03-28T13:22:00Z</time>
      </trkpt>
      <trkpt lat="43.7467" lon="4.79603">
        <ele>165.48</ele>
        <time>2024-03-28T13:22:12Z</time>
      </trkpt>
      <trkpt lat="43.74636" lon="4.79603">
        <ele>168.37</ele>
        <time>2024-03-28T13:22:26Z</time>
      </trkpt>
      <trkpt lat="43.74612" lon="4.79594">
        <ele>169.81</ele>
        <time>2024-03-28T13:22:36Z</time>
      </trkpt>
      <trkpt lat="43.74611" lon="4.79595">
        <ele>169.81</ele>
        <time>2024-03-28T13:22:37Z</time>
      </trkpt>
      <trkpt lat="43.7461" lon="4.79598">
        <ele>170.77</ele>
        <time>2024-03-28T13:22:38Z</time>
      </trkpt>
      <trkpt lat="43.74611" lon="4.79601">
        <ele>170.77</ele>
        <time>2024-03-28T13:22:39Z</time>
      </trkpt>
      <trkpt lat="43.74612" lon="4.79603">
        <ele>170.77</ele>
        <time>2024-03-28T13:22:40Z</time>
      </trkpt>
      <trkpt lat="43.74614" lon="4.79605">
        <ele>171.25</ele>
        <time>2024-03-28T13:22:41Z</time>
      </trkpt>
      <trkpt lat="43.74638" lon="4.79629">
        <ele>172.69</ele>
        <time>2024-03-28T13:22:53Z</time>
      </trkpt>
      <trkpt lat="43.74643" lon="4.79637">
        <ele>173.17</ele>
        <time>2024-03-28T13:22:56Z</time>
      </trkpt>
      <trkpt lat="43.74643" lon="4.79641">
        <ele>173.17</ele>
        <time>2024-03-28T13:22:57Z</time>
      </trkpt>
      <trkpt lat="43.74641" lon="4.79645">
        <ele>174.14</ele>
        <time>2024-03-28T13:22:59Z</time>
      </trkpt>
      <trkpt lat="43.74639" lon="4.79648">
        <ele>174.62</ele>
        <time>2024-03-28T13:23:00Z</time>
      </trkpt>
      <trkpt lat="43.74638" lon="4.7965">
        <ele>174.62</ele>
        <time>2024-03-28T13:23:01Z</time>
      </trkpt>
      <trkpt lat="43.74636" lon="4.79652">
        <ele>175.1</ele>
        <time>2024-03-28T13:23:02Z</time>
      </trkpt>
      <trkpt lat="43.74633" lon="4.79652">
        <ele>175.1</ele>
        <time>2024-03-28T13:23:03Z</time>
      </trkpt>
      <trkpt lat="43.74631" lon="4.79652">
        <ele>175.1</ele>
        <time>2024-03-28T13:23:04Z</time>
      </trkpt>
      <trkpt lat="43.74629" lon="4.79651">
        <ele>176.06</ele>
        <time>2024-03-28T13:23:05Z</time>
      </trkpt>
      <trkpt lat="43.74626" lon="4.79649">
        <ele>176.06</ele>
        <time>2024-03-28T13:23:06Z</time>
      </trkpt>
      <trkpt lat="43.74596" lon="4.79641">
        <ele>178.46</ele>
        <time>2024-03-28T13:23:19Z</time>
      </trkpt>
      <trkpt lat="43.74591" lon="4.79656">
        <ele>180.38</ele>
        <time>2024-03-28T13:23:24Z</time>
      </trkpt>
      <trkpt lat="43.74604" lon="4.79679">
        <ele>181.83</ele>
        <time>2024-03-28T13:23:33Z</time>
      </trkpt>
      <trkpt lat="43.74611" lon="4.79692">
        <ele>182.79</ele>
        <time>2024-03-28T13:23:38Z</time>
      </trkpt>
      <trkpt lat="43.7461" lon="4.79695">
        <ele>183.27</ele>
        <time>2024-03-28T13:23:39Z</time>
      </trkpt>
      <trkpt lat="43.74609" lon="4.79698">
        <ele>183.75</ele>
        <time>2024-03-28T13:23:40Z</time>
      </trkpt>
      <trkpt lat="43.74607" lon="4.79701">
        <ele>183.75</ele>
        <time>2024-03-28T13:23:41Z</time>
      </trkpt>
      <trkpt lat="43.74605" lon="4.79703">
        <ele>183.75</ele>
        <time>2024-03-28T13:23:42Z</time>
      </trkpt>
      <trkpt lat="43.74604" lon="4.79705">
        <ele>184.23</ele>
        <time>2024-03-28T13:23:43Z</time>
      </trkpt>
      <trkpt lat="43.74601" lon="4.79707">
        <ele>184.71</ele>
        <time>2024-03-28T13:23:44Z</time>
      </trkpt>
      <trkpt lat="43.74599" lon="4.79707">
        <ele>185.67</ele>
        <time>2024-03-28T13:23:45Z</time>
      </trkpt>
      <trkpt lat="43.74597" lon="4.79706">
        <ele>185.67</ele>
        <time>2024-03-28T13:23:46Z</time>
      </trkpt>
      <trkpt lat="43.74595" lon="4.79705">
        <ele>185.67</ele>
        <time>2024-03-28T13:23:47Z</time>
      </trkpt>
      <trkpt lat="43.74593" lon="4.79704">
        <ele>185.67</ele>
        <time>2024-03-28T13:23:48Z</time>
      </trkpt>
      <trkpt lat="43.7459" lon="4.79702">
        <ele>186.15</ele>
        <time>2024-03-28T13:23:49Z</time>
      </trkpt>
      <trkpt lat="43.74564" lon="4.79705">
        <ele>188.56</ele>
        <time>2024-03-28T13:24:00Z</time>
      </trkpt>
      <trkpt lat="43.74555" lon="4.79727">
        <ele>190</ele>
        <time>2024-03-28T13:24:10Z</time>
      </trkpt>
      <trkpt lat="43.74555" lon="4.79726">
        <ele>190</ele>
        <time>2024-03-28T13:24:24Z</time>
      </trkpt>
      <trkpt lat="43.74555" lon="4.79726">
        <ele>190</ele>
        <time>2024-03-28T13:24:46Z</time>
      </trkpt>
      <trkpt lat="43.74554" lon="4.79726">
        <ele>190</ele>
        <time>2024-03-28T13:25:01Z</time>
      </trkpt>
      <trkpt lat="43.74553" lon="4.79729">
        <ele>189.52</ele>
        <time>2024-03-28T13:25:09Z</time>
      </trkpt>
      <trkpt lat="43.74553" lon="4.79731">
        <ele>189.52</ele>
        <time>2024-03-28T13:25:10Z</time>
      </trkpt>
      <trkpt lat="43.74553" lon="4.79733">
        <ele>190</ele>
        <time>2024-03-28T13:25:11Z</time>
      </trkpt>
      <trkpt lat="43.74552" lon="4.79735">
        <ele>190</ele>
        <time>2024-03-28T13:25:12Z</time>
      </trkpt>
      <trkpt lat="43.74552" lon="4.79737">
        <ele>189.52</ele>
        <time>2024-03-28T13:25:13Z</time>
      </trkpt>
      <trkpt lat="43.74549" lon="4.79745">
        <ele>189.52</ele>
        <time>2024-03-28T13:25:18Z</time>
      </trkpt>
      <trkpt lat="43.74548" lon="4.79747">
        <ele>189.52</ele>
        <time>2024-03-28T13:25:19Z</time>
      </trkpt>
      <trkpt lat="43.74546" lon="4.7975">
        <ele>189.52</ele>
        <time>2024-03-28T13:25:20Z</time>
      </trkpt>
      <trkpt lat="43.74545" lon="4.79754">
        <ele>189.52</ele>
        <time>2024-03-28T13:25:21Z</time>
      </trkpt>
      <trkpt lat="43.74543" lon="4.79757">
        <ele>189.52</ele>
        <time>2024-03-28T13:25:22Z</time>
      </trkpt>
      <trkpt lat="43.74541" lon="4.79761">
        <ele>189.52</ele>
        <time>2024-03-28T13:25:23Z</time>
      </trkpt>
      <trkpt lat="43.74535" lon="4.79774">
        <ele>188.56</ele>
        <time>2024-03-28T13:25:26Z</time>
      </trkpt>
      <trkpt lat="43.7452" lon="4.79807">
        <ele>185.67</ele>
        <time>2024-03-28T13:25:31Z</time>
      </trkpt>
      <trkpt lat="43.74516" lon="4.79814">
        <ele>184.71</ele>
        <time>2024-03-28T13:25:32Z</time>
      </trkpt>
      <trkpt lat="43.7451" lon="4.79821">
        <ele>184.23</ele>
        <time>2024-03-28T13:25:33Z</time>
      </trkpt>
      <trkpt lat="43.74503" lon="4.79827">
        <ele>181.83</ele>
        <time>2024-03-28T13:25:34Z</time>
      </trkpt>
      <trkpt lat="43.74495" lon="4.79831">
        <ele>180.87</ele>
        <time>2024-03-28T13:25:35Z</time>
      </trkpt>
      <trkpt lat="43.74488" lon="4.79832">
        <ele>179.9</ele>
        <time>2024-03-28T13:25:36Z</time>
      </trkpt>
      <trkpt lat="43.7448" lon="4.7983">
        <ele>178.94</ele>
        <time>2024-03-28T13:25:37Z</time>
      </trkpt>
      <trkpt lat="43.74472" lon="4.79827">
        <ele>178.46</ele>
        <time>2024-03-28T13:25:38Z</time>
      </trkpt>
      <trkpt lat="43.74464" lon="4.79822">
        <ele>177.98</ele>
        <time>2024-03-28T13:25:39Z</time>
      </trkpt>
      <trkpt lat="43.74448" lon="4.79816">
        <ele>177.02</ele>
        <time>2024-03-28T13:25:41Z</time>
      </trkpt>
      <trkpt lat="43.74441" lon="4.79815">
        <ele>176.54</ele>
        <time>2024-03-28T13:25:42Z</time>
      </trkpt>
      <trkpt lat="43.74433" lon="4.79816">
        <ele>175.58</ele>
        <time>2024-03-28T13:25:43Z</time>
      </trkpt>
      <trkpt lat="43.74426" lon="4.79821">
        <ele>175.1</ele>
        <time>2024-03-28T13:25:44Z</time>
      </trkpt>
      <trkpt lat="43.74422" lon="4.7983">
        <ele>174.14</ele>
        <time>2024-03-28T13:25:45Z</time>
      </trkpt>
      <trkpt lat="43.74421" lon="4.79841">
        <ele>173.66</ele>
        <time>2024-03-28T13:25:46Z</time>
      </trkpt>
      <trkpt lat="43.74423" lon="4.79851">
        <ele>172.69</ele>
        <time>2024-03-28T13:25:47Z</time>
      </trkpt>
      <trkpt lat="43.74426" lon="4.79862">
        <ele>172.21</ele>
        <time>2024-03-28T13:25:48Z</time>
      </trkpt>
      <trkpt lat="43.7443" lon="4.79873">
        <ele>170.77</ele>
        <time>2024-03-28T13:25:49Z</time>
      </trkpt>
      <trkpt lat="43.74435" lon="4.79884">
        <ele>169.81</ele>
        <time>2024-03-28T13:25:50Z</time>
      </trkpt>
      <trkpt lat="43.7444" lon="4.79895">
        <ele>169.33</ele>
        <time>2024-03-28T13:25:51Z</time>
      </trkpt>
      <trkpt lat="43.74458" lon="4.79941">
        <ele>165.96</ele>
        <time>2024-03-28T13:25:55Z</time>
      </trkpt>
      <trkpt lat="43.74479" lon="4.79987">
        <ele>162.6</ele>
        <time>2024-03-28T13:25:59Z</time>
      </trkpt>
      <trkpt lat="43.74491" lon="4.80009">
        <ele>161.64</ele>
        <time>2024-03-28T13:26:01Z</time>
      </trkpt>
      <trkpt lat="43.74512" lon="4.80042">
        <ele>158.75</ele>
        <time>2024-03-28T13:26:04Z</time>
      </trkpt>
      <trkpt lat="43.74517" lon="4.80052">
        <ele>157.31</ele>
        <time>2024-03-28T13:26:05Z</time>
      </trkpt>
      <trkpt lat="43.7452" lon="4.80065">
        <ele>156.35</ele>
        <time>2024-03-28T13:26:06Z</time>
      </trkpt>
      <trkpt lat="43.74521" lon="4.8008">
        <ele>155.39</ele>
        <time>2024-03-28T13:26:07Z</time>
      </trkpt>
      <trkpt lat="43.74521" lon="4.80093">
        <ele>154.43</ele>
        <time>2024-03-28T13:26:08Z</time>
      </trkpt>
      <trkpt lat="43.74522" lon="4.80108">
        <ele>153.47</ele>
        <time>2024-03-28T13:26:09Z</time>
      </trkpt>
      <trkpt lat="43.74523" lon="4.80121">
        <ele>152.51</ele>
        <time>2024-03-28T13:26:10Z</time>
      </trkpt>
      <trkpt lat="43.74525" lon="4.80134">
        <ele>152.03</ele>
        <time>2024-03-28T13:26:11Z</time>
      </trkpt>
      <trkpt lat="43.74528" lon="4.80148">
        <ele>151.54</ele>
        <time>2024-03-28T13:26:12Z</time>
      </trkpt>
      <trkpt lat="43.74532" lon="4.80161">
        <ele>151.06</ele>
        <time>2024-03-28T13:26:13Z</time>
      </trkpt>
      <trkpt lat="43.74548" lon="4.80214">
        <ele>148.18</ele>
        <time>2024-03-28T13:26:17Z</time>
      </trkpt>
      <trkpt lat="43.74551" lon="4.80228">
        <ele>147.22</ele>
        <time>2024-03-28T13:26:18Z</time>
      </trkpt>
      <trkpt lat="43.74552" lon="4.80243">
        <ele>145.78</ele>
        <time>2024-03-28T13:26:19Z</time>
      </trkpt>
      <trkpt lat="43.74549" lon="4.80256">
        <ele>145.3</ele>
        <time>2024-03-28T13:26:20Z</time>
      </trkpt>
      <trkpt lat="43.74542" lon="4.80266">
        <ele>143.85</ele>
        <time>2024-03-28T13:26:21Z</time>
      </trkpt>
      <trkpt lat="43.74532" lon="4.80271">
        <ele>142.41</ele>
        <time>2024-03-28T13:26:22Z</time>
      </trkpt>
      <trkpt lat="43.74522" lon="4.80272">
        <ele>140.97</ele>
        <time>2024-03-28T13:26:23Z</time>
      </trkpt>
      <trkpt lat="43.74511" lon="4.80272">
        <ele>140.01</ele>
        <time>2024-03-28T13:26:24Z</time>
      </trkpt>
      <trkpt lat="43.7447" lon="4.80272">
        <ele>136.64</ele>
        <time>2024-03-28T13:26:28Z</time>
      </trkpt>
      <trkpt lat="43.7445" lon="4.80276">
        <ele>135.68</ele>
        <time>2024-03-28T13:26:30Z</time>
      </trkpt>
      <trkpt lat="43.74441" lon="4.80282">
        <ele>134.72</ele>
        <time>2024-03-28T13:26:31Z</time>
      </trkpt>
      <trkpt lat="43.74434" lon="4.80291">
        <ele>133.28</ele>
        <time>2024-03-28T13:26:32Z</time>
      </trkpt>
      <trkpt lat="43.74429" lon="4.80302">
        <ele>132.8</ele>
        <time>2024-03-28T13:26:33Z</time>
      </trkpt>
      <trkpt lat="43.74425" lon="4.80316">
        <ele>131.84</ele>
        <time>2024-03-28T13:26:34Z</time>
      </trkpt>
      <trkpt lat="43.74424" lon="4.80329">
        <ele>131.36</ele>
        <time>2024-03-28T13:26:35Z</time>
      </trkpt>
      <trkpt lat="43.74423" lon="4.80343">
        <ele>130.4</ele>
        <time>2024-03-28T13:26:36Z</time>
      </trkpt>
      <trkpt lat="43.74415" lon="4.80399">
        <ele>127.51</ele>
        <time>2024-03-28T13:26:40Z</time>
      </trkpt>
      <trkpt lat="43.74411" lon="4.8041">
        <ele>127.03</ele>
        <time>2024-03-28T13:26:41Z</time>
      </trkpt>
      <trkpt lat="43.74406" lon="4.80421">
        <ele>126.55</ele>
        <time>2024-03-28T13:26:42Z</time>
      </trkpt>
      <trkpt lat="43.744" lon="4.8043">
        <ele>126.55</ele>
        <time>2024-03-28T13:26:43Z</time>
      </trkpt>
      <trkpt lat="43.74394" lon="4.80439">
        <ele>126.07</ele>
        <time>2024-03-28T13:26:44Z</time>
      </trkpt>
      <trkpt lat="43.74355" lon="4.80494">
        <ele>125.59</ele>
        <time>2024-03-28T13:26:51Z</time>
      </trkpt>
      <trkpt lat="43.74351" lon="4.80502">
        <ele>125.59</ele>
        <time>2024-03-28T13:26:52Z</time>
      </trkpt>
      <trkpt lat="43.74349" lon="4.80511">
        <ele>125.11</ele>
        <time>2024-03-28T13:26:53Z</time>
      </trkpt>
      <trkpt lat="43.74328" lon="4.80589">
        <ele>121.74</ele>
        <time>2024-03-28T13:27:01Z</time>
      </trkpt>
      <trkpt lat="43.74301" lon="4.80704">
        <ele>119.82</ele>
        <time>2024-03-28T13:27:13Z</time>
      </trkpt>
      <trkpt lat="43.743" lon="4.8071">
        <ele>119.82</ele>
        <time>2024-03-28T13:27:14Z</time>
      </trkpt>
      <trkpt lat="43.74299" lon="4.80717">
        <ele>120.3</ele>
        <time>2024-03-28T13:27:15Z</time>
      </trkpt>
      <trkpt lat="43.74301" lon="4.8072">
        <ele>121.74</ele>
        <time>2024-03-28T13:27:16Z</time>
      </trkpt>
      <trkpt lat="43.74303" lon="4.8072">
        <ele>121.74</ele>
        <time>2024-03-28T13:27:17Z</time>
      </trkpt>
      <trkpt lat="43.74304" lon="4.8072">
        <ele>122.71</ele>
        <time>2024-03-28T13:27:18Z</time>
      </trkpt>
      <trkpt lat="43.74306" lon="4.8072">
        <ele>122.71</ele>
        <time>2024-03-28T13:27:20Z</time>
      </trkpt>
      <trkpt lat="43.74306" lon="4.80718">
        <ele>122.71</ele>
        <time>2024-03-28T13:27:29Z</time>
      </trkpt>
      <trkpt lat="43.74311" lon="4.8072">
        <ele>122.71</ele>
        <time>2024-03-28T13:27:38Z</time>
      </trkpt>
      <trkpt lat="43.74312" lon="4.80722">
        <ele>122.71</ele>
        <time>2024-03-28T13:27:39Z</time>
      </trkpt>
      <trkpt lat="43.74333" lon="4.80747">
        <ele>124.15</ele>
        <time>2024-03-28T13:27:49Z</time>
      </trkpt>
      <trkpt lat="43.7437" lon="4.80786">
        <ele>127.51</ele>
        <time>2024-03-28T13:28:04Z</time>
      </trkpt>
      <trkpt lat="43.74403" lon="4.80814">
        <ele>129.92</ele>
        <time>2024-03-28T13:28:16Z</time>
      </trkpt>
      <trkpt lat="43.74428" lon="4.80839">
        <ele>132.32</ele>
        <time>2024-03-28T13:28:29Z</time>
      </trkpt>
      <trkpt lat="43.74427" lon="4.80842">
        <ele>132.8</ele>
        <time>2024-03-28T13:28:38Z</time>
      </trkpt>
      <trkpt lat="43.74427" lon="4.80842">
        <ele>132.8</ele>
        <time>2024-03-28T13:29:00Z</time>
      </trkpt>
      <trkpt lat="43.74427" lon="4.80843">
        <ele>132.8</ele>
        <time>2024-03-28T13:29:19Z</time>
      </trkpt>
      <trkpt lat="43.74426" lon="4.80844">
        <ele>132.8</ele>
        <time>2024-03-28T13:29:38Z</time>
      </trkpt>
      <trkpt lat="43.74427" lon="4.80846">
        <ele>132.8</ele>
        <time>2024-03-28T13:29:46Z</time>
      </trkpt>
      <trkpt lat="43.74428" lon="4.80847">
        <ele>132.8</ele>
        <time>2024-03-28T13:29:47Z</time>
      </trkpt>
      <trkpt lat="43.74429" lon="4.80849">
        <ele>132.8</ele>
        <time>2024-03-28T13:29:48Z</time>
      </trkpt>
      <trkpt lat="43.7443" lon="4.80851">
        <ele>132.8</ele>
        <time>2024-03-28T13:29:49Z</time>
      </trkpt>
      <trkpt lat="43.74431" lon="4.80854">
        <ele>132.8</ele>
        <time>2024-03-28T13:29:50Z</time>
      </trkpt>
      <trkpt lat="43.74431" lon="4.80857">
        <ele>132.8</ele>
        <time>2024-03-28T13:29:51Z</time>
      </trkpt>
      <trkpt lat="43.74432" lon="4.80861">
        <ele>132.8</ele>
        <time>2024-03-28T13:29:52Z</time>
      </trkpt>
      <trkpt lat="43.74433" lon="4.80865">
        <ele>131.36</ele>
        <time>2024-03-28T13:29:53Z</time>
      </trkpt>
      <trkpt lat="43.74434" lon="4.80869">
        <ele>131.36</ele>
        <time>2024-03-28T13:29:54Z</time>
      </trkpt>
      <trkpt lat="43.74444" lon="4.80938">
        <ele>129.92</ele>
        <time>2024-03-28T13:30:06Z</time>
      </trkpt>
      <trkpt lat="43.74446" lon="4.80987">
        <ele>129.92</ele>
        <time>2024-03-28T13:30:16Z</time>
      </trkpt>
      <trkpt lat="43.74439" lon="4.81027">
        <ele>129.92</ele>
        <time>2024-03-28T13:30:27Z</time>
      </trkpt>
      <trkpt lat="43.74438" lon="4.81075">
        <ele>131.36</ele>
        <time>2024-03-28T13:30:39Z</time>
      </trkpt>
      <trkpt lat="43.74441" lon="4.81141">
        <ele>131.84</ele>
        <time>2024-03-28T13:30:52Z</time>
      </trkpt>
      <trkpt lat="43.74445" lon="4.81221">
        <ele>132.32</ele>
        <time>2024-03-28T13:31:07Z</time>
      </trkpt>
      <trkpt lat="43.74451" lon="4.8128">
        <ele>134.72</ele>
        <time>2024-03-28T13:31:20Z</time>
      </trkpt>
      <trkpt lat="43.74457" lon="4.81322">
        <ele>137.61</ele>
        <time>2024-03-28T13:31:31Z</time>
      </trkpt>
      <trkpt lat="43.74464" lon="4.81368">
        <ele>140.97</ele>
        <time>2024-03-28T13:31:44Z</time>
      </trkpt>
      <trkpt lat="43.74473" lon="4.81401">
        <ele>143.85</ele>
        <time>2024-03-28T13:31:54Z</time>
      </trkpt>
      <trkpt lat="43.74485" lon="4.81447">
        <ele>146.74</ele>
        <time>2024-03-28T13:32:07Z</time>
      </trkpt>
      <trkpt lat="43.74497" lon="4.815">
        <ele>149.62</ele>
        <time>2024-03-28T13:32:22Z</time>
      </trkpt>
      <trkpt lat="43.74508" lon="4.81544">
        <ele>152.99</ele>
        <time>2024-03-28T13:32:35Z</time>
      </trkpt>
      <trkpt lat="43.74513" lon="4.81595">
        <ele>153.95</ele>
        <time>2024-03-28T13:32:48Z</time>
      </trkpt>
      <trkpt lat="43.74513" lon="4.81646">
        <ele>152.51</ele>
        <time>2024-03-28T13:32:58Z</time>
      </trkpt>
      <trkpt lat="43.7452" lon="4.81753">
        <ele>150.58</ele>
        <time>2024-03-28T13:33:16Z</time>
      </trkpt>
      <trkpt lat="43.74517" lon="4.8182">
        <ele>150.1</ele>
        <time>2024-03-28T13:33:28Z</time>
      </trkpt>
      <trkpt lat="43.74515" lon="4.81837">
        <ele>150.1</ele>
        <time>2024-03-28T13:33:31Z</time>
      </trkpt>
      <trkpt lat="43.7452" lon="4.81924">
        <ele>149.14</ele>
        <time>2024-03-28T13:33:45Z</time>
      </trkpt>
      <trkpt lat="43.7453" lon="4.82013">
        <ele>148.66</ele>
        <time>2024-03-28T13:33:59Z</time>
      </trkpt>
      <trkpt lat="43.74539" lon="4.82105">
        <ele>148.66</ele>
        <time>2024-03-28T13:34:14Z</time>
      </trkpt>
      <trkpt lat="43.74545" lon="4.82171">
        <ele>148.66</ele>
        <time>2024-03-28T13:34:25Z</time>
      </trkpt>
      <trkpt lat="43.74547" lon="4.82237">
        <ele>148.18</ele>
        <time>2024-03-28T13:34:36Z</time>
      </trkpt>
      <trkpt lat="43.74561" lon="4.82302">
        <ele>149.62</ele>
        <time>2024-03-28T13:34:48Z</time>
      </trkpt>
      <trkpt lat="43.74582" lon="4.82378">
        <ele>150.1</ele>
        <time>2024-03-28T13:35:03Z</time>
      </trkpt>
      <trkpt lat="43.746" lon="4.82446">
        <ele>150.58</ele>
        <time>2024-03-28T13:35:17Z</time>
      </trkpt>
      <trkpt lat="43.74624" lon="4.82491">
        <ele>152.99</ele>
        <time>2024-03-28T13:35:29Z</time>
      </trkpt>
      <trkpt lat="43.74673" lon="4.82511">
        <ele>152.99</ele>
        <time>2024-03-28T13:35:42Z</time>
      </trkpt>
      <trkpt lat="43.74709" lon="4.82539">
        <ele>152.99</ele>
        <time>2024-03-28T13:35:53Z</time>
      </trkpt>
      <trkpt lat="43.74726" lon="4.82573">
        <ele>153.47</ele>
        <time>2024-03-28T13:36:03Z</time>
      </trkpt>
      <trkpt lat="43.74708" lon="4.82601">
        <ele>154.43</ele>
        <time>2024-03-28T13:36:12Z</time>
      </trkpt>
      <trkpt lat="43.7468" lon="4.82633">
        <ele>156.83</ele>
        <time>2024-03-28T13:36:24Z</time>
      </trkpt>
      <trkpt lat="43.74654" lon="4.8266">
        <ele>158.75</ele>
        <time>2024-03-28T13:36:35Z</time>
      </trkpt>
      <trkpt lat="43.74621" lon="4.8269">
        <ele>160.2</ele>
        <time>2024-03-28T13:36:48Z</time>
      </trkpt>
      <trkpt lat="43.7459" lon="4.82726">
        <ele>161.16</ele>
        <time>2024-03-28T13:37:01Z</time>
      </trkpt>
      <trkpt lat="43.74583" lon="4.82775">
        <ele>162.6</ele>
        <time>2024-03-28T13:37:13Z</time>
      </trkpt>
      <trkpt lat="43.74575" lon="4.82815">
        <ele>163.08</ele>
        <time>2024-03-28T13:37:22Z</time>
      </trkpt>
      <trkpt lat="43.74561" lon="4.82866">
        <ele>163.08</ele>
        <time>2024-03-28T13:37:33Z</time>
      </trkpt>
      <trkpt lat="43.7456" lon="4.8289">
        <ele>161.64</ele>
        <time>2024-03-28T13:37:37Z</time>
      </trkpt>
      <trkpt lat="43.74561" lon="4.82904">
        <ele>160.2</ele>
        <time>2024-03-28T13:37:39Z</time>
      </trkpt>
      <trkpt lat="43.74582" lon="4.82977">
        <ele>156.83</ele>
        <time>2024-03-28T13:37:48Z</time>
      </trkpt>
      <trkpt lat="43.74588" lon="4.82998">
        <ele>156.83</ele>
        <time>2024-03-28T13:37:51Z</time>
      </trkpt>
      <trkpt lat="43.74588" lon="4.83004">
        <ele>156.35</ele>
        <time>2024-03-28T13:37:52Z</time>
      </trkpt>
      <trkpt lat="43.74589" lon="4.83011">
        <ele>155.87</ele>
        <time>2024-03-28T13:37:53Z</time>
      </trkpt>
      <trkpt lat="43.74587" lon="4.83017">
        <ele>155.87</ele>
        <time>2024-03-28T13:37:54Z</time>
      </trkpt>
      <trkpt lat="43.74585" lon="4.83022">
        <ele>154.91</ele>
        <time>2024-03-28T13:37:55Z</time>
      </trkpt>
      <trkpt lat="43.74583" lon="4.83026">
        <ele>154.91</ele>
        <time>2024-03-28T13:37:56Z</time>
      </trkpt>
      <trkpt lat="43.74579" lon="4.83038">
        <ele>153.95</ele>
        <time>2024-03-28T13:38:02Z</time>
      </trkpt>
      <trkpt lat="43.74578" lon="4.83037">
        <ele>153.95</ele>
        <time>2024-03-28T13:38:21Z</time>
      </trkpt>
      <trkpt lat="43.74578" lon="4.8304">
        <ele>153.47</ele>
        <time>2024-03-28T13:38:41Z</time>
      </trkpt>
      <trkpt lat="43.74578" lon="4.83049">
        <ele>153.47</ele>
        <time>2024-03-28T13:38:46Z</time>
      </trkpt>
      <trkpt lat="43.7458" lon="4.83052">
        <ele>153.47</ele>
        <time>2024-03-28T13:38:47Z</time>
      </trkpt>
      <trkpt lat="43.74582" lon="4.83053">
        <ele>153.47</ele>
        <time>2024-03-28T13:38:48Z</time>
      </trkpt>
      <trkpt lat="43.74606" lon="4.83066">
        <ele>153.47</ele>
        <time>2024-03-28T13:38:58Z</time>
      </trkpt>
      <trkpt lat="43.74614" lon="4.83072">
        <ele>155.39</ele>
        <time>2024-03-28T13:39:01Z</time>
      </trkpt>
      <trkpt lat="43.74643" lon="4.83097">
        <ele>157.79</ele>
        <time>2024-03-28T13:39:12Z</time>
      </trkpt>
      <trkpt lat="43.74671" lon="4.83109">
        <ele>160.2</ele>
        <time>2024-03-28T13:39:24Z</time>
      </trkpt>
      <trkpt lat="43.74702" lon="4.83107">
        <ele>161.64</ele>
        <time>2024-03-28T13:39:36Z</time>
      </trkpt>
      <trkpt lat="43.74727" lon="4.83121">
        <ele>165</ele>
        <time>2024-03-28T13:39:48Z</time>
      </trkpt>
      <trkpt lat="43.74755" lon="4.83139">
        <ele>167.89</ele>
        <time>2024-03-28T13:40:01Z</time>
      </trkpt>
      <trkpt lat="43.74783" lon="4.83122">
        <ele>169.33</ele>
        <time>2024-03-28T13:40:14Z</time>
      </trkpt>
      <trkpt lat="43.74806" lon="4.83133">
        <ele>170.77</ele>
        <time>2024-03-28T13:40:24Z</time>
      </trkpt>
      <trkpt lat="43.74825" lon="4.8317">
        <ele>173.17</ele>
        <time>2024-03-28T13:40:37Z</time>
      </trkpt>
      <trkpt lat="43.74847" lon="4.83207">
        <ele>175.58</ele>
        <time>2024-03-28T13:40:51Z</time>
      </trkpt>
      <trkpt lat="43.74881" lon="4.83232">
        <ele>177.5</ele>
        <time>2024-03-28T13:41:05Z</time>
      </trkpt>
      <trkpt lat="43.74904" lon="4.83256">
        <ele>179.42</ele>
        <time>2024-03-28T13:41:15Z</time>
      </trkpt>
      <trkpt lat="43.74935" lon="4.83292">
        <ele>182.31</ele>
        <time>2024-03-28T13:41:29Z</time>
      </trkpt>
      <trkpt lat="43.74967" lon="4.83303">
        <ele>184.71</ele>
        <time>2024-03-28T13:41:40Z</time>
      </trkpt>
      <trkpt lat="43.74998" lon="4.83283">
        <ele>186.15</ele>
        <time>2024-03-28T13:41:51Z</time>
      </trkpt>
      <trkpt lat="43.75001" lon="4.8324">
        <ele>187.59</ele>
        <time>2024-03-28T13:42:01Z</time>
      </trkpt>
      <trkpt lat="43.75001" lon="4.83183">
        <ele>190</ele>
        <time>2024-03-28T13:42:15Z</time>
      </trkpt>
      <trkpt lat="43.75022" lon="4.83146">
        <ele>192.88</ele>
        <time>2024-03-28T13:42:27Z</time>
      </trkpt>
      <trkpt lat="43.75048" lon="4.83111">
        <ele>194.8</ele>
        <time>2024-03-28T13:42:39Z</time>
      </trkpt>
      <trkpt lat="43.75074" lon="4.83082">
        <ele>196.25</ele>
        <time>2024-03-28T13:42:50Z</time>
      </trkpt>
      <trkpt lat="43.75099" lon="4.83063">
        <ele>198.65</ele>
        <time>2024-03-28T13:43:00Z</time>
      </trkpt>
      <trkpt lat="43.75135" lon="4.83056">
        <ele>201.05</ele>
        <time>2024-03-28T13:43:13Z</time>
      </trkpt>
      <trkpt lat="43.75161" lon="4.83078">
        <ele>202.98</ele>
        <time>2024-03-28T13:43:23Z</time>
      </trkpt>
      <trkpt lat="43.7518" lon="4.83108">
        <ele>204.9</ele>
        <time>2024-03-28T13:43:32Z</time>
      </trkpt>
      <trkpt lat="43.75201" lon="4.83144">
        <ele>207.78</ele>
        <time>2024-03-28T13:43:43Z</time>
      </trkpt>
      <trkpt lat="43.7521" lon="4.83166">
        <ele>209.22</ele>
        <time>2024-03-28T13:43:49Z</time>
      </trkpt>
      <trkpt lat="43.75225" lon="4.83207">
        <ele>212.11</ele>
        <time>2024-03-28T13:44:00Z</time>
      </trkpt>
      <trkpt lat="43.75249" lon="4.83241">
        <ele>214.51</ele>
        <time>2024-03-28T13:44:11Z</time>
      </trkpt>
      <trkpt lat="43.75284" lon="4.83253">
        <ele>216.91</ele>
        <time>2024-03-28T13:44:23Z</time>
      </trkpt>
      <trkpt lat="43.75315" lon="4.83253">
        <ele>220.28</ele>
        <time>2024-03-28T13:44:33Z</time>
      </trkpt>
      <trkpt lat="43.75319" lon="4.83253">
        <ele>220.28</ele>
        <time>2024-03-28T13:44:34Z</time>
      </trkpt>
      <trkpt lat="43.75357" lon="4.83268">
        <ele>221.24</ele>
        <time>2024-03-28T13:44:47Z</time>
      </trkpt>
      <trkpt lat="43.75374" lon="4.83307">
        <ele>224.12</ele>
        <time>2024-03-28T13:44:58Z</time>
      </trkpt>
      <trkpt lat="43.7539" lon="4.83348">
        <ele>227.49</ele>
        <time>2024-03-28T13:45:09Z</time>
      </trkpt>
      <trkpt lat="43.75418" lon="4.8337">
        <ele>229.41</ele>
        <time>2024-03-28T13:45:20Z</time>
      </trkpt>
      <trkpt lat="43.75451" lon="4.8337">
        <ele>231.81</ele>
        <time>2024-03-28T13:45:31Z</time>
      </trkpt>
      <trkpt lat="43.75481" lon="4.83371">
        <ele>234.22</ele>
        <time>2024-03-28T13:45:41Z</time>
      </trkpt>
      <trkpt lat="43.75519" lon="4.83385">
        <ele>236.62</ele>
        <time>2024-03-28T13:45:54Z</time>
      </trkpt>
      <trkpt lat="43.75561" lon="4.83392">
        <ele>239.02</ele>
        <time>2024-03-28T13:46:08Z</time>
      </trkpt>
      <trkpt lat="43.75579" lon="4.83391">
        <ele>242.39</ele>
        <time>2024-03-28T13:46:14Z</time>
      </trkpt>
      <trkpt lat="43.75582" lon="4.83391">
        <ele>240.47</ele>
        <time>2024-03-28T13:46:15Z</time>
      </trkpt>
      <trkpt lat="43.75615" lon="4.83384">
        <ele>242.87</ele>
        <time>2024-03-28T13:46:27Z</time>
      </trkpt>
      <trkpt lat="43.75628" lon="4.83387">
        <ele>244.31</ele>
        <time>2024-03-28T13:46:37Z</time>
      </trkpt>
      <trkpt lat="43.75626" lon="4.83385">
        <ele>244.31</ele>
        <time>2024-03-28T13:46:58Z</time>
      </trkpt>
      <trkpt lat="43.75627" lon="4.83386">
        <ele>244.31</ele>
        <time>2024-03-28T13:47:22Z</time>
      </trkpt>
      <trkpt lat="43.75629" lon="4.83385">
        <ele>244.31</ele>
        <time>2024-03-28T13:47:39Z</time>
      </trkpt>
      <trkpt lat="43.7563" lon="4.83386">
        <ele>244.31</ele>
        <time>2024-03-28T13:47:52Z</time>
      </trkpt>
      <trkpt lat="43.75628" lon="4.83386">
        <ele>244.31</ele>
        <time>2024-03-28T13:48:05Z</time>
      </trkpt>
      <trkpt lat="43.75632" lon="4.83393">
        <ele>244.79</ele>
        <time>2024-03-28T13:48:19Z</time>
      </trkpt>
      <trkpt lat="43.75644" lon="4.8342">
        <ele>246.72</ele>
        <time>2024-03-28T13:48:27Z</time>
      </trkpt>
      <trkpt lat="43.75644" lon="4.83424">
        <ele>246.72</ele>
        <time>2024-03-28T13:48:28Z</time>
      </trkpt>
      <trkpt lat="43.75642" lon="4.83429">
        <ele>247.2</ele>
        <time>2024-03-28T13:48:29Z</time>
      </trkpt>
      <trkpt lat="43.75644" lon="4.83459">
        <ele>249.12</ele>
        <time>2024-03-28T13:48:39Z</time>
      </trkpt>
      <trkpt lat="43.75647" lon="4.83464">
        <ele>249.12</ele>
        <time>2024-03-28T13:48:42Z</time>
      </trkpt>
      <trkpt lat="43.75646" lon="4.83465">
        <ele>249.6</ele>
        <time>2024-03-28T13:48:43Z</time>
      </trkpt>
      <trkpt lat="43.75647" lon="4.83471">
        <ele>249.6</ele>
        <time>2024-03-28T13:48:47Z</time>
      </trkpt>
      <trkpt lat="43.75648" lon="4.83474">
        <ele>249.6</ele>
        <time>2024-03-28T13:48:48Z</time>
      </trkpt>
      <trkpt lat="43.75663" lon="4.83496">
        <ele>250.56</ele>
        <time>2024-03-28T13:48:56Z</time>
      </trkpt>
      <trkpt lat="43.75678" lon="4.83535">
        <ele>253.44</ele>
        <time>2024-03-28T13:49:07Z</time>
      </trkpt>
      <trkpt lat="43.75697" lon="4.83554">
        <ele>256.33</ele>
        <time>2024-03-28T13:49:17Z</time>
      </trkpt>
      <trkpt lat="43.75729" lon="4.83563">
        <ele>259.21</ele>
        <time>2024-03-28T13:49:30Z</time>
      </trkpt>
      <trkpt lat="43.75757" lon="4.83573">
        <ele>260.65</ele>
        <time>2024-03-28T13:49:41Z</time>
      </trkpt>
      <trkpt lat="43.75786" lon="4.83583">
        <ele>261.62</ele>
        <time>2024-03-28T13:49:52Z</time>
      </trkpt>
      <trkpt lat="43.75812" lon="4.83601">
        <ele>261.62</ele>
        <time>2024-03-28T13:50:02Z</time>
      </trkpt>
      <trkpt lat="43.75825" lon="4.83641">
        <ele>260.17</ele>
        <time>2024-03-28T13:50:11Z</time>
      </trkpt>
      <trkpt lat="43.75825" lon="4.83647">
        <ele>259.69</ele>
        <time>2024-03-28T13:50:12Z</time>
      </trkpt>
      <trkpt lat="43.75825" lon="4.83654">
        <ele>259.69</ele>
        <time>2024-03-28T13:50:13Z</time>
      </trkpt>
      <trkpt lat="43.75823" lon="4.8366">
        <ele>258.73</ele>
        <time>2024-03-28T13:50:14Z</time>
      </trkpt>
      <trkpt lat="43.75822" lon="4.83667">
        <ele>258.25</ele>
        <time>2024-03-28T13:50:15Z</time>
      </trkpt>
      <trkpt lat="43.75819" lon="4.83674">
        <ele>258.25</ele>
        <time>2024-03-28T13:50:16Z</time>
      </trkpt>
      <trkpt lat="43.75817" lon="4.83681">
        <ele>257.77</ele>
        <time>2024-03-28T13:50:17Z</time>
      </trkpt>
      <trkpt lat="43.75814" lon="4.83687">
        <ele>257.29</ele>
        <time>2024-03-28T13:50:18Z</time>
      </trkpt>
      <trkpt lat="43.75807" lon="4.83699">
        <ele>257.29</ele>
        <time>2024-03-28T13:50:20Z</time>
      </trkpt>
      <trkpt lat="43.75804" lon="4.83704">
        <ele>257.29</ele>
        <time>2024-03-28T13:50:21Z</time>
      </trkpt>
      <trkpt lat="43.75796" lon="4.83713">
        <ele>257.29</ele>
        <time>2024-03-28T13:50:23Z</time>
      </trkpt>
      <trkpt lat="43.75793" lon="4.83717">
        <ele>257.29</ele>
        <time>2024-03-28T13:50:24Z</time>
      </trkpt>
      <trkpt lat="43.75784" lon="4.83729">
        <ele>257.29</ele>
        <time>2024-03-28T13:50:27Z</time>
      </trkpt>
      <trkpt lat="43.75774" lon="4.83747">
        <ele>257.29</ele>
        <time>2024-03-28T13:50:31Z</time>
      </trkpt>
      <trkpt lat="43.75772" lon="4.83752">
        <ele>257.29</ele>
        <time>2024-03-28T13:50:32Z</time>
      </trkpt>
      <trkpt lat="43.7577" lon="4.83758">
        <ele>257.29</ele>
        <time>2024-03-28T13:50:33Z</time>
      </trkpt>
      <trkpt lat="43.75769" lon="4.83763">
        <ele>257.29</ele>
        <time>2024-03-28T13:50:34Z</time>
      </trkpt>
      <trkpt lat="43.75768" lon="4.83769">
        <ele>257.29</ele>
        <time>2024-03-28T13:50:35Z</time>
      </trkpt>
      <trkpt lat="43.75767" lon="4.83776">
        <ele>257.29</ele>
        <time>2024-03-28T13:50:36Z</time>
      </trkpt>
      <trkpt lat="43.75767" lon="4.83783">
        <ele>257.29</ele>
        <time>2024-03-28T13:50:37Z</time>
      </trkpt>
      <trkpt lat="43.75768" lon="4.83791">
        <ele>256.81</ele>
        <time>2024-03-28T13:50:38Z</time>
      </trkpt>
      <trkpt lat="43.75769" lon="4.838">
        <ele>256.33</ele>
        <time>2024-03-28T13:50:39Z</time>
      </trkpt>
      <trkpt lat="43.7577" lon="4.83809">
        <ele>255.37</ele>
        <time>2024-03-28T13:50:40Z</time>
      </trkpt>
      <trkpt lat="43.75771" lon="4.83819">
        <ele>254.41</ele>
        <time>2024-03-28T13:50:41Z</time>
      </trkpt>
      <trkpt lat="43.7577" lon="4.8383">
        <ele>253.44</ele>
        <time>2024-03-28T13:50:42Z</time>
      </trkpt>
      <trkpt lat="43.75769" lon="4.8384">
        <ele>252.48</ele>
        <time>2024-03-28T13:50:43Z</time>
      </trkpt>
      <trkpt lat="43.75767" lon="4.83851">
        <ele>252</ele>
        <time>2024-03-28T13:50:44Z</time>
      </trkpt>
      <trkpt lat="43.75765" lon="4.83863">
        <ele>251.52</ele>
        <time>2024-03-28T13:50:45Z</time>
      </trkpt>
      <trkpt lat="43.75764" lon="4.83873">
        <ele>251.52</ele>
        <time>2024-03-28T13:50:46Z</time>
      </trkpt>
      <trkpt lat="43.75765" lon="4.83884">
        <ele>250.56</ele>
        <time>2024-03-28T13:50:47Z</time>
      </trkpt>
      <trkpt lat="43.75768" lon="4.83894">
        <ele>250.08</ele>
        <time>2024-03-28T13:50:48Z</time>
      </trkpt>
      <trkpt lat="43.75773" lon="4.83903">
        <ele>249.12</ele>
        <time>2024-03-28T13:50:49Z</time>
      </trkpt>
      <trkpt lat="43.75781" lon="4.83909">
        <ele>248.64</ele>
        <time>2024-03-28T13:50:50Z</time>
      </trkpt>
      <trkpt lat="43.75788" lon="4.83915">
        <ele>248.16</ele>
        <time>2024-03-28T13:50:51Z</time>
      </trkpt>
      <trkpt lat="43.75807" lon="4.83925">
        <ele>246.23</ele>
        <time>2024-03-28T13:50:53Z</time>
      </trkpt>
      <trkpt lat="43.75842" lon="4.83944">
        <ele>243.83</ele>
        <time>2024-03-28T13:50:57Z</time>
      </trkpt>
      <trkpt lat="43.75856" lon="4.8395">
        <ele>242.87</ele>
        <time>2024-03-28T13:50:59Z</time>
      </trkpt>
      <trkpt lat="43.7586" lon="4.83949">
        <ele>244.31</ele>
        <time>2024-03-28T13:51:04Z</time>
      </trkpt>
      <trkpt lat="43.7586" lon="4.83948">
        <ele>244.31</ele>
        <time>2024-03-28T13:51:22Z</time>
      </trkpt>
      <trkpt lat="43.75858" lon="4.83948">
        <ele>244.31</ele>
        <time>2024-03-28T13:51:35Z</time>
      </trkpt>
      <trkpt lat="43.75857" lon="4.83949">
        <ele>244.31</ele>
        <time>2024-03-28T13:51:49Z</time>
      </trkpt>
      <trkpt lat="43.75856" lon="4.8395">
        <ele>245.27</ele>
        <time>2024-03-28T13:52:10Z</time>
      </trkpt>
      <trkpt lat="43.75857" lon="4.83951">
        <ele>245.27</ele>
        <time>2024-03-28T13:52:27Z</time>
      </trkpt>
      <trkpt lat="43.75859" lon="4.83949">
        <ele>245.27</ele>
        <time>2024-03-28T13:52:37Z</time>
      </trkpt>
      <trkpt lat="43.75857" lon="4.8395">
        <ele>245.27</ele>
        <time>2024-03-28T13:52:46Z</time>
      </trkpt>
      <trkpt lat="43.75856" lon="4.83951">
        <ele>245.27</ele>
        <time>2024-03-28T13:52:55Z</time>
      </trkpt>
      <trkpt lat="43.75855" lon="4.83953">
        <ele>243.83</ele>
        <time>2024-03-28T13:52:56Z</time>
      </trkpt>
      <trkpt lat="43.75854" lon="4.83954">
        <ele>243.83</ele>
        <time>2024-03-28T13:52:57Z</time>
      </trkpt>
      <trkpt lat="43.75852" lon="4.83957">
        <ele>243.83</ele>
        <time>2024-03-28T13:52:58Z</time>
      </trkpt>
      <trkpt lat="43.7585" lon="4.83961">
        <ele>242.87</ele>
        <time>2024-03-28T13:52:59Z</time>
      </trkpt>
      <trkpt lat="43.75849" lon="4.83964">
        <ele>242.87</ele>
        <time>2024-03-28T13:53:00Z</time>
      </trkpt>
      <trkpt lat="43.75831" lon="4.83982">
        <ele>242.87</ele>
        <time>2024-03-28T13:53:07Z</time>
      </trkpt>
      <trkpt lat="43.75788" lon="4.84014">
        <ele>242.87</ele>
        <time>2024-03-28T13:53:20Z</time>
      </trkpt>
      <trkpt lat="43.75779" lon="4.84023">
        <ele>244.31</ele>
        <time>2024-03-28T13:53:23Z</time>
      </trkpt>
      <trkpt lat="43.75755" lon="4.84052">
        <ele>245.27</ele>
        <time>2024-03-28T13:53:34Z</time>
      </trkpt>
      <trkpt lat="43.7575" lon="4.84066">
        <ele>246.23</ele>
        <time>2024-03-28T13:53:40Z</time>
      </trkpt>
      <trkpt lat="43.7575" lon="4.84109">
        <ele>244.79</ele>
        <time>2024-03-28T13:53:49Z</time>
      </trkpt>
      <trkpt lat="43.75744" lon="4.84123">
        <ele>244.79</ele>
        <time>2024-03-28T13:53:53Z</time>
      </trkpt>
      <trkpt lat="43.75741" lon="4.84124">
        <ele>244.79</ele>
        <time>2024-03-28T13:53:54Z</time>
      </trkpt>
      <trkpt lat="43.75739" lon="4.84124">
        <ele>244.79</ele>
        <time>2024-03-28T13:53:55Z</time>
      </trkpt>
      <trkpt lat="43.75736" lon="4.84124">
        <ele>244.79</ele>
        <time>2024-03-28T13:53:56Z</time>
      </trkpt>
      <trkpt lat="43.75734" lon="4.84123">
        <ele>246.23</ele>
        <time>2024-03-28T13:53:57Z</time>
      </trkpt>
      <trkpt lat="43.75731" lon="4.84122">
        <ele>246.72</ele>
        <time>2024-03-28T13:53:58Z</time>
      </trkpt>
      <trkpt lat="43.7572" lon="4.84117">
        <ele>248.16</ele>
        <time>2024-03-28T13:54:02Z</time>
      </trkpt>
      <trkpt lat="43.75696" lon="4.8412">
        <ele>250.08</ele>
        <time>2024-03-28T13:54:11Z</time>
      </trkpt>
      <trkpt lat="43.75678" lon="4.84152">
        <ele>251.52</ele>
        <time>2024-03-28T13:54:22Z</time>
      </trkpt>
      <trkpt lat="43.75659" lon="4.84186">
        <ele>252</ele>
        <time>2024-03-28T13:54:33Z</time>
      </trkpt>
      <trkpt lat="43.75649" lon="4.84201">
        <ele>253.93</ele>
        <time>2024-03-28T13:54:38Z</time>
      </trkpt>
      <trkpt lat="43.75639" lon="4.84218">
        <ele>255.85</ele>
        <time>2024-03-28T13:54:44Z</time>
      </trkpt>
      <trkpt lat="43.75629" lon="4.84251">
        <ele>257.77</ele>
        <time>2024-03-28T13:54:54Z</time>
      </trkpt>
      <trkpt lat="43.7563" lon="4.8428">
        <ele>253.93</ele>
        <time>2024-03-28T13:54:58Z</time>
      </trkpt>
      <trkpt lat="43.75628" lon="4.84299">
        <ele>252.48</ele>
        <time>2024-03-28T13:55:00Z</time>
      </trkpt>
      <trkpt lat="43.75625" lon="4.84307">
        <ele>252.48</ele>
        <time>2024-03-28T13:55:01Z</time>
      </trkpt>
      <trkpt lat="43.75623" lon="4.84315">
        <ele>252.48</ele>
        <time>2024-03-28T13:55:02Z</time>
      </trkpt>
      <trkpt lat="43.75619" lon="4.8432">
        <ele>252.48</ele>
        <time>2024-03-28T13:55:03Z</time>
      </trkpt>
      <trkpt lat="43.75616" lon="4.84325">
        <ele>252.48</ele>
        <time>2024-03-28T13:55:04Z</time>
      </trkpt>
      <trkpt lat="43.75603" lon="4.84339">
        <ele>255.85</ele>
        <time>2024-03-28T13:55:09Z</time>
      </trkpt>
      <trkpt lat="43.75579" lon="4.84373">
        <ele>258.25</ele>
        <time>2024-03-28T13:55:20Z</time>
      </trkpt>
      <trkpt lat="43.75575" lon="4.84377">
        <ele>257.29</ele>
        <time>2024-03-28T13:55:21Z</time>
      </trkpt>
      <trkpt lat="43.75549" lon="4.84403">
        <ele>254.41</ele>
        <time>2024-03-28T13:55:26Z</time>
      </trkpt>
      <trkpt lat="43.75523" lon="4.84429">
        <ele>251.04</ele>
        <time>2024-03-28T13:55:31Z</time>
      </trkpt>
      <trkpt lat="43.75508" lon="4.84453">
        <ele>247.68</ele>
        <time>2024-03-28T13:55:35Z</time>
      </trkpt>
      <trkpt lat="43.75505" lon="4.84459">
        <ele>246.72</ele>
        <time>2024-03-28T13:55:36Z</time>
      </trkpt>
      <trkpt lat="43.75504" lon="4.84465">
        <ele>246.23</ele>
        <time>2024-03-28T13:55:37Z</time>
      </trkpt>
      <trkpt lat="43.75504" lon="4.84471">
        <ele>246.23</ele>
        <time>2024-03-28T13:55:38Z</time>
      </trkpt>
      <trkpt lat="43.75505" lon="4.84476">
        <ele>245.27</ele>
        <time>2024-03-28T13:55:39Z</time>
      </trkpt>
      <trkpt lat="43.75508" lon="4.84482">
        <ele>244.79</ele>
        <time>2024-03-28T13:55:40Z</time>
      </trkpt>
      <trkpt lat="43.75512" lon="4.84486">
        <ele>243.83</ele>
        <time>2024-03-28T13:55:41Z</time>
      </trkpt>
      <trkpt lat="43.75516" lon="4.84488">
        <ele>243.83</ele>
        <time>2024-03-28T13:55:42Z</time>
      </trkpt>
      <trkpt lat="43.75521" lon="4.84491">
        <ele>243.35</ele>
        <time>2024-03-28T13:55:43Z</time>
      </trkpt>
      <trkpt lat="43.75526" lon="4.84493">
        <ele>243.35</ele>
        <time>2024-03-28T13:55:44Z</time>
      </trkpt>
      <trkpt lat="43.75564" lon="4.84514">
        <ele>242.39</ele>
        <time>2024-03-28T13:55:52Z</time>
      </trkpt>
      <trkpt lat="43.75571" lon="4.84516">
        <ele>241.91</ele>
        <time>2024-03-28T13:55:54Z</time>
      </trkpt>
      <trkpt lat="43.75599" lon="4.84518">
        <ele>239.99</ele>
        <time>2024-03-28T13:55:59Z</time>
      </trkpt>
      <trkpt lat="43.75605" lon="4.8452">
        <ele>239.51</ele>
        <time>2024-03-28T13:56:00Z</time>
      </trkpt>
      <trkpt lat="43.75611" lon="4.84523">
        <ele>239.51</ele>
        <time>2024-03-28T13:56:01Z</time>
      </trkpt>
      <trkpt lat="43.75647" lon="4.84544">
        <ele>237.1</ele>
        <time>2024-03-28T13:56:08Z</time>
      </trkpt>
      <trkpt lat="43.75651" lon="4.8455">
        <ele>236.14</ele>
        <time>2024-03-28T13:56:09Z</time>
      </trkpt>
      <trkpt lat="43.75653" lon="4.84558">
        <ele>235.66</ele>
        <time>2024-03-28T13:56:10Z</time>
      </trkpt>
      <trkpt lat="43.75653" lon="4.84564">
        <ele>234.7</ele>
        <time>2024-03-28T13:56:11Z</time>
      </trkpt>
      <trkpt lat="43.75652" lon="4.84573">
        <ele>234.7</ele>
        <time>2024-03-28T13:56:12Z</time>
      </trkpt>
      <trkpt lat="43.75651" lon="4.84581">
        <ele>234.22</ele>
        <time>2024-03-28T13:56:13Z</time>
      </trkpt>
      <trkpt lat="43.75648" lon="4.84589">
        <ele>233.74</ele>
        <time>2024-03-28T13:56:14Z</time>
      </trkpt>
      <trkpt lat="43.75645" lon="4.84594">
        <ele>233.74</ele>
        <time>2024-03-28T13:56:15Z</time>
      </trkpt>
      <trkpt lat="43.75642" lon="4.84598">
        <ele>234.7</ele>
        <time>2024-03-28T13:56:16Z</time>
      </trkpt>
      <trkpt lat="43.75639" lon="4.846">
        <ele>234.7</ele>
        <time>2024-03-28T13:56:17Z</time>
      </trkpt>
      <trkpt lat="43.75616" lon="4.84624">
        <ele>238.06</ele>
        <time>2024-03-28T13:56:27Z</time>
      </trkpt>
      <trkpt lat="43.75593" lon="4.84637">
        <ele>241.43</ele>
        <time>2024-03-28T13:56:37Z</time>
      </trkpt>
      <trkpt lat="43.75579" lon="4.84654">
        <ele>244.79</ele>
        <time>2024-03-28T13:56:45Z</time>
      </trkpt>
      <trkpt lat="43.75577" lon="4.84694">
        <ele>246.72</ele>
        <time>2024-03-28T13:56:56Z</time>
      </trkpt>
      <trkpt lat="43.75569" lon="4.84753">
        <ele>246.72</ele>
        <time>2024-03-28T13:57:09Z</time>
      </trkpt>
      <trkpt lat="43.75559" lon="4.84783">
        <ele>246.72</ele>
        <time>2024-03-28T13:57:17Z</time>
      </trkpt>
      <trkpt lat="43.75539" lon="4.84803">
        <ele>249.12</ele>
        <time>2024-03-28T13:57:27Z</time>
      </trkpt>
      <trkpt lat="43.75531" lon="4.84833">
        <ele>252.48</ele>
        <time>2024-03-28T13:57:36Z</time>
      </trkpt>
      <trkpt lat="43.75509" lon="4.84871">
        <ele>254.89</ele>
        <time>2024-03-28T13:57:49Z</time>
      </trkpt>
      <trkpt lat="43.7549" lon="4.84898">
        <ele>255.85</ele>
        <time>2024-03-28T13:57:59Z</time>
      </trkpt>
      <trkpt lat="43.75475" lon="4.84918">
        <ele>256.81</ele>
        <time>2024-03-28T13:58:09Z</time>
      </trkpt>
      <trkpt lat="43.75475" lon="4.84919">
        <ele>256.81</ele>
        <time>2024-03-28T13:58:20Z</time>
      </trkpt>
      <trkpt lat="43.75473" lon="4.84922">
        <ele>256.81</ele>
        <time>2024-03-28T13:58:43Z</time>
      </trkpt>
      <trkpt lat="43.75473" lon="4.84924">
        <ele>256.81</ele>
        <time>2024-03-28T13:59:06Z</time>
      </trkpt>
      <trkpt lat="43.75476" lon="4.84923">
        <ele>256.81</ele>
        <time>2024-03-28T13:59:37Z</time>
      </trkpt>
      <trkpt lat="43.75473" lon="4.84918">
        <ele>256.81</ele>
        <time>2024-03-28T14:00:06Z</time>
      </trkpt>
      <trkpt lat="43.75475" lon="4.84917">
        <ele>256.81</ele>
        <time>2024-03-28T14:00:27Z</time>
      </trkpt>
      <trkpt lat="43.75474" lon="4.84919">
        <ele>256.81</ele>
        <time>2024-03-28T14:00:36Z</time>
      </trkpt>
      <trkpt lat="43.75475" lon="4.8492">
        <ele>256.81</ele>
        <time>2024-03-28T14:00:58Z</time>
      </trkpt>
      <trkpt lat="43.75473" lon="4.84919">
        <ele>257.29</ele>
        <time>2024-03-28T14:01:25Z</time>
      </trkpt>
      <trkpt lat="43.75473" lon="4.84919">
        <ele>257.29</ele>
        <time>2024-03-28T14:01:35Z</time>
      </trkpt>
      <trkpt lat="43.75474" lon="4.84918">
        <ele>257.29</ele>
        <time>2024-03-28T14:01:59Z</time>
      </trkpt>
      <trkpt lat="43.75474" lon="4.8492">
        <ele>257.29</ele>
        <time>2024-03-28T14:02:16Z</time>
      </trkpt>
      <trkpt lat="43.75472" lon="4.84925">
        <ele>257.29</ele>
        <time>2024-03-28T14:02:22Z</time>
      </trkpt>
      <trkpt lat="43.75471" lon="4.84926">
        <ele>257.29</ele>
        <time>2024-03-28T14:02:23Z</time>
      </trkpt>
      <trkpt lat="43.75456" lon="4.84957">
        <ele>257.29</ele>
        <time>2024-03-28T14:02:33Z</time>
      </trkpt>
      <trkpt lat="43.75449" lon="4.85007">
        <ele>256.33</ele>
        <time>2024-03-28T14:02:44Z</time>
      </trkpt>
      <trkpt lat="43.75444" lon="4.85055">
        <ele>254.41</ele>
        <time>2024-03-28T14:02:53Z</time>
      </trkpt>
      <trkpt lat="43.75442" lon="4.85065">
        <ele>254.41</ele>
        <time>2024-03-28T14:02:55Z</time>
      </trkpt>
      <trkpt lat="43.75442" lon="4.85114">
        <ele>253.44</ele>
        <time>2024-03-28T14:03:03Z</time>
      </trkpt>
      <trkpt lat="43.75443" lon="4.8512">
        <ele>253.44</ele>
        <time>2024-03-28T14:03:04Z</time>
      </trkpt>
      <trkpt lat="43.7545" lon="4.85184">
        <ele>253.93</ele>
        <time>2024-03-28T14:03:16Z</time>
      </trkpt>
      <trkpt lat="43.7545" lon="4.85223">
        <ele>253.93</ele>
        <time>2024-03-28T14:03:24Z</time>
      </trkpt>
      <trkpt lat="43.75449" lon="4.85265">
        <ele>254.89</ele>
        <time>2024-03-28T14:03:33Z</time>
      </trkpt>
      <trkpt lat="43.75443" lon="4.853">
        <ele>258.25</ele>
        <time>2024-03-28T14:03:43Z</time>
      </trkpt>
      <trkpt lat="43.75443" lon="4.85344">
        <ele>258.73</ele>
        <time>2024-03-28T14:03:55Z</time>
      </trkpt>
      <trkpt lat="43.75446" lon="4.85386">
        <ele>261.14</ele>
        <time>2024-03-28T14:04:07Z</time>
      </trkpt>
      <trkpt lat="43.75441" lon="4.85395">
        <ele>262.58</ele>
        <time>2024-03-28T14:04:11Z</time>
      </trkpt>
      <trkpt lat="43.75418" lon="4.85404">
        <ele>264.98</ele>
        <time>2024-03-28T14:04:21Z</time>
      </trkpt>
      <trkpt lat="43.75405" lon="4.85433">
        <ele>266.9</ele>
        <time>2024-03-28T14:04:32Z</time>
      </trkpt>
      <trkpt lat="43.75417" lon="4.85469">
        <ele>268.35</ele>
        <time>2024-03-28T14:04:44Z</time>
      </trkpt>
      <trkpt lat="43.75424" lon="4.85473">
        <ele>267.38</ele>
        <time>2024-03-28T14:04:46Z</time>
      </trkpt>
      <trkpt lat="43.75429" lon="4.85475">
        <ele>266.42</ele>
        <time>2024-03-28T14:04:47Z</time>
      </trkpt>
      <trkpt lat="43.75434" lon="4.85475">
        <ele>266.42</ele>
        <time>2024-03-28T14:04:48Z</time>
      </trkpt>
      <trkpt lat="43.75439" lon="4.85476">
        <ele>265.94</ele>
        <time>2024-03-28T14:04:49Z</time>
      </trkpt>
      <trkpt lat="43.75444" lon="4.85475">
        <ele>265.94</ele>
        <time>2024-03-28T14:04:50Z</time>
      </trkpt>
      <trkpt lat="43.75449" lon="4.85474">
        <ele>265.94</ele>
        <time>2024-03-28T14:04:51Z</time>
      </trkpt>
      <trkpt lat="43.75454" lon="4.85472">
        <ele>265.46</ele>
        <time>2024-03-28T14:04:52Z</time>
      </trkpt>
      <trkpt lat="43.75459" lon="4.8547">
        <ele>264.98</ele>
        <time>2024-03-28T14:04:53Z</time>
      </trkpt>
      <trkpt lat="43.75464" lon="4.85468">
        <ele>264.98</ele>
        <time>2024-03-28T14:04:54Z</time>
      </trkpt>
      <trkpt lat="43.75469" lon="4.85464">
        <ele>264.02</ele>
        <time>2024-03-28T14:04:55Z</time>
      </trkpt>
      <trkpt lat="43.75475" lon="4.8546">
        <ele>263.54</ele>
        <time>2024-03-28T14:04:56Z</time>
      </trkpt>
      <trkpt lat="43.75505" lon="4.85445">
        <ele>259.69</ele>
        <time>2024-03-28T14:05:01Z</time>
      </trkpt>
      <trkpt lat="43.75512" lon="4.85443">
        <ele>259.69</ele>
        <time>2024-03-28T14:05:02Z</time>
      </trkpt>
      <trkpt lat="43.75519" lon="4.85443">
        <ele>258.73</ele>
        <time>2024-03-28T14:05:03Z</time>
      </trkpt>
      <trkpt lat="43.75524" lon="4.85444">
        <ele>258.73</ele>
        <time>2024-03-28T14:05:04Z</time>
      </trkpt>
      <trkpt lat="43.7553" lon="4.85448">
        <ele>258.25</ele>
        <time>2024-03-28T14:05:05Z</time>
      </trkpt>
      <trkpt lat="43.75533" lon="4.85452">
        <ele>258.25</ele>
        <time>2024-03-28T14:05:06Z</time>
      </trkpt>
      <trkpt lat="43.75534" lon="4.85459">
        <ele>257.29</ele>
        <time>2024-03-28T14:05:07Z</time>
      </trkpt>
      <trkpt lat="43.75534" lon="4.85465">
        <ele>257.29</ele>
        <time>2024-03-28T14:05:08Z</time>
      </trkpt>
      <trkpt lat="43.75533" lon="4.85471">
        <ele>257.29</ele>
        <time>2024-03-28T14:05:09Z</time>
      </trkpt>
      <trkpt lat="43.75532" lon="4.85476">
        <ele>257.29</ele>
        <time>2024-03-28T14:05:10Z</time>
      </trkpt>
      <trkpt lat="43.75532" lon="4.8549">
        <ele>258.73</ele>
        <time>2024-03-28T14:05:14Z</time>
      </trkpt>
      <trkpt lat="43.75538" lon="4.85514">
        <ele>259.21</ele>
        <time>2024-03-28T14:05:21Z</time>
      </trkpt>
      <trkpt lat="43.75537" lon="4.85517">
        <ele>259.21</ele>
        <time>2024-03-28T14:05:22Z</time>
      </trkpt>
      <trkpt lat="43.75536" lon="4.85521">
        <ele>259.21</ele>
        <time>2024-03-28T14:05:23Z</time>
      </trkpt>
      <trkpt lat="43.75535" lon="4.85523">
        <ele>259.21</ele>
        <time>2024-03-28T14:05:24Z</time>
      </trkpt>
      <trkpt lat="43.75533" lon="4.85525">
        <ele>259.21</ele>
        <time>2024-03-28T14:05:25Z</time>
      </trkpt>
      <trkpt lat="43.7553" lon="4.85527">
        <ele>259.21</ele>
        <time>2024-03-28T14:05:26Z</time>
      </trkpt>
      <trkpt lat="43.75528" lon="4.85528">
        <ele>259.69</ele>
        <time>2024-03-28T14:05:27Z</time>
      </trkpt>
      <trkpt lat="43.75526" lon="4.85528">
        <ele>260.17</ele>
        <time>2024-03-28T14:05:28Z</time>
      </trkpt>
      <trkpt lat="43.75524" lon="4.85528">
        <ele>260.17</ele>
        <time>2024-03-28T14:05:29Z</time>
      </trkpt>
      <trkpt lat="43.75521" lon="4.85528">
        <ele>260.65</ele>
        <time>2024-03-28T14:05:30Z</time>
      </trkpt>
      <trkpt lat="43.75519" lon="4.85529">
        <ele>260.65</ele>
        <time>2024-03-28T14:05:31Z</time>
      </trkpt>
      <trkpt lat="43.75516" lon="4.8553">
        <ele>260.65</ele>
        <time>2024-03-28T14:05:32Z</time>
      </trkpt>
      <trkpt lat="43.75514" lon="4.85531">
        <ele>261.14</ele>
        <time>2024-03-28T14:05:33Z</time>
      </trkpt>
      <trkpt lat="43.75512" lon="4.85533">
        <ele>261.14</ele>
        <time>2024-03-28T14:05:34Z</time>
      </trkpt>
      <trkpt lat="43.7551" lon="4.85535">
        <ele>261.62</ele>
        <time>2024-03-28T14:05:35Z</time>
      </trkpt>
      <trkpt lat="43.75494" lon="4.8556">
        <ele>263.54</ele>
        <time>2024-03-28T14:05:45Z</time>
      </trkpt>
      <trkpt lat="43.75494" lon="4.856">
        <ele>266.42</ele>
        <time>2024-03-28T14:05:57Z</time>
      </trkpt>
      <trkpt lat="43.75502" lon="4.85631">
        <ele>269.31</ele>
        <time>2024-03-28T14:06:08Z</time>
      </trkpt>
      <trkpt lat="43.75501" lon="4.85659">
        <ele>271.71</ele>
        <time>2024-03-28T14:06:18Z</time>
      </trkpt>
      <trkpt lat="43.75485" lon="4.85674">
        <ele>274.59</ele>
        <time>2024-03-28T14:06:28Z</time>
      </trkpt>
      <trkpt lat="43.75464" lon="4.85649">
        <ele>275.07</ele>
        <time>2024-03-28T14:06:40Z</time>
      </trkpt>
      <trkpt lat="43.75463" lon="4.85648">
        <ele>275.56</ele>
        <time>2024-03-28T14:06:41Z</time>
      </trkpt>
      <trkpt lat="43.75461" lon="4.85649">
        <ele>275.56</ele>
        <time>2024-03-28T14:06:42Z</time>
      </trkpt>
      <trkpt lat="43.75459" lon="4.85651">
        <ele>276.04</ele>
        <time>2024-03-28T14:06:43Z</time>
      </trkpt>
      <trkpt lat="43.75459" lon="4.85654">
        <ele>276.04</ele>
        <time>2024-03-28T14:06:44Z</time>
      </trkpt>
      <trkpt lat="43.75459" lon="4.85657">
        <ele>276.04</ele>
        <time>2024-03-28T14:06:45Z</time>
      </trkpt>
      <trkpt lat="43.7546" lon="4.85659">
        <ele>277</ele>
        <time>2024-03-28T14:06:46Z</time>
      </trkpt>
      <trkpt lat="43.7546" lon="4.85663">
        <ele>277</ele>
        <time>2024-03-28T14:06:47Z</time>
      </trkpt>
      <trkpt lat="43.75461" lon="4.85665">
        <ele>277.48</ele>
        <time>2024-03-28T14:06:48Z</time>
      </trkpt>
      <trkpt lat="43.75474" lon="4.85697">
        <ele>280.36</ele>
        <time>2024-03-28T14:07:00Z</time>
      </trkpt>
      <trkpt lat="43.75487" lon="4.85723">
        <ele>283.25</ele>
        <time>2024-03-28T14:07:11Z</time>
      </trkpt>
      <trkpt lat="43.75489" lon="4.85731">
        <ele>284.21</ele>
        <time>2024-03-28T14:07:14Z</time>
      </trkpt>
      <trkpt lat="43.75495" lon="4.85754">
        <ele>287.09</ele>
        <time>2024-03-28T14:07:23Z</time>
      </trkpt>
      <trkpt lat="43.75496" lon="4.85758">
        <ele>287.57</ele>
        <time>2024-03-28T14:07:25Z</time>
      </trkpt>
      <trkpt lat="43.75501" lon="4.85795">
        <ele>290.46</ele>
        <time>2024-03-28T14:07:37Z</time>
      </trkpt>
      <trkpt lat="43.75511" lon="4.85839">
        <ele>293.34</ele>
        <time>2024-03-28T14:07:51Z</time>
      </trkpt>
      <trkpt lat="43.75524" lon="4.85872">
        <ele>296.22</ele>
        <time>2024-03-28T14:08:03Z</time>
      </trkpt>
      <trkpt lat="43.75542" lon="4.85904">
        <ele>297.18</ele>
        <time>2024-03-28T14:08:15Z</time>
      </trkpt>
      <trkpt lat="43.75559" lon="4.85914">
        <ele>297.18</ele>
        <time>2024-03-28T14:08:24Z</time>
      </trkpt>
      <trkpt lat="43.75572" lon="4.85912">
        <ele>297.18</ele>
        <time>2024-03-28T14:08:30Z</time>
      </trkpt>
      <trkpt lat="43.75574" lon="4.85913">
        <ele>297.18</ele>
        <time>2024-03-28T14:08:31Z</time>
      </trkpt>
      <trkpt lat="43.75575" lon="4.85913">
        <ele>297.18</ele>
        <time>2024-03-28T14:08:32Z</time>
      </trkpt>
      <trkpt lat="43.75579" lon="4.85916">
        <ele>297.67</ele>
        <time>2024-03-28T14:08:41Z</time>
      </trkpt>
      <trkpt lat="43.75582" lon="4.85917">
        <ele>297.67</ele>
        <time>2024-03-28T14:08:52Z</time>
      </trkpt>
      <trkpt lat="43.75585" lon="4.85922">
        <ele>297.67</ele>
        <time>2024-03-28T14:09:02Z</time>
      </trkpt>
      <trkpt lat="43.75585" lon="4.85926">
        <ele>297.67</ele>
        <time>2024-03-28T14:09:18Z</time>
      </trkpt>
      <trkpt lat="43.75585" lon="4.85925">
        <ele>297.67</ele>
        <time>2024-03-28T14:09:42Z</time>
      </trkpt>
      <trkpt lat="43.75582" lon="4.85923">
        <ele>297.67</ele>
        <time>2024-03-28T14:10:08Z</time>
      </trkpt>
      <trkpt lat="43.75578" lon="4.85919">
        <ele>298.15</ele>
        <time>2024-03-28T14:10:37Z</time>
      </trkpt>
      <trkpt lat="43.75583" lon="4.85918">
        <ele>298.15</ele>
        <time>2024-03-28T14:11:11Z</time>
      </trkpt>
      <trkpt lat="43.75583" lon="4.8592">
        <ele>298.15</ele>
        <time>2024-03-28T14:11:28Z</time>
      </trkpt>
      <trkpt lat="43.75586" lon="4.85924">
        <ele>298.15</ele>
        <time>2024-03-28T14:11:42Z</time>
      </trkpt>
      <trkpt lat="43.75587" lon="4.85926">
        <ele>298.15</ele>
        <time>2024-03-28T14:11:46Z</time>
      </trkpt>
      <trkpt lat="43.75588" lon="4.85928">
        <ele>298.15</ele>
        <time>2024-03-28T14:11:47Z</time>
      </trkpt>
      <trkpt lat="43.75588" lon="4.8593">
        <ele>298.15</ele>
        <time>2024-03-28T14:11:48Z</time>
      </trkpt>
      <trkpt lat="43.75588" lon="4.85933">
        <ele>298.15</ele>
        <time>2024-03-28T14:11:49Z</time>
      </trkpt>
      <trkpt lat="43.75587" lon="4.85937">
        <ele>298.15</ele>
        <time>2024-03-28T14:11:50Z</time>
      </trkpt>
      <trkpt lat="43.75585" lon="4.85941">
        <ele>298.15</ele>
        <time>2024-03-28T14:11:51Z</time>
      </trkpt>
      <trkpt lat="43.75583" lon="4.85945">
        <ele>298.15</ele>
        <time>2024-03-28T14:11:52Z</time>
      </trkpt>
      <trkpt lat="43.75576" lon="4.85969">
        <ele>300.07</ele>
        <time>2024-03-28T14:12:00Z</time>
      </trkpt>
      <trkpt lat="43.7558" lon="4.86003">
        <ele>303.43</ele>
        <time>2024-03-28T14:12:11Z</time>
      </trkpt>
      <trkpt lat="43.75586" lon="4.86037">
        <ele>306.32</ele>
        <time>2024-03-28T14:12:22Z</time>
      </trkpt>
      <trkpt lat="43.75587" lon="4.86068">
        <ele>309.2</ele>
        <time>2024-03-28T14:12:32Z</time>
      </trkpt>
      <trkpt lat="43.75582" lon="4.86078">
        <ele>310.64</ele>
        <time>2024-03-28T14:12:36Z</time>
      </trkpt>
      <trkpt lat="43.75557" lon="4.86096">
        <ele>313.53</ele>
        <time>2024-03-28T14:12:48Z</time>
      </trkpt>
      <trkpt lat="43.75531" lon="4.86098">
        <ele>315.93</ele>
        <time>2024-03-28T14:13:00Z</time>
      </trkpt>
      <trkpt lat="43.7551" lon="4.86081">
        <ele>316.89</ele>
        <time>2024-03-28T14:13:10Z</time>
      </trkpt>
      <trkpt lat="43.755" lon="4.86093">
        <ele>317.85</ele>
        <time>2024-03-28T14:13:17Z</time>
      </trkpt>
      <trkpt lat="43.75513" lon="4.86114">
        <ele>320.26</ele>
        <time>2024-03-28T14:13:27Z</time>
      </trkpt>
      <trkpt lat="43.75532" lon="4.86129">
        <ele>321.7</ele>
        <time>2024-03-28T14:13:37Z</time>
      </trkpt>
      <trkpt lat="43.75549" lon="4.86159">
        <ele>324.1</ele>
        <time>2024-03-28T14:13:49Z</time>
      </trkpt>
      <trkpt lat="43.75555" lon="4.86192">
        <ele>326.99</ele>
        <time>2024-03-28T14:14:00Z</time>
      </trkpt>
      <trkpt lat="43.75562" lon="4.86221">
        <ele>328.43</ele>
        <time>2024-03-28T14:14:13Z</time>
      </trkpt>
      <trkpt lat="43.75562" lon="4.86221">
        <ele>328.43</ele>
        <time>2024-03-28T14:14:30Z</time>
      </trkpt>
      <trkpt lat="43.75568" lon="4.86233">
        <ele>328.43</ele>
        <time>2024-03-28T14:14:41Z</time>
      </trkpt>
      <trkpt lat="43.75573" lon="4.86242">
        <ele>326.99</ele>
        <time>2024-03-28T14:14:43Z</time>
      </trkpt>
      <trkpt lat="43.75575" lon="4.86248">
        <ele>326.99</ele>
        <time>2024-03-28T14:14:44Z</time>
      </trkpt>
      <trkpt lat="43.75584" lon="4.86266">
        <ele>325.06</ele>
        <time>2024-03-28T14:14:47Z</time>
      </trkpt>
      <trkpt lat="43.75594" lon="4.86287">
        <ele>322.66</ele>
        <time>2024-03-28T14:14:50Z</time>
      </trkpt>
      <trkpt lat="43.75602" lon="4.86301">
        <ele>322.18</ele>
        <time>2024-03-28T14:14:52Z</time>
      </trkpt>
      <trkpt lat="43.75608" lon="4.86307">
        <ele>321.22</ele>
        <time>2024-03-28T14:14:53Z</time>
      </trkpt>
      <trkpt lat="43.75613" lon="4.86311">
        <ele>319.78</ele>
        <time>2024-03-28T14:14:54Z</time>
      </trkpt>
      <trkpt lat="43.7562" lon="4.86314">
        <ele>319.3</ele>
        <time>2024-03-28T14:14:55Z</time>
      </trkpt>
      <trkpt lat="43.75627" lon="4.86315">
        <ele>318.81</ele>
        <time>2024-03-28T14:14:56Z</time>
      </trkpt>
      <trkpt lat="43.75634" lon="4.86315">
        <ele>318.33</ele>
        <time>2024-03-28T14:14:57Z</time>
      </trkpt>
      <trkpt lat="43.75642" lon="4.86316">
        <ele>318.33</ele>
        <time>2024-03-28T14:14:58Z</time>
      </trkpt>
      <trkpt lat="43.75648" lon="4.86318">
        <ele>317.37</ele>
        <time>2024-03-28T14:14:59Z</time>
      </trkpt>
      <trkpt lat="43.75654" lon="4.86322">
        <ele>317.37</ele>
        <time>2024-03-28T14:15:00Z</time>
      </trkpt>
      <trkpt lat="43.7566" lon="4.86326">
        <ele>316.89</ele>
        <time>2024-03-28T14:15:01Z</time>
      </trkpt>
      <trkpt lat="43.75666" lon="4.86328">
        <ele>316.41</ele>
        <time>2024-03-28T14:15:02Z</time>
      </trkpt>
      <trkpt lat="43.75672" lon="4.86329">
        <ele>315.93</ele>
        <time>2024-03-28T14:15:03Z</time>
      </trkpt>
      <trkpt lat="43.75678" lon="4.8633">
        <ele>315.45</ele>
        <time>2024-03-28T14:15:04Z</time>
      </trkpt>
      <trkpt lat="43.75683" lon="4.8633">
        <ele>314.97</ele>
        <time>2024-03-28T14:15:05Z</time>
      </trkpt>
      <trkpt lat="43.75687" lon="4.86327">
        <ele>314.97</ele>
        <time>2024-03-28T14:15:06Z</time>
      </trkpt>
      <trkpt lat="43.7569" lon="4.86323">
        <ele>314.97</ele>
        <time>2024-03-28T14:15:07Z</time>
      </trkpt>
      <trkpt lat="43.75692" lon="4.86317">
        <ele>314.01</ele>
        <time>2024-03-28T14:15:08Z</time>
      </trkpt>
      <trkpt lat="43.75694" lon="4.86311">
        <ele>313.05</ele>
        <time>2024-03-28T14:15:09Z</time>
      </trkpt>
      <trkpt lat="43.75695" lon="4.86303">
        <ele>312.09</ele>
        <time>2024-03-28T14:15:10Z</time>
      </trkpt>
      <trkpt lat="43.75695" lon="4.86295">
        <ele>311.6</ele>
        <time>2024-03-28T14:15:11Z</time>
      </trkpt>
      <trkpt lat="43.75694" lon="4.86286">
        <ele>310.64</ele>
        <time>2024-03-28T14:15:12Z</time>
      </trkpt>
      <trkpt lat="43.75692" lon="4.86278">
        <ele>310.16</ele>
        <time>2024-03-28T14:15:13Z</time>
      </trkpt>
      <trkpt lat="43.7569" lon="4.86271">
        <ele>310.16</ele>
        <time>2024-03-28T14:15:14Z</time>
      </trkpt>
      <trkpt lat="43.75689" lon="4.8626">
        <ele>309.68</ele>
        <time>2024-03-28T14:15:16Z</time>
      </trkpt>
      <trkpt lat="43.75691" lon="4.86256">
        <ele>309.2</ele>
        <time>2024-03-28T14:15:17Z</time>
      </trkpt>
      <trkpt lat="43.75697" lon="4.86251">
        <ele>308.24</ele>
        <time>2024-03-28T14:15:19Z</time>
      </trkpt>
      <trkpt lat="43.757" lon="4.86253">
        <ele>307.76</ele>
        <time>2024-03-28T14:15:20Z</time>
      </trkpt>
      <trkpt lat="43.75703" lon="4.86256">
        <ele>307.28</ele>
        <time>2024-03-28T14:15:21Z</time>
      </trkpt>
      <trkpt lat="43.75706" lon="4.86261">
        <ele>306.8</ele>
        <time>2024-03-28T14:15:22Z</time>
      </trkpt>
      <trkpt lat="43.75709" lon="4.86267">
        <ele>306.32</ele>
        <time>2024-03-28T14:15:23Z</time>
      </trkpt>
      <trkpt lat="43.75719" lon="4.86296">
        <ele>303.91</ele>
        <time>2024-03-28T14:15:27Z</time>
      </trkpt>
      <trkpt lat="43.75721" lon="4.86304">
        <ele>303.43</ele>
        <time>2024-03-28T14:15:28Z</time>
      </trkpt>
      <trkpt lat="43.75723" lon="4.86313">
        <ele>302.95</ele>
        <time>2024-03-28T14:15:29Z</time>
      </trkpt>
      <trkpt lat="43.75723" lon="4.86323">
        <ele>302.47</ele>
        <time>2024-03-28T14:15:30Z</time>
      </trkpt>
      <trkpt lat="43.75723" lon="4.86364">
        <ele>299.59</ele>
        <time>2024-03-28T14:15:34Z</time>
      </trkpt>
      <trkpt lat="43.75722" lon="4.86375">
        <ele>298.63</ele>
        <time>2024-03-28T14:15:35Z</time>
      </trkpt>
      <trkpt lat="43.7572" lon="4.86385">
        <ele>298.63</ele>
        <time>2024-03-28T14:15:36Z</time>
      </trkpt>
      <trkpt lat="43.75716" lon="4.86395">
        <ele>297.67</ele>
        <time>2024-03-28T14:15:37Z</time>
      </trkpt>
      <trkpt lat="43.75704" lon="4.86419">
        <ele>297.18</ele>
        <time>2024-03-28T14:15:40Z</time>
      </trkpt>
      <trkpt lat="43.75695" lon="4.86433">
        <ele>297.18</ele>
        <time>2024-03-28T14:15:42Z</time>
      </trkpt>
      <trkpt lat="43.75693" lon="4.8644">
        <ele>296.7</ele>
        <time>2024-03-28T14:15:43Z</time>
      </trkpt>
      <trkpt lat="43.75691" lon="4.86448">
        <ele>296.7</ele>
        <time>2024-03-28T14:15:44Z</time>
      </trkpt>
      <trkpt lat="43.7569" lon="4.86455">
        <ele>296.7</ele>
        <time>2024-03-28T14:15:45Z</time>
      </trkpt>
      <trkpt lat="43.75689" lon="4.86462">
        <ele>296.7</ele>
        <time>2024-03-28T14:15:46Z</time>
      </trkpt>
      <trkpt lat="43.7569" lon="4.86469">
        <ele>296.7</ele>
        <time>2024-03-28T14:15:47Z</time>
      </trkpt>
      <trkpt lat="43.75691" lon="4.86475">
        <ele>296.7</ele>
        <time>2024-03-28T14:15:48Z</time>
      </trkpt>
      <trkpt lat="43.75694" lon="4.8648">
        <ele>296.7</ele>
        <time>2024-03-28T14:15:49Z</time>
      </trkpt>
      <trkpt lat="43.75698" lon="4.86484">
        <ele>296.7</ele>
        <time>2024-03-28T14:15:50Z</time>
      </trkpt>
      <trkpt lat="43.75702" lon="4.86487">
        <ele>296.7</ele>
        <time>2024-03-28T14:15:51Z</time>
      </trkpt>
      <trkpt lat="43.75724" lon="4.86506">
        <ele>296.22</ele>
        <time>2024-03-28T14:15:58Z</time>
      </trkpt>
      <trkpt lat="43.75723" lon="4.8651">
        <ele>296.22</ele>
        <time>2024-03-28T14:15:59Z</time>
      </trkpt>
      <trkpt lat="43.75723" lon="4.86512">
        <ele>296.22</ele>
        <time>2024-03-28T14:16:00Z</time>
      </trkpt>
      <trkpt lat="43.75723" lon="4.86513">
        <ele>296.22</ele>
        <time>2024-03-28T14:16:08Z</time>
      </trkpt>
      <trkpt lat="43.75719" lon="4.86512">
        <ele>296.22</ele>
        <time>2024-03-28T14:16:23Z</time>
      </trkpt>
      <trkpt lat="43.75689" lon="4.86522">
        <ele>297.67</ele>
        <time>2024-03-28T14:16:33Z</time>
      </trkpt>
      <trkpt lat="43.75686" lon="4.86524">
        <ele>297.67</ele>
        <time>2024-03-28T14:16:34Z</time>
      </trkpt>
      <trkpt lat="43.75674" lon="4.8656">
        <ele>300.07</ele>
        <time>2024-03-28T14:16:44Z</time>
      </trkpt>
      <trkpt lat="43.75668" lon="4.86579">
        <ele>301.03</ele>
        <time>2024-03-28T14:16:52Z</time>
      </trkpt>
      <trkpt lat="43.75669" lon="4.86578">
        <ele>301.51</ele>
        <time>2024-03-28T14:17:08Z</time>
      </trkpt>
      <trkpt lat="43.75668" lon="4.86578">
        <ele>301.51</ele>
        <time>2024-03-28T14:17:26Z</time>
      </trkpt>
      <trkpt lat="43.75668" lon="4.86578">
        <ele>301.51</ele>
        <time>2024-03-28T14:17:42Z</time>
      </trkpt>
      <trkpt lat="43.75668" lon="4.86579">
        <ele>301.51</ele>
        <time>2024-03-28T14:18:09Z</time>
      </trkpt>
      <trkpt lat="43.75668" lon="4.86578">
        <ele>301.51</ele>
        <time>2024-03-28T14:18:34Z</time>
      </trkpt>
      <trkpt lat="43.75668" lon="4.86579">
        <ele>301.03</ele>
        <time>2024-03-28T14:18:50Z</time>
      </trkpt>
      <trkpt lat="43.75667" lon="4.86581">
        <ele>301.03</ele>
        <time>2024-03-28T14:18:58Z</time>
      </trkpt>
      <trkpt lat="43.75655" lon="4.86602">
        <ele>303.43</ele>
        <time>2024-03-28T14:19:05Z</time>
      </trkpt>
      <trkpt lat="43.75659" lon="4.8662">
        <ele>303.91</ele>
        <time>2024-03-28T14:19:12Z</time>
      </trkpt>
      <trkpt lat="43.75668" lon="4.8666">
        <ele>302.95</ele>
        <time>2024-03-28T14:19:22Z</time>
      </trkpt>
      <trkpt lat="43.75671" lon="4.86673">
        <ele>301.99</ele>
        <time>2024-03-28T14:19:24Z</time>
      </trkpt>
      <trkpt lat="43.75676" lon="4.86707">
        <ele>299.11</ele>
        <time>2024-03-28T14:19:28Z</time>
      </trkpt>
      <trkpt lat="43.75684" lon="4.86748">
        <ele>295.74</ele>
        <time>2024-03-28T14:19:32Z</time>
      </trkpt>
      <trkpt lat="43.75691" lon="4.86796">
        <ele>291.9</ele>
        <time>2024-03-28T14:19:36Z</time>
      </trkpt>
      <trkpt lat="43.75709" lon="4.86909">
        <ele>289.49</ele>
        <time>2024-03-28T14:19:47Z</time>
      </trkpt>
      <trkpt lat="43.75712" lon="4.86957">
        <ele>289.97</ele>
        <time>2024-03-28T14:19:55Z</time>
      </trkpt>
      <trkpt lat="43.757" lon="4.86979">
        <ele>290.94</ele>
        <time>2024-03-28T14:20:02Z</time>
      </trkpt>
      <trkpt lat="43.75677" lon="4.87014">
        <ele>288.05</ele>
        <time>2024-03-28T14:20:09Z</time>
      </trkpt>
      <trkpt lat="43.75665" lon="4.87032">
        <ele>286.61</ele>
        <time>2024-03-28T14:20:12Z</time>
      </trkpt>
      <trkpt lat="43.75641" lon="4.87065">
        <ele>283.25</ele>
        <time>2024-03-28T14:20:17Z</time>
      </trkpt>
      <trkpt lat="43.75619" lon="4.87093">
        <ele>281.32</ele>
        <time>2024-03-28T14:20:21Z</time>
      </trkpt>
      <trkpt lat="43.75569" lon="4.87159">
        <ele>279.4</ele>
        <time>2024-03-28T14:20:32Z</time>
      </trkpt>
      <trkpt lat="43.75558" lon="4.87176">
        <ele>279.4</ele>
        <time>2024-03-28T14:20:35Z</time>
      </trkpt>
      <trkpt lat="43.75555" lon="4.87183">
        <ele>279.4</ele>
        <time>2024-03-28T14:20:36Z</time>
      </trkpt>
      <trkpt lat="43.7555" lon="4.87197">
        <ele>278.44</ele>
        <time>2024-03-28T14:20:38Z</time>
      </trkpt>
      <trkpt lat="43.75544" lon="4.87211">
        <ele>278.44</ele>
        <time>2024-03-28T14:20:40Z</time>
      </trkpt>
      <trkpt lat="43.75542" lon="4.87218">
        <ele>277.48</ele>
        <time>2024-03-28T14:20:41Z</time>
      </trkpt>
      <trkpt lat="43.75543" lon="4.87228">
        <ele>277.48</ele>
        <time>2024-03-28T14:20:42Z</time>
      </trkpt>
      <trkpt lat="43.75544" lon="4.87236">
        <ele>276.52</ele>
        <time>2024-03-28T14:20:43Z</time>
      </trkpt>
      <trkpt lat="43.75546" lon="4.87243">
        <ele>276.52</ele>
        <time>2024-03-28T14:20:44Z</time>
      </trkpt>
      <trkpt lat="43.75548" lon="4.87252">
        <ele>276.04</ele>
        <time>2024-03-28T14:20:45Z</time>
      </trkpt>
      <trkpt lat="43.75552" lon="4.87268">
        <ele>274.59</ele>
        <time>2024-03-28T14:20:47Z</time>
      </trkpt>
      <trkpt lat="43.75568" lon="4.87347">
        <ele>271.23</ele>
        <time>2024-03-28T14:20:56Z</time>
      </trkpt>
      <trkpt lat="43.7557" lon="4.87356">
        <ele>271.23</ele>
        <time>2024-03-28T14:20:57Z</time>
      </trkpt>
      <trkpt lat="43.75572" lon="4.87395">
        <ele>269.79</ele>
        <time>2024-03-28T14:21:01Z</time>
      </trkpt>
      <trkpt lat="43.75573" lon="4.87405">
        <ele>268.83</ele>
        <time>2024-03-28T14:21:02Z</time>
      </trkpt>
      <trkpt lat="43.75576" lon="4.87415">
        <ele>267.86</ele>
        <time>2024-03-28T14:21:03Z</time>
      </trkpt>
      <trkpt lat="43.75579" lon="4.87424">
        <ele>267.38</ele>
        <time>2024-03-28T14:21:04Z</time>
      </trkpt>
      <trkpt lat="43.75584" lon="4.87432">
        <ele>267.38</ele>
        <time>2024-03-28T14:21:05Z</time>
      </trkpt>
      <trkpt lat="43.75588" lon="4.8744">
        <ele>266.9</ele>
        <time>2024-03-28T14:21:06Z</time>
      </trkpt>
      <trkpt lat="43.75594" lon="4.87447">
        <ele>266.9</ele>
        <time>2024-03-28T14:21:07Z</time>
      </trkpt>
      <trkpt lat="43.756" lon="4.87452">
        <ele>266.9</ele>
        <time>2024-03-28T14:21:08Z</time>
      </trkpt>
      <trkpt lat="43.75607" lon="4.87456">
        <ele>265.94</ele>
        <time>2024-03-28T14:21:09Z</time>
      </trkpt>
      <trkpt lat="43.75613" lon="4.8746">
        <ele>265.46</ele>
        <time>2024-03-28T14:21:10Z</time>
      </trkpt>
      <trkpt lat="43.7567" lon="4.87484">
        <ele>262.58</ele>
        <time>2024-03-28T14:21:18Z</time>
      </trkpt>
      <trkpt lat="43.757" lon="4.87488">
        <ele>261.14</ele>
        <time>2024-03-28T14:21:22Z</time>
      </trkpt>
      <trkpt lat="43.75707" lon="4.87487">
        <ele>261.14</ele>
        <time>2024-03-28T14:21:23Z</time>
      </trkpt>
      <trkpt lat="43.75714" lon="4.87485">
        <ele>260.17</ele>
        <time>2024-03-28T14:21:24Z</time>
      </trkpt>
      <trkpt lat="43.75727" lon="4.8748">
        <ele>260.17</ele>
        <time>2024-03-28T14:21:26Z</time>
      </trkpt>
      <trkpt lat="43.75732" lon="4.87481">
        <ele>259.69</ele>
        <time>2024-03-28T14:21:27Z</time>
      </trkpt>
      <trkpt lat="43.75736" lon="4.87485">
        <ele>259.69</ele>
        <time>2024-03-28T14:21:28Z</time>
      </trkpt>
      <trkpt lat="43.75738" lon="4.8749">
        <ele>259.69</ele>
        <time>2024-03-28T14:21:29Z</time>
      </trkpt>
      <trkpt lat="43.75738" lon="4.87496">
        <ele>259.69</ele>
        <time>2024-03-28T14:21:30Z</time>
      </trkpt>
      <trkpt lat="43.75737" lon="4.87502">
        <ele>259.21</ele>
        <time>2024-03-28T14:21:31Z</time>
      </trkpt>
      <trkpt lat="43.75735" lon="4.87506">
        <ele>259.21</ele>
        <time>2024-03-28T14:21:32Z</time>
      </trkpt>
      <trkpt lat="43.75733" lon="4.87511">
        <ele>259.21</ele>
        <time>2024-03-28T14:21:33Z</time>
      </trkpt>
      <trkpt lat="43.75731" lon="4.87516">
        <ele>259.21</ele>
        <time>2024-03-28T14:21:34Z</time>
      </trkpt>
      <trkpt lat="43.75719" lon="4.87545">
        <ele>259.21</ele>
        <time>2024-03-28T14:21:40Z</time>
      </trkpt>
      <trkpt lat="43.75693" lon="4.87618">
        <ele>258.73</ele>
        <time>2024-03-28T14:21:53Z</time>
      </trkpt>
      <trkpt lat="43.75667" lon="4.87663">
        <ele>255.85</ele>
        <time>2024-03-28T14:22:00Z</time>
      </trkpt>
      <trkpt lat="43.75665" lon="4.8767">
        <ele>255.85</ele>
        <time>2024-03-28T14:22:01Z</time>
      </trkpt>
      <trkpt lat="43.75665" lon="4.87678">
        <ele>255.37</ele>
        <time>2024-03-28T14:22:02Z</time>
      </trkpt>
      <trkpt lat="43.75666" lon="4.87686">
        <ele>254.41</ele>
        <time>2024-03-28T14:22:03Z</time>
      </trkpt>
      <trkpt lat="43.75667" lon="4.87693">
        <ele>254.89</ele>
        <time>2024-03-28T14:22:04Z</time>
      </trkpt>
      <trkpt lat="43.75668" lon="4.87702">
        <ele>254.41</ele>
        <time>2024-03-28T14:22:05Z</time>
      </trkpt>
      <trkpt lat="43.75667" lon="4.87709">
        <ele>253.93</ele>
        <time>2024-03-28T14:22:06Z</time>
      </trkpt>
      <trkpt lat="43.75665" lon="4.87715">
        <ele>252.96</ele>
        <time>2024-03-28T14:22:07Z</time>
      </trkpt>
      <trkpt lat="43.75661" lon="4.87718">
        <ele>252.96</ele>
        <time>2024-03-28T14:22:08Z</time>
      </trkpt>
      <trkpt lat="43.75657" lon="4.87718">
        <ele>252.96</ele>
        <time>2024-03-28T14:22:09Z</time>
      </trkpt>
      <trkpt lat="43.75652" lon="4.87719">
        <ele>252.96</ele>
        <time>2024-03-28T14:22:10Z</time>
      </trkpt>
      <trkpt lat="43.7564" lon="4.87721">
        <ele>253.44</ele>
        <time>2024-03-28T14:22:13Z</time>
      </trkpt>
      <trkpt lat="43.75636" lon="4.87722">
        <ele>253.44</ele>
        <time>2024-03-28T14:22:14Z</time>
      </trkpt>
      <trkpt lat="43.75631" lon="4.87724">
        <ele>253.44</ele>
        <time>2024-03-28T14:22:15Z</time>
      </trkpt>
      <trkpt lat="43.75611" lon="4.87732">
        <ele>253.44</ele>
        <time>2024-03-28T14:22:20Z</time>
      </trkpt>
      <trkpt lat="43.75607" lon="4.87732">
        <ele>253.44</ele>
        <time>2024-03-28T14:22:21Z</time>
      </trkpt>
      <trkpt lat="43.75602" lon="4.87732">
        <ele>254.41</ele>
        <time>2024-03-28T14:22:22Z</time>
      </trkpt>
      <trkpt lat="43.75598" lon="4.87731">
        <ele>254.41</ele>
        <time>2024-03-28T14:22:23Z</time>
      </trkpt>
      <trkpt lat="43.75594" lon="4.87729">
        <ele>254.41</ele>
        <time>2024-03-28T14:22:24Z</time>
      </trkpt>
      <trkpt lat="43.7559" lon="4.87727">
        <ele>254.41</ele>
        <time>2024-03-28T14:22:25Z</time>
      </trkpt>
      <trkpt lat="43.75586" lon="4.87724">
        <ele>254.89</ele>
        <time>2024-03-28T14:22:26Z</time>
      </trkpt>
      <trkpt lat="43.75579" lon="4.87721">
        <ele>254.89</ele>
        <time>2024-03-28T14:22:28Z</time>
      </trkpt>
      <trkpt lat="43.75574" lon="4.87719">
        <ele>254.89</ele>
        <time>2024-03-28T14:22:29Z</time>
      </trkpt>
      <trkpt lat="43.7557" lon="4.87719">
        <ele>254.89</ele>
        <time>2024-03-28T14:22:30Z</time>
      </trkpt>
      <trkpt lat="43.75566" lon="4.87719">
        <ele>254.89</ele>
        <time>2024-03-28T14:22:31Z</time>
      </trkpt>
      <trkpt lat="43.75562" lon="4.87721">
        <ele>254.89</ele>
        <time>2024-03-28T14:22:32Z</time>
      </trkpt>
      <trkpt lat="43.75559" lon="4.87723">
        <ele>254.89</ele>
        <time>2024-03-28T14:22:33Z</time>
      </trkpt>
      <trkpt lat="43.75555" lon="4.87727">
        <ele>255.37</ele>
        <time>2024-03-28T14:22:34Z</time>
      </trkpt>
      <trkpt lat="43.75553" lon="4.87731">
        <ele>255.37</ele>
        <time>2024-03-28T14:22:35Z</time>
      </trkpt>
      <trkpt lat="43.7555" lon="4.87737">
        <ele>255.37</ele>
        <time>2024-03-28T14:22:36Z</time>
      </trkpt>
      <trkpt lat="43.75548" lon="4.87741">
        <ele>255.85</ele>
        <time>2024-03-28T14:22:37Z</time>
      </trkpt>
      <trkpt lat="43.75547" lon="4.87746">
        <ele>255.85</ele>
        <time>2024-03-28T14:22:38Z</time>
      </trkpt>
      <trkpt lat="43.75546" lon="4.87751">
        <ele>256.81</ele>
        <time>2024-03-28T14:22:39Z</time>
      </trkpt>
      <trkpt lat="43.75545" lon="4.87756">
        <ele>256.81</ele>
        <time>2024-03-28T14:22:40Z</time>
      </trkpt>
      <trkpt lat="43.75538" lon="4.8782">
        <ele>259.21</ele>
        <time>2024-03-28T14:22:52Z</time>
      </trkpt>
      <trkpt lat="43.75546" lon="4.87871">
        <ele>257.77</ele>
        <time>2024-03-28T14:23:01Z</time>
      </trkpt>
      <trkpt lat="43.75539" lon="4.87914">
        <ele>257.77</ele>
        <time>2024-03-28T14:23:10Z</time>
      </trkpt>
      <trkpt lat="43.75536" lon="4.87914">
        <ele>259.21</ele>
        <time>2024-03-28T14:23:11Z</time>
      </trkpt>
      <trkpt lat="43.75534" lon="4.87912">
        <ele>259.69</ele>
        <time>2024-03-28T14:23:12Z</time>
      </trkpt>
      <trkpt lat="43.75533" lon="4.87909">
        <ele>259.69</ele>
        <time>2024-03-28T14:23:13Z</time>
      </trkpt>
      <trkpt lat="43.75532" lon="4.87904">
        <ele>259.69</ele>
        <time>2024-03-28T14:23:14Z</time>
      </trkpt>
      <trkpt lat="43.75531" lon="4.87899">
        <ele>259.69</ele>
        <time>2024-03-28T14:23:15Z</time>
      </trkpt>
      <trkpt lat="43.7553" lon="4.87894">
        <ele>259.69</ele>
        <time>2024-03-28T14:23:16Z</time>
      </trkpt>
      <trkpt lat="43.75529" lon="4.87889">
        <ele>259.69</ele>
        <time>2024-03-28T14:23:17Z</time>
      </trkpt>
      <trkpt lat="43.75527" lon="4.87885">
        <ele>260.17</ele>
        <time>2024-03-28T14:23:18Z</time>
      </trkpt>
      <trkpt lat="43.75525" lon="4.8788">
        <ele>260.17</ele>
        <time>2024-03-28T14:23:19Z</time>
      </trkpt>
      <trkpt lat="43.75503" lon="4.87824">
        <ele>263.06</ele>
        <time>2024-03-28T14:23:32Z</time>
      </trkpt>
      <trkpt lat="43.75488" lon="4.87789">
        <ele>266.42</ele>
        <time>2024-03-28T14:23:44Z</time>
      </trkpt>
      <trkpt lat="43.75489" lon="4.87791">
        <ele>265.94</ele>
        <time>2024-03-28T14:24:01Z</time>
      </trkpt>
      <trkpt lat="43.75489" lon="4.87792">
        <ele>266.42</ele>
        <time>2024-03-28T14:24:19Z</time>
      </trkpt>
      <trkpt lat="43.75488" lon="4.87791">
        <ele>266.42</ele>
        <time>2024-03-28T14:24:29Z</time>
      </trkpt>
      <trkpt lat="43.75488" lon="4.87789">
        <ele>266.42</ele>
        <time>2024-03-28T14:24:30Z</time>
      </trkpt>
      <trkpt lat="43.75486" lon="4.87784">
        <ele>266.42</ele>
        <time>2024-03-28T14:24:33Z</time>
      </trkpt>
      <trkpt lat="43.75485" lon="4.87781">
        <ele>266.42</ele>
        <time>2024-03-28T14:24:34Z</time>
      </trkpt>
      <trkpt lat="43.75482" lon="4.87779">
        <ele>266.42</ele>
        <time>2024-03-28T14:24:35Z</time>
      </trkpt>
      <trkpt lat="43.7548" lon="4.87777">
        <ele>266.9</ele>
        <time>2024-03-28T14:24:36Z</time>
      </trkpt>
      <trkpt lat="43.75477" lon="4.87776">
        <ele>266.9</ele>
        <time>2024-03-28T14:24:37Z</time>
      </trkpt>
      <trkpt lat="43.75475" lon="4.87775">
        <ele>267.38</ele>
        <time>2024-03-28T14:24:38Z</time>
      </trkpt>
      <trkpt lat="43.75472" lon="4.87776">
        <ele>268.35</ele>
        <time>2024-03-28T14:24:39Z</time>
      </trkpt>
      <trkpt lat="43.75469" lon="4.87777">
        <ele>268.35</ele>
        <time>2024-03-28T14:24:40Z</time>
      </trkpt>
      <trkpt lat="43.75467" lon="4.87779">
        <ele>269.31</ele>
        <time>2024-03-28T14:24:41Z</time>
      </trkpt>
      <trkpt lat="43.75465" lon="4.8778">
        <ele>269.31</ele>
        <time>2024-03-28T14:24:42Z</time>
      </trkpt>
      <trkpt lat="43.75463" lon="4.87783">
        <ele>269.79</ele>
        <time>2024-03-28T14:24:43Z</time>
      </trkpt>
      <trkpt lat="43.75461" lon="4.87786">
        <ele>269.79</ele>
        <time>2024-03-28T14:24:44Z</time>
      </trkpt>
      <trkpt lat="43.75454" lon="4.87822">
        <ele>270.75</ele>
        <time>2024-03-28T14:24:53Z</time>
      </trkpt>
      <trkpt lat="43.75456" lon="4.87871">
        <ele>272.19</ele>
        <time>2024-03-28T14:25:04Z</time>
      </trkpt>
      <trkpt lat="43.75453" lon="4.87916">
        <ele>272.19</ele>
        <time>2024-03-28T14:25:14Z</time>
      </trkpt>
      <trkpt lat="43.75439" lon="4.87959">
        <ele>273.63</ele>
        <time>2024-03-28T14:25:25Z</time>
      </trkpt>
      <trkpt lat="43.75429" lon="4.88013">
        <ele>274.11</ele>
        <time>2024-03-28T14:25:37Z</time>
      </trkpt>
      <trkpt lat="43.75411" lon="4.88027">
        <ele>275.07</ele>
        <time>2024-03-28T14:25:45Z</time>
      </trkpt>
      <trkpt lat="43.7539" lon="4.88052">
        <ele>277.48</ele>
        <time>2024-03-28T14:25:56Z</time>
      </trkpt>
      <trkpt lat="43.75384" lon="4.88099">
        <ele>280.36</ele>
        <time>2024-03-28T14:26:10Z</time>
      </trkpt>
      <trkpt lat="43.75374" lon="4.88106">
        <ele>282.28</ele>
        <time>2024-03-28T14:26:15Z</time>
      </trkpt>
      <trkpt lat="43.75372" lon="4.88104">
        <ele>282.28</ele>
        <time>2024-03-28T14:26:16Z</time>
      </trkpt>
      <trkpt lat="43.75369" lon="4.88101">
        <ele>281.8</ele>
        <time>2024-03-28T14:26:17Z</time>
      </trkpt>
      <trkpt lat="43.75352" lon="4.8806">
        <ele>282.77</ele>
        <time>2024-03-28T14:26:29Z</time>
      </trkpt>
      <trkpt lat="43.75349" lon="4.88053">
        <ele>283.25</ele>
        <time>2024-03-28T14:26:36Z</time>
      </trkpt>
      <trkpt lat="43.75349" lon="4.88052">
        <ele>282.77</ele>
        <time>2024-03-28T14:26:51Z</time>
      </trkpt>
      <trkpt lat="43.7535" lon="4.88054">
        <ele>282.77</ele>
        <time>2024-03-28T14:27:07Z</time>
      </trkpt>
      <trkpt lat="43.75349" lon="4.88054">
        <ele>282.77</ele>
        <time>2024-03-28T14:27:28Z</time>
      </trkpt>
      <trkpt lat="43.75348" lon="4.88052">
        <ele>283.25</ele>
        <time>2024-03-28T14:27:48Z</time>
      </trkpt>
      <trkpt lat="43.75347" lon="4.8804">
        <ele>282.28</ele>
        <time>2024-03-28T14:27:59Z</time>
      </trkpt>
      <trkpt lat="43.75343" lon="4.88021">
        <ele>283.73</ele>
        <time>2024-03-28T14:28:04Z</time>
      </trkpt>
      <trkpt lat="43.7534" lon="4.87996">
        <ele>286.61</ele>
        <time>2024-03-28T14:28:11Z</time>
      </trkpt>
      <trkpt lat="43.7532" lon="4.8798">
        <ele>288.05</ele>
        <time>2024-03-28T14:28:20Z</time>
      </trkpt>
      <trkpt lat="43.75304" lon="4.8798">
        <ele>286.61</ele>
        <time>2024-03-28T14:28:24Z</time>
      </trkpt>
      <trkpt lat="43.75292" lon="4.8798">
        <ele>285.17</ele>
        <time>2024-03-28T14:28:27Z</time>
      </trkpt>
      <trkpt lat="43.75287" lon="4.87978">
        <ele>284.69</ele>
        <time>2024-03-28T14:28:28Z</time>
      </trkpt>
      <trkpt lat="43.75283" lon="4.87975">
        <ele>284.21</ele>
        <time>2024-03-28T14:28:29Z</time>
      </trkpt>
      <trkpt lat="43.7528" lon="4.87972">
        <ele>284.21</ele>
        <time>2024-03-28T14:28:30Z</time>
      </trkpt>
      <trkpt lat="43.75276" lon="4.87969">
        <ele>284.21</ele>
        <time>2024-03-28T14:28:31Z</time>
      </trkpt>
      <trkpt lat="43.75272" lon="4.87967">
        <ele>283.25</ele>
        <time>2024-03-28T14:28:32Z</time>
      </trkpt>
      <trkpt lat="43.75268" lon="4.87966">
        <ele>282.77</ele>
        <time>2024-03-28T14:28:33Z</time>
      </trkpt>
      <trkpt lat="43.75263" lon="4.87966">
        <ele>282.28</ele>
        <time>2024-03-28T14:28:34Z</time>
      </trkpt>
      <trkpt lat="43.75259" lon="4.87968">
        <ele>281.8</ele>
        <time>2024-03-28T14:28:35Z</time>
      </trkpt>
      <trkpt lat="43.75255" lon="4.87971">
        <ele>281.32</ele>
        <time>2024-03-28T14:28:36Z</time>
      </trkpt>
      <trkpt lat="43.75251" lon="4.87976">
        <ele>280.36</ele>
        <time>2024-03-28T14:28:37Z</time>
      </trkpt>
      <trkpt lat="43.75247" lon="4.87982">
        <ele>279.4</ele>
        <time>2024-03-28T14:28:38Z</time>
      </trkpt>
      <trkpt lat="43.75233" lon="4.88">
        <ele>277.96</ele>
        <time>2024-03-28T14:28:41Z</time>
      </trkpt>
      <trkpt lat="43.75229" lon="4.88006">
        <ele>277.96</ele>
        <time>2024-03-28T14:28:42Z</time>
      </trkpt>
      <trkpt lat="43.75227" lon="4.88013">
        <ele>277.96</ele>
        <time>2024-03-28T14:28:43Z</time>
      </trkpt>
      <trkpt lat="43.75226" lon="4.88019">
        <ele>277.96</ele>
        <time>2024-03-28T14:28:44Z</time>
      </trkpt>
      <trkpt lat="43.75226" lon="4.88025">
        <ele>277.96</ele>
        <time>2024-03-28T14:28:45Z</time>
      </trkpt>
      <trkpt lat="43.75227" lon="4.8803">
        <ele>277.96</ele>
        <time>2024-03-28T14:28:46Z</time>
      </trkpt>
      <trkpt lat="43.75227" lon="4.88045">
        <ele>279.88</ele>
        <time>2024-03-28T14:28:49Z</time>
      </trkpt>
      <trkpt lat="43.75211" lon="4.88071">
        <ele>283.25</ele>
        <time>2024-03-28T14:28:58Z</time>
      </trkpt>
      <trkpt lat="43.75205" lon="4.88073">
        <ele>284.21</ele>
        <time>2024-03-28T14:29:00Z</time>
      </trkpt>
      <trkpt lat="43.75183" lon="4.88058">
        <ele>284.21</ele>
        <time>2024-03-28T14:29:07Z</time>
      </trkpt>
      <trkpt lat="43.75145" lon="4.88027">
        <ele>284.21</ele>
        <time>2024-03-28T14:29:18Z</time>
      </trkpt>
      <trkpt lat="43.75116" lon="4.88011">
        <ele>285.17</ele>
        <time>2024-03-28T14:29:28Z</time>
      </trkpt>
      <trkpt lat="43.75117" lon="4.88011">
        <ele>285.65</ele>
        <time>2024-03-28T14:29:40Z</time>
      </trkpt>
      <trkpt lat="43.75116" lon="4.88011">
        <ele>285.65</ele>
        <time>2024-03-28T14:29:55Z</time>
      </trkpt>
      <trkpt lat="43.75104" lon="4.88018">
        <ele>284.21</ele>
        <time>2024-03-28T14:30:05Z</time>
      </trkpt>
      <trkpt lat="43.75061" lon="4.88041">
        <ele>282.77</ele>
        <time>2024-03-28T14:30:16Z</time>
      </trkpt>
      <trkpt lat="43.75046" lon="4.88064">
        <ele>282.77</ele>
        <time>2024-03-28T14:30:24Z</time>
      </trkpt>
      <trkpt lat="43.75047" lon="4.88073">
        <ele>282.77</ele>
        <time>2024-03-28T14:30:26Z</time>
      </trkpt>
      <trkpt lat="43.75049" lon="4.88079">
        <ele>282.28</ele>
        <time>2024-03-28T14:30:27Z</time>
      </trkpt>
      <trkpt lat="43.75052" lon="4.88084">
        <ele>281.32</ele>
        <time>2024-03-28T14:30:28Z</time>
      </trkpt>
      <trkpt lat="43.75056" lon="4.88089">
        <ele>281.32</ele>
        <time>2024-03-28T14:30:29Z</time>
      </trkpt>
      <trkpt lat="43.7506" lon="4.88094">
        <ele>280.84</ele>
        <time>2024-03-28T14:30:30Z</time>
      </trkpt>
      <trkpt lat="43.75103" lon="4.88141">
        <ele>279.88</ele>
        <time>2024-03-28T14:30:41Z</time>
      </trkpt>
      <trkpt lat="43.75109" lon="4.88145">
        <ele>280.84</ele>
        <time>2024-03-28T14:30:43Z</time>
      </trkpt>
      <trkpt lat="43.75149" lon="4.88157">
        <ele>283.25</ele>
        <time>2024-03-28T14:30:54Z</time>
      </trkpt>
      <trkpt lat="43.75159" lon="4.88167">
        <ele>284.69</ele>
        <time>2024-03-28T14:30:58Z</time>
      </trkpt>
      <trkpt lat="43.7516" lon="4.88172">
        <ele>284.69</ele>
        <time>2024-03-28T14:30:59Z</time>
      </trkpt>
      <trkpt lat="43.75159" lon="4.88175">
        <ele>284.69</ele>
        <time>2024-03-28T14:31:00Z</time>
      </trkpt>
      <trkpt lat="43.75157" lon="4.8818">
        <ele>284.69</ele>
        <time>2024-03-28T14:31:01Z</time>
      </trkpt>
      <trkpt lat="43.75154" lon="4.88183">
        <ele>284.69</ele>
        <time>2024-03-28T14:31:02Z</time>
      </trkpt>
      <trkpt lat="43.7515" lon="4.88186">
        <ele>284.69</ele>
        <time>2024-03-28T14:31:03Z</time>
      </trkpt>
      <trkpt lat="43.75146" lon="4.88187">
        <ele>283.25</ele>
        <time>2024-03-28T14:31:04Z</time>
      </trkpt>
      <trkpt lat="43.75141" lon="4.88189">
        <ele>283.25</ele>
        <time>2024-03-28T14:31:05Z</time>
      </trkpt>
      <trkpt lat="43.7511" lon="4.88197">
        <ele>279.88</ele>
        <time>2024-03-28T14:31:10Z</time>
      </trkpt>
      <trkpt lat="43.75103" lon="4.882">
        <ele>279.4</ele>
        <time>2024-03-28T14:31:11Z</time>
      </trkpt>
      <trkpt lat="43.75098" lon="4.88205">
        <ele>278.44</ele>
        <time>2024-03-28T14:31:12Z</time>
      </trkpt>
      <trkpt lat="43.75092" lon="4.88211">
        <ele>277.96</ele>
        <time>2024-03-28T14:31:13Z</time>
      </trkpt>
      <trkpt lat="43.75089" lon="4.88217">
        <ele>277.96</ele>
        <time>2024-03-28T14:31:14Z</time>
      </trkpt>
      <trkpt lat="43.75084" lon="4.88225">
        <ele>277.96</ele>
        <time>2024-03-28T14:31:15Z</time>
      </trkpt>
      <trkpt lat="43.75081" lon="4.88229">
        <ele>277.96</ele>
        <time>2024-03-28T14:31:16Z</time>
      </trkpt>
      <trkpt lat="43.75076" lon="4.88231">
        <ele>277.96</ele>
        <time>2024-03-28T14:31:17Z</time>
      </trkpt>
      <trkpt lat="43.75072" lon="4.88231">
        <ele>277.96</ele>
        <time>2024-03-28T14:31:18Z</time>
      </trkpt>
      <trkpt lat="43.75068" lon="4.88229">
        <ele>277.96</ele>
        <time>2024-03-28T14:31:19Z</time>
      </trkpt>
      <trkpt lat="43.75065" lon="4.88225">
        <ele>279.4</ele>
        <time>2024-03-28T14:31:20Z</time>
      </trkpt>
      <trkpt lat="43.75062" lon="4.8822">
        <ele>279.4</ele>
        <time>2024-03-28T14:31:21Z</time>
      </trkpt>
      <trkpt lat="43.75058" lon="4.88215">
        <ele>279.4</ele>
        <time>2024-03-28T14:31:22Z</time>
      </trkpt>
      <trkpt lat="43.75055" lon="4.88212">
        <ele>279.4</ele>
        <time>2024-03-28T14:31:23Z</time>
      </trkpt>
      <trkpt lat="43.7505" lon="4.88208">
        <ele>277.96</ele>
        <time>2024-03-28T14:31:24Z</time>
      </trkpt>
      <trkpt lat="43.75045" lon="4.88206">
        <ele>277.96</ele>
        <time>2024-03-28T14:31:25Z</time>
      </trkpt>
      <trkpt lat="43.7504" lon="4.88205">
        <ele>277.96</ele>
        <time>2024-03-28T14:31:26Z</time>
      </trkpt>
      <trkpt lat="43.75035" lon="4.88204">
        <ele>277.96</ele>
        <time>2024-03-28T14:31:27Z</time>
      </trkpt>
      <trkpt lat="43.75029" lon="4.88204">
        <ele>277.48</ele>
        <time>2024-03-28T14:31:28Z</time>
      </trkpt>
      <trkpt lat="43.75" lon="4.88209">
        <ele>275.07</ele>
        <time>2024-03-28T14:31:33Z</time>
      </trkpt>
      <trkpt lat="43.74982" lon="4.88219">
        <ele>274.11</ele>
        <time>2024-03-28T14:31:36Z</time>
      </trkpt>
      <trkpt lat="43.74976" lon="4.88224">
        <ele>273.63</ele>
        <time>2024-03-28T14:31:37Z</time>
      </trkpt>
      <trkpt lat="43.74971" lon="4.88229">
        <ele>273.63</ele>
        <time>2024-03-28T14:31:38Z</time>
      </trkpt>
      <trkpt lat="43.74966" lon="4.88236">
        <ele>273.15</ele>
        <time>2024-03-28T14:31:39Z</time>
      </trkpt>
      <trkpt lat="43.74962" lon="4.88242">
        <ele>272.67</ele>
        <time>2024-03-28T14:31:40Z</time>
      </trkpt>
      <trkpt lat="43.74949" lon="4.88267">
        <ele>271.23</ele>
        <time>2024-03-28T14:31:43Z</time>
      </trkpt>
      <trkpt lat="43.7493" lon="4.88314">
        <ele>267.86</ele>
        <time>2024-03-28T14:31:48Z</time>
      </trkpt>
      <trkpt lat="43.74912" lon="4.88342">
        <ele>264.98</ele>
        <time>2024-03-28T14:31:52Z</time>
      </trkpt>
      <trkpt lat="43.74906" lon="4.88354">
        <ele>263.54</ele>
        <time>2024-03-28T14:31:54Z</time>
      </trkpt>
      <trkpt lat="43.74905" lon="4.8836">
        <ele>262.58</ele>
        <time>2024-03-28T14:31:55Z</time>
      </trkpt>
      <trkpt lat="43.74905" lon="4.88365">
        <ele>262.58</ele>
        <time>2024-03-28T14:31:56Z</time>
      </trkpt>
      <trkpt lat="43.74906" lon="4.8837">
        <ele>262.58</ele>
        <time>2024-03-28T14:31:57Z</time>
      </trkpt>
      <trkpt lat="43.74907" lon="4.88373">
        <ele>262.1</ele>
        <time>2024-03-28T14:31:58Z</time>
      </trkpt>
      <trkpt lat="43.74908" lon="4.88376">
        <ele>261.62</ele>
        <time>2024-03-28T14:31:59Z</time>
      </trkpt>
      <trkpt lat="43.74909" lon="4.88378">
        <ele>261.62</ele>
        <time>2024-03-28T14:32:00Z</time>
      </trkpt>
      <trkpt lat="43.74926" lon="4.88404">
        <ele>260.17</ele>
        <time>2024-03-28T14:32:09Z</time>
      </trkpt>
      <trkpt lat="43.74935" lon="4.88443">
        <ele>258.25</ele>
        <time>2024-03-28T14:32:19Z</time>
      </trkpt>
      <trkpt lat="43.74935" lon="4.88451">
        <ele>256.81</ele>
        <time>2024-03-28T14:32:20Z</time>
      </trkpt>
      <trkpt lat="43.74934" lon="4.88459">
        <ele>256.81</ele>
        <time>2024-03-28T14:32:21Z</time>
      </trkpt>
      <trkpt lat="43.74929" lon="4.88497">
        <ele>252.96</ele>
        <time>2024-03-28T14:32:25Z</time>
      </trkpt>
      <trkpt lat="43.74929" lon="4.88506">
        <ele>252</ele>
        <time>2024-03-28T14:32:26Z</time>
      </trkpt>
      <trkpt lat="43.7493" lon="4.88516">
        <ele>250.56</ele>
        <time>2024-03-28T14:32:27Z</time>
      </trkpt>
      <trkpt lat="43.74932" lon="4.88525">
        <ele>250.08</ele>
        <time>2024-03-28T14:32:28Z</time>
      </trkpt>
      <trkpt lat="43.74935" lon="4.88533">
        <ele>249.6</ele>
        <time>2024-03-28T14:32:29Z</time>
      </trkpt>
      <trkpt lat="43.74939" lon="4.88539">
        <ele>248.64</ele>
        <time>2024-03-28T14:32:30Z</time>
      </trkpt>
      <trkpt lat="43.74945" lon="4.88548">
        <ele>248.16</ele>
        <time>2024-03-28T14:32:31Z</time>
      </trkpt>
      <trkpt lat="43.74949" lon="4.88556">
        <ele>248.16</ele>
        <time>2024-03-28T14:32:32Z</time>
      </trkpt>
      <trkpt lat="43.74952" lon="4.88561">
        <ele>248.16</ele>
        <time>2024-03-28T14:32:33Z</time>
      </trkpt>
      <trkpt lat="43.74954" lon="4.88569">
        <ele>247.2</ele>
        <time>2024-03-28T14:32:34Z</time>
      </trkpt>
      <trkpt lat="43.74954" lon="4.88577">
        <ele>247.2</ele>
        <time>2024-03-28T14:32:35Z</time>
      </trkpt>
      <trkpt lat="43.74953" lon="4.88583">
        <ele>247.2</ele>
        <time>2024-03-28T14:32:36Z</time>
      </trkpt>
      <trkpt lat="43.74952" lon="4.88588">
        <ele>247.2</ele>
        <time>2024-03-28T14:32:37Z</time>
      </trkpt>
      <trkpt lat="43.7495" lon="4.88594">
        <ele>248.64</ele>
        <time>2024-03-28T14:32:38Z</time>
      </trkpt>
      <trkpt lat="43.74948" lon="4.88599">
        <ele>249.12</ele>
        <time>2024-03-28T14:32:39Z</time>
      </trkpt>
      <trkpt lat="43.74946" lon="4.88605">
        <ele>249.12</ele>
        <time>2024-03-28T14:32:40Z</time>
      </trkpt>
      <trkpt lat="43.74913" lon="4.88653">
        <ele>252</ele>
        <time>2024-03-28T14:32:52Z</time>
      </trkpt>
      <trkpt lat="43.7491" lon="4.88658">
        <ele>252</ele>
        <time>2024-03-28T14:32:53Z</time>
      </trkpt>
      <trkpt lat="43.74909" lon="4.88663">
        <ele>252</ele>
        <time>2024-03-28T14:32:54Z</time>
      </trkpt>
      <trkpt lat="43.74907" lon="4.88668">
        <ele>252.48</ele>
        <time>2024-03-28T14:32:55Z</time>
      </trkpt>
      <trkpt lat="43.74906" lon="4.88673">
        <ele>252.48</ele>
        <time>2024-03-28T14:32:56Z</time>
      </trkpt>
      <trkpt lat="43.74903" lon="4.88693">
        <ele>252.48</ele>
        <time>2024-03-28T14:33:00Z</time>
      </trkpt>
      <trkpt lat="43.74903" lon="4.88699">
        <ele>252.48</ele>
        <time>2024-03-28T14:33:01Z</time>
      </trkpt>
      <trkpt lat="43.74904" lon="4.88705">
        <ele>252.48</ele>
        <time>2024-03-28T14:33:02Z</time>
      </trkpt>
      <trkpt lat="43.74905" lon="4.88712">
        <ele>251.04</ele>
        <time>2024-03-28T14:33:03Z</time>
      </trkpt>
      <trkpt lat="43.74907" lon="4.88718">
        <ele>250.08</ele>
        <time>2024-03-28T14:33:04Z</time>
      </trkpt>
      <trkpt lat="43.74909" lon="4.88724">
        <ele>249.6</ele>
        <time>2024-03-28T14:33:05Z</time>
      </trkpt>
      <trkpt lat="43.74912" lon="4.8873">
        <ele>249.6</ele>
        <time>2024-03-28T14:33:06Z</time>
      </trkpt>
      <trkpt lat="43.74917" lon="4.88743">
        <ele>249.12</ele>
        <time>2024-03-28T14:33:08Z</time>
      </trkpt>
      <trkpt lat="43.74925" lon="4.88766">
        <ele>247.2</ele>
        <time>2024-03-28T14:33:11Z</time>
      </trkpt>
      <trkpt lat="43.74927" lon="4.88775">
        <ele>246.23</ele>
        <time>2024-03-28T14:33:12Z</time>
      </trkpt>
      <trkpt lat="43.74937" lon="4.88825">
        <ele>242.39</ele>
        <time>2024-03-28T14:33:17Z</time>
      </trkpt>
      <trkpt lat="43.74946" lon="4.88856">
        <ele>239.51</ele>
        <time>2024-03-28T14:33:20Z</time>
      </trkpt>
      <trkpt lat="43.74953" lon="4.88888">
        <ele>235.66</ele>
        <time>2024-03-28T14:33:23Z</time>
      </trkpt>
      <trkpt lat="43.74958" lon="4.88921">
        <ele>233.26</ele>
        <time>2024-03-28T14:33:26Z</time>
      </trkpt>
      <trkpt lat="43.74959" lon="4.88931">
        <ele>231.81</ele>
        <time>2024-03-28T14:33:27Z</time>
      </trkpt>
      <trkpt lat="43.7496" lon="4.88951">
        <ele>230.85</ele>
        <time>2024-03-28T14:33:29Z</time>
      </trkpt>
      <trkpt lat="43.74961" lon="4.88961">
        <ele>229.89</ele>
        <time>2024-03-28T14:33:30Z</time>
      </trkpt>
      <trkpt lat="43.74963" lon="4.88971">
        <ele>228.93</ele>
        <time>2024-03-28T14:33:31Z</time>
      </trkpt>
      <trkpt lat="43.74966" lon="4.8898">
        <ele>227.49</ele>
        <time>2024-03-28T14:33:32Z</time>
      </trkpt>
      <trkpt lat="43.74969" lon="4.88989">
        <ele>227.01</ele>
        <time>2024-03-28T14:33:33Z</time>
      </trkpt>
      <trkpt lat="43.74973" lon="4.88998">
        <ele>225.57</ele>
        <time>2024-03-28T14:33:34Z</time>
      </trkpt>
      <trkpt lat="43.74977" lon="4.89006">
        <ele>225.09</ele>
        <time>2024-03-28T14:33:35Z</time>
      </trkpt>
      <trkpt lat="43.74982" lon="4.89014">
        <ele>224.12</ele>
        <time>2024-03-28T14:33:36Z</time>
      </trkpt>
      <trkpt lat="43.74987" lon="4.89021">
        <ele>223.16</ele>
        <time>2024-03-28T14:33:37Z</time>
      </trkpt>
      <trkpt lat="43.74991" lon="4.89027">
        <ele>222.2</ele>
        <time>2024-03-28T14:33:38Z</time>
      </trkpt>
      <trkpt lat="43.74995" lon="4.89034">
        <ele>221.72</ele>
        <time>2024-03-28T14:33:39Z</time>
      </trkpt>
      <trkpt lat="43.74996" lon="4.89041">
        <ele>221.24</ele>
        <time>2024-03-28T14:33:40Z</time>
      </trkpt>
      <trkpt lat="43.74996" lon="4.89047">
        <ele>220.76</ele>
        <time>2024-03-28T14:33:41Z</time>
      </trkpt>
      <trkpt lat="43.74994" lon="4.89053">
        <ele>220.28</ele>
        <time>2024-03-28T14:33:42Z</time>
      </trkpt>
      <trkpt lat="43.7499" lon="4.89057">
        <ele>220.28</ele>
        <time>2024-03-28T14:33:43Z</time>
      </trkpt>
      <trkpt lat="43.74987" lon="4.89059">
        <ele>220.28</ele>
        <time>2024-03-28T14:33:44Z</time>
      </trkpt>
      <trkpt lat="43.74983" lon="4.89061">
        <ele>220.76</ele>
        <time>2024-03-28T14:33:45Z</time>
      </trkpt>
      <trkpt lat="43.74951" lon="4.8908">
        <ele>220.76</ele>
        <time>2024-03-28T14:33:54Z</time>
      </trkpt>
      <trkpt lat="43.74942" lon="4.89081">
        <ele>220.76</ele>
        <time>2024-03-28T14:33:56Z</time>
      </trkpt>
      <trkpt lat="43.74938" lon="4.8908">
        <ele>220.76</ele>
        <time>2024-03-28T14:33:57Z</time>
      </trkpt>
      <trkpt lat="43.74934" lon="4.89079">
        <ele>220.76</ele>
        <time>2024-03-28T14:33:58Z</time>
      </trkpt>
      <trkpt lat="43.7492" lon="4.89073">
        <ele>219.8</ele>
        <time>2024-03-28T14:34:01Z</time>
      </trkpt>
      <trkpt lat="43.74916" lon="4.89069">
        <ele>219.32</ele>
        <time>2024-03-28T14:34:02Z</time>
      </trkpt>
      <trkpt lat="43.74911" lon="4.89065">
        <ele>218.84</ele>
        <time>2024-03-28T14:34:03Z</time>
      </trkpt>
      <trkpt lat="43.74897" lon="4.89051">
        <ele>217.88</ele>
        <time>2024-03-28T14:34:06Z</time>
      </trkpt>
      <trkpt lat="43.74891" lon="4.89047">
        <ele>217.88</ele>
        <time>2024-03-28T14:34:07Z</time>
      </trkpt>
      <trkpt lat="43.74886" lon="4.89046">
        <ele>217.4</ele>
        <time>2024-03-28T14:34:08Z</time>
      </trkpt>
      <trkpt lat="43.7488" lon="4.89047">
        <ele>217.4</ele>
        <time>2024-03-28T14:34:09Z</time>
      </trkpt>
      <trkpt lat="43.74876" lon="4.89049">
        <ele>217.4</ele>
        <time>2024-03-28T14:34:10Z</time>
      </trkpt>
      <trkpt lat="43.74871" lon="4.8905">
        <ele>217.4</ele>
        <time>2024-03-28T14:34:11Z</time>
      </trkpt>
      <trkpt lat="43.74866" lon="4.89052">
        <ele>217.4</ele>
        <time>2024-03-28T14:34:12Z</time>
      </trkpt>
      <trkpt lat="43.74861" lon="4.89052">
        <ele>217.4</ele>
        <time>2024-03-28T14:34:13Z</time>
      </trkpt>
      <trkpt lat="43.74857" lon="4.89052">
        <ele>217.4</ele>
        <time>2024-03-28T14:34:14Z</time>
      </trkpt>
      <trkpt lat="43.74835" lon="4.89048">
        <ele>218.84</ele>
        <time>2024-03-28T14:34:20Z</time>
      </trkpt>
      <trkpt lat="43.74807" lon="4.89058">
        <ele>220.76</ele>
        <time>2024-03-28T14:34:28Z</time>
      </trkpt>
      <trkpt lat="43.74769" lon="4.89098">
        <ele>222.2</ele>
        <time>2024-03-28T14:34:41Z</time>
      </trkpt>
      <trkpt lat="43.7476" lon="4.89134">
        <ele>224.61</ele>
        <time>2024-03-28T14:34:51Z</time>
      </trkpt>
      <trkpt lat="43.74767" lon="4.89182">
        <ele>225.09</ele>
        <time>2024-03-28T14:35:03Z</time>
      </trkpt>
      <trkpt lat="43.74779" lon="4.89235">
        <ele>225.09</ele>
        <time>2024-03-28T14:35:14Z</time>
      </trkpt>
      <trkpt lat="43.74778" lon="4.89241">
        <ele>223.64</ele>
        <time>2024-03-28T14:35:15Z</time>
      </trkpt>
      <trkpt lat="43.74775" lon="4.89247">
        <ele>223.16</ele>
        <time>2024-03-28T14:35:16Z</time>
      </trkpt>
      <trkpt lat="43.74771" lon="4.89253">
        <ele>223.16</ele>
        <time>2024-03-28T14:35:17Z</time>
      </trkpt>
      <trkpt lat="43.74766" lon="4.89257">
        <ele>222.2</ele>
        <time>2024-03-28T14:35:18Z</time>
      </trkpt>
      <trkpt lat="43.74761" lon="4.8926">
        <ele>221.72</ele>
        <time>2024-03-28T14:35:19Z</time>
      </trkpt>
      <trkpt lat="43.74755" lon="4.89261">
        <ele>221.72</ele>
        <time>2024-03-28T14:35:20Z</time>
      </trkpt>
      <trkpt lat="43.7475" lon="4.89261">
        <ele>221.24</ele>
        <time>2024-03-28T14:35:21Z</time>
      </trkpt>
      <trkpt lat="43.74745" lon="4.89258">
        <ele>221.24</ele>
        <time>2024-03-28T14:35:22Z</time>
      </trkpt>
      <trkpt lat="43.7474" lon="4.89256">
        <ele>221.24</ele>
        <time>2024-03-28T14:35:23Z</time>
      </trkpt>
      <trkpt lat="43.74736" lon="4.89256">
        <ele>221.24</ele>
        <time>2024-03-28T14:35:24Z</time>
      </trkpt>
      <trkpt lat="43.74731" lon="4.89257">
        <ele>221.24</ele>
        <time>2024-03-28T14:35:25Z</time>
      </trkpt>
      <trkpt lat="43.74728" lon="4.89259">
        <ele>221.24</ele>
        <time>2024-03-28T14:35:26Z</time>
      </trkpt>
      <trkpt lat="43.74724" lon="4.89263">
        <ele>221.24</ele>
        <time>2024-03-28T14:35:27Z</time>
      </trkpt>
      <trkpt lat="43.74722" lon="4.89267">
        <ele>221.24</ele>
        <time>2024-03-28T14:35:28Z</time>
      </trkpt>
      <trkpt lat="43.74719" lon="4.89271">
        <ele>221.24</ele>
        <time>2024-03-28T14:35:29Z</time>
      </trkpt>
      <trkpt lat="43.74691" lon="4.89297">
        <ele>222.68</ele>
        <time>2024-03-28T14:35:38Z</time>
      </trkpt>
      <trkpt lat="43.74654" lon="4.89323">
        <ele>223.16</ele>
        <time>2024-03-28T14:35:49Z</time>
      </trkpt>
      <trkpt lat="43.74625" lon="4.89355">
        <ele>225.09</ele>
        <time>2024-03-28T14:36:00Z</time>
      </trkpt>
      <trkpt lat="43.74592" lon="4.8939">
        <ele>227.49</ele>
        <time>2024-03-28T14:36:13Z</time>
      </trkpt>
      <trkpt lat="43.74565" lon="4.89429">
        <ele>227.01</ele>
        <time>2024-03-28T14:36:24Z</time>
      </trkpt>
      <trkpt lat="43.74554" lon="4.89446">
        <ele>227.01</ele>
        <time>2024-03-28T14:36:28Z</time>
      </trkpt>
      <trkpt lat="43.74542" lon="4.89485">
        <ele>227.01</ele>
        <time>2024-03-28T14:36:37Z</time>
      </trkpt>
      <trkpt lat="43.74537" lon="4.89525">
        <ele>225.57</ele>
        <time>2024-03-28T14:36:43Z</time>
      </trkpt>
      <trkpt lat="43.74535" lon="4.89551">
        <ele>223.64</ele>
        <time>2024-03-28T14:36:46Z</time>
      </trkpt>
      <trkpt lat="43.74533" lon="4.89561">
        <ele>222.68</ele>
        <time>2024-03-28T14:36:47Z</time>
      </trkpt>
      <trkpt lat="43.7453" lon="4.89571">
        <ele>221.72</ele>
        <time>2024-03-28T14:36:48Z</time>
      </trkpt>
      <trkpt lat="43.74526" lon="4.8958">
        <ele>220.76</ele>
        <time>2024-03-28T14:36:49Z</time>
      </trkpt>
      <trkpt lat="43.74522" lon="4.89588">
        <ele>220.76</ele>
        <time>2024-03-28T14:36:50Z</time>
      </trkpt>
      <trkpt lat="43.74518" lon="4.89594">
        <ele>220.76</ele>
        <time>2024-03-28T14:36:51Z</time>
      </trkpt>
      <trkpt lat="43.74514" lon="4.896">
        <ele>220.76</ele>
        <time>2024-03-28T14:36:52Z</time>
      </trkpt>
      <trkpt lat="43.7451" lon="4.89605">
        <ele>220.76</ele>
        <time>2024-03-28T14:36:53Z</time>
      </trkpt>
      <trkpt lat="43.74506" lon="4.89609">
        <ele>220.76</ele>
        <time>2024-03-28T14:36:54Z</time>
      </trkpt>
      <trkpt lat="43.74501" lon="4.89612">
        <ele>221.24</ele>
        <time>2024-03-28T14:36:55Z</time>
      </trkpt>
      <trkpt lat="43.74496" lon="4.89615">
        <ele>221.24</ele>
        <time>2024-03-28T14:36:56Z</time>
      </trkpt>
      <trkpt lat="43.74493" lon="4.89616">
        <ele>221.24</ele>
        <time>2024-03-28T14:36:57Z</time>
      </trkpt>
      <trkpt lat="43.74477" lon="4.89625">
        <ele>222.68</ele>
        <time>2024-03-28T14:37:01Z</time>
      </trkpt>
      <trkpt lat="43.74461" lon="4.89659">
        <ele>224.61</ele>
        <time>2024-03-28T14:37:09Z</time>
      </trkpt>
      <trkpt lat="43.74444" lon="4.89707">
        <ele>227.49</ele>
        <time>2024-03-28T14:37:20Z</time>
      </trkpt>
      <trkpt lat="43.74423" lon="4.8975">
        <ele>229.41</ele>
        <time>2024-03-28T14:37:31Z</time>
      </trkpt>
      <trkpt lat="43.7441" lon="4.89808">
        <ele>232.3</ele>
        <time>2024-03-28T14:37:44Z</time>
      </trkpt>
      <trkpt lat="43.74403" lon="4.89847">
        <ele>235.18</ele>
        <time>2024-03-28T14:37:53Z</time>
      </trkpt>
      <trkpt lat="43.744" lon="4.89889">
        <ele>237.58</ele>
        <time>2024-03-28T14:38:04Z</time>
      </trkpt>
      <trkpt lat="43.74401" lon="4.89899">
        <ele>238.06</ele>
        <time>2024-03-28T14:38:13Z</time>
      </trkpt>
      <trkpt lat="43.74399" lon="4.89902">
        <ele>238.06</ele>
        <time>2024-03-28T14:38:32Z</time>
      </trkpt>
      <trkpt lat="43.74401" lon="4.89899">
        <ele>238.06</ele>
        <time>2024-03-28T14:38:50Z</time>
      </trkpt>
      <trkpt lat="43.74399" lon="4.89902">
        <ele>238.06</ele>
        <time>2024-03-28T14:39:09Z</time>
      </trkpt>
      <trkpt lat="43.74399" lon="4.899">
        <ele>239.02</ele>
        <time>2024-03-28T14:39:31Z</time>
      </trkpt>
      <trkpt lat="43.74398" lon="4.89903">
        <ele>239.02</ele>
        <time>2024-03-28T14:39:53Z</time>
      </trkpt>
      <trkpt lat="43.74398" lon="4.89905">
        <ele>239.02</ele>
        <time>2024-03-28T14:39:54Z</time>
      </trkpt>
      <trkpt lat="43.74402" lon="4.89923">
        <ele>238.06</ele>
        <time>2024-03-28T14:40:00Z</time>
      </trkpt>
      <trkpt lat="43.74406" lon="4.8998">
        <ele>234.7</ele>
        <time>2024-03-28T14:40:09Z</time>
      </trkpt>
      <trkpt lat="43.74415" lon="4.90041">
        <ele>231.33</ele>
        <time>2024-03-28T14:40:16Z</time>
      </trkpt>
      <trkpt lat="43.74419" lon="4.9007">
        <ele>229.41</ele>
        <time>2024-03-28T14:40:19Z</time>
      </trkpt>
      <trkpt lat="43.74421" lon="4.90091">
        <ele>227.97</ele>
        <time>2024-03-28T14:40:21Z</time>
      </trkpt>
      <trkpt lat="43.74422" lon="4.90102">
        <ele>227.01</ele>
        <time>2024-03-28T14:40:22Z</time>
      </trkpt>
      <trkpt lat="43.74421" lon="4.90109">
        <ele>227.01</ele>
        <time>2024-03-28T14:40:23Z</time>
      </trkpt>
      <trkpt lat="43.74419" lon="4.90117">
        <ele>227.01</ele>
        <time>2024-03-28T14:40:24Z</time>
      </trkpt>
      <trkpt lat="43.74416" lon="4.90124">
        <ele>227.01</ele>
        <time>2024-03-28T14:40:25Z</time>
      </trkpt>
      <trkpt lat="43.74407" lon="4.90149">
        <ele>226.05</ele>
        <time>2024-03-28T14:40:28Z</time>
      </trkpt>
      <trkpt lat="43.74405" lon="4.90158">
        <ele>225.57</ele>
        <time>2024-03-28T14:40:29Z</time>
      </trkpt>
      <trkpt lat="43.74387" lon="4.90213">
        <ele>221.72</ele>
        <time>2024-03-28T14:40:35Z</time>
      </trkpt>
      <trkpt lat="43.74385" lon="4.90223">
        <ele>221.72</ele>
        <time>2024-03-28T14:40:36Z</time>
      </trkpt>
      <trkpt lat="43.74377" lon="4.90277">
        <ele>219.8</ele>
        <time>2024-03-28T14:40:41Z</time>
      </trkpt>
      <trkpt lat="43.74377" lon="4.90288">
        <ele>218.84</ele>
        <time>2024-03-28T14:40:42Z</time>
      </trkpt>
      <trkpt lat="43.7438" lon="4.90335">
        <ele>218.36</ele>
        <time>2024-03-28T14:40:47Z</time>
      </trkpt>
      <trkpt lat="43.74382" lon="4.90342">
        <ele>218.36</ele>
        <time>2024-03-28T14:40:48Z</time>
      </trkpt>
      <trkpt lat="43.74404" lon="4.90408">
        <ele>218.84</ele>
        <time>2024-03-28T14:40:58Z</time>
      </trkpt>
      <trkpt lat="43.74408" lon="4.9042">
        <ele>218.36</ele>
        <time>2024-03-28T14:41:00Z</time>
      </trkpt>
      <trkpt lat="43.74409" lon="4.90427">
        <ele>218.36</ele>
        <time>2024-03-28T14:41:01Z</time>
      </trkpt>
      <trkpt lat="43.74409" lon="4.90435">
        <ele>217.4</ele>
        <time>2024-03-28T14:41:02Z</time>
      </trkpt>
      <trkpt lat="43.74408" lon="4.90441">
        <ele>217.4</ele>
        <time>2024-03-28T14:41:03Z</time>
      </trkpt>
      <trkpt lat="43.74406" lon="4.90448">
        <ele>217.4</ele>
        <time>2024-03-28T14:41:04Z</time>
      </trkpt>
      <trkpt lat="43.74404" lon="4.90454">
        <ele>217.4</ele>
        <time>2024-03-28T14:41:05Z</time>
      </trkpt>
      <trkpt lat="43.74401" lon="4.9046">
        <ele>217.4</ele>
        <time>2024-03-28T14:41:06Z</time>
      </trkpt>
      <trkpt lat="43.74398" lon="4.90466">
        <ele>216.91</ele>
        <time>2024-03-28T14:41:07Z</time>
      </trkpt>
      <trkpt lat="43.74394" lon="4.90472">
        <ele>216.91</ele>
        <time>2024-03-28T14:41:08Z</time>
      </trkpt>
      <trkpt lat="43.74379" lon="4.90504">
        <ele>216.43</ele>
        <time>2024-03-28T14:41:14Z</time>
      </trkpt>
      <trkpt lat="43.74368" lon="4.90529">
        <ele>216.43</ele>
        <time>2024-03-28T14:41:22Z</time>
      </trkpt>
      <trkpt lat="43.74367" lon="4.90531">
        <ele>216.43</ele>
        <time>2024-03-28T14:41:33Z</time>
      </trkpt>
      <trkpt lat="43.74368" lon="4.90536">
        <ele>215.95</ele>
        <time>2024-03-28T14:41:49Z</time>
      </trkpt>
      <trkpt lat="43.74369" lon="4.90537">
        <ele>215.95</ele>
        <time>2024-03-28T14:41:58Z</time>
      </trkpt>
      <trkpt lat="43.7437" lon="4.90539">
        <ele>215.95</ele>
        <time>2024-03-28T14:42:11Z</time>
      </trkpt>
      <trkpt lat="43.74371" lon="4.90543">
        <ele>215.95</ele>
        <time>2024-03-28T14:42:18Z</time>
      </trkpt>
      <trkpt lat="43.74371" lon="4.90545">
        <ele>215.95</ele>
        <time>2024-03-28T14:42:19Z</time>
      </trkpt>
      <trkpt lat="43.74374" lon="4.90571">
        <ele>215.95</ele>
        <time>2024-03-28T14:42:29Z</time>
      </trkpt>
      <trkpt lat="43.74379" lon="4.90591">
        <ele>216.91</ele>
        <time>2024-03-28T14:42:36Z</time>
      </trkpt>
      <trkpt lat="43.74379" lon="4.90593">
        <ele>216.91</ele>
        <time>2024-03-28T14:42:37Z</time>
      </trkpt>
      <trkpt lat="43.74386" lon="4.90628">
        <ele>215.47</ele>
        <time>2024-03-28T14:42:48Z</time>
      </trkpt>
      <trkpt lat="43.74386" lon="4.90633">
        <ele>215.47</ele>
        <time>2024-03-28T14:42:49Z</time>
      </trkpt>
      <trkpt lat="43.74395" lon="4.90681">
        <ele>212.59</ele>
        <time>2024-03-28T14:42:59Z</time>
      </trkpt>
      <trkpt lat="43.74396" lon="4.90693">
        <ele>212.59</ele>
        <time>2024-03-28T14:43:06Z</time>
      </trkpt>
      <trkpt lat="43.74388" lon="4.907">
        <ele>211.15</ele>
        <time>2024-03-28T14:43:13Z</time>
      </trkpt>
      <trkpt lat="43.7438" lon="4.90712">
        <ele>207.78</ele>
        <time>2024-03-28T14:43:16Z</time>
      </trkpt>
      <trkpt lat="43.74378" lon="4.90717">
        <ele>206.82</ele>
        <time>2024-03-28T14:43:18Z</time>
      </trkpt>
      <trkpt lat="43.74378" lon="4.90721">
        <ele>207.3</ele>
        <time>2024-03-28T14:43:29Z</time>
      </trkpt>
      <trkpt lat="43.74377" lon="4.90723">
        <ele>206.82</ele>
        <time>2024-03-28T14:43:52Z</time>
      </trkpt>
      <trkpt lat="43.74375" lon="4.90721">
        <ele>206.82</ele>
        <time>2024-03-28T14:44:08Z</time>
      </trkpt>
      <trkpt lat="43.74376" lon="4.90718">
        <ele>206.82</ele>
        <time>2024-03-28T14:44:25Z</time>
      </trkpt>
      <trkpt lat="43.74375" lon="4.90728">
        <ele>206.34</ele>
        <time>2024-03-28T14:44:35Z</time>
      </trkpt>
      <trkpt lat="43.7437" lon="4.90757">
        <ele>206.82</ele>
        <time>2024-03-28T14:44:44Z</time>
      </trkpt>
      <trkpt lat="43.74369" lon="4.90782">
        <ele>205.38</ele>
        <time>2024-03-28T14:44:50Z</time>
      </trkpt>
      <trkpt lat="43.74365" lon="4.90838">
        <ele>202.01</ele>
        <time>2024-03-28T14:45:00Z</time>
      </trkpt>
      <trkpt lat="43.7436" lon="4.90888">
        <ele>201.53</ele>
        <time>2024-03-28T14:45:10Z</time>
      </trkpt>
      <trkpt lat="43.7436" lon="4.90937">
        <ele>199.13</ele>
        <time>2024-03-28T14:45:19Z</time>
      </trkpt>
      <trkpt lat="43.7436" lon="4.90971">
        <ele>197.69</ele>
        <time>2024-03-28T14:45:25Z</time>
      </trkpt>
      <trkpt lat="43.7436" lon="4.90977">
        <ele>197.21</ele>
        <time>2024-03-28T14:45:26Z</time>
      </trkpt>
      <trkpt lat="43.74361" lon="4.90982">
        <ele>197.21</ele>
        <time>2024-03-28T14:45:27Z</time>
      </trkpt>
      <trkpt lat="43.74367" lon="4.91024">
        <ele>196.73</ele>
        <time>2024-03-28T14:45:37Z</time>
      </trkpt>
      <trkpt lat="43.74366" lon="4.91041">
        <ele>195.28</ele>
        <time>2024-03-28T14:45:40Z</time>
      </trkpt>
      <trkpt lat="43.74361" lon="4.91064">
        <ele>194.32</ele>
        <time>2024-03-28T14:45:44Z</time>
      </trkpt>
      <trkpt lat="43.74361" lon="4.91071">
        <ele>194.32</ele>
        <time>2024-03-28T14:45:45Z</time>
      </trkpt>
      <trkpt lat="43.74361" lon="4.91077">
        <ele>194.32</ele>
        <time>2024-03-28T14:45:46Z</time>
      </trkpt>
      <trkpt lat="43.7436" lon="4.91132">
        <ele>191.92</ele>
        <time>2024-03-28T14:45:55Z</time>
      </trkpt>
      <trkpt lat="43.74362" lon="4.9115">
        <ele>191.92</ele>
        <time>2024-03-28T14:45:58Z</time>
      </trkpt>
      <trkpt lat="43.74363" lon="4.91162">
        <ele>191.44</ele>
        <time>2024-03-28T14:46:00Z</time>
      </trkpt>
      <trkpt lat="43.74364" lon="4.91168">
        <ele>191.44</ele>
        <time>2024-03-28T14:46:01Z</time>
      </trkpt>
      <trkpt lat="43.74371" lon="4.9119">
        <ele>189.04</ele>
        <time>2024-03-28T14:46:05Z</time>
      </trkpt>
      <trkpt lat="43.74372" lon="4.91196">
        <ele>188.56</ele>
        <time>2024-03-28T14:46:06Z</time>
      </trkpt>
      <trkpt lat="43.74379" lon="4.91241">
        <ele>187.11</ele>
        <time>2024-03-28T14:46:14Z</time>
      </trkpt>
      <trkpt lat="43.74381" lon="4.91246">
        <ele>186.63</ele>
        <time>2024-03-28T14:46:15Z</time>
      </trkpt>
      <trkpt lat="43.74382" lon="4.91253">
        <ele>186.15</ele>
        <time>2024-03-28T14:46:16Z</time>
      </trkpt>
      <trkpt lat="43.74389" lon="4.91297">
        <ele>184.71</ele>
        <time>2024-03-28T14:46:24Z</time>
      </trkpt>
      <trkpt lat="43.74393" lon="4.91366">
        <ele>182.79</ele>
        <time>2024-03-28T14:46:36Z</time>
      </trkpt>
      <trkpt lat="43.74395" lon="4.91384">
        <ele>181.83</ele>
        <time>2024-03-28T14:46:39Z</time>
      </trkpt>
      <trkpt lat="43.74398" lon="4.91435">
        <ele>179.9</ele>
        <time>2024-03-28T14:46:48Z</time>
      </trkpt>
      <trkpt lat="43.74399" lon="4.91441">
        <ele>179.42</ele>
        <time>2024-03-28T14:46:49Z</time>
      </trkpt>
      <trkpt lat="43.74399" lon="4.91447">
        <ele>179.42</ele>
        <time>2024-03-28T14:46:50Z</time>
      </trkpt>
      <trkpt lat="43.744" lon="4.91494">
        <ele>178.46</ele>
        <time>2024-03-28T14:46:58Z</time>
      </trkpt>
      <trkpt lat="43.744" lon="4.915">
        <ele>177.98</ele>
        <time>2024-03-28T14:46:59Z</time>
      </trkpt>
      <trkpt lat="43.74399" lon="4.91536">
        <ele>176.54</ele>
        <time>2024-03-28T14:47:07Z</time>
      </trkpt>
      <trkpt lat="43.74398" lon="4.9155">
        <ele>176.06</ele>
        <time>2024-03-28T14:47:15Z</time>
      </trkpt>
      <trkpt lat="43.74399" lon="4.9156">
        <ele>176.06</ele>
        <time>2024-03-28T14:47:26Z</time>
      </trkpt>
      <trkpt lat="43.74402" lon="4.91612">
        <ele>174.14</ele>
        <time>2024-03-28T14:47:36Z</time>
      </trkpt>
      <trkpt lat="43.74404" lon="4.91641">
        <ele>173.66</ele>
        <time>2024-03-28T14:47:41Z</time>
      </trkpt>
      <trkpt lat="43.74413" lon="4.91698">
        <ele>171.73</ele>
        <time>2024-03-28T14:47:51Z</time>
      </trkpt>
      <trkpt lat="43.74416" lon="4.91758">
        <ele>169.81</ele>
        <time>2024-03-28T14:48:01Z</time>
      </trkpt>
      <trkpt lat="43.74413" lon="4.91766">
        <ele>170.77</ele>
        <time>2024-03-28T14:48:04Z</time>
      </trkpt>
      <trkpt lat="43.74409" lon="4.91787">
        <ele>170.77</ele>
        <time>2024-03-28T14:48:08Z</time>
      </trkpt>
      <trkpt lat="43.74409" lon="4.91801">
        <ele>169.33</ele>
        <time>2024-03-28T14:48:10Z</time>
      </trkpt>
      <trkpt lat="43.74408" lon="4.91831">
        <ele>167.89</ele>
        <time>2024-03-28T14:48:14Z</time>
      </trkpt>
      <trkpt lat="43.74405" lon="4.91846">
        <ele>167.41</ele>
        <time>2024-03-28T14:48:16Z</time>
      </trkpt>
      <trkpt lat="43.7438" lon="4.91924">
        <ele>165</ele>
        <time>2024-03-28T14:48:27Z</time>
      </trkpt>
      <trkpt lat="43.74379" lon="4.91933">
        <ele>165</ele>
        <time>2024-03-28T14:48:28Z</time>
      </trkpt>
      <trkpt lat="43.74378" lon="4.91941">
        <ele>164.04</ele>
        <time>2024-03-28T14:48:29Z</time>
      </trkpt>
      <trkpt lat="43.74378" lon="4.91993">
        <ele>163.08</ele>
        <time>2024-03-28T14:48:35Z</time>
      </trkpt>
      <trkpt lat="43.74379" lon="4.92001">
        <ele>163.08</ele>
        <time>2024-03-28T14:48:36Z</time>
      </trkpt>
      <trkpt lat="43.74381" lon="4.92009">
        <ele>163.08</ele>
        <time>2024-03-28T14:48:37Z</time>
      </trkpt>
      <trkpt lat="43.74384" lon="4.92017">
        <ele>162.12</ele>
        <time>2024-03-28T14:48:38Z</time>
      </trkpt>
      <trkpt lat="43.74387" lon="4.92024">
        <ele>162.12</ele>
        <time>2024-03-28T14:48:39Z</time>
      </trkpt>
      <trkpt lat="43.74391" lon="4.92031">
        <ele>162.12</ele>
        <time>2024-03-28T14:48:40Z</time>
      </trkpt>
      <trkpt lat="43.74396" lon="4.92037">
        <ele>161.64</ele>
        <time>2024-03-28T14:48:41Z</time>
      </trkpt>
      <trkpt lat="43.74401" lon="4.92043">
        <ele>161.64</ele>
        <time>2024-03-28T14:48:42Z</time>
      </trkpt>
      <trkpt lat="43.74407" lon="4.92048">
        <ele>161.64</ele>
        <time>2024-03-28T14:48:43Z</time>
      </trkpt>
      <trkpt lat="43.74412" lon="4.92052">
        <ele>161.16</ele>
        <time>2024-03-28T14:48:44Z</time>
      </trkpt>
      <trkpt lat="43.74419" lon="4.92056">
        <ele>161.16</ele>
        <time>2024-03-28T14:48:45Z</time>
      </trkpt>
      <trkpt lat="43.74425" lon="4.92058">
        <ele>160.2</ele>
        <time>2024-03-28T14:48:46Z</time>
      </trkpt>
      <trkpt lat="43.74432" lon="4.9206">
        <ele>160.2</ele>
        <time>2024-03-28T14:48:47Z</time>
      </trkpt>
      <trkpt lat="43.74452" lon="4.92064">
        <ele>159.24</ele>
        <time>2024-03-28T14:48:50Z</time>
      </trkpt>
      <trkpt lat="43.74539" lon="4.92075">
        <ele>155.87</ele>
        <time>2024-03-28T14:49:03Z</time>
      </trkpt>
      <trkpt lat="43.74615" lon="4.92086">
        <ele>154.91</ele>
        <time>2024-03-28T14:49:16Z</time>
      </trkpt>
      <trkpt lat="43.7463" lon="4.9209">
        <ele>154.91</ele>
        <time>2024-03-28T14:49:19Z</time>
      </trkpt>
      <trkpt lat="43.74635" lon="4.92092">
        <ele>154.91</ele>
        <time>2024-03-28T14:49:20Z</time>
      </trkpt>
      <trkpt lat="43.74639" lon="4.92094">
        <ele>154.91</ele>
        <time>2024-03-28T14:49:21Z</time>
      </trkpt>
      <trkpt lat="43.74643" lon="4.92097">
        <ele>154.91</ele>
        <time>2024-03-28T14:49:22Z</time>
      </trkpt>
      <trkpt lat="43.74646" lon="4.921">
        <ele>154.91</ele>
        <time>2024-03-28T14:49:23Z</time>
      </trkpt>
      <trkpt lat="43.7465" lon="4.92104">
        <ele>154.91</ele>
        <time>2024-03-28T14:49:24Z</time>
      </trkpt>
      <trkpt lat="43.74653" lon="4.92107">
        <ele>154.91</ele>
        <time>2024-03-28T14:49:25Z</time>
      </trkpt>
      <trkpt lat="43.74672" lon="4.92127">
        <ele>154.91</ele>
        <time>2024-03-28T14:49:33Z</time>
      </trkpt>
      <trkpt lat="43.74696" lon="4.92137">
        <ele>156.83</ele>
        <time>2024-03-28T14:49:42Z</time>
      </trkpt>
      <trkpt lat="43.74699" lon="4.92142">
        <ele>157.79</ele>
        <time>2024-03-28T14:49:49Z</time>
      </trkpt>
      <trkpt lat="43.74701" lon="4.92142">
        <ele>157.79</ele>
        <time>2024-03-28T14:50:11Z</time>
      </trkpt>
      <trkpt lat="43.74701" lon="4.92141">
        <ele>158.27</ele>
        <time>2024-03-28T14:50:32Z</time>
      </trkpt>
      <trkpt lat="43.747" lon="4.92141">
        <ele>158.27</ele>
        <time>2024-03-28T14:50:50Z</time>
      </trkpt>
      <trkpt lat="43.74702" lon="4.92142">
        <ele>158.27</ele>
        <time>2024-03-28T14:50:57Z</time>
      </trkpt>
      <trkpt lat="43.74705" lon="4.92143">
        <ele>158.27</ele>
        <time>2024-03-28T14:51:00Z</time>
      </trkpt>
      <trkpt lat="43.74706" lon="4.92144">
        <ele>158.27</ele>
        <time>2024-03-28T14:51:01Z</time>
      </trkpt>
      <trkpt lat="43.74707" lon="4.92146">
        <ele>158.27</ele>
        <time>2024-03-28T14:51:02Z</time>
      </trkpt>
      <trkpt lat="43.74707" lon="4.92148">
        <ele>158.27</ele>
        <time>2024-03-28T14:51:03Z</time>
      </trkpt>
      <trkpt lat="43.74707" lon="4.9215">
        <ele>158.27</ele>
        <time>2024-03-28T14:51:04Z</time>
      </trkpt>
      <trkpt lat="43.74707" lon="4.92152">
        <ele>158.75</ele>
        <time>2024-03-28T14:51:05Z</time>
      </trkpt>
      <trkpt lat="43.74709" lon="4.92182">
        <ele>160.68</ele>
        <time>2024-03-28T14:51:15Z</time>
      </trkpt>
      <trkpt lat="43.74706" lon="4.9221">
        <ele>164.04</ele>
        <time>2024-03-28T14:51:23Z</time>
      </trkpt>
      <trkpt lat="43.74706" lon="4.92214">
        <ele>164.04</ele>
        <time>2024-03-28T14:51:24Z</time>
      </trkpt>
      <trkpt lat="43.74703" lon="4.9225">
        <ele>167.41</ele>
        <time>2024-03-28T14:51:34Z</time>
      </trkpt>
      <trkpt lat="43.74703" lon="4.92296">
        <ele>169.81</ele>
        <time>2024-03-28T14:51:46Z</time>
      </trkpt>
      <trkpt lat="43.74703" lon="4.92324">
        <ele>172.69</ele>
        <time>2024-03-28T14:51:54Z</time>
      </trkpt>
      <trkpt lat="43.74692" lon="4.92357">
        <ele>175.58</ele>
        <time>2024-03-28T14:52:04Z</time>
      </trkpt>
      <trkpt lat="43.74674" lon="4.92385">
        <ele>178.46</ele>
        <time>2024-03-28T14:52:14Z</time>
      </trkpt>
      <trkpt lat="43.74647" lon="4.92415">
        <ele>180.87</ele>
        <time>2024-03-28T14:52:27Z</time>
      </trkpt>
      <trkpt lat="43.74633" lon="4.92453">
        <ele>184.23</ele>
        <time>2024-03-28T14:52:39Z</time>
      </trkpt>
      <trkpt lat="43.74629" lon="4.92501">
        <ele>186.63</ele>
        <time>2024-03-28T14:52:51Z</time>
      </trkpt>
      <trkpt lat="43.74645" lon="4.92534">
        <ele>188.08</ele>
        <time>2024-03-28T14:53:01Z</time>
      </trkpt>
      <trkpt lat="43.74648" lon="4.92558">
        <ele>189.52</ele>
        <time>2024-03-28T14:53:08Z</time>
      </trkpt>
      <trkpt lat="43.74628" lon="4.92587">
        <ele>193.84</ele>
        <time>2024-03-28T14:53:18Z</time>
      </trkpt>
      <trkpt lat="43.74627" lon="4.9259">
        <ele>192.4</ele>
        <time>2024-03-28T14:53:19Z</time>
      </trkpt>
      <trkpt lat="43.74611" lon="4.92621">
        <ele>194.8</ele>
        <time>2024-03-28T14:53:29Z</time>
      </trkpt>
      <trkpt lat="43.74595" lon="4.92671">
        <ele>198.17</ele>
        <time>2024-03-28T14:53:43Z</time>
      </trkpt>
      <trkpt lat="43.74598" lon="4.92722">
        <ele>200.09</ele>
        <time>2024-03-28T14:53:56Z</time>
      </trkpt>
      <trkpt lat="43.74595" lon="4.9276">
        <ele>203.46</ele>
        <time>2024-03-28T14:54:06Z</time>
      </trkpt>
      <trkpt lat="43.74597" lon="4.92783">
        <ele>206.82</ele>
        <time>2024-03-28T14:54:12Z</time>
      </trkpt>
      <trkpt lat="43.74588" lon="4.92822">
        <ele>208.26</ele>
        <time>2024-03-28T14:54:23Z</time>
      </trkpt>
      <trkpt lat="43.74547" lon="4.92845">
        <ele>209.7</ele>
        <time>2024-03-28T14:54:36Z</time>
      </trkpt>
      <trkpt lat="43.74519" lon="4.92876">
        <ele>213.07</ele>
        <time>2024-03-28T14:54:48Z</time>
      </trkpt>
      <trkpt lat="43.74507" lon="4.9292">
        <ele>214.99</ele>
        <time>2024-03-28T14:54:58Z</time>
      </trkpt>
      <trkpt lat="43.74486" lon="4.92952">
        <ele>217.88</ele>
        <time>2024-03-28T14:55:08Z</time>
      </trkpt>
      <trkpt lat="43.74444" lon="4.92991">
        <ele>221.24</ele>
        <time>2024-03-28T14:55:24Z</time>
      </trkpt>
      <trkpt lat="43.74417" lon="4.93033">
        <ele>222.68</ele>
        <time>2024-03-28T14:55:37Z</time>
      </trkpt>
      <trkpt lat="43.7443" lon="4.93054">
        <ele>223.16</ele>
        <time>2024-03-28T14:55:44Z</time>
      </trkpt>
      <trkpt lat="43.74431" lon="4.93053">
        <ele>223.16</ele>
        <time>2024-03-28T14:55:51Z</time>
      </trkpt>
      <trkpt lat="43.74431" lon="4.93053">
        <ele>223.64</ele>
        <time>2024-03-28T14:56:14Z</time>
      </trkpt>
      <trkpt lat="43.7443" lon="4.93054">
        <ele>223.64</ele>
        <time>2024-03-28T14:56:34Z</time>
      </trkpt>
      <trkpt lat="43.7444" lon="4.93057">
        <ele>223.64</ele>
        <time>2024-03-28T14:56:43Z</time>
      </trkpt>
      <trkpt lat="43.74488" lon="4.93074">
        <ele>223.64</ele>
        <time>2024-03-28T14:56:55Z</time>
      </trkpt>
      <trkpt lat="43.7455" lon="4.93091">
        <ele>225.09</ele>
        <time>2024-03-28T14:57:11Z</time>
      </trkpt>
      <trkpt lat="43.74576" lon="4.93118">
        <ele>226.53</ele>
        <time>2024-03-28T14:57:20Z</time>
      </trkpt>
      <trkpt lat="43.74595" lon="4.93174">
        <ele>227.01</ele>
        <time>2024-03-28T14:57:32Z</time>
      </trkpt>
      <trkpt lat="43.74614" lon="4.93185">
        <ele>227.49</ele>
        <time>2024-03-28T14:57:37Z</time>
      </trkpt>
      <trkpt lat="43.74617" lon="4.93188">
        <ele>227.49</ele>
        <time>2024-03-28T14:57:38Z</time>
      </trkpt>
      <trkpt lat="43.7462" lon="4.93193">
        <ele>227.49</ele>
        <time>2024-03-28T14:57:39Z</time>
      </trkpt>
      <trkpt lat="43.74622" lon="4.93198">
        <ele>226.05</ele>
        <time>2024-03-28T14:57:40Z</time>
      </trkpt>
      <trkpt lat="43.74622" lon="4.93204">
        <ele>226.05</ele>
        <time>2024-03-28T14:57:41Z</time>
      </trkpt>
      <trkpt lat="43.74622" lon="4.9321">
        <ele>226.05</ele>
        <time>2024-03-28T14:57:42Z</time>
      </trkpt>
      <trkpt lat="43.74621" lon="4.93215">
        <ele>226.05</ele>
        <time>2024-03-28T14:57:43Z</time>
      </trkpt>
      <trkpt lat="43.7462" lon="4.9322">
        <ele>226.05</ele>
        <time>2024-03-28T14:57:44Z</time>
      </trkpt>
      <trkpt lat="43.74618" lon="4.93225">
        <ele>226.05</ele>
        <time>2024-03-28T14:57:45Z</time>
      </trkpt>
      <trkpt lat="43.74616" lon="4.93274">
        <ele>226.05</ele>
        <time>2024-03-28T14:57:54Z</time>
      </trkpt>
      <trkpt lat="43.74607" lon="4.93314">
        <ele>227.49</ele>
        <time>2024-03-28T14:58:02Z</time>
      </trkpt>
      <trkpt lat="43.74599" lon="4.9335">
        <ele>227.97</ele>
        <time>2024-03-28T14:58:09Z</time>
      </trkpt>
      <trkpt lat="43.746" lon="4.93445">
        <ele>227.97</ele>
        <time>2024-03-28T14:58:25Z</time>
      </trkpt>
      <trkpt lat="43.74603" lon="4.93507">
        <ele>226.05</ele>
        <time>2024-03-28T14:58:36Z</time>
      </trkpt>
      <trkpt lat="43.74606" lon="4.93519">
        <ele>225.09</ele>
        <time>2024-03-28T14:58:38Z</time>
      </trkpt>
      <trkpt lat="43.74607" lon="4.93526">
        <ele>225.09</ele>
        <time>2024-03-28T14:58:39Z</time>
      </trkpt>
      <trkpt lat="43.74608" lon="4.93531">
        <ele>225.09</ele>
        <time>2024-03-28T14:58:40Z</time>
      </trkpt>
      <trkpt lat="43.74608" lon="4.93536">
        <ele>225.09</ele>
        <time>2024-03-28T14:58:41Z</time>
      </trkpt>
      <trkpt lat="43.74609" lon="4.93541">
        <ele>225.09</ele>
        <time>2024-03-28T14:58:42Z</time>
      </trkpt>
      <trkpt lat="43.7461" lon="4.93545">
        <ele>225.09</ele>
        <time>2024-03-28T14:58:43Z</time>
      </trkpt>
      <trkpt lat="43.74614" lon="4.93571">
        <ele>225.09</ele>
        <time>2024-03-28T14:58:48Z</time>
      </trkpt>
      <trkpt lat="43.74613" lon="4.93577">
        <ele>225.09</ele>
        <time>2024-03-28T14:58:49Z</time>
      </trkpt>
      <trkpt lat="43.74613" lon="4.93583">
        <ele>225.09</ele>
        <time>2024-03-28T14:58:50Z</time>
      </trkpt>
      <trkpt lat="43.74612" lon="4.93589">
        <ele>225.09</ele>
        <time>2024-03-28T14:58:51Z</time>
      </trkpt>
      <trkpt lat="43.74612" lon="4.93596">
        <ele>225.09</ele>
        <time>2024-03-28T14:58:52Z</time>
      </trkpt>
      <trkpt lat="43.7461" lon="4.93699">
        <ele>222.68</ele>
        <time>2024-03-28T14:59:07Z</time>
      </trkpt>
      <trkpt lat="43.74609" lon="4.93721">
        <ele>222.2</ele>
        <time>2024-03-28T14:59:10Z</time>
      </trkpt>
      <trkpt lat="43.74606" lon="4.93741">
        <ele>221.72</ele>
        <time>2024-03-28T14:59:13Z</time>
      </trkpt>
      <trkpt lat="43.74583" lon="4.93816">
        <ele>218.84</ele>
        <time>2024-03-28T14:59:25Z</time>
      </trkpt>
      <trkpt lat="43.74567" lon="4.93864">
        <ele>216.43</ele>
        <time>2024-03-28T14:59:37Z</time>
      </trkpt>
      <trkpt lat="43.7455" lon="4.93934">
        <ele>214.99</ele>
        <time>2024-03-28T14:59:49Z</time>
      </trkpt>
      <trkpt lat="43.7455" lon="4.93939">
        <ele>214.51</ele>
        <time>2024-03-28T14:59:50Z</time>
      </trkpt>
      <trkpt lat="43.74551" lon="4.93944">
        <ele>214.51</ele>
        <time>2024-03-28T14:59:51Z</time>
      </trkpt>
      <trkpt lat="43.74553" lon="4.93949">
        <ele>214.51</ele>
        <time>2024-03-28T14:59:52Z</time>
      </trkpt>
      <trkpt lat="43.74555" lon="4.93953">
        <ele>214.51</ele>
        <time>2024-03-28T14:59:53Z</time>
      </trkpt>
      <trkpt lat="43.74558" lon="4.93956">
        <ele>214.51</ele>
        <time>2024-03-28T14:59:54Z</time>
      </trkpt>
      <trkpt lat="43.74561" lon="4.9396">
        <ele>214.51</ele>
        <time>2024-03-28T14:59:55Z</time>
      </trkpt>
      <trkpt lat="43.74564" lon="4.93962">
        <ele>213.55</ele>
        <time>2024-03-28T14:59:56Z</time>
      </trkpt>
      <trkpt lat="43.74568" lon="4.93965">
        <ele>213.55</ele>
        <time>2024-03-28T14:59:57Z</time>
      </trkpt>
      <trkpt lat="43.74571" lon="4.93967">
        <ele>213.07</ele>
        <time>2024-03-28T14:59:58Z</time>
      </trkpt>
      <trkpt lat="43.74575" lon="4.93968">
        <ele>212.11</ele>
        <time>2024-03-28T14:59:59Z</time>
      </trkpt>
      <trkpt lat="43.74578" lon="4.93968">
        <ele>212.11</ele>
        <time>2024-03-28T15:00:00Z</time>
      </trkpt>
      <trkpt lat="43.74597" lon="4.93953">
        <ele>210.19</ele>
        <time>2024-03-28T15:00:07Z</time>
      </trkpt>
      <trkpt lat="43.74619" lon="4.93911">
        <ele>209.22</ele>
        <time>2024-03-28T15:00:17Z</time>
      </trkpt>
      <trkpt lat="43.74642" lon="4.93893">
        <ele>208.26</ele>
        <time>2024-03-28T15:00:24Z</time>
      </trkpt>
      <trkpt lat="43.74661" lon="4.93904">
        <ele>206.34</ele>
        <time>2024-03-28T15:00:30Z</time>
      </trkpt>
      <trkpt lat="43.74661" lon="4.93908">
        <ele>205.86</ele>
        <time>2024-03-28T15:00:31Z</time>
      </trkpt>
      <trkpt lat="43.7466" lon="4.9391">
        <ele>205.86</ele>
        <time>2024-03-28T15:00:32Z</time>
      </trkpt>
      <trkpt lat="43.7466" lon="4.93912">
        <ele>205.86</ele>
        <time>2024-03-28T15:00:39Z</time>
      </trkpt>
      <trkpt lat="43.74659" lon="4.93912">
        <ele>205.86</ele>
        <time>2024-03-28T15:00:53Z</time>
      </trkpt>
      <trkpt lat="43.74658" lon="4.93912">
        <ele>205.86</ele>
        <time>2024-03-28T15:00:54Z</time>
      </trkpt>
      <trkpt lat="43.74637" lon="4.93916">
        <ele>204.9</ele>
        <time>2024-03-28T15:01:01Z</time>
      </trkpt>
      <trkpt lat="43.74627" lon="4.93931">
        <ele>204.9</ele>
        <time>2024-03-28T15:01:05Z</time>
      </trkpt>
      <trkpt lat="43.74628" lon="4.93935">
        <ele>204.9</ele>
        <time>2024-03-28T15:01:06Z</time>
      </trkpt>
      <trkpt lat="43.7463" lon="4.93939">
        <ele>203.94</ele>
        <time>2024-03-28T15:01:07Z</time>
      </trkpt>
      <trkpt lat="43.74634" lon="4.93942">
        <ele>202.98</ele>
        <time>2024-03-28T15:01:08Z</time>
      </trkpt>
      <trkpt lat="43.74638" lon="4.93942">
        <ele>202.49</ele>
        <time>2024-03-28T15:01:09Z</time>
      </trkpt>
      <trkpt lat="43.74643" lon="4.93942">
        <ele>202.01</ele>
        <time>2024-03-28T15:01:10Z</time>
      </trkpt>
      <trkpt lat="43.74649" lon="4.93942">
        <ele>200.57</ele>
        <time>2024-03-28T15:01:11Z</time>
      </trkpt>
      <trkpt lat="43.74654" lon="4.93944">
        <ele>200.09</ele>
        <time>2024-03-28T15:01:12Z</time>
      </trkpt>
      <trkpt lat="43.74664" lon="4.93949">
        <ele>199.13</ele>
        <time>2024-03-28T15:01:14Z</time>
      </trkpt>
      <trkpt lat="43.7467" lon="4.93949">
        <ele>198.17</ele>
        <time>2024-03-28T15:01:15Z</time>
      </trkpt>
      <trkpt lat="43.74676" lon="4.93948">
        <ele>197.21</ele>
        <time>2024-03-28T15:01:16Z</time>
      </trkpt>
      <trkpt lat="43.74694" lon="4.93941">
        <ele>195.77</ele>
        <time>2024-03-28T15:01:19Z</time>
      </trkpt>
      <trkpt lat="43.74701" lon="4.9394">
        <ele>194.8</ele>
        <time>2024-03-28T15:01:20Z</time>
      </trkpt>
      <trkpt lat="43.74707" lon="4.93942">
        <ele>194.32</ele>
        <time>2024-03-28T15:01:21Z</time>
      </trkpt>
      <trkpt lat="43.74714" lon="4.93944">
        <ele>193.84</ele>
        <time>2024-03-28T15:01:22Z</time>
      </trkpt>
      <trkpt lat="43.74722" lon="4.93946">
        <ele>192.88</ele>
        <time>2024-03-28T15:01:23Z</time>
      </trkpt>
      <trkpt lat="43.74752" lon="4.93955">
        <ele>189.04</ele>
        <time>2024-03-28T15:01:27Z</time>
      </trkpt>
      <trkpt lat="43.74773" lon="4.93961">
        <ele>186.15</ele>
        <time>2024-03-28T15:01:30Z</time>
      </trkpt>
      <trkpt lat="43.7478" lon="4.9396">
        <ele>185.67</ele>
        <time>2024-03-28T15:01:31Z</time>
      </trkpt>
      <trkpt lat="43.74786" lon="4.93957">
        <ele>184.23</ele>
        <time>2024-03-28T15:01:32Z</time>
      </trkpt>
      <trkpt lat="43.74792" lon="4.93954">
        <ele>184.71</ele>
        <time>2024-03-28T15:01:33Z</time>
      </trkpt>
      <trkpt lat="43.74803" lon="4.93949">
        <ele>183.75</ele>
        <time>2024-03-28T15:01:35Z</time>
      </trkpt>
      <trkpt lat="43.74809" lon="4.93949">
        <ele>183.75</ele>
        <time>2024-03-28T15:01:36Z</time>
      </trkpt>
      <trkpt lat="43.74815" lon="4.9395">
        <ele>183.75</ele>
        <time>2024-03-28T15:01:37Z</time>
      </trkpt>
      <trkpt lat="43.7482" lon="4.93953">
        <ele>183.75</ele>
        <time>2024-03-28T15:01:38Z</time>
      </trkpt>
      <trkpt lat="43.74825" lon="4.93956">
        <ele>183.75</ele>
        <time>2024-03-28T15:01:39Z</time>
      </trkpt>
      <trkpt lat="43.74829" lon="4.93961">
        <ele>183.75</ele>
        <time>2024-03-28T15:01:40Z</time>
      </trkpt>
      <trkpt lat="43.74843" lon="4.93973">
        <ele>183.75</ele>
        <time>2024-03-28T15:01:43Z</time>
      </trkpt>
      <trkpt lat="43.74861" lon="4.93985">
        <ele>180.87</ele>
        <time>2024-03-28T15:01:46Z</time>
      </trkpt>
      <trkpt lat="43.74873" lon="4.93994">
        <ele>179.9</ele>
        <time>2024-03-28T15:01:48Z</time>
      </trkpt>
      <trkpt lat="43.74883" lon="4.94005">
        <ele>177.98</ele>
        <time>2024-03-28T15:01:50Z</time>
      </trkpt>
      <trkpt lat="43.74897" lon="4.9402">
        <ele>176.54</ele>
        <time>2024-03-28T15:01:53Z</time>
      </trkpt>
      <trkpt lat="43.74903" lon="4.94024">
        <ele>175.58</ele>
        <time>2024-03-28T15:01:54Z</time>
      </trkpt>
      <trkpt lat="43.7491" lon="4.94026">
        <ele>174.62</ele>
        <time>2024-03-28T15:01:55Z</time>
      </trkpt>
      <trkpt lat="43.74916" lon="4.94029">
        <ele>173.66</ele>
        <time>2024-03-28T15:01:56Z</time>
      </trkpt>
      <trkpt lat="43.74921" lon="4.94033">
        <ele>172.69</ele>
        <time>2024-03-28T15:01:57Z</time>
      </trkpt>
      <trkpt lat="43.74927" lon="4.94038">
        <ele>171.73</ele>
        <time>2024-03-28T15:01:58Z</time>
      </trkpt>
      <trkpt lat="43.74932" lon="4.9404">
        <ele>170.77</ele>
        <time>2024-03-28T15:01:59Z</time>
      </trkpt>
      <trkpt lat="43.74938" lon="4.94043">
        <ele>170.29</ele>
        <time>2024-03-28T15:02:00Z</time>
      </trkpt>
      <trkpt lat="43.74944" lon="4.94045">
        <ele>169.81</ele>
        <time>2024-03-28T15:02:01Z</time>
      </trkpt>
      <trkpt lat="43.7495" lon="4.94048">
        <ele>168.85</ele>
        <time>2024-03-28T15:02:02Z</time>
      </trkpt>
      <trkpt lat="43.74956" lon="4.94051">
        <ele>168.37</ele>
        <time>2024-03-28T15:02:03Z</time>
      </trkpt>
      <trkpt lat="43.75003" lon="4.94081">
        <ele>166.45</ele>
        <time>2024-03-28T15:02:12Z</time>
      </trkpt>
      <trkpt lat="43.75014" lon="4.94106">
        <ele>166.93</ele>
        <time>2024-03-28T15:02:20Z</time>
      </trkpt>
      <trkpt lat="43.7502" lon="4.94133">
        <ele>168.37</ele>
        <time>2024-03-28T15:02:28Z</time>
      </trkpt>
      <trkpt lat="43.75021" lon="4.94135">
        <ele>168.85</ele>
        <time>2024-03-28T15:02:38Z</time>
      </trkpt>
      <trkpt lat="43.75021" lon="4.94135">
        <ele>168.85</ele>
        <time>2024-03-28T15:03:02Z</time>
      </trkpt>
      <trkpt lat="43.75022" lon="4.9414">
        <ele>168.85</ele>
        <time>2024-03-28T15:03:13Z</time>
      </trkpt>
      <trkpt lat="43.75027" lon="4.94172">
        <ele>167.41</ele>
        <time>2024-03-28T15:03:20Z</time>
      </trkpt>
      <trkpt lat="43.75032" lon="4.94191">
        <ele>165.96</ele>
        <time>2024-03-28T15:03:23Z</time>
      </trkpt>
      <trkpt lat="43.75037" lon="4.94204">
        <ele>165.48</ele>
        <time>2024-03-28T15:03:25Z</time>
      </trkpt>
      <trkpt lat="43.75041" lon="4.9421">
        <ele>165</ele>
        <time>2024-03-28T15:03:26Z</time>
      </trkpt>
      <trkpt lat="43.75044" lon="4.94215">
        <ele>165</ele>
        <time>2024-03-28T15:03:27Z</time>
      </trkpt>
      <trkpt lat="43.75048" lon="4.9422">
        <ele>165</ele>
        <time>2024-03-28T15:03:28Z</time>
      </trkpt>
      <trkpt lat="43.75052" lon="4.94224">
        <ele>164.04</ele>
        <time>2024-03-28T15:03:29Z</time>
      </trkpt>
      <trkpt lat="43.75057" lon="4.94229">
        <ele>164.04</ele>
        <time>2024-03-28T15:03:30Z</time>
      </trkpt>
      <trkpt lat="43.7506" lon="4.94236">
        <ele>163.56</ele>
        <time>2024-03-28T15:03:31Z</time>
      </trkpt>
      <trkpt lat="43.75067" lon="4.94248">
        <ele>162.6</ele>
        <time>2024-03-28T15:03:33Z</time>
      </trkpt>
      <trkpt lat="43.7507" lon="4.94253">
        <ele>162.6</ele>
        <time>2024-03-28T15:03:34Z</time>
      </trkpt>
      <trkpt lat="43.75074" lon="4.94257">
        <ele>161.64</ele>
        <time>2024-03-28T15:03:35Z</time>
      </trkpt>
      <trkpt lat="43.75079" lon="4.9426">
        <ele>161.64</ele>
        <time>2024-03-28T15:03:36Z</time>
      </trkpt>
      <trkpt lat="43.75081" lon="4.94262">
        <ele>161.64</ele>
        <time>2024-03-28T15:03:37Z</time>
      </trkpt>
      <trkpt lat="43.75094" lon="4.94265">
        <ele>161.16</ele>
        <time>2024-03-28T15:03:44Z</time>
      </trkpt>
      <trkpt lat="43.75091" lon="4.94268">
        <ele>161.16</ele>
        <time>2024-03-28T15:03:54Z</time>
      </trkpt>
      <trkpt lat="43.7509" lon="4.9427">
        <ele>161.16</ele>
        <time>2024-03-28T15:03:57Z</time>
      </trkpt>
      <trkpt lat="43.75088" lon="4.94271">
        <ele>161.16</ele>
        <time>2024-03-28T15:03:59Z</time>
      </trkpt>
      <trkpt lat="43.75086" lon="4.94274">
        <ele>161.16</ele>
        <time>2024-03-28T15:04:00Z</time>
      </trkpt>
      <trkpt lat="43.75085" lon="4.94276">
        <ele>161.16</ele>
        <time>2024-03-28T15:04:01Z</time>
      </trkpt>
      <trkpt lat="43.75085" lon="4.9428">
        <ele>161.16</ele>
        <time>2024-03-28T15:04:02Z</time>
      </trkpt>
      <trkpt lat="43.75085" lon="4.94283">
        <ele>161.16</ele>
        <time>2024-03-28T15:04:03Z</time>
      </trkpt>
      <trkpt lat="43.75094" lon="4.94322">
        <ele>161.16</ele>
        <time>2024-03-28T15:04:11Z</time>
      </trkpt>
      <trkpt lat="43.75097" lon="4.94327">
        <ele>161.16</ele>
        <time>2024-03-28T15:04:12Z</time>
      </trkpt>
      <trkpt lat="43.751" lon="4.94332">
        <ele>161.16</ele>
        <time>2024-03-28T15:04:13Z</time>
      </trkpt>
      <trkpt lat="43.75104" lon="4.94336">
        <ele>160.68</ele>
        <time>2024-03-28T15:04:14Z</time>
      </trkpt>
      <trkpt lat="43.75109" lon="4.94338">
        <ele>160.68</ele>
        <time>2024-03-28T15:04:15Z</time>
      </trkpt>
      <trkpt lat="43.75114" lon="4.94339">
        <ele>159.72</ele>
        <time>2024-03-28T15:04:16Z</time>
      </trkpt>
      <trkpt lat="43.75119" lon="4.9434">
        <ele>159.24</ele>
        <time>2024-03-28T15:04:17Z</time>
      </trkpt>
      <trkpt lat="43.75125" lon="4.94343">
        <ele>158.75</ele>
        <time>2024-03-28T15:04:18Z</time>
      </trkpt>
      <trkpt lat="43.7513" lon="4.94347">
        <ele>158.27</ele>
        <time>2024-03-28T15:04:19Z</time>
      </trkpt>
      <trkpt lat="43.75135" lon="4.94352">
        <ele>157.79</ele>
        <time>2024-03-28T15:04:20Z</time>
      </trkpt>
      <trkpt lat="43.75139" lon="4.94358">
        <ele>157.79</ele>
        <time>2024-03-28T15:04:21Z</time>
      </trkpt>
      <trkpt lat="43.75143" lon="4.94365">
        <ele>156.83</ele>
        <time>2024-03-28T15:04:22Z</time>
      </trkpt>
      <trkpt lat="43.75145" lon="4.94372">
        <ele>156.83</ele>
        <time>2024-03-28T15:04:23Z</time>
      </trkpt>
      <trkpt lat="43.75148" lon="4.94379">
        <ele>156.35</ele>
        <time>2024-03-28T15:04:24Z</time>
      </trkpt>
      <trkpt lat="43.7515" lon="4.94385">
        <ele>156.83</ele>
        <time>2024-03-28T15:04:25Z</time>
      </trkpt>
      <trkpt lat="43.75154" lon="4.94392">
        <ele>155.87</ele>
        <time>2024-03-28T15:04:26Z</time>
      </trkpt>
      <trkpt lat="43.75158" lon="4.94397">
        <ele>155.87</ele>
        <time>2024-03-28T15:04:27Z</time>
      </trkpt>
      <trkpt lat="43.75162" lon="4.94401">
        <ele>155.87</ele>
        <time>2024-03-28T15:04:28Z</time>
      </trkpt>
      <trkpt lat="43.75167" lon="4.94405">
        <ele>155.39</ele>
        <time>2024-03-28T15:04:29Z</time>
      </trkpt>
      <trkpt lat="43.75171" lon="4.9441">
        <ele>155.39</ele>
        <time>2024-03-28T15:04:30Z</time>
      </trkpt>
      <trkpt lat="43.75173" lon="4.94416">
        <ele>154.91</ele>
        <time>2024-03-28T15:04:31Z</time>
      </trkpt>
      <trkpt lat="43.75175" lon="4.94423">
        <ele>153.95</ele>
        <time>2024-03-28T15:04:32Z</time>
      </trkpt>
      <trkpt lat="43.75176" lon="4.94428">
        <ele>153.47</ele>
        <time>2024-03-28T15:04:33Z</time>
      </trkpt>
      <trkpt lat="43.75187" lon="4.94448">
        <ele>152.51</ele>
        <time>2024-03-28T15:04:39Z</time>
      </trkpt>
      <trkpt lat="43.75205" lon="4.94465">
        <ele>151.06</ele>
        <time>2024-03-28T15:04:47Z</time>
      </trkpt>
      <trkpt lat="43.75208" lon="4.94469">
        <ele>150.58</ele>
        <time>2024-03-28T15:04:48Z</time>
      </trkpt>
      <trkpt lat="43.75211" lon="4.94473">
        <ele>150.58</ele>
        <time>2024-03-28T15:04:49Z</time>
      </trkpt>
      <trkpt lat="43.75226" lon="4.94494">
        <ele>149.14</ele>
        <time>2024-03-28T15:04:53Z</time>
      </trkpt>
      <trkpt lat="43.7523" lon="4.94499">
        <ele>148.66</ele>
        <time>2024-03-28T15:04:54Z</time>
      </trkpt>
      <trkpt lat="43.75236" lon="4.94503">
        <ele>148.18</ele>
        <time>2024-03-28T15:04:55Z</time>
      </trkpt>
      <trkpt lat="43.75279" lon="4.94539">
        <ele>145.3</ele>
        <time>2024-03-28T15:05:03Z</time>
      </trkpt>
      <trkpt lat="43.75318" lon="4.94574">
        <ele>142.41</ele>
        <time>2024-03-28T15:05:10Z</time>
      </trkpt>
      <trkpt lat="43.75323" lon="4.94578">
        <ele>142.41</ele>
        <time>2024-03-28T15:05:11Z</time>
      </trkpt>
      <trkpt lat="43.7534" lon="4.94587">
        <ele>140.49</ele>
        <time>2024-03-28T15:05:14Z</time>
      </trkpt>
      <trkpt lat="43.75347" lon="4.94588">
        <ele>140.49</ele>
        <time>2024-03-28T15:05:15Z</time>
      </trkpt>
      <trkpt lat="43.75353" lon="4.9459">
        <ele>140.01</ele>
        <time>2024-03-28T15:05:16Z</time>
      </trkpt>
      <trkpt lat="43.75359" lon="4.94593">
        <ele>139.53</ele>
        <time>2024-03-28T15:05:17Z</time>
      </trkpt>
      <trkpt lat="43.75362" lon="4.94599">
        <ele>139.05</ele>
        <time>2024-03-28T15:05:18Z</time>
      </trkpt>
      <trkpt lat="43.75364" lon="4.94606">
        <ele>139.05</ele>
        <time>2024-03-28T15:05:19Z</time>
      </trkpt>
      <trkpt lat="43.75366" lon="4.94612">
        <ele>138.57</ele>
        <time>2024-03-28T15:05:20Z</time>
      </trkpt>
      <trkpt lat="43.75369" lon="4.94617">
        <ele>138.57</ele>
        <time>2024-03-28T15:05:21Z</time>
      </trkpt>
      <trkpt lat="43.75372" lon="4.94619">
        <ele>138.09</ele>
        <time>2024-03-28T15:05:22Z</time>
      </trkpt>
      <trkpt lat="43.75375" lon="4.9462">
        <ele>137.61</ele>
        <time>2024-03-28T15:05:23Z</time>
      </trkpt>
      <trkpt lat="43.75378" lon="4.9462">
        <ele>137.61</ele>
        <time>2024-03-28T15:05:24Z</time>
      </trkpt>
      <trkpt lat="43.75381" lon="4.94621">
        <ele>137.13</ele>
        <time>2024-03-28T15:05:25Z</time>
      </trkpt>
      <trkpt lat="43.75384" lon="4.9462">
        <ele>137.13</ele>
        <time>2024-03-28T15:05:26Z</time>
      </trkpt>
      <trkpt lat="43.75387" lon="4.9462">
        <ele>137.13</ele>
        <time>2024-03-28T15:05:27Z</time>
      </trkpt>
      <trkpt lat="43.75423" lon="4.94611">
        <ele>135.68</ele>
        <time>2024-03-28T15:05:37Z</time>
      </trkpt>
      <trkpt lat="43.7549" lon="4.94598">
        <ele>133.28</ele>
        <time>2024-03-28T15:05:50Z</time>
      </trkpt>
      <trkpt lat="43.75502" lon="4.94597">
        <ele>132.32</ele>
        <time>2024-03-28T15:05:52Z</time>
      </trkpt>
      <trkpt lat="43.75507" lon="4.94598">
        <ele>132.32</ele>
        <time>2024-03-28T15:05:53Z</time>
      </trkpt>
      <trkpt lat="43.75512" lon="4.946">
        <ele>131.84</ele>
        <time>2024-03-28T15:05:54Z</time>
      </trkpt>
      <trkpt lat="43.75517" lon="4.94603">
        <ele>130.88</ele>
        <time>2024-03-28T15:05:55Z</time>
      </trkpt>
      <trkpt lat="43.75522" lon="4.94607">
        <ele>130.88</ele>
        <time>2024-03-28T15:05:56Z</time>
      </trkpt>
      <trkpt lat="43.75574" lon="4.94641">
        <ele>129.43</ele>
        <time>2024-03-28T15:06:06Z</time>
      </trkpt>
      <trkpt lat="43.75587" lon="4.94653">
        <ele>128.95</ele>
        <time>2024-03-28T15:06:09Z</time>
      </trkpt>
      <trkpt lat="43.75591" lon="4.94656">
        <ele>128.95</ele>
        <time>2024-03-28T15:06:10Z</time>
      </trkpt>
      <trkpt lat="43.75596" lon="4.94658">
        <ele>128.95</ele>
        <time>2024-03-28T15:06:11Z</time>
      </trkpt>
      <trkpt lat="43.756" lon="4.94658">
        <ele>128.47</ele>
        <time>2024-03-28T15:06:12Z</time>
      </trkpt>
      <trkpt lat="43.75603" lon="4.94656">
        <ele>128.47</ele>
        <time>2024-03-28T15:06:13Z</time>
      </trkpt>
      <trkpt lat="43.75605" lon="4.94651">
        <ele>128.47</ele>
        <time>2024-03-28T15:06:15Z</time>
      </trkpt>
      <trkpt lat="43.75608" lon="4.94643">
        <ele>128.47</ele>
        <time>2024-03-28T15:06:16Z</time>
      </trkpt>
      <trkpt lat="43.75628" lon="4.94587">
        <ele>126.55</ele>
        <time>2024-03-28T15:06:25Z</time>
      </trkpt>
      <trkpt lat="43.75633" lon="4.94583">
        <ele>126.55</ele>
        <time>2024-03-28T15:06:26Z</time>
      </trkpt>
      <trkpt lat="43.75638" lon="4.94581">
        <ele>126.55</ele>
        <time>2024-03-28T15:06:27Z</time>
      </trkpt>
      <trkpt lat="43.75644" lon="4.94581">
        <ele>126.55</ele>
        <time>2024-03-28T15:06:28Z</time>
      </trkpt>
      <trkpt lat="43.75649" lon="4.94581">
        <ele>126.55</ele>
        <time>2024-03-28T15:06:29Z</time>
      </trkpt>
      <trkpt lat="43.75654" lon="4.9458">
        <ele>126.55</ele>
        <time>2024-03-28T15:06:30Z</time>
      </trkpt>
      <trkpt lat="43.75659" lon="4.94578">
        <ele>126.55</ele>
        <time>2024-03-28T15:06:31Z</time>
      </trkpt>
      <trkpt lat="43.75664" lon="4.94574">
        <ele>126.07</ele>
        <time>2024-03-28T15:06:32Z</time>
      </trkpt>
      <trkpt lat="43.75668" lon="4.94569">
        <ele>126.07</ele>
        <time>2024-03-28T15:06:33Z</time>
      </trkpt>
      <trkpt lat="43.75672" lon="4.94564">
        <ele>126.07</ele>
        <time>2024-03-28T15:06:34Z</time>
      </trkpt>
      <trkpt lat="43.75675" lon="4.94559">
        <ele>125.59</ele>
        <time>2024-03-28T15:06:35Z</time>
      </trkpt>
      <trkpt lat="43.75693" lon="4.9454">
        <ele>125.59</ele>
        <time>2024-03-28T15:06:43Z</time>
      </trkpt>
      <trkpt lat="43.75712" lon="4.94536">
        <ele>124.63</ele>
        <time>2024-03-28T15:06:50Z</time>
      </trkpt>
      <trkpt lat="43.75756" lon="4.94539">
        <ele>122.71</ele>
        <time>2024-03-28T15:07:01Z</time>
      </trkpt>
      <trkpt lat="43.75826" lon="4.94536">
        <ele>120.78</ele>
        <time>2024-03-28T15:07:14Z</time>
      </trkpt>
      <trkpt lat="43.75893" lon="4.94518">
        <ele>118.38</ele>
        <time>2024-03-28T15:07:25Z</time>
      </trkpt>
      <trkpt lat="43.75973" lon="4.94494">
        <ele>115.01</ele>
        <time>2024-03-28T15:07:38Z</time>
      </trkpt>
      <trkpt lat="43.76056" lon="4.94471">
        <ele>112.61</ele>
        <time>2024-03-28T15:07:52Z</time>
      </trkpt>
      <trkpt lat="43.7606" lon="4.94471">
        <ele>112.13</ele>
        <time>2024-03-28T15:07:53Z</time>
      </trkpt>
      <trkpt lat="43.76063" lon="4.94471">
        <ele>112.13</ele>
        <time>2024-03-28T15:07:54Z</time>
      </trkpt>
      <trkpt lat="43.76065" lon="4.94471">
        <ele>112.13</ele>
        <time>2024-03-28T15:07:55Z</time>
      </trkpt>
      <trkpt lat="43.76066" lon="4.94471">
        <ele>112.13</ele>
        <time>2024-03-28T15:07:56Z</time>
      </trkpt>
      <trkpt lat="43.76068" lon="4.94471">
        <ele>112.13</ele>
        <time>2024-03-28T15:07:57Z</time>
      </trkpt>
      <trkpt lat="43.76071" lon="4.94471">
        <ele>112.13</ele>
        <time>2024-03-28T15:07:58Z</time>
      </trkpt>
      <trkpt lat="43.76074" lon="4.9447">
        <ele>112.13</ele>
        <time>2024-03-28T15:07:59Z</time>
      </trkpt>
      <trkpt lat="43.76077" lon="4.94469">
        <ele>112.13</ele>
        <time>2024-03-28T15:08:00Z</time>
      </trkpt>
      <trkpt lat="43.76084" lon="4.94469">
        <ele>112.13</ele>
        <time>2024-03-28T15:08:02Z</time>
      </trkpt>
      <trkpt lat="43.76087" lon="4.9447">
        <ele>111.17</ele>
        <time>2024-03-28T15:08:03Z</time>
      </trkpt>
      <trkpt lat="43.7609" lon="4.94485">
        <ele>111.17</ele>
        <time>2024-03-28T15:08:07Z</time>
      </trkpt>
      <trkpt lat="43.76089" lon="4.94488">
        <ele>111.17</ele>
        <time>2024-03-28T15:08:08Z</time>
      </trkpt>
      <trkpt lat="43.76093" lon="4.94493">
        <ele>111.17</ele>
        <time>2024-03-28T15:08:14Z</time>
      </trkpt>
      <trkpt lat="43.76091" lon="4.94493">
        <ele>111.17</ele>
        <time>2024-03-28T15:08:32Z</time>
      </trkpt>
      <trkpt lat="43.76092" lon="4.94494">
        <ele>111.17</ele>
        <time>2024-03-28T15:08:40Z</time>
      </trkpt>
      <trkpt lat="43.76092" lon="4.94494">
        <ele>113.09</ele>
        <time>2024-03-28T15:08:47Z</time>
      </trkpt>
      <trkpt lat="43.76092" lon="4.94495">
        <ele>111.17</ele>
        <time>2024-03-28T15:09:09Z</time>
      </trkpt>
      <trkpt lat="43.76091" lon="4.94496">
        <ele>111.17</ele>
        <time>2024-03-28T15:09:32Z</time>
      </trkpt>
      <trkpt lat="43.7609" lon="4.94495">
        <ele>111.17</ele>
        <time>2024-03-28T15:10:02Z</time>
      </trkpt>
      <trkpt lat="43.76091" lon="4.94495">
        <ele>111.17</ele>
        <time>2024-03-28T15:10:37Z</time>
      </trkpt>
      <trkpt lat="43.7609" lon="4.94495">
        <ele>111.17</ele>
        <time>2024-03-28T15:11:08Z</time>
      </trkpt>
      <trkpt lat="43.76092" lon="4.94495">
        <ele>112.13</ele>
        <time>2024-03-28T15:11:43Z</time>
      </trkpt>
      <trkpt lat="43.76092" lon="4.94496">
        <ele>112.13</ele>
        <time>2024-03-28T15:12:11Z</time>
      </trkpt>
      <trkpt lat="43.76093" lon="4.94492">
        <ele>111.17</ele>
        <time>2024-03-28T15:12:23Z</time>
      </trkpt>
      <trkpt lat="43.76092" lon="4.94492">
        <ele>110.21</ele>
        <time>2024-03-28T15:12:36Z</time>
      </trkpt>
    </trkseg>
  </trk>
</gpx>